# Wetter Temperatur Luftdruck Luftfeuchtigkeit Sichtweite Windgeschwindigkeit Windrichtung Zeit
1 Clouds 15 1020 54 10000 0.5 0 19:59 17.10.2019
2 Clouds 15 1020 54 10000 0.5 0 19:59 17.10.2019
3 Clouds 15 1020 55 10000 2.1 50 19:40 17.10.2019
4 Clouds 16 1020 51 10000 3.1 60 19:20 17.10.2019
5 Clouds 16 1020 51 10000 3.1 60 18:58 17.10.2019
6 Clouds 16 1020 45 10000 4.1 50 18:38 17.10.2019
7 Clouds 17 1020 45 10000 3.1 40 18:20 17.10.2019
8 Clouds 18 1019 77 10000 2.6 340 17:42 17.10.2019
9 Clouds 17 1020 42 10000 1 0 17:23 17.10.2019
10 Clouds 18 1020 42 10000 1 0 16:57 17.10.2019
11 -273 0 0 0 0 0 16:39 17.10.2019
12 Thunderstorm 19 1021 77 10000 3.1 270 16:18 17.10.2019
13 Clouds 20 1021 72 10000 4.1 160 15:56 17.10.2019
14 Clouds 20 1021 72 10000 4.1 160 15:38 17.10.2019
15 Clouds 22 1020 33 10000 5.1 90 15:19 17.10.2019
16 Thunderstorm 23 1019 40 10000 4.1 280 14:54 17.10.2019
17 Thunderstorm 23 1019 40 10000 4.1 280 14:36 17.10.2019
18 Clouds 24 1019 36 10000 5.1 270 14:18 17.10.2019
19 Clouds 24 1020 31 10000 4.1 210 13:39 17.10.2019
20 Clouds 24 1020 31 10000 4.6 230 13:19 17.10.2019
21 Clouds 23 1020 33 10000 4.1 210 12:43 17.10.2019
22 Clouds 23 1020 38 10000 2.6 320 12:21 17.10.2019
23 Clouds 22 1020 29 10000 2.1 0 11:59 17.10.2019
24 Clouds 22 1020 29 10000 2.1 0 11:41 17.10.2019
25 Clouds 22 1020 29 10000 2.1 0 11:41 17.10.2019
26 Clouds 22 1020 29 10000 2.1 0 11:41 17.10.2019
27 Clouds 22 1020 29 10000 2.1 0 11:41 17.10.2019
28 Clouds 20 1021 33 10000 2.1 250 11:20 17.10.2019
29 Clouds 19 1021 35 10000 2.527 167 10:56 17.10.2019
30 Clouds 19 1021 35 10000 2.527 167 10:56 17.10.2019
31 Clouds 19 1021 35 10000 2.527 167 10:38 17.10.2019
32 Clouds 18 1021 37 10000 2.527 167 10:19 17.10.2019
33 Clouds 16 1021 42 10000 0.5 0 09:54 17.10.2019
34 Clouds 16 1021 42 10000 0.5 0 09:36 17.10.2019
35 Clouds 15 1021 48 10000 1.143 71 09:18 17.10.2019
36 Clouds 15 1021 48 10000 1.143 71 09:18 17.10.2019
37 Clouds 15 1021 50 10000 1.143 71 08:42 17.10.2019
38 -273 0 0 0 0 0 08:24 17.10.2019
39 Clouds 11 1021 61 10000 0.5 0 07:56 17.10.2019
40 Clouds 11 1021 61 10000 0.5 0 07:37 17.10.2019
41 Clouds 10 1020 81 10000 1.143 71 07:18 17.10.2019
42 Clouds 10 1020 81 10000 1.143 71 07:18 17.10.2019
43 Clouds 9 1021 70 10000 1 0 06:40 17.10.2019
44 Clouds 9 1020 81 10000 0.798 86 06:21 17.10.2019
45 Clear 9 1020 65 10000 0.5 0 05:54 17.10.2019
46 Clear 10 1020 65 10000 0.5 0 05:32 17.10.2019
47 Clear 10 1020 66 10000 1.5 50 04:56 17.10.2019
48 Clear 11 1020 61 10000 2.1 120 03:55 17.10.2019
49 Clouds 11 1020 61 10000 0.434 279 02:50 17.10.2019
50 Clouds 12 1020 61 10000 2.1 30 01:31 17.10.2019
51 Clouds 12 1021 61 10000 1.5 360 00:40 17.10.2019
52 Clouds 12 1020 66 10000 0.5 0 00:19 17.10.2019
53 Clouds 13 1021 58 10000 0.605 83 23:42 16.10.2019
54 Clouds 13 1021 71 10000 1 0 23:21 16.10.2019
55 -273 0 0 0 0 0 22:56 16.10.2019
56 Clouds 14 1020 62 10000 1 0 22:37 16.10.2019
57 Clouds 14 1020 62 10000 0.605 83 22:19 16.10.2019
58 Clouds 14 1020 62 10000 0.605 83 22:19 16.10.2019
59 Clouds 14 1020 62 10000 0.605 83 21:57 16.10.2019
60 Rain 13 1020 54 10000 1 60 21:37 16.10.2019
61 Clouds 15 1020 51 10000 1 0 21:19 16.10.2019
62 Clouds 15 1020 51 10000 1 0 20:58 16.10.2019
63 Clouds 15 1020 51 10000 1 0 20:39 16.10.2019
64 Clouds 17 1020 45 10000 1 0 20:20 16.10.2019
65 Clouds 17 1020 45 10000 1 0 19:58 16.10.2019
66 Clouds 17 1019 45 10000 0.5 0 19:38 16.10.2019
67 Clouds 17 1019 51 10000 1.5 220 19:20 16.10.2019
68 Clouds 17 1019 51 10000 1.5 220 19:20 16.10.2019
69 Clouds 20 1019 37 10000 2.6 150 18:39 16.10.2019
70 Clouds 20 1019 45 10000 1.816 89 18:20 16.10.2019
71 Clouds 21 1019 45 10000 1.816 89 17:58 16.10.2019
72 Clouds 21 1019 45 10000 1.816 89 17:58 16.10.2019
73 Clouds 22 1019 37 10000 2.1 180 17:39 16.10.2019
74 Clouds 23 1018 35 10000 2.1 180 17:21 16.10.2019
75 Clouds 22 1018 35 10000 2.1 180 16:59 16.10.2019
76 Clouds 23 1018 35 10000 2.6 200 16:41 16.10.2019
77 Clouds 23 1018 35 10000 2.6 200 16:41 16.10.2019
78 Clouds 23 1018 31 10000 3.6 210 16:21 16.10.2019
79 -273 0 0 0 0 0 15:56 16.10.2019
80 Clouds 23 1018 31 10000 3.6 210 15:56 16.10.2019
81 Clouds 23 1018 31 10000 3.6 210 15:56 16.10.2019
82 Clouds 24 1019 29 10000 3.1 190 15:38 16.10.2019
83 Clouds 24 1019 25 10000 2.1 210 15:18 16.10.2019
84 Clouds 24 1019 25 10000 2.1 210 14:56 16.10.2019
85 Clouds 24 1019 25 10000 2.1 210 14:56 16.10.2019
86 Clouds 25 1019 25 10000 2.1 210 14:37 16.10.2019
87 Clouds 25 1019 31 10000 4.1 220 14:18 16.10.2019
88 Clouds 25 1019 24 10000 2.6 210 13:56 16.10.2019
89 Clouds 25 1019 24 10000 2.6 210 13:36 16.10.2019
90 Clouds 25 1020 33 10000 4.1 270 13:18 16.10.2019
91 Clouds 25 1020 20 10000 4.1 210 12:40 16.10.2019
92 Clouds 24 1020 31 10000 4.1 190 12:18 16.10.2019
93 Clouds 24 1020 22 10000 3.6 240 11:43 16.10.2019
94 Clouds 22 1021 20 10000 1.5 220 11:18 16.10.2019
95 Clouds 22 1021 22 10000 1 0 10:39 16.10.2019
96 Clouds 19 1021 22 10000 1.5 190 10:20 16.10.2019
97 Clouds 19 1021 25 10000 0.5 290 09:56 16.10.2019
98 Clouds 19 1021 25 10000 0.5 290 09:38 16.10.2019
99 Clouds 19 1020 34 10000 1.218 118 09:19 16.10.2019
100 Clouds 16 1021 35 10000 1.218 118 08:43 16.10.2019
101 Clouds 15 1020 47 10000 1.218 118 08:24 16.10.2019
102 Clouds 12 1021 40 10000 1 0 07:46 16.10.2019
103 Clouds 12 1020 54 10000 1.218 118 07:25 16.10.2019
104 Clouds 12 1020 54 10000 1.218 118 06:59 16.10.2019
105 Clouds 11 1020 49 10000 1 0 06:39 16.10.2019
106 Clouds 11 1020 49 10000 1 0 06:39 16.10.2019
107 Clouds 11 1020 49 10000 2.1 10 05:54 16.10.2019
108 Clouds 12 1020 50 10000 1.5 40 03:26 16.10.2019
109 Clouds 12 1020 52 10000 1 310 02:49 16.10.2019
110 Clouds 13 1020 54 10000 1 0 01:19 16.10.2019
111 Clouds 14 1021 35 10000 1.084 88 00:50 16.10.2019
112 Clouds 14 1021 35 10000 1.084 88 00:28 16.10.2019
113 Clouds 14 1021 40 10000 1.343 91 23:41 15.10.2019
114 Clouds 15 1020 44 10000 2.1 0 23:22 15.10.2019
115 Clouds 15 1021 37 10000 1.343 91 22:56 15.10.2019
116 Clouds 15 1021 33 10000 1.343 91 22:38 15.10.2019
117 Clouds 15 1021 33 10000 1.343 91 22:38 15.10.2019
118 Clouds 16 1021 33 10000 1.343 91 22:20 15.10.2019
119 -273 0 0 0 0 0 21:56 15.10.2019
120 Clouds 15 1021 33 10000 1.343 91 21:56 15.10.2019
121 Clouds 15 1021 33 10000 1.343 91 21:56 15.10.2019
122 Clouds 15 1021 33 10000 1.343 91 21:56 15.10.2019
123 Clouds 15 1021 33 10000 0.583 153 21:38 15.10.2019
124 Clouds 15 1021 33 10000 0.583 153 21:38 15.10.2019
125 Clouds 16 1020 41 10000 0.5 0 21:20 15.10.2019
126 Clouds 17 1020 41 10000 0.5 0 20:57 15.10.2019
127 Clouds 18 1021 31 10000 0.5 0 20:39 15.10.2019
128 Clouds 18 1021 31 10000 0.5 0 20:39 15.10.2019
129 Clouds 18 1020 34 10000 0.5 0 20:20 15.10.2019
130 Clouds 18 1020 34 10000 0.5 0 19:58 15.10.2019
131 Clouds 19 1020 27 10000 3.1 20 19:40 15.10.2019
132 Clouds 19 1019 28 10000 1.5 40 19:20 15.10.2019
133 Clouds 20 1020 24 10000 1 0 18:47 15.10.2019
134 Clouds 20 1020 24 10000 1 0 18:29 15.10.2019
135 Clouds 22 1019 28 10000 0.5 0 17:59 15.10.2019
136 Clouds 25 1020 27 10000 1.5 250 17:40 15.10.2019
137 Clouds 25 1020 27 10000 1.5 250 17:40 15.10.2019
138 Clouds 26 1019 19 10000 1.079 64 17:20 15.10.2019
139 Clouds 28 1019 14 10000 1.5 280 16:56 15.10.2019
140 Clouds 28 1019 14 10000 1.5 280 16:37 15.10.2019
141 Clouds 28 1019 27 10000 1 0 16:19 15.10.2019
142 Clouds 28 1019 15 10000 3.1 290 15:42 15.10.2019
143 -273 0 0 0 0 0 15:20 15.10.2019
144 Clear 29 1020 16 10000 2.1 290 14:58 15.10.2019
145 Clouds 29 1020 13 10000 2.6 0 14:38 15.10.2019
146 Clouds 29 1020 13 10000 2.6 0 14:38 15.10.2019
147 Clouds 29 1020 13 10000 2.6 0 14:38 15.10.2019
148 Clouds 29 1020 13 10000 2.6 0 14:38 15.10.2019
149 Clear 29 1021 16 10000 1 0 14:20 15.10.2019
150 Clouds 28 1021 14 10000 3.1 260 13:56 15.10.2019
151 Clouds 28 1021 14 10000 3.1 260 13:37 15.10.2019
152 Clear 28 1021 17 10000 1.5 20 13:19 15.10.2019
153 Clouds 27 1022 14 10000 2.1 0 12:42 15.10.2019
154 Clouds 25 1022 19 10000 1 0 12:21 15.10.2019
155 Clouds 24 1022 19 10000 1 0 11:57 15.10.2019
156 Clouds 24 1023 16 10000 1 0 11:37 15.10.2019
157 Clear 24 1023 23 10000 0.5 0 11:19 15.10.2019
158 Clear 24 1023 23 10000 0.5 0 11:19 15.10.2019
159 Clear 21 1023 19 10000 1 0 10:44 15.10.2019
160 Clear 21 1023 19 10000 1 0 10:44 15.10.2019
161 Clear 19 1023 24 10000 0.5 0 10:21 15.10.2019
162 Clear 18 1023 24 10000 0.5 0 09:58 15.10.2019
163 Clear 17 1024 25 10000 0.5 0 09:38 15.10.2019
164 Clear 17 1023 36 10000 0.5 0 09:20 15.10.2019
165 Clear 14 1024 33 10000 0.5 0 08:55 15.10.2019
166 Clear 14 1024 41 10000 1.42 42.023 08:36 15.10.2019
167 Clear 14 1024 41 10000 1.42 42.023 08:36 15.10.2019
168 Clear 12 1024 41 10000 1.42 42.023 08:18 15.10.2019
169 Clear 9 1024 42 10000 0.5 0 07:41 15.10.2019
170 Clear 9 1023 65 10000 0.5 0 07:21 15.10.2019
171 Clear 8 1023 48 10000 0.5 0 06:45 15.10.2019
172 Clear 8 1023 70 10000 1.92 31.784 06:27 15.10.2019
173 Clear 8 1023 48 10000 1.92 31.784 05:48 15.10.2019
174 Clear 8 1023 48 10000 1.92 31.784 05:29 15.10.2019
175 Clear 8 1023 48 10000 1.92 31.784 04:39 15.10.2019
176 Clear 8 1023 45 10000 1.92 31.784 03:38 15.10.2019
177 Clear 8 1023 45 10000 1.92 31.784 03:38 15.10.2019
178 Clear 8 1023 52 10000 1.4 27.189 02:51 15.10.2019
179 Clear 9 1023 45 10000 1.4 27.189 01:49 15.10.2019
180 Clear 10 1023 57 10000 1.31 31.717 01:22 15.10.2019
181 Clear 11 1023 39 10000 1.31 31.717 00:50 15.10.2019
182 Clear 11 1023 53 10000 1.9 35.99 00:22 15.10.2019
183 Clear 11 1023 39 10000 1.9 35.99 23:45 14.10.2019
184 Clear 12 1023 37 10000 0.5 0 23:21 14.10.2019
185 Clear 13 1023 37 10000 1.9 35.99 22:59 14.10.2019
186 Clear 13 1023 37 10000 1.9 35.99 22:38 14.10.2019
187 Clear 13 1023 32 10000 1 0 22:19 14.10.2019
188 Clear 14 1023 30 10000 1.9 35.99 21:56 14.10.2019
189 Clear 14 1023 30 10000 1.9 35.99 21:56 14.10.2019
190 Clear 14 1023 30 10000 1.9 35.99 21:37 14.10.2019
191 Clear 14 1023 43 10000 1.45 8.788 21:19 14.10.2019
192 Clear 15 1023 26 10000 1 0 20:55 14.10.2019
193 -273 0 0 0 0 0 20:55 14.10.2019
194 Clear 15 1023 26 10000 1 0 20:36 14.10.2019
195 Clear 15 1022 41 10000 1.5 230 20:18 14.10.2019
196 Clear 15 1022 41 10000 1.5 230 20:18 14.10.2019
197 Clear 16 1023 25 10000 2.1 10 19:42 14.10.2019
198 Clear 17 1022 33 10000 1.422 92 19:23 14.10.2019
199 Clear 19 1023 19 10000 0.5 0 18:59 14.10.2019
200 Clear 19 1023 19 10000 0.5 0 18:39 14.10.2019
201 Clear 20 1022 28 10000 1.5 230 18:19 14.10.2019
202 Clear 20 1022 28 10000 1.5 230 18:19 14.10.2019
203 Clear 20 1022 28 10000 1.5 230 18:19 14.10.2019
204 Clear 24 1023 17 10000 1.5 220 17:57 14.10.2019
205 Clear 24 1023 17 10000 1.5 220 17:57 14.10.2019
206 Clear 24 1023 17 10000 1.5 220 17:38 14.10.2019
207 Clouds 26 1022 16 10000 2.6 200 17:20 14.10.2019
208 -273 0 0 0 0 0 16:44 14.10.2019
209 Clouds 27 1023 11 10000 2.6 190 16:21 14.10.2019
210 Clouds 27 1023 10 10000 1.5 220 15:44 14.10.2019
211 Clouds 27 1023 10 10000 2.1 0 15:26 14.10.2019
212 Clouds 27 1023 10 10000 2.1 230 14:58 14.10.2019
213 Clouds 27 1023 10 10000 2.1 230 14:39 14.10.2019
214 Clear 27 1023 14 10000 1.5 30 14:20 14.10.2019
215 Clouds 25 1024 11 10000 0.5 0 13:44 14.10.2019
216 Clear 25 1024 15 10000 0.5 170 13:22 14.10.2019
217 Clouds 24 1025 13 10000 1 0 12:56 14.10.2019
218 Clouds 24 1025 13 10000 1 0 12:37 14.10.2019
219 Clear 24 1024 17 10000 1 0 12:18 14.10.2019
220 Clouds 22 1025 15 10000 2.1 0 11:45 14.10.2019
221 Clear 20 1026 17 10000 0.96 116.565 11:26 14.10.2019
222 Clear 20 1026 17 10000 0.96 116.565 11:26 14.10.2019
223 Clear 19 1026 19 10000 0.5 0 10:57 14.10.2019
224 Clear 19 1026 19 10000 0.5 0 10:38 14.10.2019
225 Clear 16 1026 22 10000 0.5 0 10:20 14.10.2019
226 Clear 14 1026 24 10000 0.96 116.565 09:54 14.10.2019
227 Clear 14 1026 24 10000 0.96 116.565 09:36 14.10.2019
228 Clear 15 1026 28 10000 1.5 40 09:18 14.10.2019
229 Clear 12 1026 29 10000 0.5 0 08:42 14.10.2019
230 Clear 9 1026 31 10000 1.31 53.218 08:20 14.10.2019
231 Clear 6 1026 38 10000 1.31 53.218 07:41 14.10.2019
232 Clear 6 1026 38 10000 1.31 53.218 07:41 14.10.2019
233 Clear 6 1026 64 10000 1 240 07:18 14.10.2019
234 Clear 4 1026 47 10000 1.31 53.218 06:38 14.10.2019
235 Clear 4 1025 64 10000 1.76 34.258 06:20 14.10.2019
236 Clear 4 1026 47 10000 1.76 34.258 05:46 14.10.2019
237 Clear 5 1026 40 10000 1 0 04:43 14.10.2019
238 Clear 6 1025 60 10000 1.27 40.587 03:27 14.10.2019
239 Clear 6 1026 47 10000 0.5 0 02:42 14.10.2019
240 Clear 8 1026 33 10000 1.5 30 01:23 14.10.2019
241 Clear 8 1026 38 10000 0.5 60 00:56 14.10.2019
242 Clear 7 1026 56 10000 1.57 41.664 00:19 14.10.2019
243 Clear 8 1026 26 10000 1 0 23:45 13.10.2019
244 Clear 9 1026 26 10000 0.5 10 23:20 13.10.2019
245 Clear 11 1026 24 10000 0.5 0 22:58 13.10.2019
246 Clear 9 1026 26 10000 0.5 10 22:58 13.10.2019
247 Clear 11 1026 24 10000 0.5 0 22:40 13.10.2019
248 Clear 11 1026 31 10000 1.57 41.664 22:21 13.10.2019
249 Clear 12 1026 25 10000 0.5 0 21:58 13.10.2019
250 Clear 12 1026 25 10000 0.5 0 21:37 13.10.2019
251 Clear 13 1025 22 10000 0.5 10 21:19 13.10.2019
252 Clear 13 1025 22 10000 0.5 10 21:19 13.10.2019
253 Clear 14 1025 19 10000 0.5 0 20:57 13.10.2019
254 Clear 14 1025 19 10000 0.5 0 20:38 13.10.2019
255 Clear 16 1025 20 10000 2.6 40 20:20 13.10.2019
256 Clear 16 1025 17 10000 0.5 90 19:58 13.10.2019
257 Clear 16 1025 17 10000 0.5 90 19:39 13.10.2019
258 Clear 17 1025 33 10000 2.1 40 19:21 13.10.2019
259 Clear 18 1025 18 10000 3.6 20 18:57 13.10.2019
260 -273 0 0 0 0 0 18:56 13.10.2019
261 -273 0 0 0 0 0 18:56 13.10.2019
262 -273 0 0 0 0 0 18:56 13.10.2019
263 Clear 19 1025 18 10000 3.6 20 18:36 13.10.2019
264 Clear 20 1024 28 10000 2.1 30 18:18 13.10.2019
265 Clear 22 1024 11 10000 3.6 80 17:44 13.10.2019
266 Clear 22 1024 11 10000 3.6 80 17:44 13.10.2019
267 Clear 23 1023 22 10000 1.5 30 17:26 13.10.2019
268 Clear 23 1023 22 10000 1.5 30 17:25 13.10.2019
269 Clear 23 1023 22 10000 1.5 30 17:25 13.10.2019
270 -273 0 0 0 0 0 16:56 13.10.2019
271 Clear 24 1024 11 10000 4.1 90 16:36 13.10.2019
272 Clear 25 1024 16 10000 1.5 80 16:18 13.10.2019
273 Clear 25 1024 16 10000 3.6 70 15:55 13.10.2019
274 Clear 24 1024 16 10000 3.6 70 15:36 13.10.2019
275 Clear 25 1024 20 10000 2.1 70 15:18 13.10.2019
276 Clouds 25 1024 16 10000 4.1 30 14:40 13.10.2019
277 Clouds 24 1025 19 10000 4.1 360 14:22 13.10.2019
278 Clouds 24 1025 25 10000 4.6 30 13:59 13.10.2019
279 Clouds 24 1025 25 10000 4.6 30 13:39 13.10.2019
280 Clouds 24 1025 25 10000 4.6 30 13:39 13.10.2019
281 Clouds 23 1025 18 10000 3.1 80 13:21 13.10.2019
282 Clouds 22 1025 28 10000 1.5 0 12:56 13.10.2019
283 Clouds 22 1025 28 10000 1.5 0 12:38 13.10.2019
284 Clear 22 1026 35 10000 2.1 250 12:19 13.10.2019
285 Clouds 20 1026 35 10000 1.5 0 11:58 13.10.2019
286 Clouds 20 1026 35 10000 1.5 0 11:38 13.10.2019
287 Clouds 20 1026 35 10000 1.5 0 11:38 13.10.2019
288 Clear 19 1026 42 10000 1 270 11:19 13.10.2019
289 Clouds 18 1026 42 10000 1.5 0 10:42 13.10.2019
290 Clear 17 1026 45 10000 1.5 0 10:23 13.10.2019
291 Clear 17 1026 45 10000 1.5 0 10:23 13.10.2019
292 Clear 16 1026 54 10000 1.5 0 09:57 13.10.2019
293 Clear 16 1026 54 10000 1.5 0 09:38 13.10.2019
294 Clear 14 1027 54 10000 1.6 63.851 09:19 13.10.2019
295 Clear 13 1027 62 10000 0.5 0 08:43 13.10.2019
296 Clear 12 1027 66 10000 1.64 61.197 08:22 13.10.2019
297 Clear 9 1027 70 10000 1 150 07:47 13.10.2019
298 Clear 8 1026 81 10000 1.5 230 07:28 13.10.2019
299 Clear 7 1026 80 10000 1 0 06:46 13.10.2019
300 Clear 7 1026 80 10000 1 0 05:50 13.10.2019
301 Clear 8 1026 75 10000 1.5 140 04:52 13.10.2019
302 Clear 8 1026 75 10000 1.5 140 04:33 13.10.2019
303 Clear 9 1026 66 10000 1 50 02:47 13.10.2019
304 Clear 10 1026 71 10000 1 0 02:23 13.10.2019
305 Clear 11 1026 62 10000 1.5 60 01:31 13.10.2019
306 Clear 11 1026 62 10000 2.1 80 00:52 13.10.2019
307 Clear 12 1026 71 10000 1 310 00:22 13.10.2019
308 Clear 12 1026 66 10000 2.1 40 23:58 12.10.2019
309 Clear 12 1026 66 10000 2.1 40 23:39 12.10.2019
310 Clear 12 1026 62 10000 2.6 36.181 23:21 12.10.2019
311 Clear 13 1026 62 10000 2.6 36.181 22:58 12.10.2019
312 Clear 13 1026 62 10000 2.6 36.181 22:58 12.10.2019
313 Clear 14 1026 62 10000 3.6 20 22:39 12.10.2019
314 Clear 14 1026 62 10000 4.1 20 22:20 12.10.2019
315 Clear 14 1026 58 10000 3.6 10 21:55 12.10.2019
316 Clear 14 1026 58 10000 3.6 10 21:55 12.10.2019
317 Clear 14 1026 58 10000 3.6 10 21:37 12.10.2019
318 Clear 15 1026 58 10000 3.1 20 21:19 12.10.2019
319 Clear 16 1026 50 10000 3.1 350 20:43 12.10.2019
320 Clear 17 1026 51 10000 2.6 10 20:25 12.10.2019
321 Clear 17 1025 48 10000 2.6 10 19:40 12.10.2019
322 Clear 18 1025 45 10000 3.1 360 19:22 12.10.2019
323 Clear 18 1025 45 10000 3.1 360 19:22 12.10.2019
324 Clear 18 1025 42 10000 3.1 80 18:59 12.10.2019
325 Clear 18 1025 42 10000 3.1 80 18:40 12.10.2019
326 Clear 19 1024 42 10000 0.5 220 18:22 12.10.2019
327 Clear 21 1024 34 10000 5.1 80 17:44 12.10.2019
328 Clouds 22 1024 32 10000 4.6 40 17:19 12.10.2019
329 Clouds 23 1024 28 10000 0.5 0 16:55 12.10.2019
330 Clouds 23 1024 28 10000 0.5 0 16:36 12.10.2019
331 Clear 23 1024 33 10000 2.1 0 16:18 12.10.2019
332 Clouds 23 1024 30 10000 1.5 0 15:44 12.10.2019
333 Clouds 23 1024 33 10000 1.5 0 15:25 12.10.2019
334 Clouds 23 1024 31 10000 1.5 200 14:55 12.10.2019
335 Clouds 23 1024 31 10000 1.5 200 14:55 12.10.2019
336 Clouds 23 1024 31 10000 1.5 200 14:37 12.10.2019
337 Clouds 22 1024 35 10000 2.1 0 14:18 12.10.2019
338 Clouds 23 1025 33 10000 2.1 80 13:43 12.10.2019
339 Clouds 23 1025 33 10000 2.1 80 13:43 12.10.2019
340 Clouds 22 1024 35 10000 2.6 80 13:25 12.10.2019
341 Clouds 22 1025 35 10000 2.1 360 12:40 12.10.2019
342 Clouds 22 1025 35 10000 2.1 360 12:40 12.10.2019
343 Clouds 21 1025 40 10000 3.1 40 12:22 12.10.2019
344 Clouds 21 1026 40 10000 1 0 11:59 12.10.2019
345 Clouds 21 1026 40 10000 1 0 11:40 12.10.2019
346 Clouds 20 1026 40 10000 1.5 0 11:22 12.10.2019
347 Clouds 20 1026 45 10000 1.5 0 10:56 12.10.2019
348 Clouds 19 1026 45 10000 1.5 0 10:36 12.10.2019
349 Clouds 19 1026 45 10000 2.6 40 10:18 12.10.2019
350 Clear 18 1027 48 10000 4.6 20 09:54 12.10.2019
351 Clear 18 1027 48 10000 4.6 20 09:36 12.10.2019
352 Clear 17 1026 55 10000 0.5 0 09:18 12.10.2019
353 Clear 17 1026 55 10000 0.5 0 09:18 12.10.2019
354 Clear 15 1027 62 10000 2.1 10 08:40 12.10.2019
355 Clear 15 1026 63 10000 3.41 34.399 08:20 12.10.2019
356 Clear 15 1026 63 10000 3.41 34.399 08:20 12.10.2019
357 Clear 11 1026 76 10000 3.41 34.399 07:35 12.10.2019
358 Clear 10 1026 81 10000 1 0 06:59 12.10.2019
359 Clear 10 1025 81 10000 2.6 20 05:49 12.10.2019
360 Clear 10 1025 81 10000 2.1 20 05:24 12.10.2019
361 Clear 11 1025 76 10000 3.1 20 04:24 12.10.2019
362 Clear 12 1025 76 10000 2.1 30 03:41 12.10.2019
363 Clear 13 1025 71 10000 2.7 16.173 01:56 12.10.2019
364 Clear 13 1025 71 10000 0.5 40 01:29 12.10.2019
365 Clear 15 1025 71 10000 2.1 20 00:43 12.10.2019
366 Clouds 15 1025 66 10000 2.6 10 00:19 12.10.2019
367 Clouds 16 1025 62 10000 2.1 20 23:40 11.10.2019
368 Clouds 16 1025 66 10000 2.6 360 23:20 11.10.2019
369 Clouds 17 1024 58 10000 3.6 30 22:56 11.10.2019
370 Clouds 17 1024 58 10000 3.6 30 22:37 11.10.2019
371 Clouds 17 1024 48 10000 3.1 40 22:18 11.10.2019
372 Clouds 18 1024 51 10000 3.6 20 21:40 11.10.2019
373 Clouds 18 1024 48 10000 3.1 50 21:21 11.10.2019
374 Clouds 18 1024 48 10000 5.7 40 20:45 11.10.2019
375 Clouds 18 1024 48 10000 5.7 40 20:27 11.10.2019
376 Clouds 19 1023 45 10000 5.1 30 19:59 11.10.2019
377 Clouds 19 1023 45 10000 5.1 30 19:39 11.10.2019
378 Clouds 19 1023 59 10000 2.6 260 19:18 11.10.2019
379 Clouds 19 1023 59 10000 2.6 260 19:18 11.10.2019
380 Clouds 19 1023 59 10000 2.6 260 19:18 11.10.2019
381 Clouds 19 1023 59 10000 2.6 260 19:18 11.10.2019
382 Clouds 20 1023 63 10000 3.6 260 18:59 11.10.2019
383 Clouds 20 1023 63 10000 3.6 260 18:39 11.10.2019
384 Rain 21 1023 46 10000 3.1 280 18:19 11.10.2019
385 Clouds 21 1022 30 10000 3.1 310 17:59 11.10.2019
386 Clouds 21 1022 30 10000 3.1 310 17:38 11.10.2019
387 Clouds 23 1022 30 10000 2.6 300 17:19 11.10.2019
388 Clouds 22 1022 30 10000 2.6 300 16:59 11.10.2019
389 Clouds 23 1021 28 10000 4.1 290 16:39 11.10.2019
390 Clouds 23 1021 28 10000 4.1 290 16:39 11.10.2019
391 Clouds 24 1021 28 10000 3.1 270 16:19 11.10.2019
392 Clouds 24 1021 28 10000 3.6 280 15:55 11.10.2019
393 Clouds 24 1021 28 10000 3.6 280 15:36 11.10.2019
394 Clouds 24 1021 25 10000 4.1 270 15:18 11.10.2019
395 Clouds 24 1021 25 10000 4.1 270 15:18 11.10.2019
396 Clouds 24 1022 27 10000 4.6 270 14:42 11.10.2019
397 Clouds 24 1022 29 10000 3.1 200 14:21 11.10.2019
398 Clouds 24 1022 27 10000 3.6 250 13:46 11.10.2019
399 Clouds 23 1022 25 10000 2.6 220 13:26 11.10.2019
400 Clouds 23 1022 28 10000 2.6 270 12:58 11.10.2019
401 Clouds 23 1022 28 10000 2.6 270 12:40 11.10.2019
402 Clouds 23 1022 27 10000 2.6 250 12:21 11.10.2019
403 Clouds 22 1022 27 10000 2.6 250 11:59 11.10.2019
404 Clouds 21 1022 28 10000 2.1 0 11:39 11.10.2019
405 Clouds 21 1023 35 10000 1.5 0 11:21 11.10.2019
406 Clouds 19 1023 32 10000 2.1 0 10:56 11.10.2019
407 Clouds 19 1023 32 10000 2.1 0 10:56 11.10.2019
408 Clouds 19 1023 32 10000 2.1 0 10:37 11.10.2019
409 Clouds 19 1023 42 10000 1 0 10:18 11.10.2019
410 Clouds 19 1023 42 10000 1 0 10:18 11.10.2019
411 Clouds 16 1023 45 10000 2.1 220 09:42 11.10.2019
412 Clear 16 1023 51 10000 0.65 15.897 09:21 11.10.2019
413 Clear 15 1023 51 10000 0.65 15.897 08:59 11.10.2019
414 Clouds 14 1023 50 10000 1 0 08:39 11.10.2019
415 Clouds 14 1023 54 10000 0.5 0 08:39 11.10.2019
416 Clouds 12 1023 54 10000 0.5 0 08:20 11.10.2019
417 Clear 10 1023 70 10000 1 0 07:57 11.10.2019
418 Clear 11 1023 70 10000 1 0 07:38 11.10.2019
419 Clear 9 1023 81 10000 0.5 0 07:19 11.10.2019
420 Clear 8 1022 75 10000 1.5 360 06:43 11.10.2019
421 Clear 8 1022 75 10000 0.5 30 06:19 11.10.2019
422 Clear 9 1022 70 10000 0.5 0 05:32 11.10.2019
423 Clear 9 1021 75 10000 0.49 317.821 04:58 11.10.2019
424 Clear 10 1021 66 10000 0.5 0 03:46 11.10.2019
425 Clear 12 1021 61 10000 0.5 0 01:57 11.10.2019
426 Clear 14 1021 54 10000 1 0 00:42 11.10.2019
427 Clear 14 1021 58 10000 1.5 60 00:22 11.10.2019
428 Clear 14 1021 62 10000 1.5 20 23:41 10.10.2019
429 Clear 15 1020 54 10000 3.1 260 23:20 10.10.2019
430 Clear 16 1020 50 10000 0.5 0 22:57 10.10.2019
431 Clear 16 1020 50 10000 0.5 0 22:37 10.10.2019
432 Clear 16 1021 54 10000 1.5 170 22:19 10.10.2019
433 Clear 16 1021 44 10000 1 0 21:54 10.10.2019
434 Clear 16 1021 44 10000 1 0 21:36 10.10.2019
435 Clear 17 1021 48 10000 0.5 0 21:18 10.10.2019
436 Clear 16 1020 51 10000 2.21 285.05 20:41 10.10.2019
437 Clear 18 1020 48 10000 2.21 285.05 20:21 10.10.2019
438 Clear 18 1020 48 10000 2.21 285.05 20:21 10.10.2019
439 Clear 18 1020 45 10000 2.21 285.05 19:58 10.10.2019
440 Clear 18 1020 45 10000 2.21 285.05 19:39 10.10.2019
441 Clear 19 1020 42 10000 2.21 285.05 19:19 10.10.2019
442 Clear 20 1020 42 10000 1 0 18:54 10.10.2019
443 Clear 20 1020 42 10000 1 0 18:36 10.10.2019
444 Clear 20 1020 42 10000 1 0 18:36 10.10.2019
445 Clear 20 1019 40 10000 3.1 250 18:18 10.10.2019
446 Clouds 22 1019 32 10000 2.1 270 17:41 10.10.2019
447 Clouds 24 1019 30 10000 4.6 230 17:20 10.10.2019
448 Clouds 24 1019 30 10000 4.6 230 16:58 10.10.2019
449 Clouds 24 1019 31 10000 5.1 230 16:40 10.10.2019
450 Clouds 24 1019 29 10000 4.6 220 16:21 10.10.2019
451 Clouds 24 1019 31 10000 5.7 240 15:43 10.10.2019
452 Clouds 24 1019 31 10000 5.7 240 15:43 10.10.2019
453 -273 0 0 0 0 0 15:24 10.10.2019
454 Clouds 25 1019 31 10000 5.7 230 14:59 10.10.2019
455 Clouds 25 1019 31 10000 5.7 230 14:37 10.10.2019
456 Clouds 25 1019 36 10000 4.1 260 14:19 10.10.2019
457 Clouds 25 1019 36 10000 4.1 260 14:19 10.10.2019
458 Clouds 25 1019 31 10000 6.7 230 13:59 10.10.2019
459 Clouds 25 1019 31 10000 6.7 230 13:39 10.10.2019
460 Clouds 23 1020 31 10000 5.7 210 13:18 10.10.2019
461 Clouds 23 1020 31 10000 5.7 210 13:18 10.10.2019
462 Clouds 23 1020 33 10000 5.1 230 12:54 10.10.2019
463 Clouds 23 1020 33 10000 5.1 230 12:36 10.10.2019
464 Clear 24 1020 38 10000 2.1 270 12:18 10.10.2019
465 Clouds 22 1021 33 10000 3.6 210 11:42 10.10.2019
466 Clear 21 1021 43 10000 1.5 0 11:20 10.10.2019
467 Clear 21 1021 43 10000 1.5 0 11:20 10.10.2019
468 Clear 21 1021 43 10000 1.5 0 10:58 10.10.2019
469 Clouds 20 1021 40 10000 1.5 130 10:40 10.10.2019
470 Clear 18 1022 42 10000 1 0 10:21 10.10.2019
471 Clear 17 1022 51 10000 1.5 100 09:41 10.10.2019
472 Clear 17 1022 51 10000 1.5 100 09:41 10.10.2019
473 Clear 15 1022 54 10000 0.5 0 09:23 10.10.2019
474 Clear 14 1022 54 10000 0.5 0 08:59 10.10.2019
475 Clear 14 1022 62 10000 0.5 0 08:41 10.10.2019
476 Clear 14 1022 62 10000 0.59 37.645 08:21 10.10.2019
477 Clear 10 1022 70 10000 0.59 37.645 07:57 10.10.2019
478 Clear 10 1022 70 10000 0.59 37.645 07:36 10.10.2019
479 Clear 9 1022 81 10000 0.59 37.645 07:18 10.10.2019
480 Clear 8 1022 80 10000 0.59 37.645 06:39 10.10.2019
481 Clear 8 1022 81 10000 0.5 40 05:56 10.10.2019
482 Clear 8 1022 81 10000 1 20 05:21 10.10.2019
483 Clear 8 1022 75 10000 1.21 39.279 04:36 10.10.2019
484 Clear 9 1022 75 10000 0.5 10 02:42 10.10.2019
485 Clear 9 1022 70 10000 0.5 0 01:38 10.10.2019
486 Clear 9 1022 76 10000 1.66 34.761 01:18 10.10.2019
487 Clear 9 1022 76 10000 1.66 34.761 01:18 10.10.2019
488 Clear 10 1023 70 10000 1 20 00:39 10.10.2019
489 Clear 11 1023 70 10000 0.5 0 23:55 09.10.2019
490 Clear 11 1023 70 10000 0.5 0 23:36 09.10.2019
491 Clear 10 1022 76 10000 1.63 31.283 23:18 09.10.2019
492 Clear 10 1022 76 10000 1.63 31.283 23:18 09.10.2019
493 Clear 12 1023 66 10000 1.5 50 22:41 09.10.2019
494 Clear 12 1023 66 10000 0.5 0 22:22 09.10.2019
495 Clear 12 1023 62 10000 1.63 31.283 21:58 09.10.2019
496 Clear 12 1023 62 10000 1.63 31.283 21:39 09.10.2019
497 Clear 13 1023 62 10000 1.06 355.07 21:19 09.10.2019
498 Clear 13 1023 58 10000 0.5 0 20:55 09.10.2019
499 Clear 13 1023 58 10000 0.5 0 20:37 09.10.2019
500 Clear 15 1023 51 10000 1 0 20:18 09.10.2019
501 Clear 15 1023 51 10000 1 0 20:18 09.10.2019
502 Clear 16 1023 51 10000 2.1 70 19:44 09.10.2019
503 Clear 17 1023 51 10000 0.5 10 19:23 09.10.2019
504 Clear 18 1023 45 10000 1.08 347.085 18:40 09.10.2019
505 Clear 20 1022 45 10000 1.5 260 18:21 09.10.2019
506 Clear 21 1022 39 10000 2.6 210 17:59 09.10.2019
507 Clear 21 1022 39 10000 2.6 210 17:40 09.10.2019
508 Clear 21 1022 39 10000 2.6 210 17:40 09.10.2019
509 Clear 21 1022 37 10000 3.1 220 17:22 09.10.2019
510 Clear 22 1022 37 10000 3.1 220 16:58 09.10.2019
511 Clear 22 1022 37 10000 4.6 220 16:40 09.10.2019
512 Clear 22 1022 35 10000 5.1 200 16:21 09.10.2019
513 Clear 22 1022 33 10000 4.1 190 15:57 09.10.2019
514 Clear 22 1022 33 10000 4.1 190 15:38 09.10.2019
515 Clear 22 1022 33 10000 4.1 190 15:38 09.10.2019
516 Clear 22 1022 31 10000 4.1 200 15:19 09.10.2019
517 Clouds 22 1022 31 10000 2.1 240 14:55 09.10.2019
518 Clouds 22 1022 31 10000 2.1 240 14:37 09.10.2019
519 Clouds 21 1023 43 10000 2.6 250 14:18 09.10.2019
520 Clouds 21 1023 37 10000 3.6 190 13:38 09.10.2019
521 Clouds 20 1024 40 10000 3.1 170 13:20 09.10.2019
522 Clouds 19 1024 42 10000 1 0 12:56 09.10.2019
523 Clouds 19 1024 42 10000 1 0 12:37 09.10.2019
524 Clouds 18 1024 45 10000 2.1 350 12:19 09.10.2019
525 Clouds 18 1025 48 10000 1 280 11:40 09.10.2019
526 Clouds 18 1025 48 10000 1 280 11:40 09.10.2019
527 Clouds 17 1025 52 10000 2.1 0 11:21 09.10.2019
528 Clouds 16 1025 55 10000 1 0 10:59 09.10.2019
529 Clouds 16 1025 55 10000 1 0 10:40 09.10.2019
530 Clear 16 1026 63 10000 2.6 280 10:19 09.10.2019
531 Clouds 15 1026 62 10000 1.5 0 09:56 09.10.2019
532 Clouds 14 1026 62 10000 1.5 0 09:38 09.10.2019
533 Clouds 14 1026 62 10000 1.5 0 09:38 09.10.2019
534 Clear 13 1026 62 10000 1 0 09:18 09.10.2019
535 Clear 12 1026 66 10000 1.31 45.993 08:39 09.10.2019
536 Clouds 12 1026 71 10000 1.5 250 08:20 09.10.2019
537 Clouds 12 1026 71 10000 1.5 250 08:20 09.10.2019
538 Clear 9 1025 76 10000 0.5 0 07:47 09.10.2019
539 Clear 9 1025 76 10000 0.5 0 07:47 09.10.2019
540 Clear 9 1025 81 10000 1.31 45.993 07:25 09.10.2019
541 Clear 9 1025 81 10000 1.31 45.993 07:25 09.10.2019
542 Clear 8 1025 87 10000 0.5 0 06:58 09.10.2019
543 Clear 8 1025 87 10000 0.5 0 06:40 09.10.2019
544 Clear 8 1024 87 10000 0.5 0 05:53 09.10.2019
545 Clear 9 1024 87 10000 1 0 05:18 09.10.2019
546 Clear 10 1024 81 10000 1 0 03:48 09.10.2019
547 Clear 10 1024 81 10000 1 0 03:48 09.10.2019
548 Clear 11 1024 81 10000 1 0 02:34 09.10.2019
549 Clouds 11 1024 76 10000 0.5 0 01:39 09.10.2019
550 Clouds 12 1023 76 10000 1.5 260 01:18 09.10.2019
551 Clouds 12 1023 76 10000 2.1 280 00:42 09.10.2019
552 Clouds 13 1023 76 10000 1.5 240 00:23 09.10.2019
553 Clouds 13 1023 71 10000 1 0 23:58 08.10.2019
554 Clouds 13 1023 71 10000 1 0 23:38 08.10.2019
555 Clouds 14 1023 71 10000 2.6 290 23:18 08.10.2019
556 Clouds 14 1023 71 10000 2.6 290 23:18 08.10.2019
557 Clouds 14 1023 71 10000 2.1 260 22:55 08.10.2019
558 Clouds 14 1023 71 10000 2.1 260 22:36 08.10.2019
559 Clouds 15 1023 67 10000 2.1 280 22:18 08.10.2019
560 Clouds 15 1022 71 10000 3.6 280 21:55 08.10.2019
561 Clouds 15 1022 71 10000 3.6 280 21:36 08.10.2019
562 Clouds 15 1022 71 10000 3.6 280 21:36 08.10.2019
563 Clouds 15 1022 71 10000 2.6 270 21:18 08.10.2019
564 Clouds 15 1022 67 10000 1 0 20:54 08.10.2019
565 Clouds 15 1022 67 10000 1 0 20:36 08.10.2019
566 Rain 16 1021 67 10000 2.1 350 20:18 08.10.2019
567 Clouds 16 1021 59 10000 1.5 240 19:41 08.10.2019
568 Clouds 17 1020 59 10000 4.1 260 19:23 08.10.2019
569 Clouds 17 1020 63 10000 4.1 250 18:57 08.10.2019
570 Clouds 17 1020 63 10000 4.1 250 18:39 08.10.2019
571 Clouds 17 1019 55 10000 3.1 250 18:19 08.10.2019
572 Clouds 19 1019 52 10000 5.1 250 17:56 08.10.2019
573 Clouds 19 1019 52 10000 5.1 250 17:38 08.10.2019
574 Clouds 19 1019 52 10000 4.6 230 17:18 08.10.2019
575 Clouds 20 1018 48 10000 4.6 220 16:41 08.10.2019
576 Clouds 20 1018 49 10000 4.6 230 16:22 08.10.2019
577 Clouds 19 1018 48 10000 5.7 210 15:57 08.10.2019
578 Clouds 19 1018 48 10000 5.7 210 15:37 08.10.2019
579 Rain 19 1018 45 10000 4.6 200 15:19 08.10.2019
580 Rain 19 1018 45 10000 4.6 200 15:19 08.10.2019
581 Rain 19 1018 52 10000 3.6 220 14:42 08.10.2019
582 Rain 18 1018 52 10000 3.6 240 14:21 08.10.2019
583 Rain 18 1018 45 10000 5.1 240 13:59 08.10.2019
584 Rain 18 1018 45 10000 5.1 240 13:39 08.10.2019
585 Rain 18 1018 45 10000 5.1 240 13:39 08.10.2019
586 Clouds 19 1017 42 10000 4.1 240 13:20 08.10.2019
587 Clouds 19 1017 42 10000 4.1 240 12:59 08.10.2019
588 Clouds 19 1017 42 10000 4.1 240 12:39 08.10.2019
589 Clouds 19 1018 48 10000 3.1 290 12:19 08.10.2019
590 Clouds 18 1018 42 10000 1.5 0 11:43 08.10.2019
591 Clouds 18 1017 42 10000 1 0 11:24 08.10.2019
592 Clouds 17 1017 42 10000 1 0 10:59 08.10.2019
593 Rain 17 1018 48 10000 1.5 320 10:40 08.10.2019
594 Clouds 17 1018 42 10000 0.5 10 10:21 08.10.2019
595 Rain 16 1018 42 10000 0.5 10 09:58 08.10.2019
596 Rain 16 1018 44 10000 1 0 09:39 08.10.2019
597 Clouds 15 1017 47 10000 1.5 350 09:20 08.10.2019
598 Clouds 14 1017 54 10000 1 0 08:43 08.10.2019
599 Clouds 12 1017 58 10000 1.5 360 08:25 08.10.2019
600 Clouds 12 1017 62 10000 1 0 07:46 08.10.2019
601 Clouds 11 1017 71 10000 1 0 07:23 08.10.2019
602 Clouds 11 1016 66 10000 1.4 86.487 06:56 08.10.2019
603 Clouds 11 1016 66 10000 1.4 86.487 06:34 08.10.2019
604 Clouds 12 1016 66 10000 1 0 05:57 08.10.2019
605 Clouds 12 1016 66 10000 1 0 05:57 08.10.2019
606 Clouds 12 1016 66 10000 1 0 05:36 08.10.2019
607 Clouds 12 1016 66 10000 1.47 84.851 04:36 08.10.2019
608 Clouds 12 1016 66 10000 0.5 0 03:29 08.10.2019
609 Clouds 12 1015 66 10000 1 0 02:39 08.10.2019
610 Clouds 12 1015 71 10000 1.5 150 01:49 08.10.2019
611 Clouds 12 1015 66 10000 2.15 8.141 01:31 08.10.2019
612 Clouds 12 1015 66 10000 1 290 00:50 08.10.2019
613 Clouds 12 1015 66 10000 1.5 170 00:21 08.10.2019
614 Clouds 13 1015 62 10000 1.5 100 23:41 07.10.2019
615 Clouds 13 1015 62 10000 3.1 60 23:20 07.10.2019
616 Clouds 13 1015 66 10000 1 0 22:58 07.10.2019
617 Clouds 13 1015 66 10000 1 0 22:40 07.10.2019
618 Clouds 13 1015 62 10000 3.1 20 22:20 07.10.2019
619 Clouds 13 1014 66 10000 3.1 20 21:57 07.10.2019
620 Clouds 13 1014 66 10000 3.1 20 21:39 07.10.2019
621 Clouds 14 1014 62 10000 2.6 20 21:20 07.10.2019
622 Clouds 15 1014 58 10000 3.6 10 20:58 07.10.2019
623 Clouds 15 1014 58 10000 3.6 10 20:39 07.10.2019
624 Clouds 16 1014 58 10000 3.6 10 20:20 07.10.2019
625 Clouds 16 1014 54 10000 4.1 20 19:58 07.10.2019
626 Clouds 16 1014 54 10000 4.1 20 19:40 07.10.2019
627 Clouds 16 1014 54 10000 3.6 20 19:19 07.10.2019
628 Clouds 17 1013 44 10000 3.1 60 18:57 07.10.2019
629 Clouds 17 1013 44 10000 3.1 60 18:38 07.10.2019
630 Clouds 17 1013 45 10000 2.6 70 18:18 07.10.2019
631 Clouds 18 1013 39 10000 2.6 20 17:43 07.10.2019
632 Clouds 18 1013 36 10000 2.6 50 17:20 07.10.2019
633 Clouds 18 1013 34 10000 2.1 340 16:57 07.10.2019
634 Clouds 18 1013 34 10000 2.1 340 16:38 07.10.2019
635 Clouds 19 1013 32 10000 3.1 270 16:20 07.10.2019
636 Clouds 19 1013 32 10000 3.1 240 15:45 07.10.2019
637 Clouds 19 1013 39 10000 1.5 210 15:25 07.10.2019
638 Clouds 19 1013 34 10000 1.5 220 14:55 07.10.2019
639 Clouds 19 1013 34 10000 1.5 220 14:37 07.10.2019
640 Clouds 18 1014 36 10000 1 0 14:19 07.10.2019
641 Clouds 18 1014 36 10000 1.5 180 13:41 07.10.2019
642 Clouds 18 1014 39 10000 2.1 0 13:20 07.10.2019
643 Clouds 18 1014 39 10000 3.1 260 12:55 07.10.2019
644 Clouds 17 1014 39 10000 3.1 260 12:37 07.10.2019
645 Clouds 17 1014 42 10000 1 0 12:19 07.10.2019
646 Clouds 16 1015 38 10000 2.1 0 11:57 07.10.2019
647 Clouds 16 1015 38 10000 2.1 0 11:37 07.10.2019
648 Clouds 16 1015 44 10000 1 0 11:18 07.10.2019
649 Clouds 15 1015 44 10000 1 0 10:41 07.10.2019
650 Clouds 15 1015 44 10000 1 0 10:41 07.10.2019
651 Clouds 12 1015 54 10000 1 0 10:20 07.10.2019
652 Clear 12 1015 58 10000 0.5 0 09:42 07.10.2019
653 Clear 10 1016 66 10000 0.5 0 09:24 07.10.2019
654 Clear 10 1016 66 10000 0.5 0 08:57 07.10.2019
655 Clear 10 1016 66 10000 0.5 0 08:57 07.10.2019
656 Clear 9 1016 75 10000 1 0 08:39 07.10.2019
657 Clear 9 1015 66 10000 2.1 90 08:19 07.10.2019
658 Clear 6 1015 86 10000 1 0 07:41 07.10.2019
659 Clear 4 1015 93 10000 1 0 07:23 07.10.2019
660 Clear 3 1015 57 10000 1 0 06:54 07.10.2019
661 Clear 3 1015 57 10000 1 0 06:34 07.10.2019
662 Clear 3 1015 72 10000 2.1 30 05:47 07.10.2019
663 Clear 4 1015 72 10000 2.1 30 05:22 07.10.2019
664 Clear 4 1015 93 10000 0.5 0 04:25 07.10.2019
665 Clear 4 1015 93 10000 2.15 40 03:45 07.10.2019
666 Clear 4 1015 93 10000 2.11 19.661 03:21 07.10.2019
667 Clear 4 1015 93 10000 2.11 19.661 03:21 07.10.2019
668 Clear 5 1015 86 10000 0.5 0 02:22 07.10.2019
669 Clear 5 1015 86 10000 0.5 0 02:22 07.10.2019
670 Clear 6 1015 80 10000 2.11 19.661 01:52 07.10.2019
671 Clear 7 1015 86 10000 2.1 40 01:21 07.10.2019
672 Clear 7 1015 81 10000 2.02 16.311 00:39 07.10.2019
673 Clear 7 1015 81 10000 0.5 0 00:20 07.10.2019
674 Clear 8 1015 75 10000 2.46 20.202 23:42 06.10.2019
675 Clear 8 1015 75 10000 2.46 20.202 23:42 06.10.2019
676 Clear 8 1015 75 10000 2.46 20.202 23:42 06.10.2019
677 Clear 8 1015 75 10000 1 0 23:22 06.10.2019
678 Clear 8 1015 75 10000 1 0 22:59 06.10.2019
679 Clouds 8 1014 70 10000 2.46 20.202 22:41 06.10.2019
680 Clouds 10 1014 75 10000 2.6 270 22:22 06.10.2019
681 Clouds 10 1014 75 10000 2.6 270 22:22 06.10.2019
682 Clouds 10 1014 75 10000 1.5 250 21:58 06.10.2019
683 Clouds 10 1014 75 10000 1.5 250 21:38 06.10.2019
684 Clouds 11 1014 70 10000 2.1 260 21:19 06.10.2019
685 Clouds 11 1014 70 10000 2.1 260 20:58 06.10.2019
686 Clouds 11 1014 66 10000 2.1 240 20:40 06.10.2019
687 Clouds 12 1014 62 10000 1.59 314.389 20:21 06.10.2019
688 Clouds 12 1013 62 10000 1.5 20 19:57 06.10.2019
689 Clouds 12 1013 62 10000 1.5 20 19:37 06.10.2019
690 Clouds 13 1013 62 10000 1 0 19:19 06.10.2019
691 Clouds 13 1013 58 10000 3.1 280 18:57 06.10.2019
692 Clouds 13 1013 58 10000 3.1 280 18:38 06.10.2019
693 Clouds 14 1012 54 10000 3.1 250 18:19 06.10.2019
694 Clouds 14 1012 54 10000 3.1 250 18:19 06.10.2019
695 Clouds 14 1012 50 10000 2.6 260 17:57 06.10.2019
696 Clouds 14 1012 50 10000 2.6 260 17:39 06.10.2019
697 Clouds 15 1012 51 10000 3.1 290 17:19 06.10.2019
698 Clouds 16 1011 51 10000 3.6 310 16:42 06.10.2019
699 Clouds 16 1011 54 10000 4.6 260 16:24 06.10.2019
700 Clouds 16 1011 54 10000 4.6 270 15:56 06.10.2019
701 Clouds 17 1011 54 10000 4.6 270 15:38 06.10.2019
702 Clouds 17 1011 54 10000 4.6 290 15:18 06.10.2019
703 Clouds 17 1011 54 10000 4.6 290 15:18 06.10.2019
704 Clouds 17 1011 58 10000 4.6 290 14:42 06.10.2019
705 Clouds 16 1010 54 10000 5.1 290 14:24 06.10.2019
706 Clouds 15 1010 62 10000 5.1 290 13:58 06.10.2019
707 Clouds 15 1010 62 10000 5.1 290 13:39 06.10.2019
708 Clouds 15 1009 62 10000 6.7 260 13:20 06.10.2019
709 Clouds 15 1009 67 10000 4.6 240 12:57 06.10.2019
710 Clouds 15 1009 67 10000 4.6 240 12:57 06.10.2019
711 Clouds 14 1009 67 10000 4.6 240 12:38 06.10.2019
712 Rain 14 1010 82 10000 4.6 230 12:20 06.10.2019
713 Rain 13 1009 76 10000 5.7 230 11:56 06.10.2019
714 Rain 13 1009 76 10000 5.7 230 11:37 06.10.2019
715 Rain 13 1009 81 10000 6.2 260 11:18 06.10.2019
716 Thunderstorm 16 1009 59 10000 11.3 250 10:43 06.10.2019
717 Rain 17 1008 63 10000 8.7 230 10:24 06.10.2019
718 Clouds 17 1008 67 10000 5.7 220 09:56 06.10.2019
719 Clouds 17 1008 67 10000 5.7 220 09:38 06.10.2019
720 Clouds 17 1008 67 10000 3.1 190 09:18 06.10.2019
721 Clouds 16 1008 77 10000 4.6 210 08:43 06.10.2019
722 Clouds 14 1008 63 10000 5.7 220 08:20 06.10.2019
723 Clouds 13 1009 82 10000 3.6 190 07:44 06.10.2019
724 Clouds 13 1009 82 10000 3.1 260 07:19 06.10.2019
725 Clouds 12 1008 71 10000 1.6 223.45 06:20 06.10.2019
726 Clouds 12 1008 71 10000 1 70 05:33 06.10.2019
727 Clouds 13 1009 71 10000 2.6 130 03:41 06.10.2019
728 Clouds 13 1009 66 10000 2.1 50 02:42 06.10.2019
729 Clouds 13 1010 66 10000 1.5 330 02:20 06.10.2019
730 Clouds 14 1010 71 10000 1 290 01:40 06.10.2019
731 Clouds 14 1010 71 10000 1 0 01:21 06.10.2019
732 Clouds 14 1010 66 10000 1 0 00:46 06.10.2019
733 Clouds 14 1010 71 10000 0.5 0 00:25 06.10.2019
734 Clouds 13 1010 76 10000 0.5 0 23:44 05.10.2019
735 Clouds 14 1010 66 10000 0.5 0 23:22 05.10.2019
736 Clouds 13 1010 76 10000 0.5 0 22:58 05.10.2019
737 Clouds 13 1010 76 10000 0.5 0 22:40 05.10.2019
738 Clouds 14 1010 71 10000 1 0 22:20 05.10.2019
739 Clouds 14 1010 71 10000 1 0 22:20 05.10.2019
740 Clouds 14 1010 71 10000 1 0 22:20 05.10.2019
741 Clouds 15 1011 62 10000 1.82 272.107 21:56 05.10.2019
742 Clouds 14 1011 62 10000 1.82 272.107 21:37 05.10.2019
743 Clouds 15 1011 62 10000 0.5 0 21:18 05.10.2019
744 Clouds 15 1011 71 10000 0.5 0 20:55 05.10.2019
745 Clouds 15 1011 71 10000 0.5 0 20:36 05.10.2019
746 Clouds 16 1010 63 10000 0.5 0 20:18 05.10.2019
747 Clouds 17 1010 55 10000 1.5 160 19:37 05.10.2019
748 Clouds 18 1010 55 10000 0.5 0 19:19 05.10.2019
749 Clouds 18 1010 52 10000 0.5 260 18:55 05.10.2019
750 Clouds 18 1010 52 10000 4.31 272.912 18:37 05.10.2019
751 Rain 19 1010 52 10000 4.72 261.149 18:19 05.10.2019
752 Rain 20 1010 45 10000 2.1 260 17:43 05.10.2019
753 Clouds 21 1010 42 10000 4.1 280 17:23 05.10.2019
754 Clouds 21 1010 42 10000 3.6 260 16:57 05.10.2019
755 Clouds 21 1010 42 10000 3.6 260 16:39 05.10.2019
756 Clouds 21 1010 45 10000 4.1 270 16:20 05.10.2019
757 Clouds 21 1010 45 10000 4.1 270 16:20 05.10.2019
758 Clouds 22 1010 43 10000 5.7 260 15:56 05.10.2019
759 Clouds 22 1010 43 10000 5.7 260 15:38 05.10.2019
760 Clouds 22 1010 52 10000 3.6 290 15:19 05.10.2019
761 Rain 21 1009 46 10000 3.1 240 14:43 05.10.2019
762 Clouds 23 1009 28 10000 8.2 220 14:24 05.10.2019
763 Clouds 24 1009 31 10000 8.2 210 13:58 05.10.2019
764 Clouds 24 1009 31 10000 8.2 210 13:39 05.10.2019
765 Clouds 22 1010 33 10000 7.7 240 13:18 05.10.2019
766 Clouds 22 1010 33 10000 7.2 240 12:42 05.10.2019
767 Clouds 22 1011 35 10000 4.1 270 12:19 05.10.2019
768 Clouds 22 1011 40 10000 5.1 220 11:43 05.10.2019
769 Clouds 20 1012 37 10000 3.1 150 11:20 05.10.2019
770 Clouds 19 1011 42 10000 1.5 180 10:57 05.10.2019
771 Clouds 19 1012 37 10000 3.1 150 10:57 05.10.2019
772 Clouds 19 1011 42 10000 1.5 180 10:39 05.10.2019
773 Rain 19 1012 55 10000 3.1 160 10:20 05.10.2019
774 Rain 20 1012 40 10000 2.6 130 09:42 05.10.2019
775 Rain 18 1012 29 10000 2.6 120 09:23 05.10.2019
776 Rain 18 1012 29 10000 2.6 120 09:23 05.10.2019
777 Rain 18 1012 31 10000 2.6 120 08:56 05.10.2019
778 Rain 18 1012 31 10000 2.6 120 08:38 05.10.2019
779 Clouds 16 1013 39 10000 0.5 0 08:18 05.10.2019
780 Clouds 14 1013 33 10000 1.5 250 07:46 05.10.2019
781 Clouds 14 1013 33 10000 1.5 250 07:28 05.10.2019
782 Clouds 11 1011 52 10000 2.6 320 06:56 05.10.2019
783 Clear 11 1011 49 10000 0.5 0 06:22 05.10.2019
784 Clear 11 1011 52 10000 1.29 83.073 05:20 05.10.2019
785 Clear 9 1013 52 10000 0.5 0 03:32 05.10.2019
786 Clear 13 1013 49 10000 1.5 350 02:38 05.10.2019
787 Clear 11 1014 32 10000 0.62 173.752 01:27 05.10.2019
788 Clear 11 1014 43 10000 0.62 173.752 00:49 05.10.2019
789 Clear 11 1014 43 10000 0.62 173.752 00:49 05.10.2019
790 Clear 13 1014 46 10000 0.62 173.752 00:28 05.10.2019
791 Clear 14 1014 30 10000 0.58 93.972 23:58 04.10.2019
792 Clear 14 1014 30 10000 0.58 93.972 23:39 04.10.2019
793 Clear 15 1014 43 10000 0.5 0 23:21 04.10.2019
794 Clear 15 1014 47 10000 0.5 0 22:56 04.10.2019
795 Clear 15 1014 47 10000 0.5 0 22:37 04.10.2019
796 Clear 15 1014 43 10000 0.58 93.972 22:19 04.10.2019
797 Clear 15 1014 36 10000 0.58 93.972 21:40 04.10.2019
798 Clear 17 1014 38 10000 0.5 0 21:22 04.10.2019
799 Clear 17 1014 38 10000 0.5 0 21:22 04.10.2019
800 Clear 17 1014 38 10000 0.5 0 20:59 04.10.2019
801 Clear 17 1014 38 10000 0.5 0 20:59 04.10.2019
802 Clear 18 1015 41 10000 0.5 0 20:40 04.10.2019
803 Clear 19 1014 31 10000 0.5 0 20:22 04.10.2019
804 Clear 19 1014 30 10000 0.5 0 19:56 04.10.2019
805 Clear 19 1014 30 10000 0.5 0 19:37 04.10.2019
806 Clear 22 1014 28 10000 1 0 19:19 04.10.2019
807 Clear 23 1014 28 10000 1 0 18:54 04.10.2019
808 Clear 23 1014 28 10000 1 0 18:36 04.10.2019
809 Clear 24 1013 22 10000 1 0 18:18 04.10.2019
810 Clear 26 1014 22 10000 0.5 10 17:39 04.10.2019
811 Clear 27 1014 21 10000 0.5 240 17:21 04.10.2019
812 Clear 28 1014 21 10000 2.1 230 16:57 04.10.2019
813 Clear 28 1014 21 10000 2.1 230 16:39 04.10.2019
814 Clear 28 1014 21 10000 2.1 230 16:39 04.10.2019
815 Clear 28 1014 19 10000 1.5 220 16:18 04.10.2019
816 Clouds 28 1015 19 10000 2.1 240 15:55 04.10.2019
817 Clouds 28 1015 19 10000 2.1 240 15:37 04.10.2019
818 Clouds 28 1015 19 10000 2.6 210 15:19 04.10.2019
819 Clouds 28 1015 19 10000 2.6 210 15:19 04.10.2019
820 -273 0 0 0 0 0 14:55 04.10.2019
821 Clouds 28 1015 21 10000 3.1 250 14:36 04.10.2019
822 Clouds 27 1016 19 10000 2.6 210 14:18 04.10.2019
823 Clouds 27 1016 21 10000 4.1 240 13:43 04.10.2019
824 Clouds 26 1016 21 10000 4.6 200 13:20 04.10.2019
825 Clouds 26 1016 22 10000 5.7 240 12:46 04.10.2019
826 Clouds 26 1016 22 10000 5.7 240 12:46 04.10.2019
827 Clear 25 1016 27 10000 2.6 0 12:28 04.10.2019
828 Clouds 24 1017 23 10000 5.1 210 11:59 04.10.2019
829 Clear 24 1017 29 10000 1.5 0 11:40 04.10.2019
830 Clear 24 1017 29 10000 1.5 0 11:40 04.10.2019
831 Clear 24 1017 29 10000 1.5 0 11:40 04.10.2019
832 Clouds 23 1017 27 10000 3.6 180 11:20 04.10.2019
833 Clouds 22 1018 25 10000 1.5 170 10:40 04.10.2019
834 Clear 20 1018 25 10000 2.1 190 10:21 04.10.2019
835 Clear 19 1018 25 10000 0.5 0 09:47 04.10.2019
836 Clear 19 1018 29 10000 0.5 0 09:28 04.10.2019
837 Clear 16 1018 30 10000 0.5 0 08:56 04.10.2019
838 Clear 17 1018 30 10000 0.5 0 08:38 04.10.2019
839 Clear 14 1018 33 10000 0.5 0 08:19 04.10.2019
840 Clear 11 1018 40 10000 0.5 0 07:44 04.10.2019
841 Clear 10 1018 54 10000 1 0 07:22 04.10.2019
842 Clear 9 1018 48 10000 0.87 142.959 06:44 04.10.2019
843 Clear 9 1018 48 10000 0.87 142.959 06:44 04.10.2019
844 Clear 10 1017 48 10000 1 0 06:25 04.10.2019
845 Clear 9 1017 48 10000 0.41 135.496 05:42 04.10.2019
846 Clear 10 1017 48 10000 0.41 135.496 05:18 04.10.2019
847 Clear 11 1017 45 10000 0.41 135.496 03:48 04.10.2019
848 Clear 11 1016 45 10000 0.39 200.92 02:53 04.10.2019
849 Clear 11 1016 45 10000 0.39 200.92 02:53 04.10.2019
850 Clear 13 1016 43 10000 1 0 01:55 04.10.2019
851 Clear 13 1016 43 10000 1 0 01:55 04.10.2019
852 Clear 11 1016 45 10000 0.6 191.348 01:30 04.10.2019
853 Clear 11 1016 45 10000 0.6 191.348 00:58 04.10.2019
854 Clear 14 1015 34 10000 0.5 350 23:58 03.10.2019
855 Clear 15 1015 34 10000 0.5 350 23:37 03.10.2019
856 Clear 15 1015 40 10000 1.1 195.379 23:18 03.10.2019
857 Clear 15 1015 40 10000 1.1 195.379 23:18 03.10.2019
858 Clear 15 1015 40 10000 1.1 195.379 23:18 03.10.2019
859 Clear 15 1015 40 10000 1.1 195.379 23:18 03.10.2019
860 Clear 14 1015 33 10000 1.5 30 22:55 03.10.2019
861 Clear 14 1015 33 10000 1.5 30 22:37 03.10.2019
862 Clear 16 1015 33 10000 2.6 30 22:18 03.10.2019
863 Clear 15 1015 30 10000 2.6 10 21:55 03.10.2019
864 Clear 15 1015 30 10000 2.6 10 21:36 03.10.2019
865 Clear 17 1015 30 10000 2.6 30 21:18 03.10.2019
866 Clear 17 1015 30 10000 2.6 30 21:18 03.10.2019
867 Clear 18 1015 27 10000 1.5 60 20:42 03.10.2019
868 Clear 19 1015 25 10000 1.5 80 20:23 03.10.2019
869 Clear 20 1015 25 10000 1.5 80 19:59 03.10.2019
870 Clear 20 1015 24 10000 1.5 60 19:41 03.10.2019
871 Clear 22 1015 22 10000 1.27 147.124 19:22 03.10.2019
872 Clear 23 1014 21 10000 1 230 18:58 03.10.2019
873 Clear 23 1014 21 10000 1 230 18:39 03.10.2019
874 Clear 22 1014 21 10000 3.6 230 18:19 03.10.2019
875 Clouds 23 1014 18 10000 3.6 230 17:56 03.10.2019
876 Clouds 23 1014 18 10000 3.6 230 17:37 03.10.2019
877 Clouds 27 1014 17 10000 3.1 220 17:19 03.10.2019
878 Clouds 27 1014 16 10000 4.1 260 16:41 03.10.2019
879 Clouds 27 1014 15 10000 4.1 260 16:23 03.10.2019
880 Clouds 27 1014 14 10000 4.6 240 15:55 03.10.2019
881 Clouds 27 1014 14 10000 4.6 240 15:55 03.10.2019
882 Clouds 28 1014 14 10000 4.6 240 15:37 03.10.2019
883 Clouds 27 1014 15 10000 5.1 230 15:19 03.10.2019
884 Clouds 27 1014 14 10000 4.6 260 14:44 03.10.2019
885 Clouds 27 1014 14 10000 5.1 240 14:26 03.10.2019
886 Clouds 27 1014 15 10000 4.6 240 13:57 03.10.2019
887 Clouds 27 1014 15 10000 4.6 240 13:39 03.10.2019
888 Clear 27 1014 21 10000 4.1 290 13:19 03.10.2019
889 Clouds 26 1014 19 10000 5.7 230 12:55 03.10.2019
890 Clouds 26 1014 19 10000 5.7 230 12:55 03.10.2019
891 Clouds 26 1014 19 10000 5.7 230 12:55 03.10.2019
892 Clouds 26 1014 19 10000 5.7 230 12:36 03.10.2019
893 Clear 26 1014 22 10000 3.1 250 12:18 03.10.2019
894 Clouds 24 1014 21 10000 1.5 0 11:40 03.10.2019
895 Clear 24 1014 31 10000 2.1 300 11:22 03.10.2019
896 Clouds 22 1015 23 10000 2.1 210 10:58 03.10.2019
897 Clouds 23 1015 23 10000 2.1 210 10:39 03.10.2019
898 Clouds 21 1015 20 10000 1.5 170 10:18 03.10.2019
899 Clouds 21 1015 26 10000 2.1 180 09:57 03.10.2019
900 Clouds 20 1015 26 10000 2.1 180 09:38 03.10.2019
901 Clear 18 1015 27 10000 1 0 09:19 03.10.2019
902 Clouds 17 1015 31 10000 1 0 08:43 03.10.2019
903 Clouds 15 1015 35 10000 1 0 08:25 03.10.2019
904 Clear 13 1014 40 10000 0.5 0 07:56 03.10.2019
905 Clear 13 1014 40 10000 0.5 0 07:37 03.10.2019
906 Clear 13 1014 54 10000 1.67 235.081 07:19 03.10.2019
907 Clear 11 1014 49 10000 1 0 06:35 03.10.2019
908 Clear 12 1014 43 10000 0.5 120 05:55 03.10.2019
909 Clear 12 1014 43 10000 0.5 120 05:37 03.10.2019
910 Clear 11 1013 49 10000 0.49 257.625 04:48 03.10.2019
911 Clear 12 1013 49 10000 1 0 04:24 03.10.2019
912 Clear 14 1013 46 10000 2.6 30 03:19 03.10.2019
913 Clear 14 1013 46 10000 2.6 30 03:19 03.10.2019
914 Clear 14 1014 28 10000 2.1 40 02:27 03.10.2019
915 Clear 14 1014 28 10000 2.6 210 01:41 03.10.2019
916 Clear 15 1014 37 10000 1.27 357.424 01:20 03.10.2019
917 Clear 15 1014 37 10000 1.27 357.424 00:41 03.10.2019
918 Clear 15 1014 40 10000 0.77 50.166 23:58 02.10.2019
919 Clear 16 1013 25 10000 0.77 50.166 23:38 02.10.2019
920 Clear 16 1013 25 10000 0.77 50.166 23:38 02.10.2019
921 Clear 16 1014 25 10000 1 0 23:19 02.10.2019
922 Clear 16 1014 31 10000 0.5 0 22:42 02.10.2019
923 Clear 17 1014 31 10000 0.5 0 22:20 02.10.2019
924 Clear 18 1014 30 10000 2.1 340 21:55 02.10.2019
925 Clear 17 1014 30 10000 2.1 340 21:37 02.10.2019
926 Clear 18 1014 23 10000 2.1 70 21:18 02.10.2019
927 Clear 19 1014 23 10000 1.5 80 20:55 02.10.2019
928 Clear 19 1014 23 10000 1.5 80 20:55 02.10.2019
929 Clear 19 1014 23 10000 1.5 80 20:55 02.10.2019
930 Clear 20 1014 23 10000 1.5 80 20:37 02.10.2019
931 Clear 20 1014 23 10000 2.1 110 20:19 02.10.2019
932 Clear 20 1014 22 10000 1.21 21.133 19:45 02.10.2019
933 Clear 22 1014 21 10000 1.21 21.133 19:23 02.10.2019
934 Clear 22 1014 21 10000 1.21 21.133 18:59 02.10.2019
935 Clear 23 1013 21 10000 1.21 21.133 18:40 02.10.2019
936 Clear 23 1013 20 10000 1.5 290 18:21 02.10.2019
937 Clear 25 1013 18 10000 3.05 260.04 17:58 02.10.2019
938 Clear 25 1013 18 10000 3.05 260.04 17:39 02.10.2019
939 Clear 27 1013 18 10000 2.6 250 17:20 02.10.2019
940 Clear 28 1012 18 10000 2.6 0 16:57 02.10.2019
941 Clear 28 1012 18 10000 2.6 0 16:37 02.10.2019
942 Clear 28 1013 15 10000 3.1 0 16:18 02.10.2019
943 Clear 29 1013 15 10000 3.1 0 15:55 02.10.2019
944 Clear 29 1013 17 10000 2.1 0 15:36 02.10.2019
945 Clear 29 1013 17 10000 2.1 0 15:18 02.10.2019
946 Clear 28 1013 20 10000 3.1 0 14:43 02.10.2019
947 Clear 28 1013 20 10000 3.1 0 14:22 02.10.2019
948 Clear 28 1014 14 10000 4.6 240 13:48 02.10.2019
949 Clear 28 1014 21 10000 2.6 130 13:29 02.10.2019
950 Clear 26 1015 22 10000 2.6 360 12:59 02.10.2019
951 Clear 26 1015 26 10000 2.1 0 12:39 02.10.2019
952 Clear 26 1015 26 10000 2.1 0 12:21 02.10.2019
953 Clear 25 1015 23 10000 1 320 11:45 02.10.2019
954 Clear 25 1015 29 10000 1 0 11:24 02.10.2019
955 Clear 23 1016 27 10000 2.6 350 10:55 02.10.2019
956 Clear 23 1016 33 10000 1 0 10:36 02.10.2019
957 Clear 23 1016 33 10000 1 0 10:18 02.10.2019
958 Clear 21 1016 37 10000 1.61 137.116 09:39 02.10.2019
959 Clear 19 1016 37 10000 2.21 55.214 09:20 02.10.2019
960 Clear 17 1016 37 10000 0.5 0 08:55 02.10.2019
961 Clear 16 1016 48 10000 2.07 57.024 08:36 02.10.2019
962 Clear 16 1016 48 10000 2.07 57.024 08:18 02.10.2019
963 Clear 14 1016 62 10000 2.07 57.024 07:39 02.10.2019
964 Clear 14 1016 62 10000 2.07 57.024 07:20 02.10.2019
965 Clear 11 1016 57 10000 1 0 06:46 02.10.2019
966 Clear 10 1016 50 10000 1.5 60 05:56 02.10.2019
967 Clear 10 1016 66 10000 2.47 39.276 05:24 02.10.2019
968 Clear 10 1017 57 10000 0.5 0 04:53 02.10.2019
969 Clear 11 1016 47 10000 3.6 30 03:52 02.10.2019
970 Clear 13 1016 57 10000 0.5 220 02:42 02.10.2019
971 Clear 13 1016 57 10000 0.5 220 02:23 02.10.2019
972 Clear 14 1016 58 10000 0.5 220 01:40 02.10.2019
973 Clear 13 1017 47 10000 3.11 33.833 00:50 02.10.2019
974 Clear 13 1016 54 10000 3.08 25.624 00:26 02.10.2019
975 Clear 14 1016 47 10000 3.08 25.624 23:43 01.10.2019
976 Clear 14 1016 47 10000 3.08 25.624 23:25 01.10.2019
977 Clear 15 1017 38 10000 2.6 20 22:59 01.10.2019
978 Clear 15 1016 38 10000 3.08 25.624 22:40 01.10.2019
979 Clear 15 1016 38 10000 3.08 25.624 22:20 01.10.2019
980 Clear 15 1016 38 10000 3.08 25.624 22:19 01.10.2019
981 Clear 16 1016 36 10000 0.5 0 21:57 01.10.2019
982 Clear 16 1016 33 10000 1 0 21:38 01.10.2019
983 Clear 16 1016 33 10000 1 0 21:19 01.10.2019
984 Clear 17 1016 33 10000 0.5 330 20:55 01.10.2019
985 Clear 17 1016 33 10000 0.5 330 20:55 01.10.2019
986 Clear 18 1015 38 10000 1.5 230 20:37 01.10.2019
987 Clear 18 1015 38 10000 1.5 230 20:18 01.10.2019
988 Clear 19 1016 28 10000 2.1 360 19:55 01.10.2019
989 Clear 19 1016 28 10000 2.1 360 19:55 01.10.2019
990 Clear 20 1015 38 10000 1 0 19:37 01.10.2019
991 Clear 20 1015 38 10000 1 0 19:37 01.10.2019
992 Clear 20 1015 38 10000 1 0 19:18 01.10.2019
993 Clear 22 1014 20 10000 1 230 18:40 01.10.2019
994 Clear 22 1014 20 10000 1 230 18:21 01.10.2019
995 Clear 27 1014 12 10000 1 0 17:58 01.10.2019
996 Clear 27 1014 12 10000 1 0 17:39 01.10.2019
997 Clear 27 1014 12 10000 1 0 17:19 01.10.2019
998 Clear 28 1014 13 10000 2.6 210 16:57 01.10.2019
999 Clear 28 1014 18 10000 2.1 240 16:39 01.10.2019
1000 Clear 28 1014 18 10000 2.1 240 16:20 01.10.2019
1001 Clear 27 1014 18 10000 2.6 0 15:42 01.10.2019
1002 Clear 27 1014 18 10000 2.6 0 15:22 01.10.2019
1003 Clear 28 1014 17 10000 1.5 0 14:41 01.10.2019
1004 Clear 28 1014 17 10000 1.5 0 14:20 01.10.2019
1005 Clear 28 1014 17 10000 1.5 0 14:20 01.10.2019
1006 Clear 27 1015 15 10000 1.5 0 13:58 01.10.2019
1007 Clear 27 1015 15 10000 2.1 190 13:39 01.10.2019
1008 Clear 27 1015 15 10000 2.1 190 13:39 01.10.2019
1009 Clear 27 1015 15 10000 2.1 190 13:39 01.10.2019
1010 Clear 27 1015 15 10000 2.1 190 13:39 01.10.2019
1011 Clear 26 1015 15 10000 2.1 190 13:20 01.10.2019
1012 Clear 25 1015 19 10000 1 0 12:57 01.10.2019
1013 Clear 25 1015 22 10000 2.1 0 12:39 01.10.2019
1014 Clear 25 1015 22 10000 2.1 0 12:18 01.10.2019
1015 Clear 24 1016 20 10000 1.5 350 11:57 01.10.2019
1016 Clear 23 1016 27 10000 2.1 0 11:38 01.10.2019
1017 Clear 23 1016 27 10000 2.1 0 11:18 01.10.2019
1018 Clear 23 1016 27 10000 2.1 0 11:18 01.10.2019
1019 Clear 21 1016 32 10000 2.1 0 10:48 01.10.2019
1020 Clear 21 1016 32 10000 2.1 0 10:29 01.10.2019
1021 Clear 18 1016 32 10000 1 0 09:47 01.10.2019
1022 Clear 18 1016 37 10000 1.1 339.383 09:27 01.10.2019
1023 Clear 15 1016 32 10000 1.66 334.439 08:56 01.10.2019
1024 Clear 14 1016 44 10000 1.73 340.894 08:38 01.10.2019
1025 Clear 11 1016 31 10000 0.5 0 08:20 01.10.2019
1026 Clear 10 1016 57 10000 0.5 0 07:42 01.10.2019
1027 Clear 10 1016 57 10000 0.5 0 07:22 01.10.2019
1028 Clear 7 1015 61 10000 1.5 40 06:45 01.10.2019
1029 Clear 7 1015 61 10000 1.5 40 06:18 01.10.2019
1030 Clear 7 1015 65 10000 2.1 220 05:45 01.10.2019
1031 Clear 7 1015 52 10000 0.5 0 04:49 01.10.2019
1032 Clear 10 1015 49 10000 1.61 5.062 03:58 01.10.2019
1033 Clear 9 1014 61 10000 0.5 0 02:24 01.10.2019
1034 Clear 10 1015 49 10000 0.5 350 01:57 01.10.2019
1035 Clear 11 1015 35 10000 1.77 17.565 00:53 01.10.2019
1036 Clear 12 1014 43 10000 0.38 347.372 00:26 01.10.2019
1037 Clear 12 1014 40 10000 0.38 347.372 23:55 30.09.2019
1038 Clear 12 1014 50 10000 0.38 347.372 23:37 30.09.2019
1039 Clear 12 1014 50 10000 0.38 347.372 23:18 30.09.2019
1040 Clear 13 1014 47 10000 0.38 347.372 22:42 30.09.2019
1041 Clear 13 1014 47 10000 0.38 347.372 22:23 30.09.2019
1042 Clear 14 1014 37 10000 2.6 30 21:56 30.09.2019
1043 Clear 14 1013 44 10000 1 230 21:37 30.09.2019
1044 Clear 14 1013 44 10000 1 230 21:19 30.09.2019
1045 -273 0 0 0 0 0 20:55 30.09.2019
1046 Clear 16 1014 29 10000 0.55 61.678 20:55 30.09.2019
1047 Clear 16 1013 42 10000 0.5 230 20:37 30.09.2019
1048 Clear 16 1013 42 10000 0.5 230 20:19 30.09.2019
1049 Clear 19 1014 30 10000 1 0 19:56 30.09.2019
1050 Clear 19 1014 30 10000 1 0 19:56 30.09.2019
1051 Clear 19 1013 34 10000 1 0 19:37 30.09.2019
1052 Clear 20 1013 34 10000 1 0 19:18 30.09.2019
1053 Clear 22 1013 27 10000 1 280 18:42 30.09.2019
1054 Clear 22 1013 27 10000 1 280 18:22 30.09.2019
1055 Clear 25 1013 20 10000 2.1 250 17:59 30.09.2019
1056 Clear 26 1013 22 10000 2.6 0 17:40 30.09.2019
1057 Clear 26 1013 22 10000 2.6 0 17:21 30.09.2019
1058 Clear 26 1014 16 10000 2.6 220 16:56 30.09.2019
1059 Clear 26 1014 16 10000 3.6 240 16:37 30.09.2019
1060 Clear 27 1014 16 10000 3.6 240 16:18 30.09.2019
1061 Clear 27 1014 23 10000 4.1 210 15:55 30.09.2019
1062 Clear 27 1013 19 10000 2.1 0 15:37 30.09.2019
1063 Clear 27 1013 19 10000 2.1 0 15:18 30.09.2019
1064 Clear 27 1014 21 10000 4.1 190 14:57 30.09.2019
1065 Clear 27 1014 24 10000 2.6 250 14:37 30.09.2019
1066 Clear 27 1014 24 10000 2.6 250 14:18 30.09.2019
1067 Clear 26 1015 19 10000 3.1 200 13:44 30.09.2019
1068 Clear 26 1015 26 10000 2.6 270 13:22 30.09.2019
1069 Clouds 26 1016 21 10000 4.6 210 12:58 30.09.2019
1070 Clouds 26 1016 21 10000 4.6 210 12:58 30.09.2019
1071 Clear 25 1016 26 10000 2.1 90 12:40 30.09.2019
1072 Clear 25 1016 26 10000 2.1 90 12:20 30.09.2019
1073 Clear 23 1016 33 10000 2.1 0 11:43 30.09.2019
1074 Clear 23 1016 33 10000 2.1 0 11:22 30.09.2019
1075 Clouds 22 1017 30 10000 1.5 0 10:59 30.09.2019
1076 Clear 21 1017 33 10000 1 0 10:39 30.09.2019
1077 Clear 21 1017 33 10000 1 0 10:19 30.09.2019
1078 Clear 21 1017 33 10000 1 0 10:19 30.09.2019
1079 Clouds 19 1017 37 10000 0.5 0 09:58 30.09.2019
1080 Clear 19 1017 39 10000 0.5 0 09:39 30.09.2019
1081 Clear 19 1017 39 10000 0.5 0 09:39 30.09.2019
1082 Clear 19 1017 39 10000 0.5 0 09:19 30.09.2019
1083 Clear 16 1018 44 10000 0.5 0 08:46 30.09.2019
1084 Clear 15 1017 51 10000 1.16 49.57 08:28 30.09.2019
1085 Clear 12 1018 50 10000 1.16 49.57 07:44 30.09.2019
1086 Clear 12 1017 71 10000 1.16 49.57 07:26 30.09.2019
1087 Clear 9 1018 65 10000 1.16 49.57 06:50 30.09.2019
1088 Clear 9 1018 65 10000 1.16 49.57 06:50 30.09.2019
1089 Clear 7 1017 75 10000 1.16 49.57 06:32 30.09.2019
1090 Clear 7 1017 65 10000 1.75 28.519 05:47 30.09.2019
1091 Clear 9 1017 66 10000 1.75 28.519 03:45 30.09.2019
1092 Clear 10 1017 53 10000 2.25 27.827 02:46 30.09.2019
1093 Clear 12 1017 62 10000 1 210 01:35 30.09.2019
1094 Clear 13 1017 58 10000 2.21 27.437 00:42 30.09.2019
1095 Clear 12 1017 58 10000 2.33 24.022 00:21 30.09.2019
1096 Clear 13 1018 50 10000 0.5 0 23:46 29.09.2019
1097 Clear 13 1017 50 10000 2.33 24.022 23:23 29.09.2019
1098 Clear 14 1018 41 10000 2.33 24.022 22:55 29.09.2019
1099 Clear 14 1017 51 10000 1 0 22:37 29.09.2019
1100 Clear 14 1017 51 10000 1 0 22:19 29.09.2019
1101 Clear 15 1018 44 10000 2.6 330 21:57 29.09.2019
1102 Clear 15 1017 51 10000 1.5 240 21:37 29.09.2019
1103 Clear 15 1017 51 10000 1.5 240 21:19 29.09.2019
1104 Clear 17 1017 33 10000 1.19 10.697 20:44 29.09.2019
1105 Clear 17 1017 42 10000 1.26 9.86 20:20 29.09.2019
1106 Clear 18 1017 31 10000 1.26 9.86 19:59 29.09.2019
1107 Clear 19 1016 39 10000 1 250 19:38 29.09.2019
1108 Clear 20 1016 39 10000 1 250 19:19 29.09.2019
1109 Clear 21 1017 30 10000 0.5 180 18:56 29.09.2019
1110 Clear 21 1016 33 10000 2.1 250 18:38 29.09.2019
1111 Clear 22 1016 33 10000 2.1 250 18:38 29.09.2019
1112 Clear 22 1016 33 10000 2.1 250 18:19 29.09.2019
1113 Clear 24 1016 26 10000 3.6 200 17:58 29.09.2019
1114 Clear 24 1016 25 10000 2.6 250 17:40 29.09.2019
1115 Clear 24 1016 25 10000 2.6 250 17:19 29.09.2019
1116 Clear 25 1016 23 10000 5.1 210 16:58 29.09.2019
1117 Clear 25 1016 25 10000 2.6 240 16:40 29.09.2019
1118 Clear 25 1016 25 10000 2.6 240 16:19 29.09.2019
1119 Clear 25 1016 22 10000 4.1 180 15:57 29.09.2019
1120 Clear 25 1016 22 10000 4.1 180 15:57 29.09.2019
1121 Clear 25 1016 23 10000 2.6 0 15:36 29.09.2019
1122 Clear 25 1016 23 10000 2.6 0 15:18 29.09.2019
1123 Clear 25 1017 25 10000 2.6 190 14:55 29.09.2019
1124 Clear 25 1017 27 10000 1.5 0 14:36 29.09.2019
1125 Clear 25 1017 27 10000 1.5 0 14:18 29.09.2019
1126 Clear 24 1017 31 10000 2.6 0 13:42 29.09.2019
1127 Clear 23 1017 31 10000 2.6 0 13:19 29.09.2019
1128 Clear 23 1018 31 10000 2.1 0 12:58 29.09.2019
1129 Clear 23 1018 35 10000 2.6 0 12:40 29.09.2019
1130 Clear 23 1018 35 10000 2.6 0 12:21 29.09.2019
1131 Clear 21 1019 35 10000 2.6 190 11:57 29.09.2019
1132 Clear 21 1019 40 10000 1.5 0 11:39 29.09.2019
1133 Clear 20 1019 40 10000 1.5 0 11:18 29.09.2019
1134 Clear 19 1019 40 10000 1 0 10:57 29.09.2019
1135 Clear 19 1019 40 10000 1 0 10:57 29.09.2019
1136 Clear 19 1019 45 10000 2.17 253.724 10:37 29.09.2019
1137 Clear 19 1019 45 10000 2.17 253.724 10:18 29.09.2019
1138 Clear 17 1020 48 10000 1.5 80 09:47 29.09.2019
1139 Clear 17 1020 48 10000 1 0 09:21 29.09.2019
1140 Clear 15 1020 58 10000 1.5 320 08:59 29.09.2019
1141 Clear 14 1020 58 10000 1.5 320 08:41 29.09.2019
1142 Clear 15 1019 51 10000 0.9 49.85 08:21 29.09.2019
1143 Clear 11 1019 71 10000 0.9 49.85 07:43 29.09.2019
1144 Clear 11 1019 71 10000 0.9 49.85 07:43 29.09.2019
1145 Clear 11 1019 71 10000 0.9 49.85 07:25 29.09.2019
1146 Clear 8 1019 81 10000 0.9 49.85 06:45 29.09.2019
1147 Clear 7 1019 75 10000 1 0 05:47 29.09.2019
1148 Clear 9 1019 76 10000 1.43 40.549 04:40 29.09.2019
1149 Clear 9 1019 76 10000 1.43 40.549 04:22 29.09.2019
1150 Clear 10 1019 70 10000 1.73 34.251 02:47 29.09.2019
1151 Clear 10 1019 71 10000 1.73 34.251 02:18 29.09.2019
1152 Clear 11 1020 66 10000 1 250 01:32 29.09.2019
1153 Clear 11 1020 62 10000 0.5 20 00:53 29.09.2019
1154 Clear 12 1020 66 10000 2.76 31.465 00:21 29.09.2019
1155 Clear 12 1020 66 10000 2.76 31.465 00:21 29.09.2019
1156 Clear 13 1020 58 10000 1.5 220 23:44 28.09.2019
1157 Clear 13 1020 58 10000 1.5 220 23:23 28.09.2019
1158 Clear 14 1020 58 10000 2.1 350 22:59 28.09.2019
1159 Clear 14 1020 58 10000 1 0 22:38 28.09.2019
1160 Clear 14 1020 58 10000 1 0 22:38 28.09.2019
1161 Clear 14 1020 58 10000 1 0 22:20 28.09.2019
1162 Clear 15 1020 54 10000 1 0 21:57 28.09.2019
1163 Clear 16 1020 45 10000 2.76 31.465 21:38 28.09.2019
1164 Clear 16 1020 45 10000 2.69 31.352 21:20 28.09.2019
1165 Clear 16 1021 47 10000 1 0 20:57 28.09.2019
1166 Clear 17 1020 42 10000 4.1 40 20:38 28.09.2019
1167 Clear 17 1020 42 10000 4.1 40 20:18 28.09.2019
1168 Clouds 19 1020 45 10000 5.1 50 19:56 28.09.2019
1169 Clear 19 1019 42 10000 2.6 360 19:37 28.09.2019
1170 Clear 19 1019 42 10000 2.6 360 19:19 28.09.2019
1171 Clear 20 1019 40 10000 2.1 220 18:43 28.09.2019
1172 Clear 20 1019 40 10000 2.1 220 18:22 28.09.2019
1173 Clouds 21 1019 39 10000 5.7 40 18:00 28.09.2019
1174 Clouds 21 1019 39 10000 5.7 40 18:00 28.09.2019
1175 Clear 22 1019 33 10000 2.1 240 17:41 28.09.2019
1176 Clear 22 1019 33 10000 2.1 240 17:22 28.09.2019
1177 Clouds 22 1019 35 10000 4.6 30 16:56 28.09.2019
1178 Clouds 22 1019 35 10000 4.6 30 16:55 28.09.2019
1179 Clouds 23 1019 35 10000 3.1 210 16:37 28.09.2019
1180 Clouds 23 1019 35 10000 3.1 210 16:18 28.09.2019
1181 Clouds 23 1019 35 10000 2.1 0 15:40 28.09.2019
1182 Clouds 23 1019 35 10000 2.1 0 15:22 28.09.2019
1183 Clouds 22 1020 33 10000 2.1 0 14:55 28.09.2019
1184 Clouds 22 1020 37 10000 3.1 0 14:37 28.09.2019
1185 Clouds 22 1020 37 10000 3.1 0 14:19 28.09.2019
1186 Clouds 21 1020 37 10000 2.6 80 13:44 28.09.2019
1187 Clouds 21 1020 40 10000 2.6 0 13:20 28.09.2019
1188 Clouds 20 1021 40 10000 2.1 0 12:58 28.09.2019
1189 Clouds 20 1021 40 10000 3.1 0 12:39 28.09.2019
1190 Clouds 20 1021 40 10000 3.1 0 12:18 28.09.2019
1191 Clouds 19 1021 45 10000 2.1 0 11:41 28.09.2019
1192 Clouds 19 1021 45 10000 2.1 0 11:21 28.09.2019
1193 Clouds 18 1021 45 10000 1.5 0 10:59 28.09.2019
1194 Clouds 18 1022 48 10000 2.1 0 10:39 28.09.2019
1195 Clouds 18 1022 48 10000 2.1 0 10:19 28.09.2019
1196 Clear 16 1022 55 10000 0.5 0 09:41 28.09.2019
1197 Clear 16 1022 55 10000 0.5 0 09:41 28.09.2019
1198 Clear 16 1022 55 10000 0.5 0 09:22 28.09.2019
1199 Clouds 15 1022 54 10000 1 0 08:48 28.09.2019
1200 Clear 14 1021 62 10000 1 0 08:30 28.09.2019
1201 Clouds 11 1021 71 10000 0.5 0 07:59 28.09.2019
1202 Clear 10 1021 71 10000 0.41 327.593 07:41 28.09.2019
1203 Clear 10 1021 71 10000 0.41 327.593 07:19 28.09.2019
1204 Clear 8 1021 81 10000 1.5 330 06:45 28.09.2019
1205 Clear 8 1021 81 10000 1.47 346.343 06:25 28.09.2019
1206 Clear 8 1021 81 10000 1.5 210 05:41 28.09.2019
1207 Clear 9 1021 81 10000 1.5 210 05:19 28.09.2019
1208 Clear 10 1020 81 10000 1.5 220 04:36 28.09.2019
1209 Clear 10 1020 71 10000 1.47 346.343 03:45 28.09.2019
1210 Clear 10 1020 81 10000 1.83 6.458 03:20 28.09.2019
1211 Clear 11 1020 71 10000 1 0 02:42 28.09.2019
1212 Clear 11 1020 71 10000 1 0 02:23 28.09.2019
1213 Clear 11 1020 66 10000 0.5 0 01:45 28.09.2019
1214 Clear 11 1020 76 10000 2.6 230 01:24 28.09.2019
1215 Clear 13 1020 62 10000 2.1 310 00:49 28.09.2019
1216 Clear 13 1020 62 10000 2.1 310 00:49 28.09.2019
1217 Clear 13 1019 62 10000 2.1 210 00:30 28.09.2019
1218 Clear 14 1019 59 10000 2.15 15.337 23:41 27.09.2019
1219 Clear 14 1019 59 10000 2.15 15.337 23:41 27.09.2019
1220 Clear 14 1019 59 10000 2.15 15.337 23:22 27.09.2019
1221 Clouds 15 1019 58 10000 3.1 300 22:58 27.09.2019
1222 Clear 15 1019 59 10000 0.5 0 22:40 27.09.2019
1223 Clear 15 1019 59 10000 0.5 0 22:18 27.09.2019
1224 Clouds 17 1019 55 10000 3.6 300 21:55 27.09.2019
1225 Clear 17 1018 55 10000 0.5 0 21:36 27.09.2019
1226 Clear 17 1018 55 10000 0.5 0 21:18 27.09.2019
1227 Clouds 18 1018 48 10000 1.5 290 20:43 27.09.2019
1228 Clear 18 1017 52 10000 1 0 20:20 27.09.2019
1229 Clouds 19 1017 48 10000 3.1 360 19:59 27.09.2019
1230 Clear 19 1016 52 10000 2.6 10 19:41 27.09.2019
1231 Clear 19 1016 52 10000 2.6 10 19:23 27.09.2019
1232 Clouds 20 1016 48 10000 3.6 320 18:55 27.09.2019
1233 Clouds 21 1015 46 10000 2.1 0 18:37 27.09.2019
1234 Clouds 21 1015 46 10000 2.1 0 18:19 27.09.2019
1235 Clouds 22 1015 40 10000 4.6 240 17:40 27.09.2019
1236 Clouds 22 1015 40 10000 4.6 240 17:22 27.09.2019
1237 Clouds 24 1015 33 10000 7.2 270 16:59 27.09.2019
1238 Clouds 24 1015 33 10000 7.2 270 16:41 27.09.2019
1239 Clouds 24 1014 38 10000 4.1 250 16:20 27.09.2019
1240 Clouds 25 1014 33 10000 7.2 270 15:55 27.09.2019
1241 Clouds 25 1014 33 10000 5.7 240 15:37 27.09.2019
1242 Clouds 25 1014 33 10000 5.7 240 15:19 27.09.2019
1243 Clouds 25 1015 29 10000 6.2 240 14:55 27.09.2019
1244 Clouds 26 1014 29 10000 6.2 270 14:37 27.09.2019
1245 Clouds 26 1014 29 10000 6.2 270 14:18 27.09.2019
1246 Clouds 26 1015 34 10000 5.1 230 13:42 27.09.2019
1247 Clouds 26 1015 34 10000 5.1 230 13:22 27.09.2019
1248 Clouds 24 1015 31 10000 6.2 230 12:57 27.09.2019
1249 Clouds 23 1016 33 10000 7.2 220 12:38 27.09.2019
1250 Clouds 23 1016 33 10000 7.2 220 12:20 27.09.2019
1251 Clouds 23 1016 43 10000 2.6 0 11:39 27.09.2019
1252 Clouds 23 1016 43 10000 2.6 0 11:21 27.09.2019
1253 Clouds 22 1016 43 10000 1.5 0 10:57 27.09.2019
1254 Clouds 22 1016 43 10000 1.5 0 10:39 27.09.2019
1255 Clouds 22 1016 43 10000 1.5 0 10:39 27.09.2019
1256 Clouds 22 1016 43 10000 1.5 0 10:20 27.09.2019
1257 Clouds 20 1017 42 10000 0.5 0 09:42 27.09.2019
1258 Clouds 18 1017 42 10000 0.5 0 09:21 27.09.2019
1259 Clouds 17 1017 51 10000 1 0 08:57 27.09.2019
1260 Clear 17 1016 55 10000 1 0 08:38 27.09.2019
1261 Clear 17 1016 55 10000 1 0 08:38 27.09.2019
1262 Clear 17 1016 55 10000 1 0 08:19 27.09.2019
1263 Clouds 14 1016 58 10000 0.5 0 07:45 27.09.2019
1264 Clear 14 1016 66 10000 0.55 288.073 07:22 27.09.2019
1265 Clear 11 1015 71 10000 0.5 220 06:43 27.09.2019
1266 Clear 11 1015 71 10000 0.5 220 06:23 27.09.2019
1267 Clear 12 1015 66 10000 0.5 0 05:50 27.09.2019
1268 Clear 12 1015 71 10000 0.5 50 05:31 27.09.2019
1269 Clear 12 1015 71 10000 1 40 03:55 27.09.2019
1270 Clear 12 1015 66 10000 1.84 4.904 02:41 27.09.2019
1271 Clear 13 1015 66 10000 1.84 4.904 01:44 27.09.2019
1272 Clear 14 1015 58 10000 1.98 5.315 00:59 27.09.2019
1273 Clear 13 1015 62 10000 1.78 13.684 00:20 27.09.2019
1274 Clear 14 1016 50 10000 1.78 13.684 23:56 26.09.2019
1275 Clear 14 1015 58 10000 1.78 13.684 23:37 26.09.2019
1276 Clear 15 1015 58 10000 1.78 13.684 23:18 26.09.2019
1277 Clear 15 1015 58 10000 1.78 13.684 22:55 26.09.2019
1278 Clear 16 1015 55 10000 1 250 22:37 26.09.2019
1279 Clear 16 1015 55 10000 1 250 22:18 26.09.2019
1280 Clear 16 1015 55 10000 1 250 22:18 26.09.2019
1281 Clear 17 1015 51 10000 1.78 13.684 21:55 26.09.2019
1282 Clear 17 1015 44 10000 1.78 13.684 21:36 26.09.2019
1283 Clear 18 1015 44 10000 0.7 89.836 21:18 26.09.2019
1284 Clear 18 1015 44 10000 0.7 89.836 21:18 26.09.2019
1285 Clear 18 1015 44 10000 0.7 89.836 21:18 26.09.2019
1286 Clear 18 1015 44 10000 2.6 50 20:55 26.09.2019
1287 Clear 18 1014 48 10000 1 0 20:37 26.09.2019
1288 Clear 18 1014 48 10000 1 0 20:19 26.09.2019
1289 Clouds 19 1014 42 10000 1.5 230 19:40 26.09.2019
1290 Clouds 20 1014 42 10000 1.5 230 19:18 26.09.2019
1291 Clouds 21 1014 34 10000 0.75 50.91 18:58 26.09.2019
1292 Clouds 22 1014 35 10000 1 0 18:39 26.09.2019
1293 Clouds 21 1014 35 10000 1 0 18:21 26.09.2019
1294 Clouds 24 1014 29 10000 3.1 250 17:39 26.09.2019
1295 Clouds 24 1014 29 10000 3.1 250 17:19 26.09.2019
1296 Clouds 24 1014 29 10000 3.1 250 17:19 26.09.2019
1297 Clouds 25 1014 29 10000 3.6 250 16:59 26.09.2019
1298 Clouds 25 1014 27 10000 3.1 250 16:39 26.09.2019
1299 Clouds 25 1014 27 10000 3.1 250 16:20 26.09.2019
1300 Clouds 25 1014 27 10000 5.1 260 15:58 26.09.2019
1301 Clouds 25 1014 31 10000 3.6 0 15:38 26.09.2019
1302 Clouds 25 1014 31 10000 3.6 0 15:19 26.09.2019
1303 Clouds 25 1015 31 10000 5.7 250 14:57 26.09.2019
1304 Clouds 24 1014 38 10000 3.1 0 14:37 26.09.2019
1305 Clouds 24 1014 38 10000 3.1 0 14:19 26.09.2019
1306 Clouds 24 1015 38 10000 4.6 250 13:41 26.09.2019
1307 Clouds 24 1015 38 10000 4.6 250 13:20 26.09.2019
1308 Clouds 24 1015 38 10000 4.6 250 13:20 26.09.2019
1309 Clouds 23 1015 40 10000 3.1 220 12:57 26.09.2019
1310 Clouds 23 1015 49 10000 4.1 260 12:39 26.09.2019
1311 Clouds 23 1015 49 10000 4.1 260 12:20 26.09.2019
1312 Clouds 21 1015 53 10000 2.1 270 11:42 26.09.2019
1313 Clouds 22 1015 53 10000 2.1 270 11:22 26.09.2019
1314 Clouds 21 1016 52 10000 1.5 280 10:56 26.09.2019
1315 Clouds 21 1016 52 10000 1.5 280 10:56 26.09.2019
1316 Clouds 21 1016 52 10000 1.5 280 10:56 26.09.2019
1317 Clouds 20 1016 56 10000 2.1 0 10:38 26.09.2019
1318 Clouds 20 1016 56 10000 2.1 0 10:19 26.09.2019
1319 Clouds 19 1016 63 10000 1 0 09:44 26.09.2019
1320 Clouds 19 1016 63 10000 0.5 0 09:25 26.09.2019
1321 Clouds 16 1016 72 10000 0.5 0 08:57 26.09.2019
1322 Clouds 16 1016 72 10000 0.3 1.359 08:39 26.09.2019
1323 Clouds 16 1016 72 10000 0.3 1.359 08:21 26.09.2019
1324 Clouds 14 1015 77 10000 0.5 240 07:42 26.09.2019
1325 Clouds 14 1015 77 10000 0.5 240 07:21 26.09.2019
1326 Clouds 14 1016 81 10000 0.3 1.359 06:44 26.09.2019
1327 Clouds 14 1015 82 10000 0.5 0 06:25 26.09.2019
1328 Clouds 13 1015 82 10000 1.5 310 05:44 26.09.2019
1329 Clouds 14 1015 82 10000 1.5 310 05:24 26.09.2019
1330 Clouds 14 1014 77 10000 0.71 17.876 02:51 26.09.2019
1331 Clouds 15 1015 82 10000 0.71 17.876 01:53 26.09.2019
1332 Clouds 15 1015 82 10000 0.71 17.876 01:53 26.09.2019
1333 Clouds 15 1015 72 10000 0.38 345.596 01:28 26.09.2019
1334 Clouds 14 1015 82 10000 0.38 345.596 00:55 26.09.2019
1335 Clear 14 1015 82 10000 0.38 345.596 00:37 26.09.2019
1336 Clouds 14 1015 76 10000 1.5 130 23:57 25.09.2019
1337 Clear 14 1015 76 10000 0.5 0 23:38 25.09.2019
1338 Clear 14 1015 76 10000 0.5 0 23:18 25.09.2019
1339 Clear 14 1014 76 10000 0.69 30.377 22:41 25.09.2019
1340 Clear 14 1014 76 10000 0.69 30.377 22:20 25.09.2019
1341 Clouds 16 1015 76 10000 0.69 30.377 21:57 25.09.2019
1342 Clouds 16 1014 77 10000 1 250 21:39 25.09.2019
1343 Clouds 16 1014 77 10000 1 250 21:19 25.09.2019
1344 Clouds 16 1014 77 10000 0.59 18.374 20:58 25.09.2019
1345 Clouds 17 1014 67 10000 1 240 20:40 25.09.2019
1346 Clouds 17 1014 67 10000 1 240 20:22 25.09.2019
1347 Clouds 17 1014 67 10000 2.6 70 19:54 25.09.2019
1348 Clouds 17 1013 67 10000 1.52 11.48 19:36 25.09.2019
1349 Clouds 19 1013 59 10000 0.5 0 19:18 25.09.2019
1350 Clouds 19 1013 59 10000 0.5 0 18:55 25.09.2019
1351 Clouds 19 1013 56 10000 2.1 20 18:37 25.09.2019
1352 Clouds 20 1013 59 10000 0.5 0 18:18 25.09.2019
1353 Clouds 20 1012 52 10000 3.1 250 17:38 25.09.2019
1354 Clouds 20 1012 52 10000 3.1 250 17:19 25.09.2019
1355 Clouds 21 1013 59 10000 1 0 16:55 25.09.2019
1356 Clouds 21 1012 49 10000 2.6 260 16:36 25.09.2019
1357 Clouds 21 1012 49 10000 2.6 260 16:18 25.09.2019
1358 Clouds 21 1013 55 10000 2.1 280 15:41 25.09.2019
1359 Clouds 21 1012 49 10000 3.6 260 15:41 25.09.2019
1360 Clouds 21 1012 49 10000 3.6 260 15:23 25.09.2019
1361 Clouds 21 1013 63 10000 2.6 200 14:57 25.09.2019
1362 Rain 20 1012 52 10000 1.5 300 14:39 25.09.2019
1363 Rain 20 1012 52 10000 1.5 300 14:21 25.09.2019
1364 Rain 19 1013 63 10000 2.6 220 13:42 25.09.2019
1365 Rain 19 1013 63 10000 2.6 220 13:24 25.09.2019
1366 Rain 19 1013 63 10000 3.6 210 12:59 25.09.2019
1367 Rain 18 1013 72 10000 3.6 240 12:39 25.09.2019
1368 Rain 18 1013 72 10000 3.6 240 12:21 25.09.2019
1369 Rain 18 1013 59 10000 3.1 220 11:55 25.09.2019
1370 Rain 18 1013 68 10000 2.6 230 11:36 25.09.2019
1371 Rain 18 1013 68 10000 2.6 230 11:18 25.09.2019
1372 Rain 18 1013 68 10000 1.5 300 10:43 25.09.2019
1373 Rain 18 1013 68 10000 1.5 300 10:24 25.09.2019
1374 Rain 18 1013 59 10000 2.1 200 09:57 25.09.2019
1375 Clouds 18 1012 55 10000 1.5 220 09:37 25.09.2019
1376 Clouds 18 1012 55 10000 1.5 220 09:19 25.09.2019
1377 Clouds 18 1013 48 10000 3.1 190 08:44 25.09.2019
1378 Clouds 18 1012 59 10000 1 260 08:21 25.09.2019
1379 Clouds 17 1012 51 10000 2.6 180 07:57 25.09.2019
1380 Clouds 17 1012 67 10000 2.22 209.396 07:38 25.09.2019
1381 Clouds 17 1012 67 10000 2.22 209.396 07:20 25.09.2019
1382 Clouds 16 1011 72 10000 2.22 209.396 06:43 25.09.2019
1383 Clouds 16 1011 72 10000 1.41 344.552 06:22 25.09.2019
1384 Clouds 16 1011 67 10000 1 0 05:28 25.09.2019
1385 Clouds 16 1011 55 10000 1 0 04:50 25.09.2019
1386 Rain 17 1010 45 10000 0.5 0 02:19 25.09.2019
1387 Clouds 17 1010 42 10000 0.33 164.078 00:45 25.09.2019
1388 Clouds 17 1010 42 10000 1.82 92.577 00:25 25.09.2019
1389 Clouds 17 1012 36 10000 1.82 92.577 23:57 24.09.2019
1390 Clouds 17 1011 42 10000 1.82 92.577 23:38 24.09.2019
1391 Clouds 17 1011 42 10000 1.82 92.577 23:19 24.09.2019
1392 Clear 18 1011 39 10000 1.82 92.577 22:39 24.09.2019
1393 Clear 18 1011 39 10000 1.82 92.577 22:39 24.09.2019
1394 Clear 18 1011 39 10000 1.82 92.577 22:20 24.09.2019
1395 Clouds 18 1012 33 10000 3.6 20 21:58 24.09.2019
1396 Clouds 18 1012 33 10000 3.6 20 21:58 24.09.2019
1397 Clouds 19 1012 31 10000 1.46 97.613 21:37 24.09.2019
1398 Clouds 18 1012 31 10000 1.61 64.567 21:19 24.09.2019
1399 Clouds 18 1012 31 10000 1.61 64.567 21:19 24.09.2019
1400 Clouds 18 1012 36 10000 1.61 64.567 20:58 24.09.2019
1401 Clear 18 1012 37 10000 1.61 64.567 20:39 24.09.2019
1402 Clear 18 1012 37 10000 1.61 64.567 20:21 24.09.2019
1403 Clouds 19 1012 31 10000 1.5 30 19:55 24.09.2019
1404 Clear 19 1012 34 10000 1.61 64.567 19:36 24.09.2019
1405 Clouds 22 1012 24 10000 1.61 64.567 19:18 24.09.2019
1406 Clouds 22 1012 24 10000 1.61 64.567 19:18 24.09.2019
1407 Clear 22 1012 28 10000 1 290 18:42 24.09.2019
1408 Clear 22 1012 28 10000 1 290 18:22 24.09.2019
1409 Clouds 25 1012 22 10000 2.1 250 17:59 24.09.2019
1410 Clear 25 1012 24 10000 2.1 0 17:39 24.09.2019
1411 Clear 25 1012 24 10000 2.1 0 17:21 24.09.2019
1412 Clouds 26 1013 16 10000 4.1 220 16:59 24.09.2019
1413 Clear 26 1012 24 10000 4.1 260 16:41 24.09.2019
1414 Clear 26 1012 24 10000 4.1 260 16:19 24.09.2019
1415 Clear 26 1013 18 10000 3.6 0 15:43 24.09.2019
1416 Clear 26 1013 18 10000 3.6 0 15:23 24.09.2019
1417 Clouds 26 1014 12 10000 5.7 240 14:58 24.09.2019
1418 Clouds 26 1014 12 10000 5.7 240 14:58 24.09.2019
1419 Clear 26 1013 15 10000 2.1 0 14:37 24.09.2019
1420 Clear 26 1013 15 10000 2.1 0 14:18 24.09.2019
1421 Clear 25 1014 15 10000 4.1 230 13:40 24.09.2019
1422 Clear 25 1014 15 10000 4.1 230 13:21 24.09.2019
1423 Clear 24 1015 17 10000 2.1 0 12:42 24.09.2019
1424 Clear 24 1015 17 10000 2.1 0 12:21 24.09.2019
1425 Clouds 23 1015 14 10000 4.6 200 11:57 24.09.2019
1426 Clear 23 1015 18 10000 1.5 290 11:39 24.09.2019
1427 Clear 22 1015 18 10000 1.5 290 11:19 24.09.2019
1428 Clear 20 1016 21 10000 2.1 270 10:40 24.09.2019
1429 Clear 20 1016 21 10000 2.1 270 10:21 24.09.2019
1430 Clouds 18 1017 22 10000 3.33 241.475 09:57 24.09.2019
1431 Clear 16 1017 27 10000 3.33 241.475 09:39 24.09.2019
1432 Clear 16 1017 27 10000 0.72 170.172 09:19 24.09.2019
1433 Clouds 13 1017 30 10000 1 0 08:55 24.09.2019
1434 Clouds 13 1017 30 10000 1 0 08:55 24.09.2019
1435 Clouds 13 1017 30 10000 1 0 08:55 24.09.2019
1436 Clouds 13 1017 30 10000 1 0 08:55 24.09.2019
1437 -273 0 0 0 0 0 08:55 24.09.2019
1438 Clouds 14 1016 35 10000 1 0 08:36 24.09.2019
1439 Clouds 14 1016 35 10000 1 0 08:18 24.09.2019
1440 Clouds 14 1016 35 10000 1 0 08:18 24.09.2019
1441 Clouds 10 1017 18 10000 0.55 161.831 07:41 24.09.2019
1442 Clouds 10 1017 18 10000 0.55 161.831 07:23 24.09.2019
1443 Clear 5 1017 60 10000 1 210 06:46 24.09.2019
1444 Clear 5 1017 60 10000 1 210 06:27 24.09.2019
1445 Clear 5 1016 56 10000 0.96 35.586 05:26 24.09.2019
1446 Clear 5 1017 24 10000 1 220 04:19 24.09.2019
1447 Clear 6 1017 52 10000 0.96 35.586 03:34 24.09.2019
1448 Clear 6 1017 52 10000 0.5 220 02:45 24.09.2019
1449 Clear 7 1017 24 10000 1 210 01:43 24.09.2019
1450 Clear 8 1017 24 10000 0.96 34.352 00:42 24.09.2019
1451 Clear 8 1017 22 10000 0.76 4.713 00:23 24.09.2019
1452 Clear 9 1017 46 10000 0.76 4.713 23:43 23.09.2019
1453 Clear 9 1017 46 10000 0.76 4.713 23:23 23.09.2019
1454 Clear 10 1018 32 10000 0.76 4.713 22:57 23.09.2019
1455 Clear 10 1017 37 10000 0.5 0 22:37 23.09.2019
1456 Clear 10 1017 37 10000 0.5 0 22:37 23.09.2019
1457 Clear 12 1018 28 10000 0.5 0 22:19 23.09.2019
1458 Clear 12 1018 28 10000 0.5 0 21:56 23.09.2019
1459 Clear 13 1017 35 10000 0.5 230 21:37 23.09.2019
1460 Clear 13 1017 35 10000 0.5 230 21:18 23.09.2019
1461 Clear 14 1017 30 10000 1.5 30 20:40 23.09.2019
1462 Clear 16 1017 20 10000 0.5 0 20:19 23.09.2019
1463 Clear 16 1017 20 10000 0.5 0 19:55 23.09.2019
1464 Clear 16 1017 20 10000 0.5 0 19:55 23.09.2019
1465 Clear 16 1017 20 10000 0.5 0 19:55 23.09.2019
1466 Clear 16 1016 29 10000 2.1 220 19:37 23.09.2019
1467 Clear 20 1017 18 10000 0.33 165.091 19:19 23.09.2019
1468 Clear 20 1017 18 10000 0.33 165.091 19:19 23.09.2019
1469 Clear 20 1016 21 10000 2.1 270 18:42 23.09.2019
1470 Clear 20 1016 21 10000 2.1 270 18:20 23.09.2019
1471 Clear 22 1017 15 10000 2.1 220 17:59 23.09.2019
1472 Clear 22 1016 16 10000 3.1 250 17:39 23.09.2019
1473 Clear 22 1016 16 10000 3.1 250 17:39 23.09.2019
1474 Clear 22 1016 16 10000 3.1 250 17:20 23.09.2019
1475 Clear 24 1017 12 10000 3.1 220 16:57 23.09.2019
1476 Clear 24 1016 14 10000 3.1 230 16:37 23.09.2019
1477 Clear 23 1017 12 10000 2.6 190 16:18 23.09.2019
1478 Clear 23 1017 12 10000 2.6 190 15:56 23.09.2019
1479 Clear 23 1017 16 10000 1.5 0 15:38 23.09.2019
1480 Clear 23 1017 16 10000 1.5 0 15:18 23.09.2019
1481 Clear 23 1017 18 10000 2.1 0 14:40 23.09.2019
1482 Clear 23 1017 18 10000 2.1 0 14:21 23.09.2019
1483 Clear 22 1018 15 10000 4.6 200 13:59 23.09.2019
1484 Clear 22 1018 15 10000 4.6 200 13:59 23.09.2019
1485 Clear 22 1018 20 10000 3.1 0 13:38 23.09.2019
1486 Clear 22 1018 20 10000 3.1 0 13:18 23.09.2019
1487 Clear 21 1018 16 10000 3.1 190 12:54 23.09.2019
1488 Clear 21 1019 21 10000 2.1 0 12:36 23.09.2019
1489 Clear 21 1019 21 10000 2.1 0 12:18 23.09.2019
1490 Clear 19 1019 25 10000 2.6 300 11:43 23.09.2019
1491 Clear 19 1019 25 10000 2.6 300 11:24 23.09.2019
1492 Clear 18 1020 22 10000 2.6 0 10:49 23.09.2019
1493 Clear 17 1020 27 10000 1.5 0 10:22 23.09.2019
1494 Clear 17 1020 27 10000 1.5 0 10:22 23.09.2019
1495 Clear 15 1021 28 10000 2.82 228.736 09:59 23.09.2019
1496 Clear 14 1021 30 10000 1.5 50 09:38 23.09.2019
1497 Clear 14 1021 30 10000 1.5 50 09:20 23.09.2019
1498 Clear 12 1021 34 10000 0.72 110.472 08:48 23.09.2019
1499 Clear 11 1021 37 10000 0.5 0 08:29 23.09.2019
1500 Clear 8 1021 42 10000 0.5 0 07:58 23.09.2019
1501 Clear 8 1021 42 10000 0.5 0 07:58 23.09.2019
1502 Clear 8 1021 52 10000 0.75 99.021 07:30 23.09.2019
1503 Clear 2 1020 60 10000 0.75 99.021 06:40 23.09.2019
1504 Clear 4 1020 51 10000 0.5 0 05:56 23.09.2019
1505 Clear 3 1020 69 10000 1 220 05:21 23.09.2019
1506 Clear 4 1020 51 10000 0.5 0 04:54 23.09.2019
1507 Clear 4 1020 65 10000 0.5 230 03:33 23.09.2019
1508 Clear 7 1020 49 10000 1.02 16.107 01:19 23.09.2019
1509 Clear 7 1021 56 10000 1.5 220 00:23 23.09.2019
1510 Clear 7 1021 56 10000 1.5 220 00:23 23.09.2019
1511 Clear 9 1021 39 10000 0.5 0 23:56 22.09.2019
1512 Clear 9 1021 43 10000 1.38 33.551 23:33 22.09.2019
1513 Clear 10 1021 37 10000 0.5 0 22:58 22.09.2019
1514 Clear 10 1021 46 10000 1.5 240 22:40 22.09.2019
1515 Clear 9 1021 46 10000 1.5 240 22:22 22.09.2019
1516 Clear 10 1021 40 10000 1 230 21:43 22.09.2019
1517 Clear 10 1021 40 10000 1 230 21:23 22.09.2019
1518 Clear 12 1021 32 10000 4.1 20 20:59 22.09.2019
1519 Clear 12 1020 37 10000 1.5 230 20:41 22.09.2019
1520 Clear 12 1020 37 10000 1.5 230 20:23 22.09.2019
1521 Clear 13 1020 28 10000 1.39 328.541 19:42 22.09.2019
1522 Clear 14 1020 28 10000 1.39 328.541 19:24 22.09.2019
1523 Clear 14 1020 28 10000 1.39 328.541 19:24 22.09.2019
1524 Clear 17 1020 24 10000 3.6 40 18:59 22.09.2019
1525 Clear 17 1020 23 10000 1.39 328.541 18:41 22.09.2019
1526 Clear 17 1020 23 10000 0.49 152.808 18:20 22.09.2019
1527 Clear 18 1020 18 10000 4.1 10 17:59 22.09.2019
1528 Clear 18 1020 18 10000 4.1 10 17:59 22.09.2019
1529 Clear 19 1020 19 10000 1 0 17:41 22.09.2019
1530 Clear 19 1020 19 10000 1 0 17:20 22.09.2019
1531 Clear 19 1020 22 10000 0.5 0 16:45 22.09.2019
1532 Clear 19 1020 22 10000 0.5 0 16:26 22.09.2019
1533 Clear 18 1021 22 10000 2.1 0 15:57 22.09.2019
1534 Clear 19 1021 24 10000 1.5 0 15:38 22.09.2019
1535 Clear 19 1021 24 10000 1.5 0 15:19 22.09.2019
1536 Clear 18 1021 23 10000 1.5 0 14:43 22.09.2019
1537 Clear 18 1021 23 10000 2.6 80 14:25 22.09.2019
1538 Clear 17 1022 25 10000 2.1 80 13:58 22.09.2019
1539 Clear 17 1022 27 10000 2.1 0 13:40 22.09.2019
1540 Clear 17 1022 27 10000 2.1 0 13:40 22.09.2019
1541 Clear 17 1022 27 10000 2.1 0 13:21 22.09.2019
1542 Clear 16 1023 29 10000 2.6 0 12:44 22.09.2019
1543 Clear 15 1023 29 10000 2.6 0 12:24 22.09.2019
1544 Clear 15 1024 30 10000 2.1 70 11:59 22.09.2019
1545 Clear 15 1024 33 10000 2.1 0 11:40 22.09.2019
1546 Clear 15 1024 33 10000 2.1 0 11:22 22.09.2019
1547 Clear 13 1024 29 10000 3.1 60 10:44 22.09.2019
1548 Clear 13 1024 29 10000 3.1 60 10:20 22.09.2019
1549 Clear 12 1025 40 10000 0.5 0 09:58 22.09.2019
1550 Clear 12 1025 46 10000 3.1 80 09:39 22.09.2019
1551 Clear 12 1025 46 10000 3.1 80 09:19 22.09.2019
1552 Clear 10 1025 46 10000 2.1 50 08:45 22.09.2019
1553 Clear 10 1025 50 10000 1 60 08:25 22.09.2019
1554 Clear 7 1025 60 10000 0.5 0 07:56 22.09.2019
1555 Clear 7 1025 51 10000 0.5 0 07:37 22.09.2019
1556 Clear 4 1025 69 10000 2.1 68.037 07:18 22.09.2019
1557 Clear 2 1025 69 10000 2.1 68.037 06:54 22.09.2019
1558 Clear 4 1025 74 10000 2.1 230 05:30 22.09.2019
1559 Clear 4 1024 65 10000 1 220 03:33 22.09.2019
1560 Clear 5 1025 69 10000 1.5 230 02:38 22.09.2019
1561 Clear 5 1025 69 10000 1.5 230 02:38 22.09.2019
1562 Clear 5 1025 69 10000 1.5 230 02:18 22.09.2019
1563 Clear 6 1025 60 10000 2.1 20 00:59 22.09.2019
1564 Clear 7 1025 67 10000 3.6 60 00:33 22.09.2019
1565 Clear 7 1025 60 10000 1.5 10 23:59 21.09.2019
1566 Clear 7 1026 63 10000 2.6 20 23:40 21.09.2019
1567 Clear 8 1026 63 10000 2.6 20 23:19 21.09.2019
1568 Clear 9 1025 46 10000 2.1 10 22:39 21.09.2019
1569 Clear 9 1025 46 10000 2.1 10 22:21 21.09.2019
1570 Clear 9 1025 40 10000 3.6 30 21:43 21.09.2019
1571 Clear 9 1025 40 10000 3.6 30 21:20 21.09.2019
1572 Clear 10 1025 49 10000 5.1 10 20:59 21.09.2019
1573 Clear 10 1025 40 10000 2.1 60 20:38 21.09.2019
1574 Clear 10 1024 34 10000 4.1 60 20:19 21.09.2019
1575 Clear 10 1024 34 10000 4.1 60 20:19 21.09.2019
1576 Clear 12 1024 43 10000 7.2 20 19:47 21.09.2019
1577 Clear 12 1023 35 10000 3.1 10 19:23 21.09.2019
1578 Clear 13 1023 30 10000 5.7 10 18:55 21.09.2019
1579 Clear 13 1022 35 10000 5.7 10 18:37 21.09.2019
1580 Clear 13 1022 35 10000 5.7 10 18:18 21.09.2019
1581 Clear 15 1022 31 10000 5.1 360 17:40 21.09.2019
1582 Clear 15 1022 31 10000 5.1 360 17:20 21.09.2019
1583 Clouds 16 1022 27 10000 4.1 10 16:43 21.09.2019
1584 Clouds 17 1022 27 10000 4.1 10 16:24 21.09.2019
1585 Clouds 17 1022 25 10000 4.6 360 15:48 21.09.2019
1586 Clouds 17 1022 38 10000 5.7 360 15:25 21.09.2019
1587 Clouds 18 1022 29 10000 7.7 360 14:55 21.09.2019
1588 Clouds 18 1021 29 10000 3.6 0 14:37 21.09.2019
1589 Clouds 18 1021 29 10000 3.6 0 14:19 21.09.2019
1590 Clouds 18 1021 25 10000 4.1 320 13:41 21.09.2019
1591 Clouds 17 1021 25 10000 4.1 320 13:23 21.09.2019
1592 Clouds 17 1022 27 10000 5.7 350 12:57 21.09.2019
1593 Clouds 17 1022 28 10000 3.6 0 12:38 21.09.2019
1594 Clouds 17 1022 29 10000 3.6 0 12:20 21.09.2019
1595 Clouds 16 1022 33 10000 3.6 340 11:47 21.09.2019
1596 Clouds 16 1022 36 10000 3.1 0 11:25 21.09.2019
1597 Clouds 15 1022 41 10000 5.7 10 10:56 21.09.2019
1598 Clouds 14 1022 43 10000 6.7 10 10:37 21.09.2019
1599 Clouds 14 1022 43 10000 6.7 10 10:19 21.09.2019
1600 Clouds 14 1022 44 10000 3.6 360 09:40 21.09.2019
1601 Clouds 14 1022 44 10000 3.6 360 09:21 21.09.2019
1602 Clouds 13 1022 46 10000 8.2 20 08:59 21.09.2019
1603 Clouds 13 1022 40 10000 5.7 360 08:40 21.09.2019
1604 Clouds 12 1022 43 10000 8.2 360 07:55 21.09.2019
1605 Clouds 12 1021 58 10000 3.6 10 07:37 21.09.2019
1606 Clouds 12 1021 53 10000 5.1 20 07:18 21.09.2019
1607 Clouds 11 1021 58 10000 3.1 340 06:34 21.09.2019
1608 Clouds 11 1020 66 10000 4.1 10 05:51 21.09.2019
1609 Clouds 12 1019 58 10000 2.6 350 04:38 21.09.2019
1610 Clouds 12 1019 58 10000 2.1 360 03:25 21.09.2019
1611 Clouds 13 1018 58 10000 3.1 350 02:22 21.09.2019
1612 Clouds 14 1018 58 10000 2.1 0 01:46 21.09.2019
1613 Clouds 13 1018 62 10000 3.1 360 00:58 21.09.2019
1614 Clouds 14 1018 67 10000 4.1 250 00:22 21.09.2019
1615 Clouds 14 1018 58 10000 3.1 340 23:48 20.09.2019
1616 Clouds 14 1018 62 10000 5.1 310 23:29 20.09.2019
1617 Clouds 15 1017 54 10000 3.1 310 22:44 20.09.2019
1618 Clouds 15 1017 59 10000 2.1 0 22:25 20.09.2019
1619 Clouds 16 1017 58 10000 2.1 310 21:57 20.09.2019
1620 Clouds 16 1016 63 10000 1 0 21:39 20.09.2019
1621 Clouds 16 1016 63 10000 1 0 21:20 20.09.2019
1622 Clouds 17 1016 59 10000 4.1 290 20:59 20.09.2019
1623 Clouds 17 1016 59 10000 3.1 290 20:39 20.09.2019
1624 Clouds 18 1016 59 10000 3.1 290 20:19 20.09.2019
1625 Clouds 18 1016 59 10000 3.1 290 20:19 20.09.2019
1626 Clouds 18 1016 55 10000 3.6 310 19:55 20.09.2019
1627 Clouds 18 1015 52 10000 5.1 260 19:36 20.09.2019
1628 Clouds 19 1015 52 10000 5.1 260 19:18 20.09.2019
1629 Clouds 20 1014 46 10000 7.2 260 18:38 20.09.2019
1630 Clouds 20 1014 46 10000 7.2 260 18:18 20.09.2019
1631 Clouds 21 1013 43 10000 8.2 250 17:47 20.09.2019
1632 Clouds 22 1013 43 10000 8.2 250 17:27 20.09.2019
1633 Clouds 25 1013 27 10000 7.2 260 16:57 20.09.2019
1634 Clouds 25 1012 24 10000 6.2 260 16:37 20.09.2019
1635 Clouds 25 1012 24 10000 6.2 260 16:18 20.09.2019
1636 Clouds 26 1012 26 10000 6.2 240 15:41 20.09.2019
1637 Clouds 26 1012 26 10000 6.2 240 15:22 20.09.2019
1638 Clouds 26 1012 17 10000 7.2 250 14:44 20.09.2019
1639 Clouds 26 1012 24 10000 7.7 230 14:20 20.09.2019
1640 Clouds 25 1012 24 10000 7.7 230 13:59 20.09.2019
1641 Clouds 25 1013 31 10000 6.7 210 13:40 20.09.2019
1642 Clouds 25 1013 31 10000 6.7 210 13:21 20.09.2019
1643 Clouds 24 1013 38 10000 6.2 240 12:40 20.09.2019
1644 Clouds 24 1013 38 10000 6.2 240 12:22 20.09.2019
1645 Clouds 23 1013 33 10000 6.7 210 11:51 20.09.2019
1646 Clouds 23 1013 38 10000 3.6 0 11:26 20.09.2019
1647 Clouds 22 1013 40 10000 1 0 10:58 20.09.2019
1648 Clear 22 1014 43 10000 2.1 210 10:40 20.09.2019
1649 Clear 22 1014 43 10000 2.1 210 10:22 20.09.2019
1650 Clear 22 1014 43 10000 2.1 210 10:22 20.09.2019
1651 Clear 20 1014 52 10000 1 0 09:38 20.09.2019
1652 Clear 20 1014 52 10000 1 0 09:19 20.09.2019
1653 Clouds 18 1015 52 10000 1.63 292.982 08:47 20.09.2019
1654 Clear 18 1014 48 10000 1.63 292.982 08:28 20.09.2019
1655 Clear 16 1015 55 10000 2.6 90 07:58 20.09.2019
1656 Clear 15 1014 51 10000 1.68 293.692 07:40 20.09.2019
1657 Clear 14 1014 51 10000 1.68 293.692 07:20 20.09.2019
1658 Clear 12 1014 62 10000 0.5 220 06:40 20.09.2019
1659 Clear 12 1014 62 10000 0.5 220 06:18 20.09.2019
1660 Clear 13 1015 62 10000 0.5 250 04:31 20.09.2019
1661 Clear 13 1015 62 10000 0.5 250 04:31 20.09.2019
1662 Clear 14 1015 54 10000 1.5 220 03:27 20.09.2019
1663 Clear 14 1015 54 10000 2.33 358.966 02:18 20.09.2019
1664 Clear 14 1015 47 10000 1 0 01:39 20.09.2019
1665 Clear 15 1015 47 10000 0.5 0 00:36 20.09.2019
1666 Clear 16 1016 51 10000 1 0 23:48 19.09.2019
1667 Clear 16 1016 51 10000 1 0 23:28 19.09.2019
1668 Clear 19 1016 36 10000 3.1 10 22:59 19.09.2019
1669 Clear 19 1015 28 10000 1 0 22:40 19.09.2019
1670 Clear 18 1016 42 10000 0.5 0 22:21 19.09.2019
1671 Clear 18 1016 34 10000 2.6 40 21:57 19.09.2019
1672 Clear 18 1015 34 10000 2.6 50 21:38 19.09.2019
1673 Clear 18 1015 34 10000 2.6 50 21:19 19.09.2019
1674 Clear 21 1016 24 10000 3.1 40 20:55 19.09.2019
1675 Clear 21 1015 32 10000 2.1 240 20:37 19.09.2019
1676 Clear 21 1015 32 10000 2.1 240 20:18 19.09.2019
1677 Clear 22 1015 26 10000 2.1 230 19:39 19.09.2019
1678 Clear 23 1015 26 10000 2.1 230 19:21 19.09.2019
1679 Clear 25 1016 17 10000 1.5 300 18:58 19.09.2019
1680 Clear 25 1015 19 10000 0.5 0 18:40 19.09.2019
1681 Clear 27 1016 15 10000 2.1 270 18:21 19.09.2019
1682 Clear 29 1015 16 10000 3.6 260 17:42 19.09.2019
1683 Clear 29 1015 16 10000 3.6 260 17:23 19.09.2019
1684 Clouds 30 1016 13 10000 3.1 280 16:59 19.09.2019
1685 Clear 30 1015 14 10000 2.1 0 16:40 19.09.2019
1686 Clear 30 1015 14 10000 2.1 0 16:19 19.09.2019
1687 Clear 30 1015 15 10000 3.6 0 15:39 19.09.2019
1688 Clear 30 1015 15 10000 3.6 0 15:21 19.09.2019
1689 Clear 30 1015 15 10000 3.6 0 15:21 19.09.2019
1690 Clouds 30 1017 13 10000 5.7 240 14:57 19.09.2019
1691 Clear 30 1016 15 10000 3.6 250 14:38 19.09.2019
1692 Clear 30 1016 15 10000 3.6 250 14:18 19.09.2019
1693 Clear 30 1016 15 10000 3.6 250 14:18 19.09.2019
1694 Clear 30 1017 17 10000 3.1 260 13:40 19.09.2019
1695 Clear 30 1017 17 10000 3.1 260 13:20 19.09.2019
1696 Clear 28 1017 18 10000 2.1 0 12:40 19.09.2019
1697 Clear 28 1017 18 10000 2.1 0 12:40 19.09.2019
1698 Clear 28 1017 18 10000 2.1 0 12:20 19.09.2019
1699 Clouds 27 1018 15 10000 1 0 11:59 19.09.2019
1700 Clear 27 1018 18 10000 1.45 153.117 11:40 19.09.2019
1701 Clear 26 1018 18 10000 1.45 153.117 11:21 19.09.2019
1702 Clouds 25 1019 16 10000 1 0 10:57 19.09.2019
1703 Clear 25 1019 23 10000 1.45 153.117 10:37 19.09.2019
1704 Clear 25 1019 23 10000 1.45 153.117 10:18 19.09.2019
1705 Clear 22 1019 26 10000 1 0 09:42 19.09.2019
1706 Clear 22 1019 26 10000 1 0 09:22 19.09.2019
1707 Clear 18 1020 25 10000 2.5 44.903 08:56 19.09.2019
1708 Clear 17 1019 36 10000 2.55 41.099 08:37 19.09.2019
1709 Clear 17 1019 36 10000 2.55 41.099 08:19 19.09.2019
1710 Clear 13 1019 47 10000 2.55 41.099 07:43 19.09.2019
1711 Clear 13 1019 47 10000 2.55 41.099 07:21 19.09.2019
1712 Clear 10 1020 42 10000 0.5 0 06:47 19.09.2019
1713 Clear 10 1019 53 10000 2.55 41.099 06:27 19.09.2019
1714 Clear 11 1019 37 10000 2.47 26.108 05:52 19.09.2019
1715 Clear 10 1019 42 10000 0.5 0 04:58 19.09.2019
1716 Clear 11 1019 42 10000 2.47 26.108 03:52 19.09.2019
1717 Clear 11 1019 34 10000 1 0 02:45 19.09.2019
1718 Clear 12 1019 54 10000 3.62 15.797 01:27 19.09.2019
1719 Clear 14 1019 37 10000 0.5 0 00:50 19.09.2019
1720 Clear 14 1018 38 10000 0.5 0 00:25 19.09.2019
1721 Clear 14 1018 38 10000 0.5 0 00:25 19.09.2019
1722 Clear 15 1018 36 10000 3.65 14.71 23:42 18.09.2019
1723 Clear 15 1018 36 10000 3.65 14.71 23:21 18.09.2019
1724 Clear 16 1019 30 10000 1 0 22:48 18.09.2019
1725 Clear 17 1018 36 10000 3.65 14.71 22:23 18.09.2019
1726 Clear 17 1019 26 10000 1 0 21:59 18.09.2019
1727 Clear 17 1018 31 10000 1 220 21:41 18.09.2019
1728 Clear 18 1018 31 10000 1 220 21:19 18.09.2019
1729 Clear 18 1018 31 10000 1 220 21:19 18.09.2019
1730 Clear 19 1018 22 10000 1.5 40 20:59 18.09.2019
1731 Clear 19 1017 18 10000 2.84 11.698 20:40 18.09.2019
1732 Clear 20 1018 18 10000 1 0 20:22 18.09.2019
1733 Clear 20 1018 18 10000 1 0 19:59 18.09.2019
1734 Clear 20 1017 18 10000 1 220 19:41 18.09.2019
1735 Clear 20 1017 18 10000 1 220 19:20 18.09.2019
1736 Clear 25 1018 13 10000 2.84 11.698 18:56 18.09.2019
1737 Clear 25 1016 16 10000 2.84 11.698 18:38 18.09.2019
1738 Clouds 27 1017 10 10000 3.1 270 18:19 18.09.2019
1739 Clouds 28 1017 10 10000 3.1 270 17:58 18.09.2019
1740 Clear 28 1016 14 10000 2.1 260 17:39 18.09.2019
1741 Clear 28 1016 14 10000 2.1 260 17:19 18.09.2019
1742 Clouds 29 1017 11 10000 5.1 240 16:56 18.09.2019
1743 Clear 29 1016 14 10000 4.1 260 16:38 18.09.2019
1744 Clear 29 1016 14 10000 4.1 260 16:19 18.09.2019
1745 Clouds 29 1017 12 10000 5.1 240 15:55 18.09.2019
1746 Clear 30 1016 15 10000 3.6 220 15:37 18.09.2019
1747 Clear 30 1016 15 10000 3.6 220 15:19 18.09.2019
1748 Clouds 29 1017 11 10000 5.7 230 14:57 18.09.2019
1749 Clear 29 1017 16 10000 3.1 260 14:39 18.09.2019
1750 Clear 29 1017 16 10000 3.1 260 14:21 18.09.2019
1751 Clear 29 1017 16 10000 3.1 260 14:21 18.09.2019
1752 Clouds 29 1018 14 10000 6.2 240 13:44 18.09.2019
1753 Clear 28 1017 12 10000 6.2 250 13:19 18.09.2019
1754 Clouds 28 1018 15 10000 5.1 240 12:56 18.09.2019
1755 Clear 27 1018 22 10000 2.1 0 12:37 18.09.2019
1756 Clear 27 1018 22 10000 2.1 0 12:18 18.09.2019
1757 Clouds 25 1019 19 10000 5.1 200 11:40 18.09.2019
1758 Clouds 24 1019 19 10000 5.1 200 11:20 18.09.2019
1759 Clear 23 1019 27 10000 0.5 0 10:41 18.09.2019
1760 Clear 23 1019 27 10000 0.5 0 10:23 18.09.2019
1761 Clear 23 1019 27 10000 0.5 0 10:23 18.09.2019
1762 Clear 23 1019 27 10000 0.5 0 10:23 18.09.2019
1763 Clear 20 1020 26 10000 0.5 0 09:59 18.09.2019
1764 Clear 20 1020 32 10000 1 0 09:41 18.09.2019
1765 Clear 20 1020 32 10000 1 0 09:22 18.09.2019
1766 Clear 18 1020 26 10000 0.5 0 08:56 18.09.2019
1767 Clear 18 1020 38 10000 0.5 0 08:38 18.09.2019
1768 Clear 14 1020 38 10000 0.5 0 08:18 18.09.2019
1769 Clear 12 1020 53 10000 0.5 0 07:43 18.09.2019
1770 Clear 12 1020 53 10000 0.5 0 07:23 18.09.2019
1771 Clear 9 1019 65 10000 0.97 64.808 06:45 18.09.2019
1772 Clear 9 1019 65 10000 1.44 40.593 06:21 18.09.2019
1773 Clear 9 1019 66 10000 1 210 05:27 18.09.2019
1774 Clear 8 1019 57 10000 1 230 03:40 18.09.2019
1775 Clear 12 1018 53 10000 2.12 11.119 02:40 18.09.2019
1776 Clear 11 1018 53 10000 0.5 0 01:41 18.09.2019
1777 Clear 11 1019 38 10000 1.97 5.919 00:55 18.09.2019
1778 Clear 13 1018 47 10000 1.97 5.919 00:31 18.09.2019
1779 Clear 13 1019 50 10000 1.81 17.292 23:47 17.09.2019
1780 Clear 13 1018 41 10000 1 30 23:25 17.09.2019
1781 Clear 14 1019 41 10000 1.81 17.292 22:56 17.09.2019
1782 Clear 14 1019 41 10000 1.81 17.292 22:56 17.09.2019
1783 Clear 15 1018 44 10000 1.5 250 22:37 17.09.2019
1784 Clear 15 1018 44 10000 1.5 250 22:19 17.09.2019
1785 Clear 16 1019 32 10000 1.5 70 21:54 17.09.2019
1786 Clear 17 1018 33 10000 1.81 17.292 21:36 17.09.2019
1787 Clear 18 1018 33 10000 0.93 253.902 21:18 17.09.2019
1788 Clear 18 1018 31 10000 0.84 270.476 20:55 17.09.2019
1789 Clear 19 1017 22 10000 0.84 270.476 20:37 17.09.2019
1790 Clear 18 1017 22 10000 0.84 270.476 20:19 17.09.2019
1791 Clear 20 1017 24 10000 2.6 220 19:40 17.09.2019
1792 Clouds 22 1017 28 10000 2.1 230 19:20 17.09.2019
1793 Clouds 23 1017 28 10000 2.1 230 18:59 17.09.2019
1794 Clouds 22 1017 26 10000 3.1 220 18:41 17.09.2019
1795 Clouds 25 1017 26 10000 3.1 220 18:22 17.09.2019
1796 Clear 25 1016 22 10000 3.1 230 17:55 17.09.2019
1797 Clear 26 1016 22 10000 3.1 230 17:36 17.09.2019
1798 Clear 26 1016 22 10000 3.1 230 17:18 17.09.2019
1799 Clear 26 1016 21 10000 3.6 250 16:41 17.09.2019
1800 Clear 26 1016 21 10000 3.6 250 16:22 17.09.2019
1801 Clouds 26 1017 15 10000 4.1 260 15:55 17.09.2019
1802 Clear 26 1016 18 10000 3.6 260 15:37 17.09.2019
1803 Clear 26 1016 18 10000 3.6 260 15:19 17.09.2019
1804 Clouds 26 1017 22 10000 4.1 220 14:55 17.09.2019
1805 Clouds 26 1017 22 10000 4.1 220 14:55 17.09.2019
1806 Clear 26 1017 26 10000 4.6 250 14:37 17.09.2019
1807 Clear 26 1017 26 10000 4.6 250 14:37 17.09.2019
1808 Clear 26 1017 26 10000 4.6 250 14:18 17.09.2019
1809 Clear 26 1017 26 10000 4.6 250 14:18 17.09.2019
1810 Clear 25 1017 27 10000 4.1 260 13:41 17.09.2019
1811 Clear 25 1017 27 10000 4.1 260 13:23 17.09.2019
1812 Clouds 24 1017 27 10000 5.7 220 12:55 17.09.2019
1813 Clear 24 1017 29 10000 4.6 250 12:37 17.09.2019
1814 Clear 24 1017 29 10000 4.6 250 12:18 17.09.2019
1815 Clouds 23 1017 33 10000 3.1 250 11:41 17.09.2019
1816 Clouds 23 1017 33 10000 3.1 250 11:19 17.09.2019
1817 Clouds 23 1017 33 10000 3.1 250 11:19 17.09.2019
1818 Clear 22 1018 40 10000 2.1 0 10:42 17.09.2019
1819 Clear 22 1018 40 10000 2.1 0 10:23 17.09.2019
1820 Clouds 20 1018 42 10000 2.6 200 09:59 17.09.2019
1821 Clear 19 1018 45 10000 1.5 0 09:40 17.09.2019
1822 Clear 19 1018 45 10000 1.5 0 09:20 17.09.2019
1823 Clouds 18 1018 51 10000 0.5 0 08:45 17.09.2019
1824 Clear 17 1018 52 10000 0.5 0 08:25 17.09.2019
1825 Clouds 14 1018 58 10000 0.5 0 07:56 17.09.2019
1826 Clear 14 1018 67 10000 1 0 07:38 17.09.2019
1827 Clear 14 1018 67 10000 1 0 07:19 17.09.2019
1828 Clear 12 1017 76 10000 1.13 236.254 06:45 17.09.2019
1829 Clear 11 1017 76 10000 0.37 328.825 06:19 17.09.2019
1830 Clouds 12 1018 66 10000 1 0 05:35 17.09.2019
1831 Clouds 12 1017 62 10000 1.5 10 04:26 17.09.2019
1832 Clouds 15 1017 62 10000 0.72 215.556 02:53 17.09.2019
1833 Clear 16 1017 59 10000 0.5 240 02:33 17.09.2019
1834 Clouds 16 1017 55 10000 0.77 224.524 01:19 17.09.2019
1835 Clouds 17 1017 55 10000 1 0 00:28 17.09.2019
1836 Clouds 17 1017 59 10000 1 240 23:37 16.09.2019
1837 Clouds 17 1017 59 10000 1 240 23:18 16.09.2019
1838 Clouds 18 1017 48 10000 1.5 220 22:42 16.09.2019
1839 Clouds 18 1017 48 10000 1.5 220 22:24 16.09.2019
1840 Clouds 18 1018 51 10000 1.65 203.772 21:59 16.09.2019
1841 Clouds 18 1017 48 10000 1 250 21:39 16.09.2019
1842 Clouds 18 1017 48 10000 1 250 21:20 16.09.2019
1843 Clouds 19 1018 48 10000 0.5 0 20:58 16.09.2019
1844 Clouds 19 1017 48 10000 1.54 203.184 20:39 16.09.2019
1845 Clouds 19 1017 48 10000 1.54 203.184 20:19 16.09.2019
1846 Clouds 18 1018 48 10000 1 0 19:55 16.09.2019
1847 Clouds 18 1017 48 10000 0.5 0 19:37 16.09.2019
1848 Clouds 19 1017 48 10000 0.5 0 19:18 16.09.2019
1849 -273 0 0 0 0 0 19:18 16.09.2019
1850 Clouds 20 1016 43 10000 2.1 170 18:43 16.09.2019
1851 Clouds 20 1016 43 10000 2.1 170 18:25 16.09.2019
1852 Clouds 21 1017 42 10000 4.1 80 17:54 16.09.2019
1853 Clouds 21 1016 40 10000 3.6 100 17:36 16.09.2019
1854 Clouds 21 1016 40 10000 3.6 100 17:18 16.09.2019
1855 Clouds 21 1016 40 10000 2.6 100 16:42 16.09.2019
1856 Clouds 22 1016 40 10000 2.6 100 16:21 16.09.2019
1857 Clouds 22 1017 35 10000 4.1 90 15:57 16.09.2019
1858 Clouds 22 1016 38 10000 2.1 220 15:38 16.09.2019
1859 Clouds 22 1016 38 10000 2.1 220 15:20 16.09.2019
1860 Clouds 22 1017 37 10000 3.6 90 14:57 16.09.2019
1861 Clouds 22 1017 40 10000 1.5 0 14:39 16.09.2019
1862 Clouds 22 1017 40 10000 1.5 0 14:20 16.09.2019
1863 Clouds 21 1017 40 10000 1.5 0 13:41 16.09.2019
1864 Clouds 21 1017 40 10000 1.5 0 13:22 16.09.2019
1865 -273 0 0 0 0 0 12:55 16.09.2019
1866 Clouds 20 1018 42 10000 3.1 120 12:55 16.09.2019
1867 Clouds 20 1018 42 10000 3.1 90 12:36 16.09.2019
1868 Clouds 20 1018 42 10000 3.1 90 12:18 16.09.2019
1869 Clouds 19 1018 45 10000 3.6 90 11:44 16.09.2019
1870 Clouds 19 1018 45 10000 3.6 90 11:22 16.09.2019
1871 Clouds 19 1019 45 10000 1 0 10:40 16.09.2019
1872 Clouds 18 1019 45 10000 5.1 30 10:21 16.09.2019
1873 Clouds 18 1019 45 10000 5.1 30 09:59 16.09.2019
1874 Clouds 17 1019 51 10000 1.5 200 09:41 16.09.2019
1875 Clouds 17 1019 51 10000 1.5 200 09:20 16.09.2019
1876 Clouds 16 1019 51 10000 1.5 20 08:52 16.09.2019
1877 Clouds 16 1019 55 10000 2.6 230 08:31 16.09.2019
1878 Clouds 14 1019 54 10000 1.83 7.253 07:58 16.09.2019
1879 Clouds 14 1019 66 10000 0.5 0 07:40 16.09.2019
1880 Clouds 13 1019 66 10000 0.5 0 07:20 16.09.2019
1881 Clear 11 1019 71 10000 0.5 0 06:49 16.09.2019
1882 Clear 10 1019 71 10000 0.5 0 06:31 16.09.2019
1883 Clear 10 1019 66 10000 1.95 8.858 05:57 16.09.2019
1884 Clear 10 1019 71 10000 1 0 05:38 16.09.2019
1885 Clear 11 1019 66 10000 1.95 8.858 04:55 16.09.2019
1886 Clear 11 1019 66 10000 1 240 03:33 16.09.2019
1887 Clear 14 1020 62 10000 2.6 350 00:44 16.09.2019
1888 Clear 14 1020 48 10000 4.6 50 00:26 16.09.2019
1889 Clear 15 1021 50 10000 3.1 350 23:56 15.09.2019
1890 Clear 15 1020 45 10000 6.2 50 23:37 15.09.2019
1891 Clear 15 1020 45 10000 6.2 50 23:18 15.09.2019
1892 Clear 15 1020 45 10000 6.2 50 23:18 15.09.2019
1893 Clear 16 1020 39 10000 5.1 40 22:39 15.09.2019
1894 Clear 16 1020 39 10000 5.1 40 22:19 15.09.2019
1895 Clouds 17 1021 38 10000 2.6 20 21:56 15.09.2019
1896 Clear 17 1020 37 10000 5.1 30 21:38 15.09.2019
1897 Clear 17 1020 37 10000 5.1 30 21:19 15.09.2019
1898 Clouds 18 1021 38 10000 3.6 20 20:45 15.09.2019
1899 Clear 19 1020 32 10000 3.6 50 20:26 15.09.2019
1900 Clear 19 1020 32 10000 3.6 50 20:26 15.09.2019
1901 Clouds 20 1020 32 10000 5.7 70 19:56 15.09.2019
1902 Clear 20 1020 26 10000 5.1 60 19:37 15.09.2019
1903 Clear 20 1020 26 10000 5.1 60 19:19 15.09.2019
1904 Clear 22 1019 23 10000 6.2 70 18:40 15.09.2019
1905 Clear 22 1019 23 10000 6.2 70 18:20 15.09.2019
1906 Clouds 23 1019 24 10000 7.2 50 17:43 15.09.2019
1907 Clouds 23 1019 24 10000 7.2 50 17:22 15.09.2019
1908 Clouds 24 1019 18 10000 5.7 30 16:58 15.09.2019
1909 Clouds 24 1019 22 10000 7.7 60 16:40 15.09.2019
1910 Clouds 24 1019 22 10000 7.7 60 16:21 15.09.2019
1911 Clouds 24 1019 18 10000 6.2 40 15:56 15.09.2019
1912 Clouds 24 1019 18 10000 6.2 40 15:56 15.09.2019
1913 Clouds 24 1019 20 10000 7.2 50 15:36 15.09.2019
1914 Clouds 24 1019 20 10000 7.2 50 15:18 15.09.2019
1915 Clouds 24 1020 23 10000 9.8 60 14:42 15.09.2019
1916 Clouds 24 1020 23 10000 9.8 60 14:23 15.09.2019
1917 Clouds 23 1020 21 10000 7.2 40 13:55 15.09.2019
1918 Clouds 23 1020 23 10000 7.2 60 13:37 15.09.2019
1919 Clouds 23 1020 23 10000 7.2 60 13:18 15.09.2019
1920 Clouds 23 1020 24 10000 9.3 60 12:42 15.09.2019
1921 Clouds 22 1021 20 10000 7.2 40 12:23 15.09.2019
1922 Clouds 22 1021 20 10000 7.2 40 11:54 15.09.2019
1923 Clouds 22 1020 19 10000 7.2 50 11:36 15.09.2019
1924 Clouds 22 1020 19 10000 7.2 50 11:18 15.09.2019
1925 Clouds 21 1021 20 10000 9.3 60 10:41 15.09.2019
1926 Clouds 21 1021 20 10000 9.3 60 10:22 15.09.2019
1927 Clouds 19 1021 20 10000 8.2 40 09:57 15.09.2019
1928 Clear 19 1021 29 10000 6.7 30 09:36 15.09.2019
1929 Clear 19 1021 29 10000 6.7 30 09:18 15.09.2019
1930 Clear 16 1021 33 10000 2.6 30 08:41 15.09.2019
1931 Clear 16 1021 33 10000 2.6 30 08:20 15.09.2019
1932 Clear 13 1021 41 10000 5.7 360 07:48 15.09.2019
1933 Clear 12 1021 37 10000 2.6 30 06:59 15.09.2019
1934 Clear 12 1021 37 10000 2.6 30 06:59 15.09.2019
1935 Clear 12 1021 43 10000 1 0 06:31 15.09.2019
1936 Clear 14 1020 47 10000 2.6 30 03:24 15.09.2019
1937 Clear 14 1020 48 10000 4.1 40 02:30 15.09.2019
1938 Clear 15 1020 55 10000 4.1 30 01:38 15.09.2019
1939 Clear 16 1020 58 10000 5.1 360 00:58 15.09.2019
1940 Clear 16 1020 52 10000 5.7 70 00:39 15.09.2019
1941 Clear 16 1020 52 10000 5.7 70 00:19 15.09.2019
1942 Clear 17 1020 54 10000 4.1 50 23:56 14.09.2019
1943 Clear 17 1020 54 10000 4.1 50 23:56 14.09.2019
1944 Clear 17 1019 48 10000 5.7 40 23:38 14.09.2019
1945 Clear 17 1019 48 10000 5.7 40 23:19 14.09.2019
1946 Clear 18 1020 51 10000 6.2 30 22:58 14.09.2019
1947 Clear 18 1019 45 10000 7.2 30 22:38 14.09.2019
1948 Clear 19 1019 45 10000 7.2 30 22:19 14.09.2019
1949 Clear 19 1019 43 10000 7.2 40 21:40 14.09.2019
1950 Clear 19 1019 43 10000 7.2 40 21:40 14.09.2019
1951 Clear 19 1019 43 10000 7.2 40 21:21 14.09.2019
1952 Clear 20 1020 45 10000 8.2 30 20:59 14.09.2019
1953 Clouds 20 1019 35 10000 4.6 20 20:40 14.09.2019
1954 Clouds 20 1019 35 10000 4.6 20 20:22 14.09.2019
1955 Clear 22 1019 37 10000 6.2 40 19:51 14.09.2019
1956 Clouds 23 1018 29 10000 5.1 30 19:23 14.09.2019
1957 Clouds 24 1018 30 10000 4.1 50 18:58 14.09.2019
1958 Clouds 24 1017 27 10000 5.7 20 18:39 14.09.2019
1959 Clouds 24 1017 27 10000 5.7 20 18:20 14.09.2019
1960 Clouds 26 1017 23 10000 9.3 360 17:55 14.09.2019
1961 Clouds 26 1016 26 10000 7.2 30 17:37 14.09.2019
1962 Clouds 26 1016 26 10000 7.2 30 17:18 14.09.2019
1963 Clouds 27 1015 22 10000 6.7 50 16:42 14.09.2019
1964 Clouds 27 1015 22 10000 6.7 50 16:19 14.09.2019
1965 Clouds 27 1016 22 10000 6.2 60 15:42 14.09.2019
1966 Clouds 27 1016 22 10000 6.2 60 15:23 14.09.2019
1967 Clouds 27 1016 22 10000 6.2 60 15:23 14.09.2019
1968 Clouds 27 1017 22 10000 7.7 50 14:58 14.09.2019
1969 Clouds 26 1016 22 10000 6.7 60 14:39 14.09.2019
1970 Clouds 26 1016 22 10000 6.7 60 14:18 14.09.2019
1971 Clouds 25 1017 22 10000 7.2 50 13:47 14.09.2019
1972 Clouds 25 1017 27 10000 7.2 70 13:22 14.09.2019
1973 Clouds 23 1018 37 10000 6.7 50 12:46 14.09.2019
1974 Clouds 23 1018 37 10000 6.7 50 12:24 14.09.2019
1975 Clouds 22 1018 40 10000 7.2 60 11:42 14.09.2019
1976 Clouds 22 1018 40 10000 7.2 60 11:21 14.09.2019
1977 -273 0 0 0 0 0 10:55 14.09.2019
1978 Clouds 21 1019 45 10000 6.2 50 10:36 14.09.2019
1979 Clouds 21 1019 45 10000 6.2 50 10:18 14.09.2019
1980 Clear 19 1019 42 10000 7.7 30 09:55 14.09.2019
1981 Clear 19 1019 48 10000 5.7 50 09:37 14.09.2019
1982 Clear 19 1019 48 10000 5.7 50 09:18 14.09.2019
1983 Clear 17 1019 45 10000 6.2 50 08:41 14.09.2019
1984 Clear 17 1019 45 10000 6.2 50 08:22 14.09.2019
1985 Clear 15 1019 55 10000 3.1 60 07:43 14.09.2019
1986 Clear 15 1019 55 10000 3.1 60 07:23 14.09.2019
1987 Clear 13 1019 58 10000 0.5 0 06:36 14.09.2019
1988 Clear 13 1019 62 10000 5.7 30 05:55 14.09.2019
1989 Clear 13 1019 62 10000 5.7 40 04:43 14.09.2019
1990 Clear 13 1019 62 10000 1 240 03:32 14.09.2019
1991 Clear 14 1018 55 10000 2.6 10 02:48 14.09.2019
1992 Clear 16 1018 52 10000 3.6 20 01:45 14.09.2019
1993 Clear 16 1018 52 10000 3.6 20 01:20 14.09.2019
1994 Clear 16 1019 59 10000 1 0 00:41 14.09.2019
1995 Clear 16 1019 59 10000 1 0 00:22 14.09.2019
1996 Clear 17 1019 55 10000 5.7 40 23:56 13.09.2019
1997 Clear 17 1018 48 10000 2.6 80 23:37 13.09.2019
1998 Clear 17 1018 48 10000 2.6 80 23:18 13.09.2019
1999 Clear 18 1019 51 10000 4.6 20 22:55 13.09.2019
2000 Clear 19 1018 40 10000 2.6 40 22:37 13.09.2019
2001 Clear 19 1018 40 10000 2.6 40 22:19 13.09.2019
2002 Clear 19 1018 49 10000 4.1 320 21:40 13.09.2019
2003 Clear 19 1018 49 10000 4.1 320 21:19 13.09.2019
2004 Clear 19 1018 49 10000 4.1 320 21:19 13.09.2019
2005 Clear 19 1018 42 10000 5.1 10 20:58 13.09.2019
2006 Clear 19 1018 40 10000 3.1 340 20:38 13.09.2019
2007 Clear 19 1018 40 10000 3.1 340 20:19 13.09.2019
2008 Clear 22 1017 40 10000 6.2 360 19:54 13.09.2019
2009 Clear 22 1017 40 10000 6.2 360 19:54 13.09.2019
2010 Clear 22 1016 27 10000 2.1 40 19:36 13.09.2019
2011 Clear 24 1017 26 10000 4.1 360 19:18 13.09.2019
2012 Clear 24 1016 22 10000 3.1 90 18:38 13.09.2019
2013 Clear 24 1016 22 10000 3.1 90 18:19 13.09.2019
2014 Clear 24 1016 22 10000 3.1 90 18:19 13.09.2019
2015 Clear 26 1016 14 10000 6.2 80 17:55 13.09.2019
2016 Clear 26 1015 18 10000 6.2 60 17:36 13.09.2019
2017 Clear 26 1015 18 10000 6.2 60 17:18 13.09.2019
2018 Clear 27 1015 14 10000 6.2 70 16:40 13.09.2019
2019 Clear 27 1015 14 10000 6.2 70 16:20 13.09.2019
2020 Clouds 27 1016 14 10000 6.2 60 15:43 13.09.2019
2021 Clouds 27 1016 13 10000 6.2 60 15:24 13.09.2019
2022 Clear 27 1017 15 10000 5.1 50 14:56 13.09.2019
2023 Clouds 27 1016 15 10000 4.6 70 14:37 13.09.2019
2024 Clouds 27 1016 15 10000 4.6 70 14:37 13.09.2019
2025 Clear 26 1017 16 10000 5.7 40 14:19 13.09.2019
2026 Clouds 26 1017 19 10000 5.1 40 13:41 13.09.2019
2027 Clouds 26 1017 19 10000 5.1 40 13:22 13.09.2019
2028 Clear 25 1017 23 10000 5.7 30 12:46 13.09.2019
2029 Clear 25 1017 23 10000 5.7 30 12:25 13.09.2019
2030 Clouds 24 1018 26 10000 6.2 30 11:57 13.09.2019
2031 Clear 24 1018 27 10000 3.1 40 11:20 13.09.2019
2032 Clouds 23 1019 28 10000 5.1 30 10:59 13.09.2019
2033 Clear 23 1019 31 10000 5.1 40 10:37 13.09.2019
2034 Clear 23 1019 31 10000 5.1 40 10:18 13.09.2019
2035 Clouds 22 1019 30 10000 5.7 40 09:43 13.09.2019
2036 Clear 22 1019 35 10000 5.1 50 09:21 13.09.2019
2037 Clouds 20 1020 45 10000 1.5 0 08:57 13.09.2019
2038 Clear 19 1019 52 10000 1 0 08:39 13.09.2019
2039 Clear 19 1019 52 10000 1 0 08:20 13.09.2019
2040 Clear 17 1019 63 10000 2.79 54.164 07:41 13.09.2019
2041 Clear 16 1019 63 10000 2.79 54.164 07:22 13.09.2019
2042 Clear 13 1019 71 10000 2.79 54.164 06:38 13.09.2019
2043 Clear 13 1019 71 10000 1 220 05:36 13.09.2019
2044 Clear 14 1019 67 10000 0.5 240 04:34 13.09.2019
2045 Clear 16 1019 67 10000 0.5 0 03:33 13.09.2019
2046 Clear 16 1019 59 10000 1 220 02:20 13.09.2019
2047 Clear 17 1019 51 10000 1.5 230 01:38 13.09.2019
2048 Clear 18 1020 55 10000 3.6 30 00:59 13.09.2019
2049 Clear 18 1019 45 10000 1.5 50 00:36 13.09.2019
2050 Clear 19 1019 48 10000 3.6 10 23:53 12.09.2019
2051 Clear 19 1019 40 10000 2.1 80 23:26 12.09.2019
2052 Clear 20 1020 48 10000 2.1 350 22:58 12.09.2019
2053 Clear 20 1019 35 10000 4.25 23.556 22:40 12.09.2019
2054 Clear 20 1019 35 10000 4.25 23.556 22:22 12.09.2019
2055 Clear 21 1020 42 10000 3.1 360 21:56 12.09.2019
2056 Clear 21 1019 33 10000 0.5 0 21:37 12.09.2019
2057 Clear 21 1019 33 10000 0.5 0 21:19 12.09.2019
2058 Clear 22 1019 27 10000 3.1 70 20:44 12.09.2019
2059 Clouds 23 1019 30 10000 3.1 90 20:23 12.09.2019
2060 Clouds 23 1019 30 10000 3.1 90 19:57 12.09.2019
2061 Clear 24 1018 23 10000 3.6 100 19:39 12.09.2019
2062 Clouds 25 1019 27 10000 2.1 100 19:19 12.09.2019
2063 Clouds 25 1019 27 10000 2.1 100 18:56 12.09.2019
2064 Clear 25 1018 22 10000 4.6 60 18:36 12.09.2019
2065 Clear 25 1018 22 10000 4.6 60 18:18 12.09.2019
2066 Clear 26 1017 21 10000 4.1 70 17:40 12.09.2019
2067 Clear 27 1017 21 10000 4.1 70 17:20 12.09.2019
2068 Clouds 27 1018 21 10000 4.6 80 16:56 12.09.2019
2069 Clouds 27 1018 21 10000 4.6 80 16:56 12.09.2019
2070 Clear 27 1017 18 10000 4.1 50 16:37 12.09.2019
2071 Clear 28 1017 18 10000 4.1 50 16:19 12.09.2019
2072 Clear 28 1018 18 10000 2.6 80 15:41 12.09.2019
2073 Clear 28 1018 18 10000 2.6 80 15:23 12.09.2019
2074 Clear 28 1018 18 10000 2.6 80 15:23 12.09.2019
2075 Clouds 28 1019 18 10000 2.6 0 14:46 12.09.2019
2076 Clouds 28 1018 18 10000 3.1 30 14:22 12.09.2019
2077 Clouds 27 1019 16 10000 3.6 70 13:58 12.09.2019
2078 Clouds 27 1019 20 10000 3.6 70 13:37 12.09.2019
2079 Clouds 27 1019 20 10000 3.6 70 13:19 12.09.2019
2080 Clouds 26 1019 26 10000 2.6 0 12:45 12.09.2019
2081 Clouds 26 1019 26 10000 2.6 0 12:19 12.09.2019
2082 Clouds 25 1020 20 10000 2.6 0 11:56 12.09.2019
2083 Clouds 25 1020 27 10000 2.6 100 11:38 12.09.2019
2084 Clouds 25 1020 27 10000 2.6 100 11:19 12.09.2019
2085 Clouds 24 1020 27 10000 3.1 60 10:44 12.09.2019
2086 Clear 23 1020 33 10000 2.6 80 10:26 12.09.2019
2087 Clear 22 1021 40 10000 3.6 90 09:45 12.09.2019
2088 Clear 22 1021 40 10000 3.6 90 09:25 12.09.2019
2089 Clear 20 1021 42 10000 3.1 20 08:59 12.09.2019
2090 Clear 20 1020 43 10000 0.5 0 08:40 12.09.2019
2091 Clear 19 1021 52 10000 1 0 08:21 12.09.2019
2092 Clear 16 1020 55 10000 1.77 67.124 07:40 12.09.2019
2093 Clear 15 1021 67 10000 1.5 50 07:19 12.09.2019
2094 Clear 14 1021 67 10000 1.5 50 06:50 12.09.2019
2095 Clear 14 1020 71 10000 1.5 240 06:19 12.09.2019
2096 Clear 14 1021 71 10000 2.6 40 05:49 12.09.2019
2097 Clear 14 1020 67 10000 0.5 270 05:30 12.09.2019
2098 Clear 15 1020 62 10000 2.1 240 04:35 12.09.2019
2099 Clear 17 1020 55 10000 1.5 260 02:28 12.09.2019
2100 Clear 18 1019 45 10000 1 220 01:36 12.09.2019
2101 Clear 19 1019 45 10000 1 220 01:18 12.09.2019
2102 Clear 18 1020 40 10000 1.5 50 00:42 12.09.2019
2103 Clear 19 1020 40 10000 1.5 50 00:23 12.09.2019
2104 Clear 20 1019 40 10000 3.79 36.225 23:42 11.09.2019
2105 Clear 20 1019 40 10000 3.79 36.225 23:22 11.09.2019
2106 Clear 20 1020 42 10000 2.6 20 22:56 11.09.2019
2107 Clear 20 1019 35 10000 1.5 50 22:37 11.09.2019
2108 Clear 20 1019 35 10000 1.5 50 22:19 11.09.2019
2109 Clear 20 1019 35 10000 1.5 50 22:19 11.09.2019
2110 Clouds 21 1020 39 10000 2.6 30 21:42 11.09.2019
2111 Clouds 23 1020 37 10000 2.1 10 21:24 11.09.2019
2112 Clouds 23 1020 37 10000 2.6 360 20:58 11.09.2019
2113 Clear 23 1018 31 10000 4.1 70 20:39 11.09.2019
2114 Clouds 25 1019 28 10000 2.1 20 20:19 11.09.2019
2115 Clouds 25 1019 28 10000 2.1 20 19:58 11.09.2019
2116 Clear 25 1017 29 10000 5.7 70 19:39 11.09.2019
2117 Clear 25 1017 29 10000 5.7 70 19:39 11.09.2019
2118 Clear 25 1017 29 10000 5.7 70 19:39 11.09.2019
2119 Clear 25 1017 29 10000 5.7 70 19:21 11.09.2019
2120 Clouds 26 1018 29 10000 3.1 100 18:56 11.09.2019
2121 Clear 26 1017 26 10000 2.6 240 18:38 11.09.2019
2122 Clear 26 1017 26 10000 2.6 240 18:19 11.09.2019
2123 Clear 26 1017 26 10000 2.6 240 18:19 11.09.2019
2124 Clouds 27 1018 27 10000 5.7 80 18:19 11.09.2019
2125 Clouds 28 1018 27 10000 5.7 80 17:55 11.09.2019
2126 Clear 28 1017 23 10000 2.6 200 17:37 11.09.2019
2127 Clear 28 1017 23 10000 2.6 200 17:18 11.09.2019
2128 Clouds 28 1017 23 10000 2.6 90 16:42 11.09.2019
2129 Clouds 28 1017 23 10000 2.6 90 16:23 11.09.2019
2130 Clouds 28 1017 23 10000 2.6 90 16:23 11.09.2019
2131 Clouds 28 1018 22 10000 2.1 0 15:47 11.09.2019
2132 Clouds 28 1018 22 10000 2.1 0 15:47 11.09.2019
2133 Clouds 28 1017 23 10000 2.6 50 15:24 11.09.2019
2134 Clouds 28 1018 24 10000 3.1 250 14:59 11.09.2019
2135 Clouds 28 1018 23 10000 2.1 0 14:41 11.09.2019
2136 Clouds 28 1018 23 10000 2.1 0 14:21 11.09.2019
2137 Clouds 27 1018 27 10000 2.6 120 13:59 11.09.2019
2138 Clouds 28 1018 21 10000 1.5 260 13:37 11.09.2019
2139 Clouds 28 1018 21 10000 1.5 260 13:19 11.09.2019
2140 Clouds 26 1018 30 10000 3.1 320 12:43 11.09.2019
2141 Clouds 26 1018 30 10000 3.1 320 12:23 11.09.2019
2142 Clouds 25 1019 29 10000 1 0 11:58 11.09.2019
2143 Clouds 25 1019 33 10000 2.6 100 11:39 11.09.2019
2144 Clouds 25 1019 33 10000 2.6 100 11:21 11.09.2019
2145 Clouds 25 1019 33 10000 2.6 200 10:55 11.09.2019
2146 Clouds 25 1019 33 10000 2.6 200 10:55 11.09.2019
2147 Clouds 25 1019 33 10000 3.6 90 10:36 11.09.2019
2148 Clouds 24 1019 33 10000 3.6 90 10:18 11.09.2019
2149 Clear 22 1019 40 10000 2.1 70 09:37 11.09.2019
2150 Clear 22 1019 40 10000 2.1 70 09:19 11.09.2019
2151 Clouds 20 1019 46 10000 2.6 90 08:42 11.09.2019
2152 Clouds 20 1019 46 10000 2.6 90 08:22 11.09.2019
2153 Clear 18 1019 51 10000 1 0 07:57 11.09.2019
2154 Clouds 18 1019 52 10000 1.5 100 07:39 11.09.2019
2155 Clouds 17 1019 52 10000 1.5 100 07:20 11.09.2019
2156 Clouds 15 1018 59 10000 1.6 80.785 06:40 11.09.2019
2157 Clouds 15 1018 59 10000 1.59 47.782 06:21 11.09.2019
2158 Clear 14 1018 67 10000 1.59 47.782 05:34 11.09.2019
2159 Clear 16 1018 58 10000 4.6 20 04:52 11.09.2019
2160 Clear 17 1018 58 10000 3.6 20 03:59 11.09.2019
2161 Clear 17 1017 52 10000 2.1 110 03:26 11.09.2019
2162 Clear 18 1017 55 10000 2.6 100 02:31 11.09.2019
2163 Clear 19 1017 52 10000 2.1 90 01:31 11.09.2019
2164 Clear 20 1017 46 10000 2.6 90 00:37 11.09.2019
2165 Clear 20 1017 46 10000 2.6 90 00:19 11.09.2019
2166 Clouds 20 1016 40 10000 3.1 90 23:40 10.09.2019
2167 Clouds 20 1016 40 10000 3.1 90 23:21 10.09.2019
2168 Clear 22 1017 45 10000 4.1 50 22:54 10.09.2019
2169 Clouds 21 1016 35 10000 2.6 90 22:36 10.09.2019
2170 Clouds 21 1016 35 10000 2.6 90 22:18 10.09.2019
2171 Clouds 21 1016 35 10000 2.6 90 22:18 10.09.2019
2172 Clouds 21 1016 35 10000 2.6 90 22:18 10.09.2019
2173 Clear 22 1017 45 10000 3.6 40 21:54 10.09.2019
2174 Clouds 22 1015 35 10000 2.1 70 21:36 10.09.2019
2175 Clouds 22 1015 35 10000 2.1 70 21:18 10.09.2019
2176 Clear 22 1016 37 10000 3.1 20 20:54 10.09.2019
2177 Clouds 22 1015 33 10000 3.6 80 20:36 10.09.2019
2178 Clouds 22 1015 33 10000 3.6 80 20:18 10.09.2019
2179 Clouds 24 1016 33 10000 3.1 90 19:54 10.09.2019
2180 Clouds 23 1014 29 10000 3.6 110 19:36 10.09.2019
2181 Clouds 24 1015 31 10000 4.1 80 19:18 10.09.2019
2182 Clouds 25 1014 29 10000 4.6 70 18:42 10.09.2019
2183 Clouds 26 1014 29 10000 4.6 70 18:22 10.09.2019
2184 Clouds 27 1015 27 10000 4.6 90 17:55 10.09.2019
2185 Clouds 27 1014 26 10000 3.1 80 17:37 10.09.2019
2186 Clouds 27 1014 26 10000 3.1 80 17:19 10.09.2019
2187 Clouds 28 1015 27 10000 4.1 40 16:56 10.09.2019
2188 Clouds 28 1014 26 10000 1.5 0 16:37 10.09.2019
2189 Clouds 28 1014 26 10000 1.5 0 16:19 10.09.2019
2190 Clouds 28 1015 28 10000 2.6 240 15:43 10.09.2019
2191 Clouds 28 1015 28 10000 2.6 240 15:22 10.09.2019
2192 Clouds 28 1015 28 10000 2.6 240 15:22 10.09.2019
2193 Clouds 27 1015 26 10000 3.6 360 14:57 10.09.2019
2194 Clouds 27 1014 28 10000 3.1 0 14:38 10.09.2019
2195 Clouds 28 1014 28 10000 3.1 0 14:19 10.09.2019
2196 Clouds 27 1015 27 10000 3.1 0 13:44 10.09.2019
2197 Clouds 26 1015 31 10000 1.5 0 13:23 10.09.2019
2198 Clouds 26 1015 31 10000 3.1 10 12:52 10.09.2019
2199 Clouds 26 1015 30 10000 2.1 240 12:28 10.09.2019
2200 Clouds 25 1016 33 10000 1 0 11:59 10.09.2019
2201 Clouds 25 1015 41 10000 2.6 0 11:40 10.09.2019
2202 Clouds 24 1015 41 10000 2.6 0 11:22 10.09.2019
2203 Clear 24 1016 40 10000 2.1 20 10:54 10.09.2019
2204 Clouds 23 1016 41 10000 1.5 50 10:36 10.09.2019
2205 Clouds 22 1017 43 10000 0.6 182.181 10:18 10.09.2019
2206 Clouds 21 1016 52 10000 2.6 80 09:41 10.09.2019
2207 Clear 20 1017 52 10000 0.5 0 09:19 10.09.2019
2208 Clear 20 1016 56 10000 4.1 100 08:47 10.09.2019
2209 Clear 19 1016 56 10000 4.1 100 08:29 10.09.2019
2210 Clear 17 1017 63 10000 1 0 07:56 10.09.2019
2211 Clear 16 1016 59 10000 1.5 74.721 07:38 10.09.2019
2212 Clear 16 1016 59 10000 1.5 74.721 07:20 10.09.2019
2213 Clear 13 1016 67 10000 1 0 06:39 10.09.2019
2214 Clear 13 1016 76 10000 2.3 40.288 06:20 10.09.2019
2215 Clear 15 1015 67 10000 2.3 40.288 04:19 10.09.2019
2216 Clear 16 1015 62 10000 0.5 0 02:38 10.09.2019
2217 Clear 16 1015 63 10000 4.6 20 02:20 10.09.2019
2218 Clear 16 1015 63 10000 4.6 20 02:20 10.09.2019
2219 Clear 16 1015 63 10000 4.6 20 02:20 10.09.2019
2220 Clear 16 1015 63 10000 4.6 20 01:50 10.09.2019
2221 Clear 16 1015 55 10000 3 41.434 01:50 10.09.2019
2222 Clear 16 1015 55 10000 3.13 39.24 01:22 10.09.2019
2223 Clear 17 1015 51 10000 1.5 230 00:36 10.09.2019
2224 Clear 18 1016 52 10000 3.6 20 23:58 09.09.2019
2225 Clear 18 1015 42 10000 1.5 20 23:40 09.09.2019
2226 Clear 18 1015 42 10000 1.5 20 23:18 09.09.2019
2227 Clear 18 1015 48 10000 4.1 20 22:54 09.09.2019
2228 Clear 18 1015 42 10000 4.43 30.398 22:36 09.09.2019
2229 Clear 19 1015 42 10000 3.1 360 22:18 09.09.2019
2230 -273 0 0 0 0 0 21:55 09.09.2019
2231 Clear 20 1014 39 10000 1.5 250 21:36 09.09.2019
2232 Clear 21 1015 34 10000 4.1 10 21:18 09.09.2019
2233 Clear 21 1015 34 10000 4.1 10 20:55 09.09.2019
2234 Clear 21 1014 35 10000 0.5 0 20:36 09.09.2019
2235 Clear 21 1014 35 10000 0.5 0 20:36 09.09.2019
2236 Clouds 22 1014 30 10000 2.6 90 20:18 09.09.2019
2237 Clouds 22 1014 30 10000 2.6 90 19:55 09.09.2019
2238 Clouds 23 1013 31 10000 1.5 220 19:37 09.09.2019
2239 Clouds 25 1014 28 10000 2.6 100 19:18 09.09.2019
2240 Clouds 25 1013 24 10000 0.5 200 18:54 09.09.2019
2241 Clouds 25 1013 24 10000 0.5 200 18:36 09.09.2019
2242 Clouds 26 1014 20 10000 2.1 280 18:18 09.09.2019
2243 Clouds 27 1013 24 10000 1 0 17:41 09.09.2019
2244 Clouds 27 1013 24 10000 1 0 17:21 09.09.2019
2245 Clouds 27 1014 19 10000 3.1 180 16:59 09.09.2019
2246 Clouds 27 1013 23 10000 1 0 16:39 09.09.2019
2247 Clouds 27 1014 20 10000 2.1 60 16:20 09.09.2019
2248 Clouds 27 1014 20 10000 2.1 60 15:56 09.09.2019
2249 Clouds 27 1014 24 10000 1 0 15:37 09.09.2019
2250 Clouds 27 1014 24 10000 1 0 15:19 09.09.2019
2251 Clouds 26 1014 24 10000 2.6 0 14:57 09.09.2019
2252 Clouds 26 1014 24 10000 2.6 0 14:38 09.09.2019
2253 Clouds 26 1015 22 10000 2.1 220 14:20 09.09.2019
2254 Clouds 26 1014 27 10000 1.5 120 13:45 09.09.2019
2255 Clouds 26 1014 27 10000 1.5 120 13:21 09.09.2019
2256 Clouds 25 1015 27 10000 2.1 10 12:58 09.09.2019
2257 Clouds 24 1015 33 10000 3.1 0 12:40 09.09.2019
2258 Clouds 24 1015 33 10000 3.1 0 12:20 09.09.2019
2259 Clouds 24 1015 36 10000 2.1 0 11:48 09.09.2019
2260 Clouds 23 1015 36 10000 2.1 0 11:24 09.09.2019
2261 Clouds 22 1016 35 10000 2.6 130 10:59 09.09.2019
2262 Clouds 22 1016 38 10000 1.5 0 10:41 09.09.2019
2263 Clouds 22 1016 38 10000 1.5 0 10:21 09.09.2019
2264 Clear 21 1016 40 10000 2.1 80 09:57 09.09.2019
2265 Clear 20 1016 46 10000 2.1 100 09:38 09.09.2019
2266 Clear 19 1017 48 10000 3.1 60 09:19 09.09.2019
2267 Clear 20 1016 46 10000 2.1 100 09:19 09.09.2019
2268 Clear 18 1016 49 10000 2.2 28.37 08:39 09.09.2019
2269 Clear 17 1017 59 10000 2.6 10 08:20 09.09.2019
2270 Clear 16 1017 59 10000 2.6 10 07:47 09.09.2019
2271 Clear 16 1016 59 10000 2.2 28.37 07:23 09.09.2019
2272 Clear 13 1016 67 10000 2.2 28.37 06:58 09.09.2019
2273 Clear 13 1016 67 10000 2.2 28.37 06:36 09.09.2019
2274 Clear 13 1016 66 10000 1.5 50 04:56 09.09.2019
2275 Clear 15 1016 62 10000 3.6 20 02:59 09.09.2019
2276 Clear 15 1016 55 10000 3.03 13.99 02:38 09.09.2019
2277 Clear 17 1017 55 10000 2.1 310 00:46 09.09.2019
2278 Clear 18 1017 48 10000 3.6 30 00:22 09.09.2019
2279 Clear 18 1017 55 10000 1 0 23:46 08.09.2019
2280 Clear 19 1016 45 10000 2.1 30 23:24 08.09.2019
2281 Clear 19 1017 45 10000 3.6 360 22:57 08.09.2019
2282 Clear 20 1016 43 10000 1 0 22:38 08.09.2019
2283 Clear 20 1016 43 10000 1 0 22:19 08.09.2019
2284 Clear 20 1016 33 10000 1 0 21:42 08.09.2019
2285 Clear 20 1016 33 10000 1 0 21:23 08.09.2019
2286 Clear 22 1016 42 10000 4.6 30 20:59 08.09.2019
2287 Clear 22 1015 27 10000 4.1 20 20:59 08.09.2019
2288 Clear 22 1015 27 10000 4.1 20 20:40 08.09.2019
2289 Clear 22 1015 27 10000 4.1 20 20:21 08.09.2019
2290 Clouds 23 1016 35 10000 4.6 10 19:59 08.09.2019
2291 Clear 24 1015 25 10000 5.1 30 19:38 08.09.2019
2292 Clouds 25 1015 25 10000 5.1 10 19:20 08.09.2019
2293 Clouds 24 1015 25 10000 5.1 10 18:57 08.09.2019
2294 Clear 25 1014 29 10000 4.16 3.97 18:38 08.09.2019
2295 Clouds 26 1015 23 10000 5.7 40 18:18 08.09.2019
2296 Clouds 26 1015 23 10000 5.7 40 17:56 08.09.2019
2297 Clouds 26 1014 26 10000 1.5 0 17:36 08.09.2019
2298 Clouds 26 1014 27 10000 1 0 17:18 08.09.2019
2299 Clouds 26 1014 27 10000 2.6 240 16:43 08.09.2019
2300 Clouds 26 1014 27 10000 2.6 240 16:22 08.09.2019
2301 Clouds 27 1015 27 10000 2.6 200 15:58 08.09.2019
2302 Clouds 27 1014 28 10000 1.5 200 15:40 08.09.2019
2303 Clouds 26 1014 28 10000 1.5 200 15:21 08.09.2019
2304 Clouds 26 1015 27 10000 1.5 0 14:56 08.09.2019
2305 Clouds 26 1015 31 10000 2.6 0 14:37 08.09.2019
2306 Clouds 26 1016 29 10000 2.1 0 14:19 08.09.2019
2307 Clouds 25 1016 29 10000 2.1 0 13:55 08.09.2019
2308 Clouds 25 1015 31 10000 1 0 13:36 08.09.2019
2309 Clouds 25 1016 31 10000 2.1 0 13:18 08.09.2019
2310 Clouds 24 1016 36 10000 3.1 0 12:41 08.09.2019
2311 Clouds 24 1017 33 10000 1.5 0 12:23 08.09.2019
2312 Clouds 24 1017 33 10000 1.5 0 11:58 08.09.2019
2313 Clouds 24 1017 33 10000 1.5 0 11:58 08.09.2019
2314 Clouds 24 1016 38 10000 1.5 180 11:38 08.09.2019
2315 Clouds 24 1016 38 10000 1.5 180 11:38 08.09.2019
2316 Clouds 22 1017 40 10000 2.1 0 11:20 08.09.2019
2317 Clouds 22 1017 40 10000 2.1 0 10:56 08.09.2019
2318 Clear 22 1017 43 10000 3.1 80 10:38 08.09.2019
2319 Clear 22 1017 43 10000 3.1 80 10:38 08.09.2019
2320 Clouds 21 1018 45 10000 2.6 0 10:19 08.09.2019
2321 Clear 21 1017 49 10000 3.1 40 09:38 08.09.2019
2322 Clear 20 1017 49 10000 3.1 40 09:20 08.09.2019
2323 Clear 19 1018 48 10000 2.6 80 08:56 08.09.2019
2324 Clear 19 1017 55 10000 1 0 08:37 08.09.2019
2325 Clear 17 1017 59 10000 1 0 08:18 08.09.2019
2326 Clear 16 1017 63 10000 0.5 0 07:39 08.09.2019
2327 Clear 14 1017 66 10000 0.5 0 07:20 08.09.2019
2328 Clear 12 1017 76 10000 0.5 0 06:49 08.09.2019
2329 Clear 12 1017 76 10000 0.5 0 06:31 08.09.2019
2330 Clear 13 1016 67 10000 2.91 30.849 05:37 08.09.2019
2331 Clear 14 1016 66 10000 3.1 10 03:54 08.09.2019
2332 -273 0 0 0 0 0 02:55 08.09.2019
2333 Clear 15 1016 59 10000 1.5 230 02:26 08.09.2019
2334 Clear 16 1016 55 10000 3.59 27.244 01:45 08.09.2019
2335 Clear 16 1017 62 10000 1.5 350 01:19 08.09.2019
2336 Clear 16 1016 55 10000 1 240 00:44 08.09.2019
2337 Clear 16 1016 55 10000 1 240 00:26 08.09.2019
2338 Clear 17 1016 52 10000 1 240 23:38 07.09.2019
2339 Clear 17 1016 52 10000 1 240 23:38 07.09.2019
2340 Clear 18 1016 52 10000 1 240 23:19 07.09.2019
2341 Clear 18 1017 51 10000 3.1 20 22:57 07.09.2019
2342 Clear 18 1017 48 10000 2.1 50 22:38 07.09.2019
2343 Clear 19 1016 43 10000 1 0 22:19 07.09.2019
2344 Clear 19 1016 40 10000 1.5 10 21:41 07.09.2019
2345 Clear 19 1016 40 10000 1.5 10 21:23 07.09.2019
2346 Clear 21 1017 40 10000 5.7 10 20:54 07.09.2019
2347 Clear 21 1016 33 10000 3.1 40 20:36 07.09.2019
2348 Clouds 22 1016 35 10000 6.2 20 20:18 07.09.2019
2349 Clouds 23 1016 35 10000 6.2 20 19:54 07.09.2019
2350 Clear 23 1015 29 10000 3.6 360 19:36 07.09.2019
2351 Clouds 24 1015 27 10000 5.7 10 19:18 07.09.2019
2352 Clouds 25 1015 27 10000 5.7 10 18:54 07.09.2019
2353 Clear 25 1014 26 10000 2.6 60 18:36 07.09.2019
2354 Clouds 26 1015 23 10000 5.7 10 18:18 07.09.2019
2355 Clouds 26 1014 26 10000 1.5 0 17:41 07.09.2019
2356 Clouds 27 1014 26 10000 1.5 0 17:19 07.09.2019
2357 Clouds 27 1014 24 10000 2.1 0 16:59 07.09.2019
2358 Clouds 27 1014 24 10000 2.1 0 16:41 07.09.2019
2359 Clouds 27 1014 24 10000 2.1 0 16:20 07.09.2019
2360 Clouds 27 1014 23 10000 1 0 15:48 07.09.2019
2361 Clouds 27 1014 23 10000 1 0 15:26 07.09.2019
2362 Clouds 27 1015 22 10000 2.1 0 14:58 07.09.2019
2363 Clouds 26 1014 26 10000 2.1 80 14:37 07.09.2019
2364 Clouds 26 1015 22 10000 1 0 14:19 07.09.2019
2365 Clouds 26 1015 22 10000 1 0 13:58 07.09.2019
2366 Clouds 26 1015 22 10000 1 0 13:58 07.09.2019
2367 Clouds 26 1015 31 10000 2.6 0 13:39 07.09.2019
2368 Clouds 25 1015 31 10000 2.6 0 13:21 07.09.2019
2369 Clouds 25 1015 36 10000 2.6 0 12:44 07.09.2019
2370 Clouds 25 1015 36 10000 2.6 0 12:25 07.09.2019
2371 Clouds 23 1016 28 10000 2.6 0 11:58 07.09.2019
2372 Clouds 23 1016 40 10000 2.1 0 11:39 07.09.2019
2373 Clouds 22 1016 40 10000 3.1 30 11:19 07.09.2019
2374 Clouds 22 1016 40 10000 3.1 30 11:19 07.09.2019
2375 Clouds 22 1016 46 10000 1.5 0 10:40 07.09.2019
2376 Clouds 22 1016 46 10000 1.5 0 10:22 07.09.2019
2377 Clouds 21 1017 43 10000 2.6 50 09:56 07.09.2019
2378 Clear 20 1016 49 10000 1 120 09:37 07.09.2019
2379 Clear 20 1016 49 10000 1 120 09:37 07.09.2019
2380 Clouds 19 1017 45 10000 4.1 30 09:19 07.09.2019
2381 Clear 18 1016 59 10000 1 0 08:44 07.09.2019
2382 Clear 18 1016 59 10000 1 0 08:25 07.09.2019
2383 Clear 16 1016 63 10000 1 0 07:46 07.09.2019
2384 Clear 16 1016 63 10000 1 0 07:27 07.09.2019
2385 Clear 14 1017 67 10000 2.6 350 06:50 07.09.2019
2386 Clear 14 1016 71 10000 4.1 360 06:20 07.09.2019
2387 Clear 14 1015 67 10000 1 0 04:49 07.09.2019
2388 Clear 14 1015 67 10000 1 0 04:23 07.09.2019
2389 Clear 16 1015 72 10000 1 0 02:49 07.09.2019
2390 Clear 17 1016 67 10000 2.1 360 01:53 07.09.2019
2391 Clear 17 1015 59 10000 1 0 01:23 07.09.2019
2392 Clear 17 1015 59 10000 1.5 180 00:40 07.09.2019
2393 Clear 18 1016 63 10000 2.1 10 00:19 07.09.2019
2394 Clear 18 1015 59 10000 2.6 230 23:41 06.09.2019
2395 Clear 18 1015 59 10000 2.6 230 23:22 06.09.2019
2396 Clear 19 1016 55 10000 3.1 50 22:58 06.09.2019
2397 Clear 19 1015 52 10000 1.5 230 22:38 06.09.2019
2398 Clear 19 1016 59 10000 4.1 30 22:19 06.09.2019
2399 Clear 19 1016 59 10000 4.1 30 22:19 06.09.2019
2400 Clear 20 1016 59 10000 4.1 30 21:57 06.09.2019
2401 Clear 20 1015 49 10000 1.5 190 21:39 06.09.2019
2402 Clear 20 1015 49 10000 1.5 190 21:39 06.09.2019
2403 Clear 20 1015 49 10000 1.5 190 21:20 06.09.2019
2404 Clear 21 1016 52 10000 5.1 20 20:57 06.09.2019
2405 Clear 21 1015 49 10000 2.1 70 20:39 06.09.2019
2406 Clouds 21 1015 49 10000 5.7 30 20:21 06.09.2019
2407 Clouds 22 1015 49 10000 5.7 30 19:55 06.09.2019
2408 Clear 22 1014 49 10000 1.5 0 19:37 06.09.2019
2409 Clouds 23 1014 43 10000 5.7 20 19:18 06.09.2019
2410 Clouds 24 1014 41 10000 5.7 10 18:41 06.09.2019
2411 Clouds 26 1014 41 10000 5.7 10 18:23 06.09.2019
2412 Clouds 27 1014 34 10000 7.2 360 17:58 06.09.2019
2413 Clouds 27 1014 34 10000 7.2 360 17:58 06.09.2019
2414 Clouds 27 1013 30 10000 2.1 0 17:37 06.09.2019
2415 Clouds 27 1013 30 10000 2.1 0 17:19 06.09.2019
2416 Clouds 28 1013 28 10000 3.1 0 16:39 06.09.2019
2417 Clouds 28 1013 28 10000 3.1 0 16:19 06.09.2019
2418 Clouds 28 1013 28 10000 2.6 0 15:42 06.09.2019
2419 Clouds 28 1013 28 10000 2.6 0 15:42 06.09.2019
2420 Clouds 28 1013 28 10000 2.6 0 15:42 06.09.2019
2421 Clouds 28 1013 28 10000 2.6 0 15:23 06.09.2019
2422 Clouds 28 1014 24 10000 2.6 350 14:55 06.09.2019
2423 Clouds 28 1014 24 10000 2.6 350 14:55 06.09.2019
2424 Clouds 28 1014 24 10000 2.6 0 14:37 06.09.2019
2425 Clouds 28 1014 24 10000 2.6 0 14:37 06.09.2019
2426 Clouds 27 1015 27 10000 5.1 210 14:18 06.09.2019
2427 Clouds 26 1014 26 10000 1.5 330 13:41 06.09.2019
2428 Clouds 26 1014 26 10000 1.5 330 13:41 06.09.2019
2429 Clouds 26 1015 24 10000 1 0 13:20 06.09.2019
2430 Clouds 25 1015 27 10000 1 0 12:38 06.09.2019
2431 Clouds 25 1015 22 10000 3.1 190 12:20 06.09.2019
2432 Clouds 25 1015 22 10000 3.1 190 11:54 06.09.2019
2433 Clouds 24 1015 33 10000 1.5 0 11:36 06.09.2019
2434 Clouds 23 1016 29 10000 2.6 310 11:18 06.09.2019
2435 Clouds 22 1015 40 10000 2.1 260 10:40 06.09.2019
2436 Clouds 22 1015 40 10000 2.1 260 10:22 06.09.2019
2437 Clouds 21 1016 33 10000 2.1 20 09:57 06.09.2019
2438 Clouds 22 1015 46 10000 1.51 221.182 09:36 06.09.2019
2439 Clouds 21 1015 46 10000 1.57 56.32 09:18 06.09.2019
2440 Clouds 18 1015 52 10000 0.5 0 08:43 06.09.2019
2441 Clouds 18 1015 52 10000 0.5 0 08:25 06.09.2019
2442 Clouds 17 1015 63 10000 1 220 07:48 06.09.2019
2443 Clouds 15 1015 58 10000 1.57 56.32 07:27 06.09.2019
2444 Clouds 14 1015 62 10000 0.5 0 06:58 06.09.2019
2445 Clouds 15 1015 62 10000 0.5 0 06:26 06.09.2019
2446 Clear 13 1014 71 10000 2.44 35.974 05:43 06.09.2019
2447 Clear 14 1014 67 10000 0.5 230 04:49 06.09.2019
2448 Clear 15 1015 58 10000 2.44 35.974 03:53 06.09.2019
2449 Clear 16 1014 67 10000 3.28 25.025 02:23 06.09.2019
2450 Clear 17 1014 59 10000 3.29 32.328 00:45 06.09.2019
2451 Clear 17 1014 55 10000 4.24 24.632 23:56 05.09.2019
2452 Clear 18 1014 55 10000 4.24 24.632 23:38 05.09.2019
2453 Clear 18 1014 55 10000 4.24 24.632 23:19 05.09.2019
2454 Clear 19 1014 45 10000 0.5 0 22:43 05.09.2019
2455 Clear 19 1014 45 10000 0.5 0 22:24 05.09.2019
2456 Clear 20 1015 37 10000 2.1 70 21:56 05.09.2019
2457 Clear 20 1014 45 10000 1 0 21:38 05.09.2019
2458 Clear 20 1014 37 10000 2.6 30 21:19 05.09.2019
2459 Clear 21 1014 37 10000 2.6 30 20:57 05.09.2019
2460 Clear 21 1013 43 10000 1 0 20:37 05.09.2019
2461 Clear 21 1013 43 10000 1 0 20:19 05.09.2019
2462 Clouds 22 1014 35 10000 2.6 110 19:55 05.09.2019
2463 Clouds 22 1013 35 10000 0.5 230 19:37 05.09.2019
2464 Clouds 24 1013 31 10000 2.6 160 19:18 05.09.2019
2465 Clouds 25 1012 29 10000 4.55 19.165 18:41 05.09.2019
2466 Clouds 25 1012 29 10000 2.52 295.814 18:21 05.09.2019
2467 Clouds 26 1013 27 10000 3.1 160 17:57 05.09.2019
2468 Clouds 26 1012 29 10000 2.1 190 17:38 05.09.2019
2469 Clouds 26 1012 29 10000 2.1 190 17:20 05.09.2019
2470 Clouds 26 1012 29 10000 2.1 250 16:42 05.09.2019
2471 Clouds 26 1012 29 10000 2.1 250 16:21 05.09.2019
2472 Clouds 26 1013 25 10000 2.6 160 15:58 05.09.2019
2473 Clouds 25 1012 33 10000 2.6 190 15:39 05.09.2019
2474 Clouds 25 1012 33 10000 2.6 190 15:19 05.09.2019
2475 Clouds 25 1013 27 10000 3.6 200 14:55 05.09.2019
2476 Clouds 25 1013 29 10000 1 0 14:37 05.09.2019
2477 Clouds 26 1013 25 10000 2.1 320 14:18 05.09.2019
2478 Clouds 26 1013 27 10000 1.5 0 13:41 05.09.2019
2479 Clouds 26 1014 25 10000 4.1 360 13:18 05.09.2019
2480 Clouds 26 1013 29 10000 1.5 0 12:42 05.09.2019
2481 Clouds 26 1013 29 10000 1.5 0 12:24 05.09.2019
2482 Clouds 25 1014 29 10000 1.5 210 11:45 05.09.2019
2483 Clouds 25 1014 29 10000 1.5 210 11:20 05.09.2019
2484 Clouds 24 1015 25 10000 3.1 40 10:59 05.09.2019
2485 Clouds 23 1014 31 10000 1.5 0 10:37 05.09.2019
2486 Clouds 23 1014 31 10000 1.5 0 10:37 05.09.2019
2487 Clouds 23 1014 31 10000 1.5 0 10:19 05.09.2019
2488 Clouds 23 1015 33 10000 2.6 70 09:41 05.09.2019
2489 Clouds 21 1015 30 10000 5.1 70 09:22 05.09.2019
2490 Clouds 21 1015 30 10000 5.1 70 08:56 05.09.2019
2491 Clear 21 1014 37 10000 3.1 90 08:38 05.09.2019
2492 Clear 21 1014 37 10000 3.1 90 08:19 05.09.2019
2493 Clear 18 1014 40 10000 2.1 90 07:44 05.09.2019
2494 Clear 18 1014 40 10000 2.1 90 07:24 05.09.2019
2495 Clear 17 1014 42 10000 1 0 06:46 05.09.2019
2496 Clear 17 1014 42 10000 1 0 06:26 05.09.2019
2497 Clear 17 1014 59 10000 4.1 70 05:46 05.09.2019
2498 Clear 17 1014 59 10000 4.1 70 05:27 05.09.2019
2499 Clear 17 1014 55 10000 3.6 50 04:30 05.09.2019
2500 Clear 18 1014 48 10000 4.1 20 03:52 05.09.2019
2501 Clear 18 1014 45 10000 5.7 10 02:58 05.09.2019
2502 Clear 18 1013 48 10000 1.5 220 02:38 05.09.2019
2503 Clear 19 1014 42 10000 6.2 20 02:18 05.09.2019
2504 Clouds 20 1014 45 10000 6.7 20 00:58 05.09.2019
2505 Clear 20 1013 43 10000 1 0 00:39 05.09.2019
2506 Clouds 20 1014 45 10000 7.2 20 00:19 05.09.2019
2507 Clear 20 1013 46 10000 2.1 240 23:41 04.09.2019
2508 Clear 20 1013 46 10000 2.1 240 23:41 04.09.2019
2509 Clear 20 1013 46 10000 2.1 240 23:22 04.09.2019
2510 Clear 20 1013 52 10000 1.5 250 22:49 04.09.2019
2511 Clouds 21 1013 40 10000 4.1 20 22:21 04.09.2019
2512 Clouds 21 1013 40 10000 4.1 20 21:57 04.09.2019
2513 Clear 21 1012 43 10000 1.5 250 21:38 04.09.2019
2514 Clear 21 1012 43 10000 1.5 250 21:38 04.09.2019
2515 Clear 22 1012 43 10000 1.5 250 21:19 04.09.2019
2516 Clouds 23 1013 33 10000 5.1 10 20:55 04.09.2019
2517 Clouds 23 1013 33 10000 5.1 10 20:55 04.09.2019
2518 Clouds 23 1012 38 10000 5.1 20 20:36 04.09.2019
2519 Clouds 23 1013 49 10000 4.1 360 20:18 04.09.2019
2520 Thunderstorm 23 1012 44 10000 5.1 20 19:40 04.09.2019
2521 Rain 24 1012 36 10000 4.1 360 19:21 04.09.2019
2522 Rain 26 1012 36 10000 4.1 360 18:55 04.09.2019
2523 Rain 26 1012 36 10000 4.1 360 18:55 04.09.2019
2524 Clouds 26 1011 32 10000 5.7 30 18:36 04.09.2019
2525 Thunderstorm 26 1012 49 10000 7.2 280 18:18 04.09.2019
2526 Clouds 27 1010 25 10000 5.1 30 17:41 04.09.2019
2527 Clouds 27 1010 25 10000 5.1 30 17:22 04.09.2019
2528 Clouds 28 1012 24 10000 7.7 20 16:56 04.09.2019
2529 Clouds 28 1010 22 10000 2.6 50 16:38 04.09.2019
2530 Clouds 29 1010 22 10000 2.6 50 16:19 04.09.2019
2531 Clouds 29 1011 22 10000 1 280 15:41 04.09.2019
2532 Clouds 29 1011 22 10000 1 280 15:22 04.09.2019
2533 Clouds 30 1011 22 10000 2.1 180 14:58 04.09.2019
2534 Clouds 29 1011 22 10000 2.1 180 14:38 04.09.2019
2535 Clouds 29 1011 22 10000 2.1 180 14:20 04.09.2019
2536 Clouds 28 1012 26 10000 4.1 30 13:58 04.09.2019
2537 Clouds 28 1012 23 10000 2.1 140 13:39 04.09.2019
2538 Clouds 28 1013 24 10000 2.1 0 13:21 04.09.2019
2539 Clear 28 1013 24 10000 3.1 100 12:44 04.09.2019
2540 Clear 28 1013 24 10000 3.1 100 12:26 04.09.2019
2541 Clouds 27 1014 22 10000 2.6 30 11:58 04.09.2019
2542 Clear 27 1013 30 10000 3.1 110 11:38 04.09.2019
2543 Clouds 26 1014 23 10000 3.6 50 11:20 04.09.2019
2544 Clouds 26 1014 23 10000 3.6 50 10:56 04.09.2019
2545 Clouds 26 1014 23 10000 3.6 50 10:56 04.09.2019
2546 Clear 25 1013 31 10000 4.1 50 10:36 04.09.2019
2547 Clouds 25 1014 33 10000 5.7 70 10:18 04.09.2019
2548 Clear 24 1014 38 10000 4.6 70 09:44 04.09.2019
2549 Clear 24 1014 38 10000 4.6 70 09:44 04.09.2019
2550 Clear 23 1014 38 10000 4.6 70 09:20 04.09.2019
2551 Clouds 22 1013 38 10000 4.6 60 08:42 04.09.2019
2552 Clouds 22 1013 38 10000 4.6 60 08:24 04.09.2019
2553 Clouds 21 1014 49 10000 5.7 10 07:58 04.09.2019
2554 Clouds 20 1013 43 10000 3.1 70 07:35 04.09.2019
2555 Clouds 19 1014 55 10000 5.1 10 06:53 04.09.2019
2556 Clear 18 1013 49 10000 1 0 06:33 04.09.2019
2557 Clear 19 1014 55 10000 5.1 10 04:54 04.09.2019
2558 Clear 19 1013 48 10000 0.5 0 04:22 04.09.2019
2559 Clear 20 1014 52 10000 4.1 20 02:50 04.09.2019
2560 Clear 20 1014 52 10000 2.6 40 01:18 04.09.2019
2561 Clear 21 1013 49 10000 1.5 230 00:41 04.09.2019
2562 Clear 21 1013 49 10000 1.5 230 00:22 04.09.2019
2563 Clear 21 1014 40 10000 2.1 50 00:22 04.09.2019
2564 Clear 21 1013 49 10000 1 0 23:48 03.09.2019
2565 Clear 21 1013 49 10000 1 0 23:26 03.09.2019
2566 Clear 21 1014 49 10000 1 0 22:41 03.09.2019
2567 Clear 21 1014 49 10000 1 0 22:23 03.09.2019
2568 Clouds 22 1014 55 10000 3.1 20 21:57 03.09.2019
2569 Clouds 22 1014 55 10000 3.1 20 21:57 03.09.2019
2570 Clouds 22 1014 36 10000 5.7 210 21:38 03.09.2019
2571 Clouds 23 1014 36 10000 5.7 210 21:20 03.09.2019
2572 Clouds 24 1012 34 10000 2.6 80 20:56 03.09.2019
2573 Clouds 24 1012 34 10000 2.6 80 20:37 03.09.2019
2574 Clouds 25 1013 38 10000 4.6 40 20:19 03.09.2019
2575 Clouds 25 1012 31 10000 3.6 70 19:43 03.09.2019
2576 Clouds 25 1013 46 10000 4.1 60 19:20 03.09.2019
2577 Clouds 26 1013 46 10000 4.1 60 18:59 03.09.2019
2578 Clouds 26 1011 28 10000 7.2 40 18:40 03.09.2019
2579 Clouds 27 1013 41 10000 5.7 50 18:19 03.09.2019
2580 -273 0 0 0 0 0 17:55 03.09.2019
2581 Clouds 28 1013 41 10000 5.7 50 17:55 03.09.2019
2582 Clouds 28 1012 34 10000 8.2 30 17:55 03.09.2019
2583 Clouds 28 1012 34 10000 8.2 30 17:36 03.09.2019
2584 Rain 29 1012 30 10000 8.2 10 17:18 03.09.2019
2585 Rain 30 1013 32 10000 10.3 30 16:42 03.09.2019
2586 Clouds 31 1013 22 10000 2.1 230 16:22 03.09.2019
2587 Clouds 31 1013 22 10000 2.1 230 16:22 03.09.2019
2588 Clouds 31 1013 22 10000 2.1 230 15:55 03.09.2019
2589 Clouds 31 1012 22 10000 2.6 220 15:37 03.09.2019
2590 Clouds 31 1012 22 10000 2.6 220 15:19 03.09.2019
2591 Clouds 31 1013 22 10000 1.5 0 14:55 03.09.2019
2592 Clouds 31 1012 21 10000 2.1 0 14:36 03.09.2019
2593 Clouds 30 1013 23 10000 2.6 0 14:18 03.09.2019
2594 Clouds 30 1013 23 10000 2.6 0 13:55 03.09.2019
2595 Clouds 30 1013 23 10000 2.6 0 13:55 03.09.2019
2596 Clouds 30 1013 25 10000 2.1 0 13:36 03.09.2019
2597 Clouds 29 1014 24 10000 2.1 0 13:18 03.09.2019
2598 Clouds 29 1013 26 10000 2.1 0 12:45 03.09.2019
2599 Clouds 29 1013 26 10000 2.1 0 12:26 03.09.2019
2600 Clouds 28 1014 28 10000 3.1 70 11:43 03.09.2019
2601 Clouds 28 1014 28 10000 3.1 70 11:23 03.09.2019
2602 Clouds 27 1015 31 10000 5.1 360 10:58 03.09.2019
2603 Clouds 26 1014 34 10000 3.1 50 10:39 03.09.2019
2604 Clouds 26 1014 34 10000 3.1 50 10:21 03.09.2019
2605 Clear 24 1015 41 10000 4.1 60 09:49 03.09.2019
2606 Clear 24 1015 41 10000 4.1 60 09:31 03.09.2019
2607 Clouds 22 1016 40 10000 4.1 60 08:57 03.09.2019
2608 Clouds 22 1015 46 10000 4.1 90 08:37 03.09.2019
2609 Clear 21 1016 48 10000 5.7 10 08:19 03.09.2019
2610 Clear 20 1015 49 10000 3.05 58.349 07:42 03.09.2019
2611 Clear 19 1015 49 10000 3.05 58.349 07:24 03.09.2019
2612 Clear 17 1015 63 10000 3.05 58.349 06:45 03.09.2019
2613 Clear 18 1015 63 10000 2.71 46.032 06:27 03.09.2019
2614 Clear 18 1014 52 10000 1 240 03:44 03.09.2019
2615 Clear 19 1014 48 10000 0.5 0 02:47 03.09.2019
2616 Clear 19 1014 48 10000 0.5 0 02:26 03.09.2019
2617 Clear 20 1015 52 10000 6.7 10 01:52 03.09.2019
2618 Clear 20 1014 42 10000 1 0 01:33 03.09.2019
2619 Clear 21 1015 48 10000 5.7 10 00:56 03.09.2019
2620 Clear 21 1014 35 10000 1 0 00:26 03.09.2019
2621 Clear 22 1014 29 10000 2.6 60 23:40 02.09.2019
2622 Clear 22 1014 27 10000 4.1 30 23:20 02.09.2019
2623 Clear 23 1014 27 10000 4.1 30 22:57 02.09.2019
2624 Clear 23 1014 27 10000 4.1 30 22:57 02.09.2019
2625 Clear 23 1014 27 10000 4.1 30 22:39 02.09.2019
2626 Clear 23 1015 28 10000 3.6 20 22:20 02.09.2019
2627 Clear 23 1015 28 10000 3.6 20 21:58 02.09.2019
2628 Clear 24 1014 24 10000 2.6 70 21:40 02.09.2019
2629 Clear 24 1014 24 10000 2.6 70 21:20 02.09.2019
2630 Clear 24 1015 26 10000 4.1 20 20:59 02.09.2019
2631 Clouds 25 1013 21 10000 5.1 30 20:40 02.09.2019
2632 Clouds 25 1013 21 10000 5.1 30 20:40 02.09.2019
2633 Clouds 26 1014 21 10000 5.7 40 20:19 02.09.2019
2634 Clouds 27 1014 21 10000 5.7 40 19:57 02.09.2019
2635 Clouds 27 1013 26 10000 2.6 20 19:38 02.09.2019
2636 Clouds 27 1013 26 10000 2.6 20 19:38 02.09.2019
2637 Clouds 28 1014 28 10000 4.1 50 19:19 02.09.2019
2638 Clouds 29 1012 23 10000 2.6 250 18:40 02.09.2019
2639 Clouds 29 1013 23 10000 4.1 40 18:22 02.09.2019
2640 Clouds 30 1013 23 10000 4.1 40 17:58 02.09.2019
2641 Clouds 30 1012 20 10000 0.5 0 17:39 02.09.2019
2642 Clouds 30 1012 20 10000 0.5 0 17:20 02.09.2019
2643 Clouds 31 1013 20 10000 2.6 310 16:54 02.09.2019
2644 Clouds 31 1012 21 10000 3.1 0 16:36 02.09.2019
2645 Clouds 31 1013 20 10000 4.1 250 16:18 02.09.2019
2646 Clouds 31 1013 23 10000 3.1 230 15:44 02.09.2019
2647 Clouds 31 1013 23 10000 3.1 230 15:22 02.09.2019
2648 Clouds 31 1013 23 10000 3.1 230 15:22 02.09.2019
2649 Clouds 31 1013 17 10000 4.1 270 14:56 02.09.2019
2650 Clouds 31 1013 22 10000 2.6 0 14:37 02.09.2019
2651 Clouds 31 1014 23 10000 2.1 350 14:19 02.09.2019
2652 Clouds 31 1013 23 10000 2.1 0 13:45 02.09.2019
2653 Clouds 30 1014 25 10000 2.6 230 13:25 02.09.2019
2654 Clouds 29 1014 25 10000 2.6 230 12:59 02.09.2019
2655 Clouds 30 1014 27 10000 2.1 0 12:40 02.09.2019
2656 Clouds 30 1014 27 10000 2.1 0 12:40 02.09.2019
2657 Clouds 28 1015 26 10000 1.5 270 12:22 02.09.2019
2658 Clouds 28 1014 30 10000 2.1 0 11:56 02.09.2019
2659 Clouds 28 1014 30 10000 2.1 0 11:37 02.09.2019
2660 Clouds 28 1014 30 10000 2.1 0 11:37 02.09.2019
2661 Clouds 27 1015 27 10000 2.1 230 11:19 02.09.2019
2662 Clouds 26 1015 34 10000 1 330 10:42 02.09.2019
2663 Clouds 26 1015 34 10000 1 330 10:22 02.09.2019
2664 Clouds 25 1015 38 10000 1.5 120 09:58 02.09.2019
2665 Clouds 24 1015 44 10000 1.5 20 09:39 02.09.2019
2666 Clouds 24 1015 44 10000 1.5 20 09:20 02.09.2019
2667 Clear 22 1015 53 10000 1 0 08:43 02.09.2019
2668 Clear 20 1016 52 10000 2 41.757 08:22 02.09.2019
2669 Clear 20 1016 52 10000 2 41.757 07:57 02.09.2019
2670 Clear 19 1015 59 10000 0.5 0 07:37 02.09.2019
2671 Clear 18 1015 63 10000 2 41.757 07:19 02.09.2019
2672 Clear 16 1014 72 10000 0.5 0 06:42 02.09.2019
2673 Clear 16 1014 67 10000 0.5 0 05:54 02.09.2019
2674 Clear 16 1014 67 10000 0.5 0 05:25 02.09.2019
2675 Clear 17 1015 59 10000 2.46 19.009 04:48 02.09.2019
2676 Clear 18 1014 59 10000 1 0 02:29 02.09.2019
2677 Clear 19 1013 55 10000 0.5 0 01:37 02.09.2019
2678 Clear 20 1013 49 10000 0.5 0 00:42 02.09.2019
2679 Clear 20 1014 52 10000 3.1 350 00:20 02.09.2019
2680 Clear 21 1013 46 10000 1.5 240 23:39 01.09.2019
2681 Clear 22 1014 49 10000 3.1 30 23:19 01.09.2019
2682 Clear 22 1014 49 10000 3.1 30 22:56 01.09.2019
2683 Clear 22 1013 33 10000 1.5 230 22:38 01.09.2019
2684 Clear 22 1013 33 10000 1.5 230 22:38 01.09.2019
2685 Clouds 23 1014 40 10000 3.1 20 22:18 01.09.2019
2686 Clear 23 1013 33 10000 2.6 40 21:43 01.09.2019
2687 Clear 23 1013 33 10000 2.6 40 21:23 01.09.2019
2688 Clouds 25 1013 31 10000 4.1 30 20:58 01.09.2019
2689 Clouds 25 1012 26 10000 3.1 70 20:39 01.09.2019
2690 Clouds 26 1013 22 10000 4.6 10 20:19 01.09.2019
2691 Clouds 26 1013 22 10000 4.6 10 19:59 01.09.2019
2692 Clouds 26 1011 29 10000 1.5 230 19:40 01.09.2019
2693 Clouds 27 1012 22 10000 3.6 90 19:21 01.09.2019
2694 Clouds 28 1011 23 10000 2.6 240 18:48 01.09.2019
2695 Clouds 28 1011 23 10000 2.6 240 18:30 01.09.2019
2696 Clouds 29 1012 22 10000 3.6 10 17:59 01.09.2019
2697 Clouds 29 1011 20 10000 1.5 250 17:39 01.09.2019
2698 Clouds 29 1012 21 10000 1.5 0 17:21 01.09.2019
2699 Clouds 29 1011 22 10000 1 0 16:41 01.09.2019
2700 Clouds 29 1011 22 10000 1 0 16:22 01.09.2019
2701 Clouds 29 1012 18 10000 2.1 350 15:59 01.09.2019
2702 Clouds 30 1011 23 10000 2.1 0 15:41 01.09.2019
2703 Clouds 30 1011 23 10000 2.1 0 15:23 01.09.2019
2704 Clouds 29 1011 23 10000 3.1 0 14:44 01.09.2019
2705 Clouds 29 1011 23 10000 3.1 0 14:26 01.09.2019
2706 Clouds 29 1012 23 10000 2.6 0 13:59 01.09.2019
2707 Clouds 29 1012 25 10000 2.6 270 13:40 01.09.2019
2708 Clouds 29 1012 25 10000 2.6 270 13:40 01.09.2019
2709 Clouds 28 1013 24 10000 3.1 350 13:22 01.09.2019
2710 Clouds 28 1012 26 10000 1.5 140 12:44 01.09.2019
2711 Clouds 28 1012 26 10000 1.5 140 12:26 01.09.2019
2712 Clouds 28 1012 26 10000 1.5 140 12:26 01.09.2019
2713 Clear 27 1013 30 10000 1.5 0 11:58 01.09.2019
2714 Clouds 27 1013 32 10000 2.1 0 11:38 01.09.2019
2715 Clouds 26 1014 29 10000 1 0 11:18 01.09.2019
2716 Clouds 25 1013 36 10000 2.1 0 10:45 01.09.2019
2717 Clouds 25 1013 36 10000 2.1 0 10:23 01.09.2019
2718 Clear 24 1014 44 10000 1.5 50 09:47 01.09.2019
2719 Clear 24 1014 44 10000 1.5 50 09:26 01.09.2019
2720 Clear 22 1014 46 10000 1.5 260 08:56 01.09.2019
2721 Clear 21 1014 49 10000 1 0 08:38 01.09.2019
2722 Clear 19 1014 52 10000 2.1 160 08:19 01.09.2019
2723 Clear 18 1014 59 10000 1.69 75.594 07:41 01.09.2019
2724 Clear 15 1014 62 10000 0.5 0 07:20 01.09.2019
2725 Clear 14 1014 67 10000 1.69 75.594 06:38 01.09.2019
2726 Clear 15 1014 58 10000 1.5 50 05:58 01.09.2019
2727 Clear 16 1013 63 10000 1 220 04:40 01.09.2019
2728 Clear 16 1013 63 10000 1 240 03:48 01.09.2019
2729 Clear 16 1013 63 10000 1 240 03:29 01.09.2019
2730 Clear 17 1014 63 10000 1.5 250 02:37 01.09.2019
2731 Clear 18 1014 63 10000 1.5 250 02:18 01.09.2019
2732 Clear 19 1014 52 10000 0.5 30 01:27 01.09.2019
2733 Clear 20 1014 40 10000 3.23 29.124 00:48 01.09.2019
2734 Clear 20 1014 40 10000 5.46 24.158 00:25 01.09.2019
2735 Clear 21 1015 45 10000 4.1 30 23:59 31.08.2019
2736 Clear 21 1014 35 10000 0.5 0 23:39 31.08.2019
2737 Clear 22 1015 37 10000 4.6 10 23:19 31.08.2019
2738 Clear 22 1015 37 10000 4.6 10 23:19 31.08.2019
2739 Clear 22 1015 37 10000 4.6 10 22:54 31.08.2019
2740 Clear 22 1014 36 10000 2.1 0 22:36 31.08.2019
2741 Clear 22 1014 36 10000 2.1 0 22:36 31.08.2019
2742 Clear 23 1015 35 10000 4.1 20 22:18 31.08.2019
2743 Clear 23 1013 43 10000 5.61 32.082 21:41 31.08.2019
2744 Clear 23 1013 43 10000 4.04 3.218 21:21 31.08.2019
2745 Clear 24 1013 41 10000 2.6 240 20:50 31.08.2019
2746 Clear 24 1013 41 10000 2.6 240 20:31 31.08.2019
2747 Clouds 25 1014 27 10000 2.1 80 19:59 31.08.2019
2748 Clear 25 1012 31 10000 1 0 19:41 31.08.2019
2749 Clear 25 1012 31 10000 1 0 19:22 31.08.2019
2750 Clear 28 1012 25 10000 1 0 18:41 31.08.2019
2751 Clouds 28 1013 24 10000 1 0 18:23 31.08.2019
2752 Clouds 28 1013 24 10000 1 0 17:58 31.08.2019
2753 Clouds 29 1012 26 10000 1 0 17:38 31.08.2019
2754 Clouds 29 1012 26 10000 1 0 17:19 31.08.2019
2755 Clouds 29 1013 24 10000 2.1 260 17:00 31.08.2019
2756 Clouds 29 1013 26 10000 1 0 16:41 31.08.2019
2757 Clouds 29 1013 26 10000 1 0 16:21 31.08.2019
2758 Clouds 29 1014 28 10000 1.5 0 15:59 31.08.2019
2759 Clouds 29 1013 26 10000 2.1 330 15:38 31.08.2019
2760 Clouds 29 1014 26 10000 3.1 0 15:18 31.08.2019
2761 Clouds 29 1014 30 10000 2.6 0 14:42 31.08.2019
2762 Clouds 29 1014 30 10000 2.6 0 14:24 31.08.2019
2763 Clouds 28 1015 24 10000 2.1 0 13:56 31.08.2019
2764 Clouds 28 1014 28 10000 3.1 50 13:36 31.08.2019
2765 Clouds 28 1015 28 10000 3.1 0 13:18 31.08.2019
2766 Clouds 27 1015 32 10000 2.1 0 12:41 31.08.2019
2767 Clouds 27 1016 29 10000 2.1 0 12:21 31.08.2019
2768 Clouds 27 1015 32 10000 2.1 0 12:21 31.08.2019
2769 Clouds 26 1016 29 10000 2.1 0 11:58 31.08.2019
2770 Clouds 26 1015 39 10000 1.5 0 11:40 31.08.2019
2771 Clouds 26 1015 39 10000 1.5 0 11:22 31.08.2019
2772 Clouds 25 1016 44 10000 2.1 0 10:43 31.08.2019
2773 Clouds 24 1017 46 10000 1 0 10:19 31.08.2019
2774 Clouds 23 1017 46 10000 1 0 10:00 31.08.2019
2775 Clear 23 1016 50 10000 2.1 0 09:39 31.08.2019
2776 Clear 22 1016 50 10000 2.1 0 09:21 31.08.2019
2777 Clear 21 1016 56 10000 1.5 60 08:44 31.08.2019
2778 Clear 21 1016 56 10000 1.5 60 08:26 31.08.2019
2779 Clear 18 1016 68 10000 1.5 220 07:42 31.08.2019
2780 Clear 18 1016 68 10000 1.5 220 07:23 31.08.2019
2781 Clear 16 1017 67 10000 3.1 10 06:56 31.08.2019
2782 Clear 16 1016 77 10000 1.5 240 06:21 31.08.2019
2783 Clear 16 1015 77 10000 2.1 230 05:34 31.08.2019
2784 Clear 16 1015 72 10000 1.5 220 04:39 31.08.2019
2785 Clear 17 1016 67 10000 4.6 10 03:50 31.08.2019
2786 Clear 17 1017 67 10000 4.1 20 02:59 31.08.2019
2787 Clear 18 1017 63 10000 4.1 10 01:56 31.08.2019
2788 Clear 18 1016 68 10000 1.5 230 01:36 31.08.2019
2789 Clear 18 1017 63 10000 4.1 20 01:18 31.08.2019
2790 Clear 18 1016 63 10000 2.1 230 00:41 31.08.2019
2791 Clear 18 1016 63 10000 2.1 230 00:41 31.08.2019
2792 Clear 18 1016 63 10000 2.1 230 00:23 31.08.2019
2793 Clear 19 1017 59 10000 2.6 40 23:40 30.08.2019
2794 Clear 20 1017 59 10000 3.1 20 23:18 30.08.2019
2795 Clear 20 1017 56 10000 4.6 360 22:43 30.08.2019
2796 Clear 21 1017 56 10000 4.6 360 22:25 30.08.2019
2797 Clear 22 1017 49 10000 4.1 10 21:59 30.08.2019
2798 Clear 22 1016 49 10000 2.1 350 21:38 30.08.2019
2799 Clear 22 1016 49 10000 2.1 350 21:20 30.08.2019
2800 Clear 22 1017 49 10000 4.1 20 20:59 30.08.2019
2801 Clear 22 1016 49 10000 4.1 340 20:41 30.08.2019
2802 Clear 22 1016 49 10000 4.1 340 20:21 30.08.2019
2803 Clouds 24 1016 43 10000 5.7 10 19:59 30.08.2019
2804 Clouds 23 1015 47 10000 4.1 330 19:40 30.08.2019
2805 Clouds 25 1015 38 10000 5.7 360 19:19 30.08.2019
2806 Clouds 26 1015 38 10000 5.7 360 18:55 30.08.2019
2807 Clouds 26 1014 32 10000 4.1 10 18:37 30.08.2019
2808 Clouds 26 1015 31 10000 7.2 10 18:18 30.08.2019
2809 Clouds 28 1015 31 10000 7.2 10 17:55 30.08.2019
2810 Clouds 28 1015 31 10000 7.2 10 17:55 30.08.2019
2811 Clouds 28 1015 31 10000 7.2 10 17:55 30.08.2019
2812 Clouds 28 1014 23 10000 3.6 250 17:37 30.08.2019
2813 Clouds 29 1014 26 10000 3.6 10 17:18 30.08.2019
2814 Clouds 29 1014 25 10000 3.6 260 16:43 30.08.2019
2815 Clouds 29 1014 25 10000 3.6 260 16:22 30.08.2019
2816 Clouds 29 1014 25 10000 1 0 15:45 30.08.2019
2817 Clouds 29 1014 25 10000 1 0 15:24 30.08.2019
2818 Clouds 29 1014 25 10000 1 0 15:24 30.08.2019
2819 Clouds 29 1015 23 10000 3.1 40 14:57 30.08.2019
2820 Clouds 29 1015 27 10000 2.1 0 14:38 30.08.2019
2821 Clouds 29 1016 24 10000 3.6 230 14:20 30.08.2019
2822 Clouds 28 1015 30 10000 2.6 0 13:43 30.08.2019
2823 Clouds 28 1015 30 10000 2.6 0 13:23 30.08.2019
2824 Clouds 28 1015 30 10000 2.6 0 13:23 30.08.2019
2825 Clouds 28 1016 28 10000 2.6 240 12:56 30.08.2019
2826 Clouds 28 1016 32 10000 1 290 12:38 30.08.2019
2827 Clouds 27 1016 34 10000 2.6 0 12:20 30.08.2019
2828 Clouds 27 1016 34 10000 2.6 0 11:41 30.08.2019
2829 Clouds 27 1016 34 10000 2.6 0 11:23 30.08.2019
2830 Clear 25 1017 36 10000 2.6 0 10:40 30.08.2019
2831 Clouds 24 1018 35 10000 2.6 60 10:22 30.08.2019
2832 Clouds 24 1018 35 10000 2.6 60 09:58 30.08.2019
2833 Clear 23 1017 41 10000 2.6 110 09:39 30.08.2019
2834 Clouds 23 1017 37 10000 3.1 20 09:19 30.08.2019
2835 Clear 23 1017 41 10000 2.6 110 09:19 30.08.2019
2836 Clear 22 1017 46 10000 2.1 70 08:44 30.08.2019
2837 Clear 22 1017 46 10000 2.1 70 08:25 30.08.2019
2838 Clear 20 1017 45 10000 2.1 20 07:59 30.08.2019
2839 Clear 19 1017 60 10000 0.5 0 07:39 30.08.2019
2840 Clear 17 1017 59 10000 2.6 70 07:21 30.08.2019
2841 Clear 16 1016 72 10000 0.5 240 06:44 30.08.2019
2842 Clear 16 1016 72 10000 0.5 240 06:26 30.08.2019
2843 Clear 16 1016 72 10000 1 0 05:43 30.08.2019
2844 Clear 17 1016 59 10000 4.6 360 03:58 30.08.2019
2845 Clear 17 1016 68 10000 0.5 0 03:38 30.08.2019
2846 Clear 19 1016 56 10000 0.5 0 02:49 30.08.2019
2847 Clear 19 1016 56 10000 0.5 0 02:24 30.08.2019
2848 Clear 19 1016 56 10000 1.5 210 01:28 30.08.2019
2849 Clear 20 1016 52 10000 2.6 230 00:27 30.08.2019
2850 Clear 21 1017 52 10000 5.7 10 23:57 29.08.2019
2851 Clear 21 1016 53 10000 0.5 0 23:38 29.08.2019
2852 Clear 22 1017 52 10000 4.6 20 23:20 29.08.2019
2853 Clear 22 1016 47 10000 2.6 230 22:42 29.08.2019
2854 Clear 22 1016 47 10000 2.6 230 22:23 29.08.2019
2855 Clear 23 1017 49 10000 4.1 10 21:55 29.08.2019
2856 Clear 23 1017 49 10000 4.1 10 21:55 29.08.2019
2857 Clear 23 1016 38 10000 1.5 340 21:36 29.08.2019
2858 Clear 24 1017 46 10000 5.7 360 21:18 29.08.2019
2859 Clear 24 1017 46 10000 5.7 360 20:42 29.08.2019
2860 Clouds 24 1015 36 10000 1 0 20:20 29.08.2019
2861 Clouds 25 1016 31 10000 4.1 100 19:58 29.08.2019
2862 Clouds 25 1016 31 10000 4.1 100 19:39 29.08.2019
2863 Clouds 25 1015 36 10000 2.6 0 19:21 29.08.2019
2864 Clouds 27 1015 29 10000 4.1 70 18:42 29.08.2019
2865 Clouds 28 1015 23 10000 2.6 240 18:21 29.08.2019
2866 Clouds 29 1015 20 10000 1.5 10 17:56 29.08.2019
2867 Clouds 29 1015 20 10000 1.5 10 17:56 29.08.2019
2868 Clouds 29 1015 20 10000 1.5 10 17:38 29.08.2019
2869 Clouds 29 1015 18 10000 2.1 310 17:19 29.08.2019
2870 Clouds 30 1015 18 10000 2.1 50 16:57 29.08.2019
2871 Clouds 30 1015 18 10000 2.1 50 16:38 29.08.2019
2872 Clouds 29 1016 23 10000 3.6 20 16:20 29.08.2019
2873 Clouds 29 1015 23 10000 2.6 40 15:39 29.08.2019
2874 Clouds 29 1016 23 10000 4.1 350 15:20 29.08.2019
2875 Clouds 29 1016 23 10000 4.1 350 14:50 29.08.2019
2876 Clouds 28 1016 25 10000 2.1 0 14:24 29.08.2019
2877 Clouds 28 1017 28 10000 5.7 350 13:59 29.08.2019
2878 Clouds 28 1016 28 10000 4.1 360 13:39 29.08.2019
2879 Clouds 28 1016 28 10000 4.1 360 13:20 29.08.2019
2880 Clouds 27 1017 30 10000 5.7 360 12:59 29.08.2019
2881 Clouds 27 1016 32 10000 2.6 0 12:39 29.08.2019
2882 Clouds 27 1017 31 10000 6.2 360 12:21 29.08.2019
2883 Clouds 27 1017 31 10000 6.2 360 11:59 29.08.2019
2884 Clouds 26 1017 36 10000 3.6 0 11:39 29.08.2019
2885 Clouds 26 1017 36 10000 3.6 0 11:19 29.08.2019
2886 Clouds 25 1017 38 10000 2.1 130 10:45 29.08.2019
2887 Clouds 25 1017 38 10000 2.1 130 10:25 29.08.2019
2888 Clear 24 1018 43 10000 5.7 80 09:56 29.08.2019
2889 Clear 23 1018 44 10000 2.6 0 09:38 29.08.2019
2890 Clear 23 1018 44 10000 2.6 0 09:18 29.08.2019
2891 Clear 21 1018 49 10000 1 0 08:41 29.08.2019
2892 Clear 21 1018 49 10000 1 0 08:22 29.08.2019
2893 Clear 19 1018 52 10000 4.1 360 07:52 29.08.2019
2894 Clear 19 1018 56 10000 2.07 57.52 07:30 29.08.2019
2895 Clear 16 1019 63 10000 3.1 20 06:54 29.08.2019
2896 Clear 16 1018 67 10000 2.07 57.52 06:33 29.08.2019
2897 Clear 16 1018 63 10000 1.95 37.689 05:48 29.08.2019
2898 Clear 16 1019 67 10000 3.1 10 04:51 29.08.2019
2899 Clear 16 1018 63 10000 1.95 37.689 04:30 29.08.2019
2900 Clear 18 1018 59 10000 2.6 80 03:35 29.08.2019
2901 Clear 19 1019 59 10000 2.6 330 01:53 29.08.2019
2902 Clear 19 1018 59 10000 0.5 0 01:34 29.08.2019
2903 Clear 19 1018 59 10000 0.5 0 01:34 29.08.2019
2904 Clear 21 1018 49 10000 1.5 50 00:46 29.08.2019
2905 Clear 22 1019 49 10000 4.1 20 00:21 29.08.2019
2906 Clear 22 1019 49 10000 4.1 20 23:56 28.08.2019
2907 Clear 22 1018 49 10000 3.6 60 23:38 28.08.2019
2908 Clear 22 1019 43 10000 8.2 70 23:19 28.08.2019
2909 Clear 23 1018 47 10000 6.2 50 22:39 28.08.2019
2910 Clear 22 1019 43 10000 5.1 30 22:19 28.08.2019
2911 Clear 23 1019 43 10000 5.1 30 21:59 28.08.2019
2912 Clear 23 1017 40 10000 1.5 40 21:41 28.08.2019
2913 Clear 23 1017 40 10000 1.5 40 21:21 28.08.2019
2914 Clear 23 1018 40 10000 3.1 40 20:56 28.08.2019
2915 Clear 24 1017 33 10000 0.5 10 20:37 28.08.2019
2916 Clear 25 1018 31 10000 4.1 80 20:19 28.08.2019
2917 Clouds 26 1016 28 10000 3.1 70 19:40 28.08.2019
2918 Clouds 26 1016 28 10000 3.1 70 19:21 28.08.2019
2919 Clear 27 1017 27 10000 5.1 80 18:56 28.08.2019
2920 Clouds 28 1016 28 10000 5.1 80 18:37 28.08.2019
2921 Clear 28 1017 26 10000 6.2 80 18:18 28.08.2019
2922 Clouds 29 1016 23 10000 5.1 60 17:37 28.08.2019
2923 Clouds 29 1016 23 10000 5.1 60 17:37 28.08.2019
2924 Clouds 29 1016 23 10000 5.1 60 17:19 28.08.2019
2925 Clouds 29 1016 23 10000 4.1 60 16:43 28.08.2019
2926 Clouds 29 1017 20 10000 6.7 50 16:21 28.08.2019
2927 Clouds 29 1017 20 10000 6.7 50 15:59 28.08.2019
2928 Clouds 29 1017 25 10000 5.1 50 15:37 28.08.2019
2929 Clouds 29 1018 20 10000 6.7 40 15:19 28.08.2019
2930 Clouds 29 1017 23 10000 4.6 60 14:56 28.08.2019
2931 Clouds 29 1017 23 10000 4.6 60 14:38 28.08.2019
2932 Clouds 28 1018 24 10000 5.1 60 14:19 28.08.2019
2933 Clouds 28 1018 24 10000 5.1 60 13:57 28.08.2019
2934 Clouds 28 1017 28 10000 4.6 90 13:37 28.08.2019
2935 Clouds 28 1018 24 10000 6.7 50 13:18 28.08.2019
2936 Clouds 27 1018 30 10000 5.1 40 12:41 28.08.2019
2937 Clouds 27 1018 30 10000 5.1 40 12:23 28.08.2019
2938 Clouds 27 1018 30 10000 5.1 40 12:23 28.08.2019
2939 Clouds 27 1019 33 10000 6.2 60 11:54 28.08.2019
2940 Clouds 27 1018 36 10000 3.6 70 11:36 28.08.2019
2941 Clear 26 1019 31 10000 7.7 80 11:18 28.08.2019
2942 Clouds 25 1019 36 10000 4.1 70 10:41 28.08.2019
2943 Clouds 26 1019 36 10000 4.1 70 10:21 28.08.2019
2944 Clear 24 1020 38 10000 4.6 70 09:58 28.08.2019
2945 Clouds 24 1019 38 10000 4.6 40 09:39 28.08.2019
2946 Clear 23 1020 40 10000 4.1 30 09:18 28.08.2019
2947 Clear 22 1019 38 10000 4.1 60 08:39 28.08.2019
2948 Clear 21 1020 42 10000 4.1 30 08:20 28.08.2019
2949 Clear 21 1020 42 10000 4.1 30 08:20 28.08.2019
2950 Clear 20 1019 49 10000 0.5 0 07:40 28.08.2019
2951 Clear 20 1019 49 10000 0.5 0 07:22 28.08.2019
2952 Clear 17 1020 52 10000 4.6 10 06:51 28.08.2019
2953 Clear 16 1019 67 10000 3.66 62.266 06:32 28.08.2019
2954 Clear 16 1019 67 10000 2.1 230 05:32 28.08.2019
2955 Clear 18 1020 63 10000 3.1 10 02:46 28.08.2019
2956 Clear 19 1019 52 10000 1.5 220 01:32 28.08.2019
2957 Clear 20 1020 55 10000 4.1 30 00:55 28.08.2019
2958 Clear 20 1019 49 10000 1 0 00:35 28.08.2019
2959 Clear 20 1020 55 10000 2.6 40 23:58 27.08.2019
2960 Clear 20 1019 46 10000 4.1 70 23:38 27.08.2019
2961 Clear 21 1019 49 10000 3.6 20 23:20 27.08.2019
2962 Clear 21 1019 43 10000 1.5 20 22:42 27.08.2019
2963 Clear 22 1019 43 10000 1.5 20 22:23 27.08.2019
2964 Clear 22 1019 46 10000 4.6 10 21:57 27.08.2019
2965 Clear 23 1019 43 10000 2.1 210 21:39 27.08.2019
2966 Clear 23 1018 38 10000 2.6 60 21:20 27.08.2019
2967 Clear 24 1019 38 10000 3.6 50 20:59 27.08.2019
2968 Clear 24 1017 34 10000 4.6 30 20:40 27.08.2019
2969 Clouds 25 1018 33 10000 5.7 10 20:19 27.08.2019
2970 Clear 26 1017 28 10000 4.1 30 19:46 27.08.2019
2971 Clear 26 1017 28 10000 4.1 30 19:28 27.08.2019
2972 Clouds 28 1018 26 10000 7.2 10 18:59 27.08.2019
2973 Clear 28 1016 25 10000 5.7 30 18:41 27.08.2019
2974 Clouds 29 1017 21 10000 8.7 350 18:18 27.08.2019
2975 Clouds 29 1017 21 10000 8.7 350 17:56 27.08.2019
2976 Clear 29 1016 22 10000 6.2 40 17:37 27.08.2019
2977 Clouds 30 1017 18 10000 6.2 20 17:18 27.08.2019
2978 Clear 31 1016 23 10000 4.6 10 16:43 27.08.2019
2979 Clear 30 1016 23 10000 4.6 10 16:24 27.08.2019
2980 Clouds 30 1017 20 10000 7.2 360 15:57 27.08.2019
2981 Clear 30 1016 25 10000 3.1 60 15:38 27.08.2019
2982 Clouds 30 1017 22 10000 4.6 60 15:19 27.08.2019
2983 Clouds 30 1017 23 10000 3.6 100 14:42 27.08.2019
2984 Clouds 29 1018 23 10000 2.1 0 14:23 27.08.2019
2985 Clear 29 1017 23 10000 4.1 50 13:43 27.08.2019
2986 Clear 29 1017 23 10000 4.1 50 13:25 27.08.2019
2987 Clouds 28 1018 21 10000 4.6 60 12:59 27.08.2019
2988 Clear 28 1018 24 10000 2.1 0 12:39 27.08.2019
2989 Clouds 27 1019 27 10000 4.6 30 12:20 27.08.2019
2990 Clear 27 1018 31 10000 2.6 0 11:47 27.08.2019
2991 Clear 26 1018 31 10000 2.6 0 11:27 27.08.2019
2992 Clear 25 1019 31 10000 5.7 20 10:55 27.08.2019
2993 Clear 25 1019 36 10000 4.1 70 10:37 27.08.2019
2994 Clear 25 1019 33 10000 6.2 30 10:18 27.08.2019
2995 Clear 24 1019 38 10000 2.6 40 09:39 27.08.2019
2996 Clear 24 1019 38 10000 2.6 40 09:21 27.08.2019
2997 Clear 22 1019 37 10000 5.1 30 08:59 27.08.2019
2998 Clear 22 1019 40 10000 1.5 0 08:40 27.08.2019
2999 Clear 21 1019 40 10000 1.5 0 08:21 27.08.2019
3000 Clear 19 1019 59 10000 0.5 0 07:41 27.08.2019
3001 Clear 17 1019 58 10000 1 0 07:20 27.08.2019
3002 Clear 15 1019 58 10000 1 0 06:54 27.08.2019
3003 Clear 14 1019 66 10000 1.5 360 06:27 27.08.2019
3004 Clear 14 1018 71 10000 2.71 29.217 05:47 27.08.2019
3005 Clear 15 1019 62 10000 0.5 360 04:54 27.08.2019
3006 Clear 16 1018 59 10000 0.5 0 03:39 27.08.2019
3007 Clear 17 1018 52 10000 2.1 220 02:23 27.08.2019
3008 Clear 18 1018 49 10000 0.5 0 01:44 27.08.2019
3009 Clear 19 1018 49 10000 0.5 0 01:23 27.08.2019
3010 Clear 19 1018 43 10000 2.6 10 00:44 27.08.2019
3011 Clear 19 1018 43 10000 2.6 10 00:24 27.08.2019
3012 Clear 21 1018 43 10000 3.1 20 23:39 26.08.2019
3013 Clear 21 1018 43 10000 3.1 20 23:21 26.08.2019
3014 Clear 23 1018 36 10000 3.6 60 22:41 26.08.2019
3015 Clear 23 1018 36 10000 3.6 60 22:20 26.08.2019
3016 Clear 24 1019 40 10000 3.6 20 21:59 26.08.2019
3017 Clear 24 1019 40 10000 3.6 20 21:38 26.08.2019
3018 Clear 24 1017 34 10000 5.1 50 21:20 26.08.2019
3019 Clear 25 1018 31 10000 5.7 50 20:57 26.08.2019
3020 Clear 25 1018 31 10000 5.7 50 20:38 26.08.2019
3021 Clear 26 1017 34 10000 5.7 50 20:19 26.08.2019
3022 Clear 27 1018 29 10000 5.7 50 19:43 26.08.2019
3023 Clear 27 1016 30 10000 6.2 60 19:20 26.08.2019
3024 Clouds 29 1017 30 10000 7.2 80 18:59 26.08.2019
3025 Clouds 29 1017 30 10000 7.2 80 18:38 26.08.2019
3026 Clouds 29 1017 30 10000 7.2 80 18:38 26.08.2019
3027 Clear 29 1015 25 10000 6.7 70 18:19 26.08.2019
3028 Clear 29 1015 25 10000 6.7 70 18:19 26.08.2019
3029 Clouds 30 1016 23 10000 7.2 70 17:44 26.08.2019
3030 Clear 30 1015 25 10000 7.2 70 17:20 26.08.2019
3031 Clouds 31 1016 22 10000 6.2 40 16:58 26.08.2019
3032 Clouds 31 1016 22 10000 6.2 40 16:40 26.08.2019
3033 Clouds 31 1016 22 10000 6.2 40 16:40 26.08.2019
3034 Clear 31 1015 25 10000 5.7 60 16:19 26.08.2019
3035 Clear 31 1015 25 10000 5.7 60 16:19 26.08.2019
3036 Clouds 31 1017 23 10000 7.7 50 15:59 26.08.2019
3037 Clouds 31 1017 23 10000 7.7 50 15:41 26.08.2019
3038 Clear 31 1016 23 10000 6.2 60 15:21 26.08.2019
3039 Clouds 31 1017 22 10000 7.7 60 14:44 26.08.2019
3040 Clear 31 1016 22 10000 8.2 50 14:23 26.08.2019
3041 Clouds 31 1018 23 10000 8.7 60 13:57 26.08.2019
3042 Clouds 31 1018 23 10000 8.7 60 13:38 26.08.2019
3043 Clear 31 1017 22 10000 9.3 60 13:19 26.08.2019
3044 Clouds 30 1018 23 10000 10.8 50 12:43 26.08.2019
3045 Clear 30 1017 23 10000 11.3 60 12:23 26.08.2019
3046 Clouds 29 1018 23 10000 11.8 40 11:56 26.08.2019
3047 Clear 29 1017 26 10000 9.3 60 11:36 26.08.2019
3048 Clear 29 1017 26 10000 9.3 60 11:18 26.08.2019
3049 Clouds 28 1018 28 10000 10.8 40 10:42 26.08.2019
3050 Clear 27 1018 28 10000 10.3 50 10:21 26.08.2019
3051 Clouds 26 1019 29 10000 9.8 30 09:57 26.08.2019
3052 Clouds 26 1019 29 10000 9.8 30 09:37 26.08.2019
3053 Clear 26 1018 39 10000 7.2 50 09:19 26.08.2019
3054 Clouds 24 1019 38 10000 8.2 30 08:42 26.08.2019
3055 Clear 24 1018 44 10000 0.5 0 08:22 26.08.2019
3056 Clear 22 1019 46 10000 5.1 40 07:59 26.08.2019
3057 Clear 21 1019 46 10000 5.1 40 07:40 26.08.2019
3058 Clear 21 1018 60 10000 0.5 0 07:21 26.08.2019
3059 Clear 17 1019 48 10000 1 0 06:41 26.08.2019
3060 Clear 16 1018 67 10000 1.5 240 06:21 26.08.2019
3061 Clear 16 1018 62 10000 1.5 280 05:48 26.08.2019
3062 Clear 17 1017 59 10000 1.5 240 04:25 26.08.2019
3063 Clear 19 1018 55 10000 2.1 280 02:51 26.08.2019
3064 Clear 20 1017 40 10000 4.1 30 01:27 26.08.2019
3065 Clear 22 1018 48 10000 3.1 20 00:48 26.08.2019
3066 Clear 22 1017 41 10000 1.5 240 00:28 26.08.2019
3067 Clear 23 1018 43 10000 4.6 30 23:59 25.08.2019
3068 Clear 23 1018 43 10000 4.6 30 23:40 25.08.2019
3069 Clear 23 1017 44 10000 4.1 30 23:18 25.08.2019
3070 Clear 23 1018 43 10000 2.1 40 22:55 25.08.2019
3071 Clear 24 1018 43 10000 2.1 40 22:37 25.08.2019
3072 Clear 24 1018 44 10000 3.1 70 22:18 25.08.2019
3073 Clear 24 1018 40 10000 5.1 20 21:55 25.08.2019
3074 Clear 24 1018 40 10000 5.1 20 21:36 25.08.2019
3075 Clear 24 1017 41 10000 6.7 60 21:18 25.08.2019
3076 Clear 26 1017 36 10000 6.2 60 20:39 25.08.2019
3077 Clear 26 1017 36 10000 6.2 60 20:19 25.08.2019
3078 Clouds 28 1017 30 10000 8.7 60 19:56 25.08.2019
3079 Clouds 28 1017 30 10000 8.7 60 19:37 25.08.2019
3080 Clear 28 1016 32 10000 6.7 60 19:18 25.08.2019
3081 Clouds 29 1017 28 10000 8.2 70 18:57 25.08.2019
3082 Clouds 30 1015 28 10000 7.2 60 18:39 25.08.2019
3083 Clouds 29 1015 28 10000 7.2 60 18:18 25.08.2019
3084 Clouds 30 1017 26 10000 7.7 70 17:42 25.08.2019
3085 Clouds 31 1015 27 10000 7.7 70 17:23 25.08.2019
3086 Clouds 31 1017 23 10000 8.7 70 16:45 25.08.2019
3087 Clouds 31 1016 25 10000 8.2 40 16:24 25.08.2019
3088 Clouds 31 1017 25 10000 9.3 60 15:59 25.08.2019
3089 Clouds 32 1017 25 10000 9.3 60 15:40 25.08.2019
3090 Clouds 32 1016 25 10000 9.8 70 15:21 25.08.2019
3091 Clouds 32 1017 23 10000 9.3 50 14:42 25.08.2019
3092 Clouds 31 1016 24 10000 11.3 50 14:23 25.08.2019
3093 Clouds 31 1018 20 10000 9.3 60 13:55 25.08.2019
3094 Clouds 31 1018 20 10000 9.3 60 13:36 25.08.2019
3095 Clouds 31 1018 20 10000 9.3 60 13:36 25.08.2019
3096 Clouds 31 1017 27 10000 7.2 60 13:18 25.08.2019
3097 Clouds 30 1018 25 10000 8.2 80 12:41 25.08.2019
3098 Clear 30 1017 28 10000 7.7 60 12:22 25.08.2019
3099 Clouds 29 1018 26 10000 6.7 50 11:57 25.08.2019
3100 Clouds 29 1018 26 10000 6.7 50 11:37 25.08.2019
3101 Clear 29 1018 30 10000 7.2 40 11:19 25.08.2019
3102 Clear 28 1019 28 10000 6.2 40 10:55 25.08.2019
3103 Clear 28 1019 28 10000 6.2 40 10:37 25.08.2019
3104 Clear 28 1019 30 10000 4.6 60 10:18 25.08.2019
3105 Clear 26 1019 28 10000 7.2 30 09:42 25.08.2019
3106 Clear 26 1018 34 10000 1 0 09:23 25.08.2019
3107 Clear 24 1019 40 10000 2.1 0 08:47 25.08.2019
3108 Clear 23 1019 46 10000 0.5 0 08:28 25.08.2019
3109 Clear 20 1019 52 10000 0.5 320 07:49 25.08.2019
3110 Clear 20 1019 63 10000 0.5 0 07:30 25.08.2019
3111 Clear 17 1019 59 10000 2.8 14.289 06:38 25.08.2019
3112 Clear 17 1018 72 10000 0.5 0 05:27 25.08.2019
3113 Clear 18 1019 55 10000 1 0 03:43 25.08.2019
3114 Clear 19 1019 59 10000 1 0 02:42 25.08.2019
3115 Clear 19 1019 55 10000 2.1 10 01:53 25.08.2019
3116 Clear 20 1019 48 10000 2.6 20 00:45 25.08.2019
3117 Clear 20 1019 60 10000 2.1 0 00:23 25.08.2019
3118 Clear 22 1019 53 10000 1 0 23:57 24.08.2019
3119 Clear 22 1019 53 10000 1 0 23:57 24.08.2019
3120 Clear 22 1020 49 10000 1 0 23:39 24.08.2019
3121 Clear 22 1019 53 10000 1 0 23:21 24.08.2019
3122 Clear 23 1019 43 10000 2.6 40 22:42 24.08.2019
3123 Clear 24 1019 39 10000 1 330 22:19 24.08.2019
3124 Clear 24 1019 43 10000 5.7 10 21:59 24.08.2019
3125 Clear 25 1019 43 10000 5.7 10 21:39 24.08.2019
3126 Clear 25 1018 41 10000 1 0 21:21 24.08.2019
3127 Clear 26 1019 41 10000 8.2 30 20:57 24.08.2019
3128 Clear 26 1019 41 10000 8.2 30 20:38 24.08.2019
3129 Clear 26 1018 39 10000 4.1 20 20:19 24.08.2019
3130 Clear 28 1018 39 10000 7.7 10 19:57 24.08.2019
3131 Clear 28 1018 39 10000 7.7 10 19:38 24.08.2019
3132 Clear 28 1018 39 10000 7.7 10 19:38 24.08.2019
3133 Clouds 28 1017 35 10000 5.1 20 19:20 24.08.2019
3134 Clouds 29 1018 30 10000 8.2 10 18:46 24.08.2019
3135 Clouds 30 1017 25 10000 5.1 20 18:24 24.08.2019
3136 Clouds 31 1017 23 10000 7.7 10 17:46 24.08.2019
3137 Clouds 32 1016 25 10000 6.2 60 17:27 24.08.2019
3138 Clouds 32 1017 20 10000 7.7 50 16:56 24.08.2019
3139 Clouds 31 1017 20 10000 7.7 50 16:37 24.08.2019
3140 Clouds 32 1016 22 10000 5.1 20 16:19 24.08.2019
3141 Clouds 32 1017 20 10000 7.2 50 15:44 24.08.2019
3142 Clouds 32 1016 24 10000 6.2 40 15:25 24.08.2019
3143 Clouds 32 1017 20 10000 6.2 20 14:57 24.08.2019
3144 Clouds 32 1017 20 10000 6.2 20 14:38 24.08.2019
3145 Clouds 32 1017 24 10000 5.1 30 14:18 24.08.2019
3146 Clouds 31 1018 20 10000 7.2 60 13:43 24.08.2019
3147 Clouds 31 1017 25 10000 6.2 70 13:22 24.08.2019
3148 Clear 31 1018 22 10000 5.7 50 12:59 24.08.2019
3149 Clear 30 1018 22 10000 5.7 50 12:40 24.08.2019
3150 Clouds 30 1018 25 10000 4.1 20 12:22 24.08.2019
3151 Clouds 30 1018 23 10000 5.7 50 11:49 24.08.2019
3152 Clouds 30 1018 27 10000 6.7 50 11:31 24.08.2019
3153 Clear 28 1019 24 10000 4.6 40 10:59 24.08.2019
3154 Clear 28 1019 24 10000 4.6 40 10:38 24.08.2019
3155 Clear 28 1019 32 10000 3.1 0 10:20 24.08.2019
3156 Clear 26 1019 28 10000 5.7 50 09:42 24.08.2019
3157 Clear 25 1019 38 10000 1 0 09:19 24.08.2019
3158 Clear 23 1020 36 10000 2.1 360 08:43 24.08.2019
3159 Clear 22 1019 49 10000 0.5 0 08:24 24.08.2019
3160 Clear 20 1020 55 10000 2.1 250 07:52 24.08.2019
3161 Clear 20 1020 68 10000 0.5 0 07:29 24.08.2019
3162 Clear 15 1020 67 10000 0.5 340 06:39 24.08.2019
3163 Clear 15 1019 77 10000 1.5 230 06:21 24.08.2019
3164 Clear 15 1019 87 10000 2.6 230 05:35 24.08.2019
3165 Clear 16 1019 63 10000 2.6 160 03:41 24.08.2019
3166 Clear 18 1019 48 10000 2.1 20 02:50 24.08.2019
3167 Clear 18 1019 55 10000 2.6 20 01:54 24.08.2019
3168 Clear 18 1018 77 10000 0.5 0 01:24 24.08.2019
3169 Clear 19 1019 49 10000 4.1 50 00:46 24.08.2019
3170 Clear 19 1018 72 10000 1.5 230 00:22 24.08.2019
3171 Clear 21 1019 52 10000 6.7 20 23:45 23.08.2019
3172 Clear 21 1018 64 10000 1 340 23:20 23.08.2019
3173 Clear 23 1019 53 10000 7.2 30 22:44 23.08.2019
3174 Clear 23 1018 53 10000 3.6 30 22:25 23.08.2019
3175 Clouds 23 1018 56 10000 6.2 20 21:56 23.08.2019
3176 Clouds 23 1018 56 10000 6.2 20 21:37 23.08.2019
3177 Clouds 23 1018 56 10000 6.2 20 21:37 23.08.2019
3178 Clear 23 1018 57 10000 1 20 21:19 23.08.2019
3179 Clouds 23 1018 49 10000 4.6 30 20:51 23.08.2019
3180 Clouds 23 1018 53 10000 2.6 30 20:33 23.08.2019
3181 Clouds 24 1018 53 10000 2.6 320 19:47 23.08.2019
3182 Clouds 24 1018 44 10000 3.6 70 19:19 23.08.2019
3183 Clouds 25 1018 50 10000 2.6 340 18:55 23.08.2019
3184 Clouds 25 1018 50 10000 2.6 340 18:37 23.08.2019
3185 Clouds 25 1016 57 10000 3.1 10 18:19 23.08.2019
3186 Rain 27 1016 44 10000 8.2 70 17:42 23.08.2019
3187 Rain 28 1016 37 10000 2.6 10 17:24 23.08.2019
3188 Clouds 30 1017 28 10000 6.7 50 16:56 23.08.2019
3189 Clouds 30 1017 28 10000 6.7 50 16:38 23.08.2019
3190 Clouds 30 1016 35 10000 7.2 40 16:20 23.08.2019
3191 Clouds 31 1017 30 10000 6.7 60 15:40 23.08.2019
3192 Clouds 31 1015 29 10000 6.7 30 15:22 23.08.2019
3193 Clouds 31 1016 23 10000 6.7 20 14:56 23.08.2019
3194 Clouds 31 1016 23 10000 6.7 20 14:38 23.08.2019
3195 Clouds 31 1016 30 10000 3.1 30 14:20 23.08.2019
3196 Clouds 31 1017 23 10000 7.2 10 13:42 23.08.2019
3197 Clouds 30 1016 33 10000 2.1 360 13:23 23.08.2019
3198 Clouds 29 1017 28 10000 5.1 40 13:00 23.08.2019
3199 Clouds 29 1017 28 10000 5.1 40 12:41 23.08.2019
3200 Clouds 29 1016 37 10000 1.5 0 12:22 23.08.2019
3201 Clouds 28 1017 30 10000 2.6 0 11:58 23.08.2019
3202 Clouds 28 1017 30 10000 2.6 0 11:39 23.08.2019
3203 Clear 27 1017 42 10000 1.5 0 11:19 23.08.2019
3204 Clouds 26 1018 39 10000 2.1 230 10:57 23.08.2019
3205 Clouds 26 1018 39 10000 2.1 230 10:39 23.08.2019
3206 Clear 26 1017 44 10000 1 0 10:19 23.08.2019
3207 Clear 24 1018 41 10000 2.1 0 09:43 23.08.2019
3208 Clear 23 1018 50 10000 1 0 09:25 23.08.2019
3209 Clear 22 1018 56 10000 2.1 220 08:46 23.08.2019
3210 Clear 21 1018 60 10000 2.1 130 08:22 23.08.2019
3211 Clear 20 1018 68 10000 2.5 345.842 07:59 23.08.2019
3212 Clear 20 1018 68 10000 2.5 345.842 07:41 23.08.2019
3213 Clear 18 1018 68 10000 2.5 345.842 07:23 23.08.2019
3214 Clear 16 1019 76 10000 0.5 0 06:43 23.08.2019
3215 Clear 15 1018 82 10000 1.55 334.811 06:22 23.08.2019
3216 Clear 15 1018 76 10000 0.5 0 05:45 23.08.2019
3217 Clear 15 1017 82 10000 1.5 230 05:25 23.08.2019
3218 Clear 16 1018 82 10000 2.1 360 03:57 23.08.2019
3219 Clear 18 1017 72 10000 2.6 220 02:39 23.08.2019
3220 Clear 17 1017 72 10000 2.6 220 02:20 23.08.2019
3221 Clear 18 1017 77 10000 2.1 240 01:30 23.08.2019
3222 Clear 18 1018 67 10000 0.5 0 00:42 23.08.2019
3223 Clear 19 1018 77 10000 1.5 230 00:18 23.08.2019
3224 Clear 19 1018 77 10000 1.5 310 23:43 22.08.2019
3225 Clear 20 1018 60 10000 1.5 0 23:22 22.08.2019
3226 Clear 20 1018 63 10000 1.5 220 22:43 22.08.2019
3227 Clear 20 1018 64 10000 1.5 320 22:24 22.08.2019
3228 Clouds 21 1018 60 10000 1 0 21:59 22.08.2019
3229 Clouds 21 1018 60 10000 1 0 21:40 22.08.2019
3230 Clear 21 1018 56 10000 2.1 350 21:22 22.08.2019
3231 Clouds 23 1018 56 10000 1.5 170 20:58 22.08.2019
3232 Clouds 23 1018 56 10000 1.5 170 20:40 22.08.2019
3233 Clouds 23 1018 56 10000 1.5 170 20:40 22.08.2019
3234 Clouds 23 1018 50 10000 1.5 350 20:20 22.08.2019
3235 Clouds 24 1018 53 10000 4.6 30 19:57 22.08.2019
3236 Clouds 24 1018 53 10000 4.6 30 19:38 22.08.2019
3237 Clouds 24 1017 44 10000 5.1 30 19:20 22.08.2019
3238 Clouds 26 1018 47 10000 6.2 20 18:57 22.08.2019
3239 Clouds 26 1018 47 10000 6.2 20 18:39 22.08.2019
3240 Clouds 26 1016 39 10000 4.6 360 18:19 22.08.2019
3241 Clouds 27 1017 41 10000 6.7 360 17:56 22.08.2019
3242 Clouds 27 1017 41 10000 6.7 360 17:38 22.08.2019
3243 Clouds 27 1017 32 10000 5.7 10 17:19 22.08.2019
3244 Clouds 27 1017 32 10000 5.7 10 16:56 22.08.2019
3245 Clouds 27 1017 32 10000 5.7 10 16:37 22.08.2019
3246 Clouds 27 1016 42 10000 4.1 70 16:18 22.08.2019
3247 Clouds 27 1016 42 10000 4.1 70 16:18 22.08.2019
3248 Clouds 27 1016 42 10000 4.1 70 16:18 22.08.2019
3249 Clouds 27 1016 42 10000 4.1 70 16:18 22.08.2019
3250 Clouds 28 1017 36 10000 5.7 10 15:41 22.08.2019
3251 Clouds 28 1017 36 10000 5.7 10 15:41 22.08.2019
3252 Clouds 27 1017 36 10000 5.7 10 15:41 22.08.2019
3253 Clouds 27 1016 37 10000 3.1 70 15:22 22.08.2019
3254 Clouds 27 1016 37 10000 3.1 70 15:21 22.08.2019
3255 Clouds 27 1017 36 10000 5.7 40 14:57 22.08.2019
3256 Clouds 27 1017 36 10000 5.7 40 14:39 22.08.2019
3257 Clouds 26 1016 44 10000 4.1 50 14:18 22.08.2019
3258 Clouds 25 1017 44 10000 2.1 50 13:56 22.08.2019
3259 Rain 24 1017 44 10000 2.1 50 13:37 22.08.2019
3260 Rain 24 1018 64 10000 5.1 40 13:18 22.08.2019
3261 Rain 25 1017 47 10000 3.6 290 12:40 22.08.2019
3262 Clouds 26 1017 44 10000 1.5 0 12:21 22.08.2019
3263 Clouds 25 1017 44 10000 2.1 10 11:57 22.08.2019
3264 Clouds 25 1017 44 10000 2.1 10 11:57 22.08.2019
3265 Clouds 25 1017 44 10000 2.1 10 11:39 22.08.2019
3266 Clouds 25 1017 50 10000 2.1 0 11:19 22.08.2019
3267 Clouds 25 1017 50 10000 2.1 0 11:19 22.08.2019
3268 Clouds 23 1017 53 10000 3.1 50 10:57 22.08.2019
3269 Clouds 23 1017 53 10000 3.1 50 10:37 22.08.2019
3270 Clouds 23 1017 53 10000 2.1 310 10:19 22.08.2019
3271 Clouds 22 1018 56 10000 2.6 360 09:54 22.08.2019
3272 Clouds 22 1018 56 10000 2.6 360 09:36 22.08.2019
3273 Clouds 22 1017 60 10000 2.1 0 09:36 22.08.2019
3274 Clouds 22 1017 60 10000 2.1 0 09:18 22.08.2019
3275 Clouds 20 1017 72 10000 1.5 240 08:40 22.08.2019
3276 Clouds 19 1017 77 10000 0.5 0 08:21 22.08.2019
3277 Clouds 18 1017 88 10000 2.1 240 07:43 22.08.2019
3278 Clouds 18 1017 88 10000 2.1 240 07:24 22.08.2019
3279 Clouds 16 1017 82 10000 0.5 0 06:59 22.08.2019
3280 Clouds 16 1017 82 10000 0.5 0 06:41 22.08.2019
3281 Clouds 16 1016 93 10000 1.78 337.013 06:19 22.08.2019
3282 Clouds 16 1016 82 10000 1.5 0 04:42 22.08.2019
3283 Clouds 17 1016 82 10000 1 0 02:56 22.08.2019
3284 Clouds 17 1016 82 10000 1 0 02:35 22.08.2019
3285 Rain 17 1016 88 10000 2.1 230 01:27 22.08.2019
3286 Rain 17 1017 100 10000 0.5 0 00:49 22.08.2019
3287 Rain 18 1017 82 10000 1.5 0 00:30 22.08.2019
3288 Rain 18 1017 82 10000 1.5 0 00:30 22.08.2019
3289 Rain 18 1017 88 10000 3.1 300 23:59 21.08.2019
3290 Rain 18 1017 88 10000 3.1 300 23:39 21.08.2019
3291 Rain 19 1017 77 10000 2.1 230 23:21 21.08.2019
3292 Clouds 19 1017 68 10000 0.5 0 22:56 21.08.2019
3293 Clouds 19 1017 68 10000 0.5 0 22:38 21.08.2019
3294 Clouds 19 1016 68 10000 2.1 270 22:20 21.08.2019
3295 Clouds 19 1016 68 10000 1.5 220 21:55 21.08.2019
3296 Clouds 19 1016 68 10000 1.5 220 21:37 21.08.2019
3297 Clouds 19 1016 77 10000 2.6 240 21:18 21.08.2019
3298 Clouds 19 1016 63 10000 1 0 20:43 21.08.2019
3299 Clouds 19 1016 68 10000 1 0 20:25 21.08.2019
3300 Clouds 20 1016 60 10000 0.5 0 19:58 21.08.2019
3301 Clouds 19 1016 60 10000 0.5 0 19:40 21.08.2019
3302 Clouds 20 1016 68 10000 3.1 270 19:21 21.08.2019
3303 Clouds 20 1016 60 10000 1.5 360 18:56 21.08.2019
3304 Clouds 21 1016 60 10000 1 0 18:38 21.08.2019
3305 Clouds 21 1016 60 10000 1 0 18:20 21.08.2019
3306 Clouds 21 1016 49 10000 3.1 320 17:43 21.08.2019
3307 Clouds 21 1016 49 10000 3.1 320 17:43 21.08.2019
3308 Clouds 21 1015 64 10000 2.1 110 17:21 21.08.2019
3309 Rain 21 1015 68 10000 3.1 70 16:56 21.08.2019
3310 Rain 21 1015 68 10000 3.1 70 16:37 21.08.2019
3311 Rain 22 1015 53 10000 4.1 300 16:18 21.08.2019
3312 Rain 22 1015 64 10000 2.6 230 15:56 21.08.2019
3313 Rain 22 1015 64 10000 2.6 230 15:38 21.08.2019
3314 Thunderstorm 21 1016 60 10000 1.5 0 15:18 21.08.2019
3315 Thunderstorm 22 1016 44 10000 5.7 360 14:54 21.08.2019
3316 Rain 22 1016 44 10000 5.7 360 14:36 21.08.2019
3317 Rain 21 1016 72 10000 2.1 190 14:18 21.08.2019
3318 Rain 21 1016 72 10000 2.1 190 14:18 21.08.2019
3319 Rain 19 1016 73 10000 2.6 290 13:42 21.08.2019
3320 Thunderstorm 19 1016 72 10000 3.1 200 13:19 21.08.2019
3321 Thunderstorm 20 1016 93 10000 8.2 290 12:57 21.08.2019
3322 Thunderstorm 21 1016 93 10000 8.2 290 12:38 21.08.2019
3323 Rain 23 1015 47 10000 2.1 100 12:19 21.08.2019
3324 Rain 23 1016 64 10000 4.6 80 11:44 21.08.2019
3325 Clouds 23 1015 53 10000 1.5 220 11:24 21.08.2019
3326 Rain 23 1016 60 10000 2.1 10 10:58 21.08.2019
3327 Rain 23 1016 60 10000 2.1 10 10:40 21.08.2019
3328 Clouds 22 1016 56 10000 1 0 10:21 21.08.2019
3329 Clouds 22 1017 60 10000 1 0 09:58 21.08.2019
3330 Clouds 22 1017 60 10000 1 0 09:40 21.08.2019
3331 Clouds 22 1017 68 10000 0.5 100 09:21 21.08.2019
3332 Clouds 19 1017 72 10000 1.5 0 08:50 21.08.2019
3333 Clouds 19 1017 77 10000 0.5 0 08:26 21.08.2019
3334 Rain 18 1017 77 10000 1 0 07:46 21.08.2019
3335 Rain 18 1017 72 10000 2.1 230 07:26 21.08.2019
3336 Rain 18 1017 87 10000 2.6 320 06:59 21.08.2019
3337 Rain 18 1017 87 10000 2.6 320 06:40 21.08.2019
3338 Clouds 18 1017 72 10000 2.1 250 06:18 21.08.2019
3339 Rain 18 1016 77 10000 1 0 05:29 21.08.2019
3340 Clouds 18 1016 72 10000 1.5 100 04:42 21.08.2019
3341 Clouds 19 1017 72 10000 1 0 02:44 21.08.2019
3342 Clouds 20 1017 68 10000 3.1 40 01:34 21.08.2019
3343 Clouds 19 1017 68 10000 4.1 10 00:42 21.08.2019
3344 Rain 19 1017 68 10000 2.1 210 00:21 21.08.2019
3345 Rain 20 1018 68 10000 3.6 360 23:45 20.08.2019
3346 Clouds 20 1018 64 10000 2.1 10 23:20 20.08.2019
3347 Clouds 20 1018 63 10000 2.1 330 22:59 20.08.2019
3348 Clouds 20 1018 63 10000 2.1 330 22:40 20.08.2019
3349 Clouds 20 1018 63 10000 2.1 330 22:40 20.08.2019
3350 Clouds 20 1019 72 10000 2.1 350 22:21 20.08.2019
3351 Clouds 20 1019 64 10000 2.6 310 21:58 20.08.2019
3352 Clouds 20 1019 64 10000 2.6 310 21:39 20.08.2019
3353 Clouds 20 1019 77 10000 2.6 330 21:20 20.08.2019
3354 Clouds 21 1018 60 10000 5.1 30 20:59 20.08.2019
3355 Clouds 21 1018 60 10000 5.1 30 20:59 20.08.2019
3356 Clouds 21 1018 60 10000 5.1 30 20:41 20.08.2019
3357 Clouds 21 1017 56 10000 2.1 230 20:22 20.08.2019
3358 Clouds 21 1018 60 10000 4.1 360 19:40 20.08.2019
3359 Clouds 21 1017 72 10000 3.1 230 19:22 20.08.2019
3360 Clouds 21 1017 64 10000 3.1 230 18:57 20.08.2019
3361 Thunderstorm 22 1017 49 10000 8.2 70 18:39 20.08.2019
3362 Thunderstorm 22 1017 49 10000 8.2 70 18:39 20.08.2019
3363 Thunderstorm 22 1017 49 10000 8.2 70 18:39 20.08.2019
3364 Thunderstorm 23 1017 49 10000 8.2 70 18:19 20.08.2019
3365 Rain 24 1017 49 10000 8.2 70 17:57 20.08.2019
3366 Thunderstorm 25 1017 53 10000 5.7 300 17:38 20.08.2019
3367 Rain 25 1017 39 10000 4.6 350 17:19 20.08.2019
3368 Thunderstorm 27 1016 37 10000 4.1 360 16:44 20.08.2019
3369 Thunderstorm 27 1016 37 10000 4.1 360 16:26 20.08.2019
3370 Clouds 27 1017 39 10000 6.2 20 15:56 20.08.2019
3371 Clouds 26 1016 39 10000 2.1 240 15:37 20.08.2019
3372 Clouds 26 1017 36 10000 3.6 350 15:18 20.08.2019
3373 Clouds 26 1017 41 10000 2.6 250 14:42 20.08.2019
3374 Clouds 25 1017 41 10000 2.1 50 14:22 20.08.2019
3375 Clouds 24 1017 41 10000 2.1 50 13:57 20.08.2019
3376 Clouds 24 1017 47 10000 4.1 70 13:38 20.08.2019
3377 Clouds 24 1018 46 10000 5.1 30 13:20 20.08.2019
3378 Clouds 23 1018 49 10000 3.1 50 12:51 20.08.2019
3379 Clouds 23 1018 49 10000 5.1 50 12:29 20.08.2019
3380 Clouds 22 1018 53 10000 3.1 50 11:58 20.08.2019
3381 Clouds 22 1018 53 10000 3.1 50 11:38 20.08.2019
3382 Clouds 21 1019 60 10000 6.2 30 11:19 20.08.2019
3383 Clouds 21 1019 60 10000 6.2 30 11:19 20.08.2019
3384 Clouds 21 1019 60 10000 6.2 30 11:19 20.08.2019
3385 Clouds 21 1019 60 10000 3.6 50 10:57 20.08.2019
3386 Clouds 21 1019 60 10000 6.2 30 10:57 20.08.2019
3387 Clouds 21 1019 60 10000 3.6 50 10:57 20.08.2019
3388 Clouds 21 1019 60 10000 3.6 50 10:38 20.08.2019
3389 Clouds 20 1019 60 10000 4.1 40 10:19 20.08.2019
3390 Clouds 19 1019 64 10000 3.6 30 09:43 20.08.2019
3391 Clouds 19 1019 64 10000 3.6 30 09:25 20.08.2019
3392 Clouds 18 1019 68 10000 5.1 10 08:57 20.08.2019
3393 Clouds 18 1019 63 10000 2.6 90 08:39 20.08.2019
3394 Clouds 18 1019 72 10000 2.1 50 08:20 20.08.2019
3395 Clouds 18 1019 72 10000 2.1 50 07:55 20.08.2019
3396 Clouds 18 1018 68 10000 2.6 80 07:37 20.08.2019
3397 Clouds 18 1019 72 10000 2.1 20 07:18 20.08.2019
3398 Clouds 17 1019 72 10000 3.1 60 06:25 20.08.2019
3399 Clouds 17 1018 68 10000 4.1 50 05:49 20.08.2019
3400 Clouds 17 1018 77 10000 4.6 20 05:18 20.08.2019
3401 Clouds 17 1018 77 10000 3.1 40 03:52 20.08.2019
3402 Rain 17 1018 72 10000 3.1 60 02:42 20.08.2019
3403 Rain 17 1019 67 10000 5.7 80 01:38 20.08.2019
3404 Clouds 17 1019 63 10000 3.6 40 00:57 20.08.2019
3405 Clouds 17 1018 72 10000 1.5 80 00:39 20.08.2019
3406 Clouds 17 1019 63 10000 4.6 30 00:19 20.08.2019
3407 Clouds 17 1019 63 10000 2.6 90 23:39 19.08.2019
3408 Clouds 17 1019 63 10000 2.6 90 23:18 19.08.2019
3409 Clouds 18 1019 63 10000 5.7 40 22:54 19.08.2019
3410 Clouds 18 1019 63 10000 4.1 60 22:36 19.08.2019
3411 Clouds 18 1019 63 10000 4.1 60 22:36 19.08.2019
3412 Clouds 18 1019 63 10000 5.1 50 22:18 19.08.2019
3413 Clouds 18 1019 63 10000 5.1 50 21:55 19.08.2019
3414 Clouds 18 1018 63 10000 4.6 70 21:36 19.08.2019
3415 Clouds 19 1019 59 10000 6.2 40 21:18 19.08.2019
3416 Clouds 20 1018 56 10000 5.7 60 20:39 19.08.2019
3417 Clouds 20 1018 56 10000 5.7 60 20:20 19.08.2019
3418 Clouds 20 1018 55 10000 6.7 40 19:58 19.08.2019
3419 Clouds 20 1017 56 10000 5.7 70 19:39 19.08.2019
3420 Clouds 20 1018 55 10000 7.7 40 19:19 19.08.2019
3421 Clouds 21 1017 49 10000 7.2 70 18:45 19.08.2019
3422 Clouds 21 1017 49 10000 7.2 70 18:27 19.08.2019
3423 Clouds 22 1018 49 10000 7.2 60 17:59 19.08.2019
3424 Clouds 22 1017 49 10000 8.2 70 17:41 19.08.2019
3425 Clouds 22 1017 49 10000 8.2 70 17:20 19.08.2019
3426 Clouds 23 1017 46 10000 7.7 50 16:58 19.08.2019
3427 Clouds 23 1017 46 10000 7.7 50 16:37 19.08.2019
3428 Clouds 23 1016 46 10000 6.7 80 16:19 19.08.2019
3429 Clouds 23 1017 43 10000 7.2 40 15:55 19.08.2019
3430 Clouds 23 1016 46 10000 7.2 70 15:36 19.08.2019
3431 Clouds 23 1016 46 10000 7.2 70 15:18 19.08.2019
3432 Clouds 23 1017 43 10000 5.7 60 14:40 19.08.2019
3433 Clouds 23 1017 47 10000 5.1 60 14:21 19.08.2019
3434 Clouds 23 1017 40 10000 6.7 40 13:57 19.08.2019
3435 Clouds 23 1017 40 10000 6.7 40 13:57 19.08.2019
3436 Clouds 23 1017 40 10000 6.7 40 13:37 19.08.2019
3437 Clouds 23 1016 46 10000 5.1 60 13:19 19.08.2019
3438 Clouds 22 1017 46 10000 5.1 40 12:45 19.08.2019
3439 Clouds 22 1017 49 10000 4.1 80 12:24 19.08.2019
3440 Clouds 21 1017 49 10000 6.2 50 11:59 19.08.2019
3441 Clouds 21 1017 49 10000 6.2 50 11:39 19.08.2019
3442 Clouds 21 1017 46 10000 2.1 0 11:20 19.08.2019
3443 Clouds 21 1017 46 10000 5.1 70 10:55 19.08.2019
3444 Clouds 21 1017 46 10000 5.1 70 10:36 19.08.2019
3445 Clouds 21 1017 49 10000 3.1 80 10:18 19.08.2019
3446 Clouds 19 1017 49 10000 5.1 40 09:41 19.08.2019
3447 Clouds 19 1017 52 10000 3.1 60 09:22 19.08.2019
3448 Clouds 17 1017 52 10000 5.7 20 08:55 19.08.2019
3449 Clouds 17 1017 59 10000 1 0 08:37 19.08.2019
3450 Clouds 17 1017 59 10000 1 0 08:18 19.08.2019
3451 Clear 16 1018 67 10000 2.6 10 07:42 19.08.2019
3452 Clouds 15 1017 67 10000 3.03 1.041 07:24 19.08.2019
3453 Clear 12 1018 71 10000 2.1 10 06:43 19.08.2019
3454 Clouds 12 1018 93 10000 2.67 18.177 06:18 19.08.2019
3455 Clear 12 1017 76 10000 2.1 20 04:54 19.08.2019
3456 Clear 12 1017 81 10000 1 240 04:22 19.08.2019
3457 Clear 13 1017 76 10000 1 250 03:20 19.08.2019
3458 Clear 13 1017 71 10000 1 0 01:47 19.08.2019
3459 Clear 14 1017 67 10000 1 0 01:21 19.08.2019
3460 Clear 14 1017 76 10000 2.1 330 00:42 19.08.2019
3461 Clear 14 1017 63 10000 2.6 20 00:18 19.08.2019
3462 Clear 15 1017 71 10000 2.1 340 23:41 18.08.2019
3463 Clear 15 1017 63 10000 2.6 10 23:20 18.08.2019
3464 Clouds 16 1017 62 10000 3.6 20 22:40 18.08.2019
3465 Clear 16 1017 59 10000 2.1 10 22:22 18.08.2019
3466 Clouds 16 1017 62 10000 2.1 40 21:58 18.08.2019
3467 Clouds 17 1017 62 10000 2.1 40 21:40 18.08.2019
3468 Clear 17 1017 55 10000 3.1 350 21:21 18.08.2019
3469 Clear 17 1017 55 10000 3.1 350 21:21 18.08.2019
3470 Clouds 18 1017 59 10000 5.1 360 20:58 18.08.2019
3471 Clouds 18 1017 59 10000 5.1 360 20:40 18.08.2019
3472 Clear 17 1016 48 10000 2.6 10 20:22 18.08.2019
3473 Clouds 19 1017 55 10000 6.2 20 19:42 18.08.2019
3474 Clouds 19 1016 48 10000 2.6 360 19:24 18.08.2019
3475 Clouds 21 1016 48 10000 6.7 360 18:59 18.08.2019
3476 Clouds 21 1016 48 10000 6.7 360 18:40 18.08.2019
3477 Clouds 21 1015 49 10000 4.1 350 18:21 18.08.2019
3478 Clouds 21 1015 49 10000 4.1 350 18:21 18.08.2019
3479 Clouds 22 1015 45 10000 7.2 340 17:55 18.08.2019
3480 Clouds 22 1015 45 10000 7.2 340 17:37 18.08.2019
3481 Clouds 22 1015 43 10000 4.6 10 17:18 18.08.2019
3482 Clouds 22 1015 40 10000 8.2 350 16:55 18.08.2019
3483 Clouds 22 1015 40 10000 8.2 350 16:37 18.08.2019
3484 Clouds 23 1015 43 10000 5.7 360 16:18 18.08.2019
3485 Clouds 22 1015 43 10000 7.2 340 15:40 18.08.2019
3486 Clouds 22 1014 43 10000 5.1 10 15:20 18.08.2019
3487 Clouds 23 1015 40 10000 7.2 320 14:58 18.08.2019
3488 Clouds 23 1015 40 10000 7.2 320 14:40 18.08.2019
3489 Clouds 23 1014 43 10000 4.1 350 14:19 18.08.2019
3490 Clouds 22 1015 40 10000 4.1 350 13:57 18.08.2019
3491 Clouds 23 1015 40 10000 4.1 350 13:39 18.08.2019
3492 Clouds 23 1014 43 10000 3.6 10 13:20 18.08.2019
3493 Clouds 22 1015 49 10000 4.1 360 12:45 18.08.2019
3494 Clouds 22 1014 49 10000 3.1 360 12:23 18.08.2019
3495 Clouds 20 1015 48 10000 3.6 10 11:59 18.08.2019
3496 Clouds 20 1015 48 10000 3.6 10 11:40 18.08.2019
3497 Clouds 20 1014 52 10000 3.1 10 11:21 18.08.2019
3498 Clouds 19 1015 55 10000 4.1 30 10:41 18.08.2019
3499 Clouds 19 1014 55 10000 2.6 20 10:22 18.08.2019
3500 Clouds 18 1014 63 10000 3.6 70 09:55 18.08.2019
3501 Clouds 17 1014 63 10000 3.6 350 09:36 18.08.2019
3502 Clouds 18 1014 63 10000 3.6 350 09:18 18.08.2019
3503 Clouds 17 1014 67 10000 4.6 10 08:42 18.08.2019
3504 Clouds 17 1014 67 10000 4.6 10 08:42 18.08.2019
3505 Clouds 17 1013 67 10000 2.1 300 08:24 18.08.2019
3506 Clouds 16 1013 67 10000 7.2 20 07:49 18.08.2019
3507 Clouds 16 1013 72 10000 2.6 0 07:29 18.08.2019
3508 Clouds 16 1012 87 10000 1 0 05:50 18.08.2019
3509 Clouds 16 1011 87 10000 0.5 0 04:58 18.08.2019
3510 Clouds 17 1011 87 10000 2.1 280 03:44 18.08.2019
3511 Clouds 17 1012 87 10000 2.6 210 02:49 18.08.2019
3512 Clouds 17 1011 88 10000 3.6 230 02:26 18.08.2019
3513 Clouds 17 1011 88 10000 2.1 250 01:47 18.08.2019
3514 Thunderstorm 17 1012 88 10000 2.6 220 01:22 18.08.2019
3515 Thunderstorm 17 1012 87 10000 0.5 0 00:40 18.08.2019
3516 Thunderstorm 17 1012 88 10000 2.6 250 00:19 18.08.2019
3517 Thunderstorm 17 1011 82 10000 3.1 330 23:57 17.08.2019
3518 Thunderstorm 17 1011 82 10000 3.1 330 23:37 17.08.2019
3519 Thunderstorm 17 1012 88 10000 2.6 260 23:19 17.08.2019
3520 Thunderstorm 17 1012 88 10000 2.6 260 23:19 17.08.2019
3521 Thunderstorm 19 1012 63 10000 3.6 250 22:56 17.08.2019
3522 Thunderstorm 19 1012 63 10000 3.6 250 22:38 17.08.2019
3523 Thunderstorm 19 1012 82 6000 6.2 270 22:20 17.08.2019
3524 Rain 20 1011 59 10000 2.1 240 21:43 17.08.2019
3525 Clouds 20 1011 68 10000 2.6 260 21:23 17.08.2019
3526 Clouds 20 1011 56 10000 2.1 290 20:57 17.08.2019
3527 Clouds 20 1011 56 10000 2.1 290 20:36 17.08.2019
3528 Clouds 20 1011 56 10000 2.1 290 20:36 17.08.2019
3529 Clouds 20 1011 64 10000 2.1 0 20:18 17.08.2019
3530 Clouds 21 1011 56 10000 3.1 320 19:41 17.08.2019
3531 Clouds 21 1011 56 10000 3.1 320 19:41 17.08.2019
3532 Clouds 21 1010 68 10000 2.1 0 19:22 17.08.2019
3533 Clouds 21 1010 68 10000 2.1 0 19:22 17.08.2019
3534 Clouds 22 1010 68 10000 1.5 140 18:55 17.08.2019
3535 Rain 22 1010 64 10000 2.6 110 18:37 17.08.2019
3536 Rain 23 1010 64 10000 2.6 110 18:18 17.08.2019
3537 Clouds 23 1010 44 10000 4.1 140 17:42 17.08.2019
3538 Clouds 23 1010 64 10000 4.1 110 17:22 17.08.2019
3539 Rain 24 1010 68 10000 5.7 120 16:56 17.08.2019
3540 Rain 24 1010 68 10000 5.7 120 16:37 17.08.2019
3541 Thunderstorm 24 1010 73 10000 3.6 140 16:19 17.08.2019
3542 Thunderstorm 26 1010 60 10000 3.1 0 15:42 17.08.2019
3543 Rain 26 1010 53 10000 6.7 290 15:22 17.08.2019
3544 Rain 27 1010 44 10000 1.5 260 14:58 17.08.2019
3545 Rain 28 1010 44 10000 1.5 260 14:39 17.08.2019
3546 Clouds 28 1010 37 10000 2.1 0 14:21 17.08.2019
3547 Clouds 28 1010 37 10000 2.1 0 14:21 17.08.2019
3548 Clouds 28 1012 30 10000 2.6 90 13:44 17.08.2019
3549 Clouds 28 1011 35 10000 2.1 100 13:19 17.08.2019
3550 Clouds 27 1013 34 10000 2.6 190 12:44 17.08.2019
3551 Clouds 27 1012 39 10000 2.6 60 12:20 17.08.2019
3552 Clouds 26 1014 36 10000 1.5 0 11:58 17.08.2019
3553 Clouds 26 1014 36 10000 1.5 0 11:38 17.08.2019
3554 Clouds 26 1013 44 10000 1.5 0 11:20 17.08.2019
3555 Clouds 25 1014 41 10000 2.1 160 10:41 17.08.2019
3556 Clouds 25 1014 47 10000 2.1 50 10:21 17.08.2019
3557 Clouds 24 1014 47 10000 2.6 50 09:57 17.08.2019
3558 Clouds 24 1014 47 10000 2.6 50 09:37 17.08.2019
3559 Clouds 24 1014 53 10000 3.1 80 09:18 17.08.2019
3560 Clouds 22 1015 56 10000 2.6 30 08:46 17.08.2019
3561 Clear 22 1014 60 10000 3.1 80 08:20 17.08.2019
3562 Clouds 20 1015 68 10000 3.1 360 07:42 17.08.2019
3563 Clouds 19 1014 72 10000 2.1 60 07:20 17.08.2019
3564 Clouds 17 1014 82 10000 0.5 0 06:21 17.08.2019
3565 Clear 17 1014 88 10000 0.5 0 04:32 17.08.2019
3566 Clear 17 1014 88 10000 0.5 0 04:32 17.08.2019
3567 Clear 17 1014 77 10000 2.1 40 03:51 17.08.2019
3568 Clear 17 1014 82 10000 2.1 350 02:36 17.08.2019
3569 Clear 18 1014 88 10000 1 230 01:38 17.08.2019
3570 Clear 18 1014 88 10000 1 230 01:19 17.08.2019
3571 Clear 18 1014 88 10000 1 230 01:19 17.08.2019
3572 Clear 18 1014 77 10000 2.1 10 00:45 17.08.2019
3573 Clear 18 1014 88 10000 1.5 210 00:18 17.08.2019
3574 Clear 20 1014 88 10000 2.5 354.214 23:39 16.08.2019
3575 Clear 20 1014 88 10000 2.5 354.214 23:21 16.08.2019
3576 Clouds 20 1015 72 10000 1.5 360 22:43 16.08.2019
3577 Clear 20 1014 82 10000 1 0 22:20 16.08.2019
3578 Clouds 20 1014 72 10000 4.6 10 21:57 16.08.2019
3579 Clouds 20 1014 72 10000 4.6 10 21:38 16.08.2019
3580 Clear 21 1014 82 10000 2.1 240 21:18 16.08.2019
3581 Clouds 21 1014 72 10000 3.1 20 20:42 16.08.2019
3582 Clouds 21 1013 77 10000 0.5 340 20:20 16.08.2019
3583 Clouds 21 1013 82 10000 2.1 320 19:56 16.08.2019
3584 Clouds 21 1013 82 10000 2.1 320 19:38 16.08.2019
3585 Clouds 21 1012 77 10000 3.1 100 19:19 16.08.2019
3586 Rain 22 1012 73 10000 3.6 60 18:41 16.08.2019
3587 Thunderstorm 22 1013 77 10000 6.2 10 18:22 16.08.2019
3588 Rain 28 1010 39 10000 9.3 340 17:46 16.08.2019
3589 Clouds 29 1010 33 10000 3.1 30 17:27 16.08.2019
3590 Clouds 29 1011 32 10000 7.2 20 16:58 16.08.2019
3591 Clouds 30 1011 32 10000 7.2 20 16:39 16.08.2019
3592 Clouds 30 1010 33 10000 1.5 240 16:18 16.08.2019
3593 Clouds 31 1010 27 10000 6.7 30 15:55 16.08.2019
3594 Clouds 31 1010 27 10000 6.7 30 15:37 16.08.2019
3595 Clouds 31 1009 27 10000 3.6 240 15:19 16.08.2019
3596 Clouds 30 1010 26 10000 4.6 20 14:56 16.08.2019
3597 Clouds 30 1010 26 10000 4.6 20 14:37 16.08.2019
3598 Clouds 30 1010 27 10000 2.6 310 14:18 16.08.2019
3599 Clouds 30 1011 20 10000 2.6 340 13:39 16.08.2019
3600 Clouds 30 1010 30 10000 2.1 330 13:20 16.08.2019
3601 Clouds 29 1011 23 10000 4.1 80 12:40 16.08.2019
3602 Clouds 29 1011 32 10000 4.1 230 12:21 16.08.2019
3603 Clouds 29 1011 32 10000 4.1 230 12:20 16.08.2019
3604 Clouds 28 1011 26 10000 2.6 310 11:55 16.08.2019
3605 Clouds 28 1011 39 10000 2.6 0 11:37 16.08.2019
3606 Clouds 28 1011 39 10000 2.6 0 11:18 16.08.2019
3607 Clouds 26 1012 29 10000 1 0 10:42 16.08.2019
3608 Clouds 26 1011 42 10000 3.1 310 10:20 16.08.2019
3609 Clouds 25 1012 33 10000 3.1 50 09:38 16.08.2019
3610 Clouds 25 1011 50 10000 3.1 260 09:19 16.08.2019
3611 Clouds 23 1012 46 10000 4.1 350 08:58 16.08.2019
3612 Rain 22 1012 46 10000 4.1 350 08:39 16.08.2019
3613 Rain 22 1011 60 10000 1 0 08:19 16.08.2019
3614 Clouds 21 1011 46 10000 4.1 360 07:45 16.08.2019
3615 Clouds 21 1011 77 10000 1 250 07:26 16.08.2019
3616 Clouds 20 1011 56 10000 2.6 340 06:53 16.08.2019
3617 Clouds 20 1010 77 10000 2.1 230 06:18 16.08.2019
3618 Rain 19 1010 72 10000 0.5 0 05:33 16.08.2019
3619 Rain 21 1010 64 10000 3.6 240 03:20 16.08.2019
3620 Rain 23 1010 43 10000 1.5 350 01:52 16.08.2019
3621 Rain 23 1009 50 10000 1 0 01:25 16.08.2019
3622 Rain 23 1009 50 10000 1 0 01:25 16.08.2019
3623 Rain 23 1010 43 10000 4.1 10 00:50 16.08.2019
3624 Rain 24 1009 56 10000 1 0 00:23 16.08.2019
3625 Rain 25 1010 44 10000 2.1 260 23:57 15.08.2019
3626 Rain 25 1010 44 10000 2.1 260 23:38 15.08.2019
3627 Clouds 25 1009 39 10000 2.6 330 23:18 15.08.2019
3628 Rain 26 1009 44 10000 2.1 20 22:41 15.08.2019
3629 Rain 26 1009 47 10000 2.1 20 22:22 15.08.2019
3630 Clouds 26 1010 26 10000 2.1 90 21:58 15.08.2019
3631 Clouds 26 1010 26 10000 2.1 90 21:39 15.08.2019
3632 Clouds 27 1009 50 10000 3.72 290.583 21:19 15.08.2019
3633 Rain 27 1009 50 10000 3.72 290.583 20:57 15.08.2019
3634 Rain 27 1009 50 10000 3.72 290.583 20:38 15.08.2019
3635 Rain 27 1009 47 10000 4.6 100 20:20 15.08.2019
3636 Rain 28 1008 32 10000 3.6 40 19:40 15.08.2019
3637 Clouds 28 1007 35 10000 4.6 10 19:21 15.08.2019
3638 Clouds 29 1007 37 10000 5.1 340 18:55 15.08.2019
3639 Clouds 30 1007 37 10000 5.1 340 18:37 15.08.2019
3640 Rain 30 1006 27 10000 4.6 350 18:18 15.08.2019
3641 Clouds 32 1007 25 10000 7.2 360 17:39 15.08.2019
3642 Clouds 32 1006 22 10000 5.7 30 17:20 15.08.2019
3643 Clouds 34 1007 22 10000 8.7 10 16:59 15.08.2019
3644 Clouds 34 1007 22 10000 8.7 10 16:41 15.08.2019
3645 Clouds 34 1005 19 10000 8.7 40 16:23 15.08.2019
3646 Clouds 34 1007 18 10000 8.2 10 15:39 15.08.2019
3647 Clouds 34 1007 17 10000 7.7 360 15:20 15.08.2019
3648 Clouds 34 1007 16 10000 7.7 20 14:58 15.08.2019
3649 Clouds 34 1007 16 10000 7.7 20 14:40 15.08.2019
3650 Clouds 34 1006 16 10000 5.7 50 14:21 15.08.2019
3651 Clouds 34 1007 16 10000 7.7 40 13:56 15.08.2019
3652 Clouds 34 1007 16 10000 7.7 40 13:38 15.08.2019
3653 Clouds 34 1006 19 10000 5.7 40 13:19 15.08.2019
3654 Clouds 34 1006 19 10000 5.7 40 13:19 15.08.2019
3655 Rain 34 1006 26 10000 4.1 360 12:40 15.08.2019
3656 Clouds 34 1007 23 10000 3.1 360 12:22 15.08.2019
3657 Clouds 34 1008 17 10000 6.7 10 11:59 15.08.2019
3658 Clouds 34 1008 17 10000 6.7 10 11:39 15.08.2019
3659 Clouds 34 1007 23 10000 4.1 20 11:20 15.08.2019
3660 Rain 33 1008 29 10000 6.7 320 10:59 15.08.2019
3661 Rain 33 1008 29 10000 6.7 320 10:59 15.08.2019
3662 Clouds 32 1008 18 10000 5.1 20 10:37 15.08.2019
3663 Clouds 32 1008 18 10000 5.1 20 10:37 15.08.2019
3664 Clouds 32 1008 18 10000 5.1 20 10:37 15.08.2019
3665 Clouds 32 1007 24 10000 3.6 10 10:19 15.08.2019
3666 Clouds 30 1009 25 10000 3.1 10 09:44 15.08.2019
3667 Clouds 30 1008 33 10000 3.1 260 09:23 15.08.2019
3668 Clouds 30 1009 23 10000 4.6 340 08:55 15.08.2019
3669 Clouds 30 1009 23 10000 4.6 340 08:55 15.08.2019
3670 Clouds 29 1008 27 10000 3.6 30 08:36 15.08.2019
3671 Clouds 29 1008 27 10000 3.6 30 08:18 15.08.2019
3672 Clouds 28 1009 26 10000 4.1 10 07:42 15.08.2019
3673 Clouds 28 1008 32 10000 3.6 220 07:22 15.08.2019
3674 Clouds 27 1009 26 10000 4.6 20 06:53 15.08.2019
3675 Clouds 26 1008 38 10000 3.6 270 06:32 15.08.2019
3676 Clear 27 1008 31 10000 3.1 20 05:43 15.08.2019
3677 Clouds 26 1007 30 10000 2.1 40 05:23 15.08.2019
3678 Clouds 27 1007 28 10000 1 0 04:32 15.08.2019
3679 Clouds 28 1009 24 10000 3.6 70 03:37 15.08.2019
3680 Clouds 29 1010 24 10000 3.1 90 02:37 15.08.2019
3681 Clouds 29 1009 21 10000 5.1 40 01:50 15.08.2019
3682 Clouds 28 1009 25 10000 3.6 250 01:27 15.08.2019
3683 Thunderstorm 27 1010 23 10000 8.2 220 00:39 15.08.2019
3684 Thunderstorm 27 1008 30 10000 1.5 210 00:20 15.08.2019
3685 Clouds 29 1009 18 10000 2.6 30 23:57 14.08.2019
3686 Clouds 29 1009 18 10000 2.6 30 23:37 14.08.2019
3687 Clear 29 1007 25 10000 1 0 23:19 14.08.2019
3688 Clouds 31 1009 16 10000 5.1 70 22:55 14.08.2019
3689 Clouds 31 1009 16 10000 5.1 70 22:37 14.08.2019
3690 Clear 31 1008 23 10000 1 0 22:19 14.08.2019
3691 Clouds 33 1009 14 10000 4.6 10 21:55 14.08.2019
3692 Clouds 33 1009 14 10000 4.6 10 21:36 14.08.2019
3693 Clouds 33 1008 18 10000 5.1 60 21:18 14.08.2019
3694 Rain 33 1009 16 10000 4.6 60 20:41 14.08.2019
3695 Clouds 33 1009 22 10000 2.6 10 20:20 14.08.2019
3696 Clouds 33 1010 13 10000 2.6 100 19:56 14.08.2019
3697 Clouds 33 1009 18 10000 3.1 210 19:37 14.08.2019
3698 Clouds 33 1009 18 10000 3.1 210 19:18 14.08.2019
3699 Clouds 36 1009 12 10000 3.6 90 18:56 14.08.2019
3700 Clouds 36 1008 14 10000 2.1 40 18:37 14.08.2019
3701 Clouds 36 1008 14 10000 2.1 40 18:18 14.08.2019
3702 Clouds 38 1009 11 10000 4.1 70 17:55 14.08.2019
3703 Clouds 38 1009 11 10000 4.1 70 17:36 14.08.2019
3704 Clouds 38 1007 15 10000 4.1 30 17:18 14.08.2019
3705 Clouds 38 1009 10 10000 5.7 30 16:39 14.08.2019
3706 Clear 38 1008 16 10000 3.6 30 16:20 14.08.2019
3707 Clear 38 1009 13 10000 4.6 50 15:44 14.08.2019
3708 Clear 38 1008 13 10000 3.1 50 15:20 14.08.2019
3709 Clear 37 1010 13 10000 4.6 30 14:59 14.08.2019
3710 Clear 37 1010 13 10000 4.6 30 14:39 14.08.2019
3711 Clear 36 1009 15 10000 2.1 0 14:19 14.08.2019
3712 Clear 36 1010 13 10000 1.5 0 13:55 14.08.2019
3713 Clear 36 1010 13 10000 1.5 0 13:37 14.08.2019
3714 Clear 36 1009 16 10000 3.1 40 13:18 14.08.2019
3715 Clear 35 1011 17 10000 2.1 210 12:55 14.08.2019
3716 Clear 35 1011 17 10000 2.1 210 12:36 14.08.2019
3717 Clear 35 1010 16 10000 3.1 70 12:18 14.08.2019
3718 Clear 33 1011 17 10000 1.5 0 11:43 14.08.2019
3719 Clear 32 1011 23 10000 1 0 11:22 14.08.2019
3720 Clear 31 1012 24 10000 1.5 0 10:54 14.08.2019
3721 Clear 31 1012 24 10000 1.5 0 10:36 14.08.2019
3722 Clear 30 1012 27 10000 2.1 60 10:18 14.08.2019
3723 Clear 28 1012 28 10000 1.5 170 09:41 14.08.2019
3724 Clear 28 1012 35 10000 1 0 09:20 14.08.2019
3725 Clear 26 1013 36 10000 2.6 170 08:43 14.08.2019
3726 Clouds 26 1012 39 10000 1 0 08:25 14.08.2019
3727 Clear 22 1013 40 10000 2.1 50 07:56 14.08.2019
3728 Clear 22 1013 40 10000 2.1 50 07:35 14.08.2019
3729 Clear 17 1013 51 10000 1.5 320 06:50 14.08.2019
3730 Clear 16 1013 54 10000 1 0 06:25 14.08.2019
3731 Clear 16 1013 48 10000 0.5 0 05:32 14.08.2019
3732 Clear 17 1012 48 10000 1 0 03:41 14.08.2019
3733 Clear 18 1013 48 10000 0.5 0 02:37 14.08.2019
3734 Clear 19 1013 39 10000 1 0 01:59 14.08.2019
3735 Clear 19 1012 43 10000 2.64 35.836 01:30 14.08.2019
3736 Clear 21 1012 37 10000 2.64 35.836 00:31 14.08.2019
3737 Clear 21 1013 40 10000 3.1 30 23:43 13.08.2019
3738 Clear 21 1012 33 10000 0.5 0 23:20 13.08.2019
3739 Clear 22 1013 35 10000 3.1 20 22:56 13.08.2019
3740 Clear 22 1013 35 10000 3.1 20 22:38 13.08.2019
3741 Clear 22 1013 40 10000 2.55 42.586 22:19 13.08.2019
3742 Clear 24 1013 33 10000 4.6 20 21:55 13.08.2019
3743 Clear 24 1013 33 10000 4.6 20 21:36 13.08.2019
3744 Clear 25 1012 30 10000 1 0 21:18 13.08.2019
3745 Clear 26 1013 27 10000 3.1 10 20:42 13.08.2019
3746 Clear 27 1011 26 10000 3.1 70 20:20 13.08.2019
3747 Clear 30 1012 20 10000 4.6 90 19:56 13.08.2019
3748 Clear 30 1012 20 10000 4.6 90 19:38 13.08.2019
3749 Clear 33 1012 20 10000 5.1 80 19:19 13.08.2019
3750 Clear 34 1011 16 10000 3.1 80 18:41 13.08.2019
3751 Clear 33 1011 16 10000 3.1 80 18:22 13.08.2019
3752 Clear 34 1012 17 10000 5.1 80 17:54 13.08.2019
3753 Clear 34 1012 17 10000 5.1 80 17:36 13.08.2019
3754 Clear 34 1011 16 10000 2.6 360 17:18 13.08.2019
3755 Clear 34 1012 14 10000 4.6 70 16:54 13.08.2019
3756 Clear 34 1012 14 10000 4.6 70 16:36 13.08.2019
3757 Clear 34 1011 16 10000 2.6 0 16:18 13.08.2019
3758 Clear 34 1012 14 10000 4.6 70 15:38 13.08.2019
3759 Clear 34 1011 16 10000 4.1 40 15:19 13.08.2019
3760 Clear 33 1013 14 10000 4.6 70 14:47 13.08.2019
3761 Clear 33 1012 17 10000 2.6 0 14:20 13.08.2019
3762 Clear 32 1013 19 10000 6.7 10 13:59 13.08.2019
3763 Clear 32 1013 19 10000 6.7 10 13:59 13.08.2019
3764 Clear 32 1013 19 10000 6.7 10 13:40 13.08.2019
3765 Clear 31 1013 17 10000 5.1 70 13:20 13.08.2019
3766 Clouds 31 1014 16 10000 5.7 60 12:57 13.08.2019
3767 Clouds 30 1014 16 10000 5.7 60 12:39 13.08.2019
3768 Clear 30 1013 18 10000 4.1 80 12:20 13.08.2019
3769 Clouds 28 1014 21 10000 7.2 70 11:42 13.08.2019
3770 Clear 28 1014 21 10000 5.1 80 11:22 13.08.2019
3771 Clear 27 1015 21 10000 8.2 70 10:58 13.08.2019
3772 Clear 27 1015 21 10000 8.2 70 10:38 13.08.2019
3773 Clear 27 1014 21 10000 5.7 70 10:19 13.08.2019
3774 Clear 27 1014 21 10000 5.7 70 10:19 13.08.2019
3775 Clear 26 1015 20 10000 8.2 60 09:46 13.08.2019
3776 Clear 26 1014 24 10000 6.2 50 09:25 13.08.2019
3777 Clear 24 1015 22 10000 6.7 50 08:57 13.08.2019
3778 Clear 24 1015 22 10000 6.7 50 08:39 13.08.2019
3779 Clear 23 1015 27 10000 5.7 60 08:20 13.08.2019
3780 Clear 22 1015 30 10000 2.6 90 07:45 13.08.2019
3781 Clear 21 1015 30 10000 2.6 90 07:23 13.08.2019
3782 Clear 18 1016 42 10000 6.2 20 06:44 13.08.2019
3783 Clear 17 1016 51 10000 5.1 20 05:58 13.08.2019
3784 Clear 17 1016 47 10000 5.1 30 05:20 13.08.2019
3785 Clear 19 1015 34 10000 1 0 02:22 13.08.2019
3786 Clear 19 1016 41 10000 2.1 30 01:38 13.08.2019
3787 Clear 21 1017 36 10000 3.6 20 00:49 13.08.2019
3788 Clear 21 1015 28 10000 4.1 80 00:22 13.08.2019
3789 Clear 21 1017 32 10000 4.1 20 23:43 12.08.2019
3790 Clear 22 1015 25 10000 7.2 60 23:21 12.08.2019
3791 Clear 23 1016 26 10000 5.1 40 22:54 12.08.2019
3792 Clear 24 1015 23 10000 5.7 50 22:36 12.08.2019
3793 Clear 24 1015 23 10000 5.7 50 22:18 12.08.2019
3794 Clear 25 1016 23 10000 6.2 40 21:54 12.08.2019
3795 Clear 25 1016 23 10000 6.2 40 21:36 12.08.2019
3796 Clear 25 1016 23 10000 6.2 40 21:36 12.08.2019
3797 Clear 25 1015 22 10000 4.1 20 21:18 12.08.2019
3798 Clear 25 1016 23 10000 5.1 30 20:41 12.08.2019
3799 Clear 26 1015 22 10000 5.7 40 20:21 12.08.2019
3800 Clear 28 1015 21 10000 5.1 40 19:58 12.08.2019
3801 Clear 28 1015 21 10000 5.1 40 19:39 12.08.2019
3802 Clear 28 1014 17 10000 5.1 40 19:20 12.08.2019
3803 Clear 31 1015 17 10000 7.7 70 18:58 12.08.2019
3804 Clear 30 1015 17 10000 7.7 70 18:39 12.08.2019
3805 Clear 30 1013 15 10000 6.7 60 18:20 12.08.2019
3806 Clear 31 1014 13 10000 6.7 80 17:48 12.08.2019
3807 Clear 32 1013 13 10000 7.7 70 17:29 12.08.2019
3808 Clear 32 1015 12 10000 6.2 60 16:58 12.08.2019
3809 Clear 32 1015 12 10000 6.2 60 16:39 12.08.2019
3810 Clear 32 1015 12 10000 7.2 40 16:20 12.08.2019
3811 Clear 32 1015 12 10000 7.2 40 15:59 12.08.2019
3812 Clear 32 1015 12 10000 7.2 40 15:41 12.08.2019
3813 Clear 32 1014 11 10000 7.7 50 15:21 12.08.2019
3814 Clear 32 1015 12 10000 8.7 40 14:58 12.08.2019
3815 Clear 31 1015 12 10000 8.7 40 14:39 12.08.2019
3816 Clear 31 1014 15 10000 5.7 70 14:20 12.08.2019
3817 Clear 31 1016 13 10000 9.3 40 13:54 12.08.2019
3818 Clear 31 1016 13 10000 9.3 40 13:36 12.08.2019
3819 Clear 31 1015 14 10000 5.7 60 13:18 12.08.2019
3820 Clear 29 1016 13 10000 9.3 30 12:41 12.08.2019
3821 Clear 29 1015 10 10000 5.7 60 12:19 12.08.2019
3822 Clear 29 1015 10 10000 5.7 60 12:19 12.08.2019
3823 Clear 28 1017 14 10000 7.7 40 11:44 12.08.2019
3824 Clear 27 1017 15 10000 8.2 40 11:26 12.08.2019
3825 Clear 27 1017 15 10000 8.2 40 11:26 12.08.2019
3826 -273 0 0 0 0 0 10:57 12.08.2019
3827 Clear 26 1017 10 10000 9.3 30 10:38 12.08.2019
3828 Clear 26 1017 19 10000 6.2 60 10:20 12.08.2019
3829 Clear 24 1017 19 10000 8.7 30 09:54 12.08.2019
3830 Clear 24 1017 19 10000 8.7 30 09:36 12.08.2019
3831 Clear 24 1017 19 10000 8.7 30 09:36 12.08.2019
3832 Clear 24 1018 29 10000 4.1 30 09:18 12.08.2019
3833 Clear 22 1018 28 10000 7.2 50 08:39 12.08.2019
3834 Clear 22 1018 28 10000 7.2 50 08:39 12.08.2019
3835 Clear 22 1017 35 10000 5.7 60 08:21 12.08.2019
3836 Clear 20 1018 34 10000 7.2 40 07:56 12.08.2019
3837 Clear 20 1018 34 10000 7.2 40 07:35 12.08.2019
3838 Clear 17 1018 45 10000 5.1 30 06:53 12.08.2019
3839 Clear 16 1018 54 10000 4.6 20 05:53 12.08.2019
3840 Clear 17 1018 54 10000 4.6 40 03:47 12.08.2019
3841 Clear 18 1018 58 10000 7.2 30 02:42 12.08.2019
3842 Clear 19 1017 40 10000 6.7 60 01:23 12.08.2019
3843 Clear 20 1019 48 10000 3.1 10 00:58 12.08.2019
3844 Clear 20 1019 48 10000 3.1 10 00:40 12.08.2019
3845 Clear 20 1018 43 10000 5.7 50 00:20 12.08.2019
3846 Clear 21 1019 45 10000 4.1 40 23:58 11.08.2019
3847 Clear 21 1019 45 10000 4.1 40 23:39 11.08.2019
3848 Clear 21 1019 45 10000 4.1 40 23:39 11.08.2019
3849 Clear 21 1018 43 10000 6.2 50 23:19 11.08.2019
3850 Clear 22 1019 43 10000 4.6 40 22:56 11.08.2019
3851 Clear 23 1019 43 10000 4.6 40 22:36 11.08.2019
3852 Clear 21 1018 40 10000 5.7 30 22:36 11.08.2019
3853 Clear 23 1018 40 10000 5.7 30 22:18 11.08.2019
3854 Clear 23 1018 40 10000 4.6 30 21:55 11.08.2019
3855 Clear 24 1018 40 10000 4.6 30 21:36 11.08.2019
3856 Clear 24 1017 33 10000 5.1 50 21:18 11.08.2019
3857 Clear 25 1018 33 10000 5.7 40 20:42 11.08.2019
3858 Clear 25 1018 33 10000 5.7 40 20:42 11.08.2019
3859 Clear 25 1016 30 10000 6.2 70 20:23 11.08.2019
3860 Clear 27 1017 29 10000 4.1 30 19:55 11.08.2019
3861 Clear 27 1015 28 10000 6.2 60 19:36 11.08.2019
3862 Clear 27 1015 28 10000 6.2 60 19:18 11.08.2019
3863 Clear 29 1017 26 10000 5.7 70 18:39 11.08.2019
3864 Clear 29 1015 27 10000 6.2 70 18:19 11.08.2019
3865 Clear 30 1016 23 10000 6.7 60 17:54 11.08.2019
3866 Clear 30 1016 23 10000 6.7 60 17:36 11.08.2019
3867 Clear 30 1015 25 10000 5.7 70 17:18 11.08.2019
3868 Clear 30 1016 23 10000 6.2 40 16:40 11.08.2019
3869 Clear 30 1015 23 10000 6.2 70 16:22 11.08.2019
3870 Clear 30 1016 23 10000 5.7 40 15:57 11.08.2019
3871 Clear 30 1016 23 10000 5.7 40 15:39 11.08.2019
3872 Clear 30 1017 23 10000 7.7 40 15:21 11.08.2019
3873 Clear 29 1017 24 10000 6.2 50 14:54 11.08.2019
3874 Clear 30 1016 22 10000 7.2 50 14:36 11.08.2019
3875 Clear 30 1016 22 10000 7.2 50 14:18 11.08.2019
3876 Clear 28 1018 24 10000 5.7 30 13:41 11.08.2019
3877 Clear 28 1018 25 10000 5.7 40 13:22 11.08.2019
3878 Clear 27 1018 24 10000 6.2 60 12:41 11.08.2019
3879 Clear 27 1018 32 10000 4.1 0 12:22 11.08.2019
3880 Clear 26 1019 31 10000 6.2 50 11:41 11.08.2019
3881 Clear 26 1018 36 10000 4.1 0 11:23 11.08.2019
3882 Clear 25 1019 38 10000 4.6 60 10:57 11.08.2019
3883 Clear 25 1019 36 10000 5.7 60 10:39 11.08.2019
3884 Clear 24 1019 38 10000 4.6 60 10:21 11.08.2019
3885 Clear 24 1019 40 10000 6.7 80 09:55 11.08.2019
3886 Clear 24 1019 40 10000 6.7 80 09:37 11.08.2019
3887 Clear 23 1019 41 10000 3.1 100 09:18 11.08.2019
3888 Clear 22 1019 40 10000 4.1 70 08:43 11.08.2019
3889 Clear 22 1019 46 10000 3.1 90 08:25 11.08.2019
3890 Clear 21 1019 49 10000 3.6 350 07:49 11.08.2019
3891 Clear 20 1019 49 10000 3.1 60 07:21 11.08.2019
3892 Clear 18 1019 59 10000 4.1 20 06:39 11.08.2019
3893 Clear 16 1019 62 10000 3.6 360 05:34 11.08.2019
3894 Clear 18 1018 63 10000 1.5 280 03:36 11.08.2019
3895 Clear 19 1019 55 10000 3.1 20 02:45 11.08.2019
3896 Clear 20 1018 49 10000 1.5 70 01:36 11.08.2019
3897 Clear 21 1019 45 10000 5.1 40 00:59 11.08.2019
3898 Clear 21 1019 45 10000 5.1 40 00:41 11.08.2019
3899 Clear 21 1018 40 10000 4.1 70 00:23 11.08.2019
3900 Clear 22 1019 43 10000 5.1 50 23:43 10.08.2019
3901 Clear 23 1018 38 10000 7.2 60 23:23 10.08.2019
3902 Clear 23 1019 40 10000 6.7 50 22:43 10.08.2019
3903 Clear 24 1017 36 10000 7.7 40 22:24 10.08.2019
3904 Clear 25 1018 38 10000 5.1 50 21:57 10.08.2019
3905 Clear 25 1018 38 10000 5.1 50 21:38 10.08.2019
3906 Clear 25 1017 41 10000 6.2 40 21:18 10.08.2019
3907 Clear 25 1018 38 10000 5.1 20 20:56 10.08.2019
3908 Clear 26 1018 38 10000 5.1 20 20:37 10.08.2019
3909 Clear 26 1016 39 10000 7.2 30 20:18 10.08.2019
3910 Clear 28 1016 36 10000 7.2 10 19:39 10.08.2019
3911 Clear 28 1015 26 10000 4.6 20 19:20 10.08.2019
3912 Clear 30 1015 30 10000 8.2 10 18:40 10.08.2019
3913 Clear 30 1015 30 10000 8.2 10 18:40 10.08.2019
3914 Clear 30 1014 20 10000 4.6 30 18:22 10.08.2019
3915 Clear 31 1015 17 10000 7.7 10 17:45 10.08.2019
3916 Clear 31 1014 21 10000 5.1 60 17:25 10.08.2019
3917 Clear 32 1015 15 10000 6.7 40 16:47 10.08.2019
3918 Clear 32 1013 19 10000 3.1 70 16:28 10.08.2019
3919 Clear 31 1014 19 10000 7.2 40 15:56 10.08.2019
3920 Clear 31 1013 22 10000 4.6 70 15:26 10.08.2019
3921 Clear 30 1015 19 10000 5.7 50 14:45 10.08.2019
3922 Clear 30 1015 19 10000 5.7 50 14:45 10.08.2019
3923 Clear 30 1014 23 10000 4.1 30 14:23 10.08.2019
3924 Clear 30 1015 21 10000 4.1 50 13:59 10.08.2019
3925 Clear 30 1015 21 10000 4.1 50 13:39 10.08.2019
3926 Clear 30 1015 22 10000 4.6 60 13:18 10.08.2019
3927 Clear 28 1016 24 10000 4.6 70 12:42 10.08.2019
3928 Clear 28 1015 28 10000 6.2 80 12:22 10.08.2019
3929 Clear 27 1017 26 10000 4.6 50 11:57 10.08.2019
3930 Clear 27 1017 26 10000 4.6 50 11:38 10.08.2019
3931 Clear 27 1016 26 10000 6.7 70 11:20 10.08.2019
3932 Clear 26 1017 26 10000 7.7 40 10:39 10.08.2019
3933 Clear 26 1016 31 10000 6.2 70 10:20 10.08.2019
3934 Clear 25 1017 31 10000 6.7 40 09:59 10.08.2019
3935 Clear 25 1017 31 10000 6.7 40 09:38 10.08.2019
3936 Clear 25 1016 38 10000 3.1 60 09:20 10.08.2019
3937 Clear 23 1017 38 10000 6.2 30 08:38 10.08.2019
3938 Clear 22 1016 46 10000 3.1 70 08:19 10.08.2019
3939 Clear 21 1016 52 10000 3.6 30 07:51 10.08.2019
3940 Clear 20 1016 49 10000 4.1 70 07:27 10.08.2019
3941 Clear 19 1016 63 10000 3.1 10 06:48 10.08.2019
3942 Clear 18 1015 56 10000 2.1 100 06:21 10.08.2019
3943 Clear 17 1014 59 10000 1 0 05:24 10.08.2019
3944 Clear 18 1014 56 10000 2.1 90 04:21 10.08.2019
3945 Clear 19 1015 59 10000 3.6 10 02:53 10.08.2019
3946 Clear 19 1014 55 10000 3.1 10 01:59 10.08.2019
3947 Clear 19 1014 55 10000 3.1 10 01:39 10.08.2019
3948 Clear 19 1013 46 10000 3.6 40 01:20 10.08.2019
3949 Clear 20 1014 52 10000 3.1 40 00:43 10.08.2019
3950 Clear 21 1013 44 10000 2.1 40 00:21 10.08.2019
3951 Clear 22 1014 46 10000 5.7 40 23:42 09.08.2019
3952 Clear 22 1013 36 10000 3.6 30 23:22 09.08.2019
3953 Clear 23 1013 35 10000 5.7 40 22:57 09.08.2019
3954 Clear 23 1013 35 10000 5.7 40 22:38 09.08.2019
3955 Clear 24 1012 31 10000 0.5 0 22:19 09.08.2019
3956 Clear 25 1013 33 10000 3.1 40 21:41 09.08.2019
3957 Clear 25 1013 33 10000 3.1 40 21:41 09.08.2019
3958 Clear 25 1012 28 10000 2.6 340 21:23 09.08.2019
3959 Clear 26 1013 29 10000 4.6 360 20:59 09.08.2019
3960 Clear 26 1013 29 10000 4.6 360 20:40 09.08.2019
3961 Clear 26 1012 26 10000 3.1 280 20:21 09.08.2019
3962 Clear 29 1012 21 10000 5.7 10 19:56 09.08.2019
3963 Clear 29 1010 15 10000 4.1 20 19:38 09.08.2019
3964 Clear 29 1012 21 10000 5.7 10 19:38 09.08.2019
3965 Clear 29 1010 15 10000 4.1 20 19:18 09.08.2019
3966 Clear 32 1010 21 10000 4.6 0 18:40 09.08.2019
3967 Clear 32 1010 21 10000 4.6 0 18:22 09.08.2019
3968 Clear 33 1011 14 10000 4.6 30 17:56 09.08.2019
3969 Clear 33 1011 14 10000 4.6 30 17:56 09.08.2019
3970 Clear 33 1011 14 10000 4.6 30 17:38 09.08.2019
3971 Clear 33 1010 14 10000 0.5 0 17:19 09.08.2019
3972 Clear 33 1011 13 10000 3.1 50 16:40 09.08.2019
3973 Clear 33 1010 14 10000 1.5 0 16:21 09.08.2019
3974 Clear 32 1011 13 10000 3.1 0 15:56 09.08.2019
3975 Clear 32 1011 13 10000 3.1 0 15:56 09.08.2019
3976 Clear 33 1011 13 10000 3.1 0 15:37 09.08.2019
3977 Clear 33 1010 10 10000 3.1 0 15:18 09.08.2019
3978 Clear 32 1011 13 10000 3.1 350 14:44 09.08.2019
3979 Clear 32 1011 10 10000 2.6 60 14:22 09.08.2019
3980 Clear 32 1011 10 10000 2.6 60 14:22 09.08.2019
3981 Clear 32 1012 12 10000 4.1 70 13:56 09.08.2019
3982 Clear 31 1012 12 10000 4.1 70 13:38 09.08.2019
3983 Clear 32 1012 10 10000 3.1 40 13:18 09.08.2019
3984 Clear 30 1013 9 10000 4.6 70 12:43 09.08.2019
3985 Clear 30 1012 15 10000 3.1 70 12:22 09.08.2019
3986 Clear 28 1013 17 10000 2.6 0 11:42 09.08.2019
3987 Clear 28 1013 17 10000 2.6 0 11:22 09.08.2019
3988 Clear 27 1014 18 10000 4.6 10 10:59 09.08.2019
3989 Clear 27 1014 18 10000 4.6 10 10:39 09.08.2019
3990 Clear 26 1014 18 10000 2.1 0 10:21 09.08.2019
3991 Clear 25 1015 23 10000 2.1 0 09:43 09.08.2019
3992 Clear 24 1014 29 10000 2.6 90 09:20 09.08.2019
3993 Clear 23 1015 31 10000 2.1 0 08:55 09.08.2019
3994 Clear 23 1015 31 10000 2.1 0 08:37 09.08.2019
3995 Clear 22 1015 33 10000 2.1 70 08:18 09.08.2019
3996 Clear 20 1016 42 10000 0.5 0 07:43 09.08.2019
3997 Clear 19 1015 40 10000 1.91 54.849 07:21 09.08.2019
3998 Clear 15 1016 44 10000 0.5 0 06:52 09.08.2019
3999 Clear 16 1015 51 10000 1 220 06:27 09.08.2019
4000 Clear 14 1016 50 10000 2.46 31.372 05:46 09.08.2019
4001 Clear 17 1015 45 10000 0.5 0 02:33 09.08.2019
4002 Clear 18 1016 38 10000 0.5 0 01:41 09.08.2019
4003 Clear 19 1016 36 10000 2.1 30 00:43 09.08.2019
4004 Clear 19 1015 37 10000 3.68 31.827 00:24 09.08.2019
4005 Clear 20 1016 32 10000 3.1 340 23:59 08.08.2019
4006 Clear 20 1016 32 10000 3.1 340 23:38 08.08.2019
4007 Clear 21 1014 32 10000 1.5 220 23:19 08.08.2019
4008 Clear 21 1015 30 10000 2.1 290 22:56 08.08.2019
4009 Clear 21 1014 35 10000 1.5 230 22:36 08.08.2019
4010 Clear 22 1014 35 10000 1.5 230 22:18 08.08.2019
4011 Clear 23 1015 26 10000 1.5 10 21:43 08.08.2019
4012 Clear 24 1014 31 10000 1 0 21:24 08.08.2019
4013 Clear 25 1015 23 10000 2.1 50 20:59 08.08.2019
4014 Clear 25 1015 23 10000 2.1 50 20:41 08.08.2019
4015 Clear 25 1013 21 10000 1 0 20:20 08.08.2019
4016 Clear 28 1014 22 10000 3.6 70 19:56 08.08.2019
4017 Clear 29 1013 18 10000 2.1 220 19:37 08.08.2019
4018 Clear 28 1013 18 10000 2.1 220 19:18 08.08.2019
4019 Clear 31 1014 16 10000 1.5 340 18:41 08.08.2019
4020 Clear 30 1013 16 10000 3.1 90 18:20 08.08.2019
4021 Clear 31 1014 15 10000 2.1 0 17:42 08.08.2019
4022 Clear 31 1013 15 10000 1.5 0 17:24 08.08.2019
4023 Clear 31 1014 13 10000 2.6 320 16:59 08.08.2019
4024 Clear 31 1014 13 10000 2.6 320 16:41 08.08.2019
4025 Clear 31 1014 13 10000 3.6 70 16:23 08.08.2019
4026 Clear 31 1015 13 10000 2.6 340 15:57 08.08.2019
4027 Clear 31 1015 13 10000 2.6 340 15:38 08.08.2019
4028 Clear 30 1014 12 10000 3.1 10 15:20 08.08.2019
4029 Clear 30 1015 12 10000 3.1 60 14:40 08.08.2019
4030 Clear 30 1015 14 10000 4.1 40 14:21 08.08.2019
4031 Clear 29 1016 13 10000 3.6 350 13:56 08.08.2019
4032 Clear 29 1016 13 10000 3.6 350 13:36 08.08.2019
4033 Clear 28 1015 17 10000 3.1 0 13:18 08.08.2019
4034 Clear 27 1016 15 10000 3.6 10 12:38 08.08.2019
4035 Clear 27 1016 23 10000 3.1 0 12:19 08.08.2019
4036 Clear 26 1017 22 10000 2.1 110 11:43 08.08.2019
4037 Clear 25 1017 26 10000 3.1 120 11:25 08.08.2019
4038 Clear 24 1018 27 10000 2.6 90 10:56 08.08.2019
4039 Clear 24 1018 27 10000 2.6 90 10:38 08.08.2019
4040 Clear 24 1017 29 10000 2.1 0 10:19 08.08.2019
4041 Clear 23 1018 33 10000 3.1 20 09:41 08.08.2019
4042 Clear 22 1018 33 10000 2.6 70 09:22 08.08.2019
4043 Clear 21 1018 40 10000 1.5 0 08:44 08.08.2019
4044 Clear 20 1018 42 10000 4.1 70 08:22 08.08.2019
4045 Clear 19 1019 45 10000 3.1 20 07:58 08.08.2019
4046 Clear 18 1019 45 10000 3.1 20 07:39 08.08.2019
4047 Clear 18 1018 45 10000 2.6 90 07:18 08.08.2019
4048 Clear 15 1019 54 10000 2.6 30 06:45 08.08.2019
4049 Clear 14 1019 62 10000 2.6 50 05:58 08.08.2019
4050 Clear 14 1019 62 10000 2.6 50 05:40 08.08.2019
4051 Clear 15 1018 51 10000 1.97 48.787 04:21 08.08.2019
4052 Clear 16 1019 58 10000 5.7 10 03:47 08.08.2019
4053 Clear 18 1019 55 10000 5.1 20 01:54 08.08.2019
4054 Clear 18 1018 42 10000 3.1 80 01:20 08.08.2019
4055 Clear 19 1018 40 10000 4.1 70 00:25 08.08.2019
4056 Clear 19 1019 45 10000 4.1 20 23:40 07.08.2019
4057 Clear 19 1018 42 10000 5.1 10 23:19 07.08.2019
4058 Clear 19 1019 39 10000 4.1 360 22:42 07.08.2019
4059 Clear 19 1018 37 10000 3.6 350 22:21 07.08.2019
4060 Clear 20 1018 34 10000 3.1 30 21:59 07.08.2019
4061 Clear 20 1018 34 10000 3.1 30 21:40 07.08.2019
4062 Clear 22 1018 32 10000 2.1 10 21:21 07.08.2019
4063 Clear 23 1018 28 10000 3.6 40 20:59 07.08.2019
4064 Clear 23 1018 28 10000 3.6 40 20:41 07.08.2019
4065 Clear 23 1016 27 10000 1.5 80 20:22 07.08.2019
4066 Clear 25 1017 25 10000 3.6 80 19:56 07.08.2019
4067 Clear 25 1017 25 10000 3.6 80 19:56 07.08.2019
4068 Clear 25 1017 25 10000 3.6 80 19:37 07.08.2019
4069 Clear 26 1016 22 10000 3.1 100 19:19 07.08.2019
4070 Clear 25 1017 22 10000 4.1 90 18:41 07.08.2019
4071 Clear 27 1017 21 10000 4.6 90 18:20 07.08.2019
4072 Clear 28 1017 21 10000 4.6 90 18:20 07.08.2019
4073 Clouds 28 1017 19 10000 3.6 40 17:57 07.08.2019
4074 Clouds 28 1017 19 10000 3.6 40 17:38 07.08.2019
4075 Clouds 28 1017 18 10000 3.6 0 17:19 07.08.2019
4076 Clouds 28 1017 18 10000 3.1 340 16:56 07.08.2019
4077 Clouds 28 1017 18 10000 3.1 340 16:38 07.08.2019
4078 Clear 28 1016 18 10000 3.6 90 16:19 07.08.2019
4079 Clouds 28 1017 18 10000 3.1 30 15:55 07.08.2019
4080 Clouds 28 1017 18 10000 3.1 30 15:37 07.08.2019
4081 Clouds 28 1017 18 10000 3.1 30 15:37 07.08.2019
4082 Clear 27 1017 17 10000 3.6 0 15:18 07.08.2019
4083 Clouds 27 1018 15 10000 2.6 0 14:45 07.08.2019
4084 Clouds 27 1017 15 10000 3.6 0 14:24 07.08.2019
4085 Clouds 26 1018 16 10000 3.6 40 13:41 07.08.2019
4086 Clear 26 1018 15 10000 2.6 50 13:19 07.08.2019
4087 Clear 26 1018 15 10000 2.6 50 13:19 07.08.2019
4088 Clouds 26 1019 15 10000 4.1 10 12:58 07.08.2019
4089 Clouds 26 1019 15 10000 4.1 10 12:39 07.08.2019
4090 Clouds 26 1018 22 10000 3.1 0 12:20 07.08.2019
4091 Clouds 24 1019 23 10000 4.1 70 11:59 07.08.2019
4092 Clouds 24 1019 23 10000 4.1 70 11:40 07.08.2019
4093 Clouds 24 1018 25 10000 3.1 0 11:19 07.08.2019
4094 Clear 23 1019 26 10000 4.1 60 10:42 07.08.2019
4095 Clouds 22 1019 31 10000 3.1 0 10:20 07.08.2019
4096 Clear 22 1019 30 10000 5.7 90 09:59 07.08.2019
4097 Clear 21 1019 30 10000 5.7 90 09:41 07.08.2019
4098 Clear 21 1019 37 10000 2.6 90 09:21 07.08.2019
4099 Clear 20 1019 34 10000 5.1 80 08:45 07.08.2019
4100 Clear 19 1020 42 10000 2.1 110 08:26 07.08.2019
4101 Clear 18 1019 48 10000 3.6 30 07:52 07.08.2019
4102 Clear 17 1019 48 10000 3.6 80 07:33 07.08.2019
4103 Clear 16 1019 58 10000 4.1 10 06:50 07.08.2019
4104 Clear 16 1018 51 10000 2.48 40.79 06:27 07.08.2019
4105 Clear 15 1019 62 10000 4.6 10 05:46 07.08.2019
4106 Clear 15 1019 71 10000 3.1 10 04:46 07.08.2019
4107 Clear 16 1018 52 10000 2.6 60 03:21 07.08.2019
4108 Clear 16 1019 62 10000 4.6 360 02:43 07.08.2019
4109 Clear 17 1019 58 10000 3.1 360 01:58 07.08.2019
4110 Clear 17 1018 48 10000 4.1 60 01:31 07.08.2019
4111 Clear 18 1019 55 10000 3.6 20 00:38 07.08.2019
4112 Clear 18 1017 42 10000 4.6 60 00:19 07.08.2019
4113 Clear 19 1018 51 10000 4.6 30 23:41 06.08.2019
4114 Clear 19 1017 37 10000 4.1 80 23:21 06.08.2019
4115 Clear 19 1018 42 10000 5.1 20 22:56 06.08.2019
4116 Clear 19 1018 42 10000 5.1 20 22:37 06.08.2019
4117 Clear 20 1017 35 10000 5.1 50 22:18 06.08.2019
4118 Clear 20 1017 32 10000 5.7 40 21:40 06.08.2019
4119 Clear 20 1017 35 10000 3.6 30 21:20 06.08.2019
4120 Clear 20 1017 35 10000 3.6 30 21:20 06.08.2019
4121 Clear 22 1017 32 10000 3.1 30 20:48 06.08.2019
4122 Clear 22 1015 25 10000 4.1 70 20:29 06.08.2019
4123 Clouds 24 1016 25 10000 3.1 80 19:59 06.08.2019
4124 Clouds 24 1016 25 10000 3.1 80 19:41 06.08.2019
4125 Clear 24 1015 25 10000 4.1 70 19:22 06.08.2019
4126 Clouds 26 1016 23 10000 4.6 90 18:45 06.08.2019
4127 Clouds 26 1015 24 10000 4.1 40 18:26 06.08.2019
4128 Clouds 26 1015 22 10000 5.1 40 17:58 06.08.2019
4129 Clouds 26 1015 22 10000 5.1 40 17:38 06.08.2019
4130 Clouds 26 1014 22 10000 4.1 40 17:20 06.08.2019
4131 Clouds 27 1015 21 10000 5.1 60 16:54 06.08.2019
4132 Clouds 27 1015 21 10000 5.1 60 16:36 06.08.2019
4133 Clouds 27 1015 22 10000 2.1 0 16:18 06.08.2019
4134 Clouds 27 1016 22 10000 4.1 50 15:56 06.08.2019
4135 Clouds 27 1016 22 10000 4.1 50 15:37 06.08.2019
4136 Clouds 27 1015 21 10000 4.1 80 15:18 06.08.2019
4137 Clouds 26 1016 25 10000 5.1 60 14:40 06.08.2019
4138 Clouds 26 1015 18 10000 4.6 70 14:22 06.08.2019
4139 Clouds 26 1016 25 10000 5.1 50 13:57 06.08.2019
4140 Clouds 26 1016 25 10000 5.1 50 13:38 06.08.2019
4141 Clouds 25 1016 24 10000 4.1 0 13:19 06.08.2019
4142 Clouds 25 1017 23 10000 4.1 50 12:42 06.08.2019
4143 Clouds 25 1016 26 10000 3.6 10 12:24 06.08.2019
4144 Clouds 24 1017 31 10000 4.1 10 11:59 06.08.2019
4145 Clouds 24 1017 31 10000 4.1 10 11:59 06.08.2019
4146 Clouds 24 1017 31 10000 4.1 10 11:40 06.08.2019
4147 Clouds 24 1016 29 10000 3.1 0 11:18 06.08.2019
4148 Clouds 23 1017 35 10000 4.6 50 10:41 06.08.2019
4149 Clouds 22 1017 37 10000 4.1 50 10:22 06.08.2019
4150 Clear 22 1017 37 10000 5.7 60 09:47 06.08.2019
4151 Clear 21 1017 43 10000 3.6 50 09:23 06.08.2019
4152 -273 0 0 0 0 0 08:56 06.08.2019
4153 Clear 20 1017 48 10000 6.7 20 08:37 06.08.2019
4154 Clear 19 1017 52 10000 3.1 70 08:19 06.08.2019
4155 Clear 18 1017 55 10000 2.1 90 07:31 06.08.2019
4156 Clear 15 1017 67 10000 4.1 10 06:45 06.08.2019
4157 Clear 15 1017 63 10000 1.5 220 06:26 06.08.2019
4158 Clear 14 1017 71 10000 4.1 10 05:46 06.08.2019
4159 Clear 15 1016 67 10000 4.6 10 02:59 06.08.2019
4160 Clear 16 1016 62 10000 4.6 30 01:36 06.08.2019
4161 Clear 17 1016 63 10000 5.1 40 00:59 06.08.2019
4162 Clear 17 1015 52 10000 2.1 20 00:24 06.08.2019
4163 Clear 18 1015 52 10000 2.1 360 23:21 05.08.2019
4164 Clear 18 1016 55 10000 5.1 30 22:59 05.08.2019
4165 Clear 18 1016 55 10000 5.1 30 22:40 05.08.2019
4166 Clear 19 1015 45 10000 1.5 30 22:22 05.08.2019
4167 Clouds 20 1015 48 10000 5.1 30 21:43 05.08.2019
4168 Clouds 20 1015 43 10000 1.5 0 21:21 05.08.2019
4169 Clouds 21 1015 42 10000 5.7 20 20:58 05.08.2019
4170 Clouds 21 1015 42 10000 5.7 20 20:40 05.08.2019
4171 Clouds 21 1013 37 10000 3.6 350 20:22 05.08.2019
4172 Clouds 22 1014 40 10000 6.7 30 19:59 05.08.2019
4173 Clouds 22 1014 40 10000 6.7 30 19:38 05.08.2019
4174 Clouds 22 1012 36 10000 4.1 10 19:20 05.08.2019
4175 Clouds 24 1013 33 10000 7.2 360 18:42 05.08.2019
4176 Clouds 24 1012 33 10000 5.1 360 18:21 05.08.2019
4177 -273 0 0 0 0 0 17:56 05.08.2019
4178 Clouds 25 1012 29 10000 7.2 360 17:38 05.08.2019
4179 Clouds 25 1011 29 10000 5.1 20 17:20 05.08.2019
4180 Clouds 26 1012 27 10000 6.2 360 16:41 05.08.2019
4181 Clouds 26 1011 24 10000 4.6 30 16:23 05.08.2019
4182 Clouds 27 1012 25 10000 6.2 360 15:43 05.08.2019
4183 Clouds 27 1011 24 10000 2.1 0 15:20 05.08.2019
4184 Clouds 26 1012 22 10000 5.7 20 14:42 05.08.2019
4185 Clouds 26 1012 22 10000 5.7 20 14:42 05.08.2019
4186 Clouds 26 1012 22 10000 5.7 20 14:42 05.08.2019
4187 Clouds 26 1012 23 10000 3.1 270 14:23 05.08.2019
4188 Clouds 26 1013 23 10000 4.6 40 13:50 05.08.2019
4189 Clouds 26 1013 23 10000 4.6 40 13:50 05.08.2019
4190 Clouds 26 1012 26 10000 4.1 80 13:24 05.08.2019
4191 Clouds 25 1013 25 10000 3.6 360 12:59 05.08.2019
4192 Clouds 25 1013 25 10000 3.6 360 12:41 05.08.2019
4193 Clouds 25 1012 29 10000 2.1 0 12:18 05.08.2019
4194 Clouds 24 1013 29 10000 4.1 290 11:43 05.08.2019
4195 Clouds 24 1013 31 10000 1.5 190 11:25 05.08.2019
4196 Clouds 23 1014 35 10000 4.1 340 10:47 05.08.2019
4197 Clouds 23 1013 33 10000 2.6 0 10:28 05.08.2019
4198 Clouds 22 1014 35 10000 4.1 10 09:56 05.08.2019
4199 Clouds 22 1014 35 10000 4.1 10 09:37 05.08.2019
4200 Clouds 21 1014 40 10000 3.1 0 09:19 05.08.2019
4201 Clouds 20 1014 34 10000 5.1 40 08:43 05.08.2019
4202 Clear 20 1014 43 10000 3.1 20 08:24 05.08.2019
4203 Clear 18 1014 45 10000 3.1 360 07:47 05.08.2019
4204 Clouds 17 1015 59 10000 1.5 240 07:28 05.08.2019
4205 Clear 16 1014 62 10000 2.6 10 06:53 05.08.2019
4206 Clear 15 1014 63 10000 3.1 1.424 06:19 05.08.2019
4207 Clear 14 1014 72 10000 1.5 250 05:28 05.08.2019
4208 Clear 15 1014 71 10000 2.1 10 04:41 05.08.2019
4209 Clear 15 1014 71 10000 2.6 350 03:50 05.08.2019
4210 Clear 16 1014 59 10000 3.6 30 02:38 05.08.2019
4211 Clear 17 1014 63 10000 4.1 20 01:41 05.08.2019
4212 Clear 18 1014 59 10000 4.1 50 00:59 05.08.2019
4213 Clear 18 1014 59 10000 4.1 50 00:39 05.08.2019
4214 Clear 18 1014 55 10000 5.7 20 00:18 05.08.2019
4215 Clear 18 1014 59 10000 3.1 360 23:41 04.08.2019
4216 Clear 19 1013 52 10000 4.1 50 23:22 04.08.2019
4217 Clouds 19 1014 55 10000 4.1 360 22:57 04.08.2019
4218 Clear 19 1013 52 10000 3.6 30 22:38 04.08.2019
4219 Clear 19 1013 52 10000 3.6 30 22:19 04.08.2019
4220 Clouds 20 1013 52 10000 5.7 30 21:45 04.08.2019
4221 Clear 20 1013 49 10000 1 280 21:24 04.08.2019
4222 Clouds 21 1013 49 10000 3.6 330 20:57 04.08.2019
4223 Clouds 21 1013 49 10000 3.6 330 20:38 04.08.2019
4224 Clouds 21 1012 52 10000 1.5 0 20:18 04.08.2019
4225 Clouds 22 1012 46 10000 4.6 320 19:48 04.08.2019
4226 Clouds 22 1011 53 10000 4.1 10 19:26 04.08.2019
4227 Clouds 23 1011 46 10000 5.7 310 18:44 04.08.2019
4228 Clouds 23 1011 46 10000 5.7 310 18:44 04.08.2019
4229 Clouds 23 1010 47 10000 4.1 350 18:22 04.08.2019
4230 Clouds 23 1010 47 10000 4.1 350 18:22 04.08.2019
4231 Clouds 24 1010 41 10000 7.7 310 17:59 04.08.2019
4232 Clouds 24 1010 41 10000 7.7 310 17:40 04.08.2019
4233 Clouds 25 1009 47 10000 5.7 20 17:21 04.08.2019
4234 Clouds 26 1010 36 10000 7.7 310 16:44 04.08.2019
4235 Clouds 26 1009 42 10000 6.2 350 16:26 04.08.2019
4236 Clouds 28 1009 34 10000 7.7 320 15:45 04.08.2019
4237 Clouds 28 1008 37 10000 6.2 310 15:23 04.08.2019
4238 Clouds 29 1009 32 10000 5.7 290 14:57 04.08.2019
4239 Clouds 29 1009 32 10000 5.7 290 14:39 04.08.2019
4240 Clouds 29 1009 37 10000 6.7 270 14:20 04.08.2019
4241 Clouds 29 1009 30 10000 7.7 260 13:43 04.08.2019
4242 Clouds 29 1009 30 10000 7.7 260 13:43 04.08.2019
4243 Clouds 28 1009 35 10000 5.1 250 13:23 04.08.2019
4244 Clouds 27 1009 36 10000 5.7 250 12:46 04.08.2019
4245 Clouds 27 1009 44 10000 6.7 280 12:27 04.08.2019
4246 Clouds 25 1010 38 10000 4.6 260 11:57 04.08.2019
4247 Clouds 25 1010 38 10000 4.6 260 11:37 04.08.2019
4248 Clouds 25 1009 44 10000 3.6 0 11:19 04.08.2019
4249 Clouds 25 1009 44 10000 3.6 0 11:19 04.08.2019
4250 Clouds 25 1010 41 10000 5.1 260 10:41 04.08.2019
4251 Clouds 25 1010 41 10000 4.1 250 10:21 04.08.2019
4252 Rain 26 1010 34 10000 2.6 170 09:45 04.08.2019
4253 Clear 25 1009 44 10000 1.5 0 09:22 04.08.2019
4254 Clouds 24 1010 38 10000 2.1 190 08:47 04.08.2019
4255 Clear 23 1010 44 10000 2.1 260 08:26 04.08.2019
4256 Clouds 22 1010 49 10000 1.5 0 07:52 04.08.2019
4257 Clear 21 1010 49 10000 1 0 07:20 04.08.2019
4258 Clear 18 1009 59 10000 0.5 0 06:28 04.08.2019
4259 Clear 17 1008 67 10000 1.5 230 04:29 04.08.2019
4260 Clear 19 1009 52 10000 1 0 02:43 04.08.2019
4261 Clear 20 1009 52 10000 0.5 0 01:44 04.08.2019
4262 Clear 20 1008 56 10000 2.6 260 01:25 04.08.2019
4263 Clear 21 1009 45 10000 1 0 00:41 04.08.2019
4264 Clear 22 1009 46 10000 1 0 00:19 04.08.2019
4265 Clear 23 1009 40 10000 1.5 200 23:41 03.08.2019
4266 Clear 23 1008 47 10000 2.1 230 23:18 03.08.2019
4267 Clear 25 1009 40 10000 3.1 40 22:45 03.08.2019
4268 Clear 25 1009 40 10000 3.1 40 22:45 03.08.2019
4269 Clear 24 1008 36 10000 1.5 230 22:22 03.08.2019
4270 Clear 25 1009 31 10000 1.5 340 21:59 03.08.2019
4271 Clear 25 1009 31 10000 1.5 340 21:37 03.08.2019
4272 Clear 26 1008 36 10000 1 240 21:19 03.08.2019
4273 Clear 27 1007 26 10000 1 220 20:42 03.08.2019
4274 Clear 27 1007 26 10000 1 220 20:22 03.08.2019
4275 Clouds 28 1008 22 10000 2.1 210 19:42 03.08.2019
4276 Clear 28 1007 25 10000 3.1 240 19:24 03.08.2019
4277 Clouds 30 1008 18 10000 3.1 250 18:53 03.08.2019
4278 Clear 30 1007 20 10000 3.1 240 18:27 03.08.2019
4279 Clouds 31 1008 21 10000 4.6 240 17:49 03.08.2019
4280 Clear 31 1007 18 10000 4.1 240 17:22 03.08.2019
4281 Clouds 31 1008 16 10000 2.1 200 16:56 03.08.2019
4282 Clouds 31 1008 16 10000 2.1 200 16:37 03.08.2019
4283 Clouds 32 1008 20 10000 3.6 240 16:19 03.08.2019
4284 Clouds 32 1009 15 10000 4.1 250 15:43 03.08.2019
4285 Clouds 32 1008 19 10000 2.1 0 15:23 03.08.2019
4286 Clouds 31 1009 22 10000 3.1 0 14:41 03.08.2019
4287 Clouds 31 1009 19 10000 2.6 0 14:21 03.08.2019
4288 Clouds 31 1009 19 10000 2.6 0 14:21 03.08.2019
4289 Clouds 30 1010 22 10000 2.6 0 13:51 03.08.2019
4290 Clouds 30 1009 28 10000 2.1 0 13:25 03.08.2019
4291 Clouds 29 1010 28 10000 2.1 0 12:57 03.08.2019
4292 Clouds 29 1010 28 10000 2.1 0 12:39 03.08.2019
4293 Clouds 29 1010 35 10000 2.1 0 12:21 03.08.2019
4294 Clouds 28 1011 32 10000 2.6 0 11:48 03.08.2019
4295 Clouds 28 1010 42 10000 2.1 0 11:26 03.08.2019
4296 Clouds 27 1011 39 10000 2.1 0 10:41 03.08.2019
4297 Clouds 26 1011 44 10000 2.1 0 10:22 03.08.2019
4298 Clouds 25 1012 44 10000 2.1 0 09:42 03.08.2019
4299 Clear 25 1011 50 10000 1 0 09:21 03.08.2019
4300 Clear 23 1012 49 10000 1 0 08:51 03.08.2019
4301 Clear 21 1012 60 10000 1 0 07:52 03.08.2019
4302 Clear 21 1012 64 10000 1 0 07:31 03.08.2019
4303 Clear 19 1012 68 10000 1.5 50 06:36 03.08.2019
4304 Clear 18 1012 72 10000 1 0 04:41 03.08.2019
4305 Clear 19 1012 72 10000 2.6 350 02:38 03.08.2019
4306 Clear 20 1012 68 10000 2.1 10 01:42 03.08.2019
4307 Clear 21 1013 64 10000 2.6 360 00:49 03.08.2019
4308 Clear 22 1013 60 10000 3.6 40 23:59 02.08.2019
4309 Clear 22 1013 60 10000 3.6 40 23:40 02.08.2019
4310 Clear 22 1012 50 10000 3.1 20 23:19 02.08.2019
4311 Clouds 23 1013 53 10000 4.1 30 22:56 02.08.2019
4312 Clouds 23 1013 53 10000 4.1 30 22:38 02.08.2019
4313 Clear 23 1012 47 10000 2.6 350 22:19 02.08.2019
4314 Clouds 24 1013 49 10000 4.1 10 21:43 02.08.2019
4315 Clear 24 1013 47 10000 2.6 0 21:24 02.08.2019
4316 Clouds 25 1013 44 10000 4.6 20 20:57 02.08.2019
4317 Clouds 25 1013 44 10000 4.6 20 20:39 02.08.2019
4318 Clouds 25 1012 44 10000 4.1 340 20:20 02.08.2019
4319 Clouds 27 1012 39 10000 5.7 10 19:45 02.08.2019
4320 Clouds 27 1011 37 10000 4.6 360 19:25 02.08.2019
4321 Clouds 29 1011 32 10000 7.2 10 18:44 02.08.2019
4322 Clouds 29 1010 33 10000 3.6 360 18:25 02.08.2019
4323 Clouds 30 1011 30 10000 5.7 10 17:44 02.08.2019
4324 Clouds 31 1010 27 10000 3.1 360 17:24 02.08.2019
4325 Clouds 31 1011 27 10000 6.7 40 16:58 02.08.2019
4326 Clouds 31 1011 27 10000 6.7 40 16:38 02.08.2019
4327 Clouds 31 1011 29 10000 3.6 0 16:18 02.08.2019
4328 Clouds 32 1011 19 10000 3.6 310 15:39 02.08.2019
4329 Clouds 32 1011 24 10000 4.6 360 15:19 02.08.2019
4330 Clouds 32 1011 25 10000 4.1 310 14:46 02.08.2019
4331 Clouds 31 1011 24 10000 2.1 240 14:18 02.08.2019
4332 Clouds 31 1011 24 10000 2.1 240 14:18 02.08.2019
4333 Clouds 31 1012 28 10000 2.6 0 13:48 02.08.2019
4334 Clouds 31 1011 25 10000 2.1 340 13:26 02.08.2019
4335 Clouds 30 1012 28 10000 2.6 20 12:45 02.08.2019
4336 Clouds 30 1012 28 10000 3.1 0 12:22 02.08.2019
4337 Clouds 29 1013 32 10000 3.1 340 11:53 02.08.2019
4338 Clouds 29 1012 28 10000 3.1 0 11:34 02.08.2019
4339 Clouds 28 1013 32 10000 1.5 20 10:57 02.08.2019
4340 Clouds 28 1013 32 10000 1.5 20 10:39 02.08.2019
4341 Clouds 28 1012 39 10000 2.1 0 10:20 02.08.2019
4342 Clouds 26 1013 39 10000 3.1 350 09:52 02.08.2019
4343 Clear 26 1012 44 10000 1 0 09:25 02.08.2019
4344 Clear 25 1013 44 10000 3.6 10 08:49 02.08.2019
4345 Clear 25 1013 44 10000 3.6 10 08:49 02.08.2019
4346 Clear 24 1012 50 10000 1 0 08:22 02.08.2019
4347 Clear 22 1013 49 10000 2.6 10 07:50 02.08.2019
4348 Clear 22 1012 60 10000 1 0 07:31 02.08.2019
4349 Clear 19 1013 60 10000 2.6 350 06:46 02.08.2019
4350 Clear 18 1013 68 10000 2.1 40 05:52 02.08.2019
4351 Clear 18 1013 68 10000 2.1 40 05:52 02.08.2019
4352 Clear 19 1012 72 10000 0.5 0 05:25 02.08.2019
4353 Clear 19 1012 72 10000 2.1 230 03:28 02.08.2019
4354 Clear 20 1012 64 10000 1 0 02:33 02.08.2019
4355 Clear 22 1013 60 10000 3.1 10 00:40 02.08.2019
4356 Clear 23 1013 60 10000 3.6 20 23:47 01.08.2019
4357 Clear 23 1012 53 10000 1.5 0 23:28 01.08.2019
4358 Clear 23 1012 56 10000 3.1 330 22:59 01.08.2019
4359 Clear 23 1011 50 10000 2.6 260 22:39 01.08.2019
4360 Clear 24 1011 50 10000 2.6 260 22:20 01.08.2019
4361 Clear 25 1012 47 10000 2.1 20 21:43 01.08.2019
4362 Clear 26 1011 39 10000 1 250 21:24 01.08.2019
4363 Clear 26 1012 41 10000 2.6 20 20:55 01.08.2019
4364 Clouds 26 1011 42 10000 2.1 330 20:37 01.08.2019
4365 Clouds 26 1011 42 10000 2.1 330 20:19 01.08.2019
4366 Clouds 28 1011 34 10000 4.6 10 19:41 01.08.2019
4367 Clouds 28 1010 35 10000 3.1 360 19:19 01.08.2019
4368 Clouds 30 1011 28 10000 5.7 360 18:44 01.08.2019
4369 Clouds 29 1010 33 10000 4.1 20 18:24 01.08.2019
4370 Clouds 30 1011 28 10000 5.7 360 17:52 01.08.2019
4371 Clouds 30 1010 33 10000 5.7 20 17:33 01.08.2019
4372 Clouds 30 1011 30 10000 9.3 20 16:59 01.08.2019
4373 Clouds 30 1011 30 10000 9.3 20 16:40 01.08.2019
4374 Clouds 31 1010 33 10000 5.7 20 16:20 01.08.2019
4375 Clouds 33 1009 21 10000 3.1 0 15:41 01.08.2019
4376 Clouds 33 1009 21 10000 3.1 0 15:20 01.08.2019
4377 Clouds 33 1010 24 10000 2.1 0 14:43 01.08.2019
4378 Clouds 33 1009 24 10000 3.1 0 14:20 01.08.2019
4379 Clouds 33 1011 28 10000 3.1 220 13:58 01.08.2019
4380 Clouds 33 1010 24 10000 3.1 0 13:40 01.08.2019
4381 Clouds 33 1010 24 10000 3.1 0 13:21 01.08.2019
4382 Clouds 32 1011 25 10000 2.6 0 12:48 01.08.2019
4383 Clouds 31 1011 29 10000 2.6 0 12:27 01.08.2019
4384 Clouds 31 1012 31 10000 2.1 0 11:44 01.08.2019
4385 Clouds 30 1011 35 10000 2.6 0 11:25 01.08.2019
4386 Clouds 29 1012 35 10000 2.6 280 10:57 01.08.2019
4387 Clouds 29 1012 35 10000 2.6 280 10:39 01.08.2019
4388 Clouds 29 1011 37 10000 2.1 0 10:21 01.08.2019
4389 Clear 28 1013 42 10000 2.6 30 09:45 01.08.2019
4390 Clear 27 1012 45 10000 3.1 60 09:23 01.08.2019
4391 Clear 26 1013 44 10000 5.1 50 08:47 01.08.2019
4392 Clear 25 1012 50 10000 3.1 70 08:21 01.08.2019
4393 Clear 23 1013 53 10000 5.7 10 07:52 01.08.2019
4394 Clear 23 1013 53 10000 5.7 10 07:52 01.08.2019
4395 Clear 23 1012 56 10000 0.5 0 07:28 01.08.2019
4396 Clear 21 1013 60 10000 6.2 10 06:49 01.08.2019
4397 Clear 20 1012 64 10000 2.61 58.614 06:29 01.08.2019
4398 Clear 19 1012 68 10000 1 0 05:31 01.08.2019
4399 Clear 21 1012 60 10000 4.6 20 02:35 01.08.2019
4400 Clear 22 1012 56 10000 3.1 10 00:51 01.08.2019
4401 Clear 22 1011 56 10000 1 240 00:26 01.08.2019
4402 Clear 22 1011 56 10000 1 240 00:26 01.08.2019
4403 Clear 23 1012 49 10000 3.6 20 23:55 31.07.2019
4404 Clear 23 1012 49 10000 3.6 20 23:36 31.07.2019
4405 Clear 23 1011 50 10000 1 0 23:18 31.07.2019
4406 Clear 24 1012 46 10000 4.1 30 22:42 31.07.2019
4407 Clear 25 1011 44 10000 1 0 22:23 31.07.2019
4408 Clear 26 1011 44 10000 1 0 21:40 31.07.2019
4409 Clear 26 1011 44 10000 1 0 21:22 31.07.2019
4410 Clouds 26 1012 39 10000 3.1 360 20:49 31.07.2019
4411 Clouds 27 1011 36 10000 5.1 360 20:23 31.07.2019
4412 Clouds 28 1010 34 10000 5.7 10 19:48 31.07.2019
4413 Clear 28 1010 39 10000 5.7 320 19:29 31.07.2019
4414 Clouds 31 1010 28 10000 5.7 10 18:55 31.07.2019
4415 Clear 31 1009 25 10000 2.1 260 18:37 31.07.2019
4416 Clear 31 1009 25 10000 2.1 260 18:18 31.07.2019
4417 Clouds 32 1010 20 10000 0.5 0 17:43 31.07.2019
4418 Clouds 32 1009 18 10000 2.1 290 17:20 31.07.2019
4419 Clouds 32 1009 18 10000 3.1 230 16:48 31.07.2019
4420 Clouds 32 1009 27 10000 2.1 0 16:21 31.07.2019
4421 Clouds 32 1010 19 10000 3.6 250 15:54 31.07.2019
4422 Clouds 32 1009 27 10000 3.1 260 15:36 31.07.2019
4423 Clouds 32 1009 27 10000 3.1 260 15:18 31.07.2019
4424 Clouds 31 1010 25 10000 2.6 160 14:42 31.07.2019
4425 Clouds 31 1010 24 10000 2.6 30 14:19 31.07.2019
4426 Clouds 31 1010 23 10000 3.1 220 13:45 31.07.2019
4427 Clouds 30 1010 25 10000 1 0 13:27 31.07.2019
4428 Clouds 30 1011 27 10000 2.6 0 12:57 31.07.2019
4429 Clouds 30 1011 27 10000 2.6 0 12:38 31.07.2019
4430 Clear 29 1011 28 10000 2.1 0 12:18 31.07.2019
4431 Clouds 28 1011 28 10000 2.1 0 11:39 31.07.2019
4432 Clear 28 1011 34 10000 1.5 0 11:20 31.07.2019
4433 Clouds 27 1012 34 10000 2.6 210 10:44 31.07.2019
4434 Clear 27 1011 37 10000 2.1 220 10:21 31.07.2019
4435 Clear 25 1012 36 10000 2.1 220 09:57 31.07.2019
4436 Clear 25 1012 36 10000 2.1 220 09:38 31.07.2019
4437 Clear 25 1011 47 10000 2.1 10 09:20 31.07.2019
4438 Clear 23 1012 44 10000 1 0 08:42 31.07.2019
4439 Clear 23 1012 53 10000 2.1 0 08:22 31.07.2019
4440 Clear 21 1012 56 10000 0.5 0 07:37 31.07.2019
4441 Clear 18 1012 67 10000 1.5 290 06:44 31.07.2019
4442 Clear 18 1011 72 10000 0.5 0 04:56 31.07.2019
4443 Clear 19 1010 68 10000 2.1 220 03:29 31.07.2019
4444 Clear 22 1010 53 10000 1 0 00:24 31.07.2019
4445 Clear 22 1011 56 10000 1.5 320 23:40 30.07.2019
4446 Clear 22 1010 56 10000 1 0 23:20 30.07.2019
4447 Clear 23 1010 56 10000 1.5 320 22:46 30.07.2019
4448 Clear 23 1010 56 10000 1.5 320 22:46 30.07.2019
4449 Clear 23 1010 56 10000 1.5 310 22:25 30.07.2019
4450 Clear 24 1010 53 10000 2.1 50 21:56 30.07.2019
4451 Clear 24 1009 50 10000 4.1 40 21:36 30.07.2019
4452 Clear 25 1009 50 10000 4.1 40 21:18 30.07.2019
4453 Clear 25 1010 47 10000 2.6 340 20:42 30.07.2019
4454 Clear 25 1009 50 10000 5.1 310 20:24 30.07.2019
4455 Clear 25 1009 50 10000 5.1 310 20:24 30.07.2019
4456 Clear 27 1008 41 10000 4.1 290 19:58 30.07.2019
4457 Clear 27 1008 41 10000 4.1 290 19:39 30.07.2019
4458 Clouds 30 1007 28 10000 5.1 280 18:58 30.07.2019
4459 Clouds 30 1007 28 10000 5.1 280 18:38 30.07.2019
4460 Clear 30 1007 29 10000 3.1 0 18:18 30.07.2019
4461 Clouds 32 1007 20 10000 6.2 260 17:41 30.07.2019
4462 Clear 32 1006 25 10000 4.6 240 17:19 30.07.2019
4463 Clear 32 1006 25 10000 4.6 240 17:19 30.07.2019
4464 Clouds 32 1007 18 10000 6.2 230 16:51 30.07.2019
4465 Clouds 32 1006 21 10000 6.7 240 16:21 30.07.2019
4466 Clouds 33 1007 15 10000 8.2 230 15:58 30.07.2019
4467 Clouds 33 1007 15 10000 8.2 230 15:37 30.07.2019
4468 Clouds 33 1007 21 10000 5.7 250 15:18 30.07.2019
4469 Clouds 32 1008 18 10000 7.2 230 14:42 30.07.2019
4470 Clouds 32 1007 21 10000 6.7 250 14:20 30.07.2019
4471 Clouds 32 1008 19 10000 8.2 230 13:47 30.07.2019
4472 Clouds 32 1007 22 10000 6.2 240 13:29 30.07.2019
4473 Clouds 32 1008 22 10000 7.7 220 12:58 30.07.2019
4474 Clouds 32 1008 22 10000 7.7 220 12:39 30.07.2019
4475 Clear 32 1007 25 10000 6.7 250 12:21 30.07.2019
4476 Clouds 31 1008 20 10000 7.2 240 11:40 30.07.2019
4477 Clear 31 1007 27 10000 6.2 250 11:20 30.07.2019
4478 Clouds 30 1008 23 10000 7.7 230 10:46 30.07.2019
4479 Clouds 30 1008 29 10000 4.6 260 10:27 30.07.2019
4480 Clear 28 1008 28 10000 5.7 220 09:50 30.07.2019
4481 Clear 28 1008 39 10000 1.5 0 09:32 30.07.2019
4482 Clear 27 1009 36 10000 3.1 200 08:58 30.07.2019
4483 Clear 26 1008 42 10000 1.5 0 08:31 30.07.2019
4484 Clear 24 1008 41 10000 2.77 263.147 07:48 30.07.2019
4485 Clear 24 1008 47 10000 2.77 263.147 07:29 30.07.2019
4486 Clear 20 1008 49 10000 2.77 263.147 06:48 30.07.2019
4487 Clear 20 1007 60 10000 1.39 218.634 06:22 30.07.2019
4488 Clear 17 1007 60 10000 1.39 218.634 05:33 30.07.2019
4489 Clear 20 1007 52 10000 1.3 325.235 03:28 30.07.2019
4490 Clear 23 1006 50 10000 2.1 250 01:20 30.07.2019
4491 Clear 22 1006 40 10000 3.1 250 00:21 30.07.2019
4492 Clear 23 1007 45 10000 1.5 260 23:46 29.07.2019
4493 Clear 23 1006 40 10000 1 0 23:27 29.07.2019
4494 Clear 24 1007 37 10000 1 0 22:57 29.07.2019
4495 Clear 23 1007 37 10000 1 0 22:38 29.07.2019
4496 Clear 24 1006 38 10000 1.5 220 22:20 29.07.2019
4497 Clear 24 1007 33 10000 1.5 340 21:57 29.07.2019
4498 Clear 25 1007 33 10000 1.5 340 21:38 29.07.2019
4499 Clear 26 1005 28 10000 2.1 30 21:20 29.07.2019
4500 Clear 26 1005 28 10000 2.1 30 21:20 29.07.2019
4501 Clear 27 1007 26 10000 4.1 80 20:48 29.07.2019
4502 Clear 28 1005 28 10000 0.5 240 20:25 29.07.2019
4503 Clear 31 1007 23 10000 1 0 19:57 29.07.2019
4504 Clear 31 1007 23 10000 1 0 19:37 29.07.2019
4505 Clear 32 1005 19 10000 0.5 0 19:19 29.07.2019
4506 Clear 34 1005 20 10000 2.1 270 18:42 29.07.2019
4507 Clear 34 1005 20 10000 2.1 270 18:22 29.07.2019
4508 Clear 34 1006 15 10000 4.1 240 17:52 29.07.2019
4509 Clear 34 1005 20 10000 3.1 0 17:34 29.07.2019
4510 Clear 35 1006 14 10000 4.6 230 16:59 29.07.2019
4511 Clear 35 1006 14 10000 4.6 230 16:40 29.07.2019
4512 Clear 35 1006 17 10000 2.1 310 16:22 29.07.2019
4513 Clouds 35 1007 14 10000 5.1 240 15:52 29.07.2019
4514 Clouds 35 1007 14 10000 5.1 240 15:52 29.07.2019
4515 Clear 34 1006 19 10000 2.6 200 15:32 29.07.2019
4516 Clouds 34 1007 16 10000 5.1 220 14:56 29.07.2019
4517 Clouds 34 1007 16 10000 5.1 220 14:56 29.07.2019
4518 Clouds 34 1007 16 10000 5.1 220 14:37 29.07.2019
4519 Clear 34 1006 19 10000 4.6 250 14:18 29.07.2019
4520 Clouds 33 1007 17 10000 6.2 220 13:41 29.07.2019
4521 Clear 33 1007 22 10000 6.2 240 13:23 29.07.2019
4522 Clouds 33 1008 17 10000 4.6 220 12:42 29.07.2019
4523 Clear 33 1007 21 10000 4.1 200 12:23 29.07.2019
4524 Clouds 31 1008 18 10000 5.7 210 11:43 29.07.2019
4525 Clear 30 1009 27 10000 4.1 250 11:22 29.07.2019
4526 Clear 29 1009 21 10000 4.1 190 10:46 29.07.2019
4527 Clear 28 1009 24 10000 2.6 240 10:25 29.07.2019
4528 Clear 27 1009 26 10000 1 0 09:50 29.07.2019
4529 Clear 27 1009 30 10000 1.5 0 09:28 29.07.2019
4530 Clear 24 1010 33 10000 1 0 08:57 29.07.2019
4531 Clear 25 1009 36 10000 3.1 70 08:31 29.07.2019
4532 Clear 22 1010 43 10000 1.5 0 07:58 29.07.2019
4533 Clear 22 1009 46 10000 2.6 90 07:36 29.07.2019
4534 Clear 19 1010 55 10000 0.5 0 06:53 29.07.2019
4535 Clear 16 1010 58 10000 0.5 0 05:46 29.07.2019
4536 Clear 17 1010 58 10000 1 0 04:51 29.07.2019
4537 Clear 19 1009 37 10000 2.63 34.404 02:26 29.07.2019
4538 Clear 20 1010 52 10000 1.5 360 01:41 29.07.2019
4539 Clear 20 1009 37 10000 2.54 38.314 01:21 29.07.2019
4540 Clear 21 1010 42 10000 4.1 20 00:43 29.07.2019
4541 Clear 21 1009 38 10000 3.55 39.907 00:20 29.07.2019
4542 Clear 22 1010 37 10000 4.6 20 23:40 28.07.2019
4543 Clear 22 1009 33 10000 2.1 120 23:18 28.07.2019
4544 Clear 24 1010 37 10000 3.6 10 22:39 28.07.2019
4545 Clear 24 1008 28 10000 3.55 39.907 22:21 28.07.2019
4546 Clear 25 1010 35 10000 3.1 20 21:46 28.07.2019
4547 Clear 25 1008 31 10000 3.89 357.51 21:19 28.07.2019
4548 Clear 26 1009 27 10000 3.6 20 20:47 28.07.2019
4549 Clear 26 1008 30 10000 1 0 20:29 28.07.2019
4550 Clouds 29 1009 26 10000 4.6 90 19:42 28.07.2019
4551 Clear 29 1007 22 10000 1 230 19:22 28.07.2019
4552 Clouds 31 1008 21 10000 5.7 80 18:58 28.07.2019
4553 Clear 32 1007 21 10000 2.1 240 18:38 28.07.2019
4554 Clear 32 1007 21 10000 2.1 240 18:38 28.07.2019
4555 Clear 32 1007 21 10000 2.1 240 18:18 28.07.2019
4556 Clouds 32 1008 18 10000 2.6 220 17:41 28.07.2019
4557 Clear 32 1007 21 10000 3.1 240 17:21 28.07.2019
4558 Clouds 32 1008 18 10000 3.1 230 16:57 28.07.2019
4559 Clouds 32 1008 18 10000 3.1 230 16:38 28.07.2019
4560 Clear 32 1007 19 10000 2.1 200 16:19 28.07.2019
4561 Clouds 32 1008 18 10000 2.6 240 15:42 28.07.2019
4562 Clear 32 1008 19 10000 1.5 0 15:21 28.07.2019
4563 Clouds 32 1009 19 10000 2.6 0 14:37 28.07.2019
4564 Clouds 32 1009 19 10000 2.6 0 14:37 28.07.2019
4565 Clear 32 1008 21 10000 2.1 0 14:19 28.07.2019
4566 Clouds 30 1009 21 10000 2.6 140 13:44 28.07.2019
4567 Clear 30 1009 23 10000 2.6 0 13:23 28.07.2019
4568 Clouds 30 1010 23 10000 3.6 290 12:59 28.07.2019
4569 Clouds 30 1010 23 10000 3.6 290 12:40 28.07.2019
4570 Clear 29 1009 25 10000 2.6 0 12:22 28.07.2019
4571 Clouds 28 1010 24 10000 1.5 270 11:46 28.07.2019
4572 Clear 28 1010 26 10000 1.5 0 11:27 28.07.2019
4573 Clear 28 1010 26 10000 1.5 0 11:27 28.07.2019
4574 Clear 27 1011 22 10000 2.1 0 10:40 28.07.2019
4575 Clear 27 1010 28 10000 2.1 0 10:21 28.07.2019
4576 Clear 25 1011 27 10000 2.1 30 09:45 28.07.2019
4577 Clear 24 1011 31 10000 3.1 10 09:27 28.07.2019
4578 Clear 23 1011 33 10000 3.6 360 08:51 28.07.2019
4579 Clear 23 1011 35 10000 2.6 90 08:28 28.07.2019
4580 Clear 21 1011 40 10000 4.1 10 07:53 28.07.2019
4581 Clear 21 1011 40 10000 0.5 0 07:35 28.07.2019
4582 Clear 18 1011 52 10000 1.5 110 06:41 28.07.2019
4583 Clear 17 1010 67 10000 1.5 240 05:27 28.07.2019
4584 Clear 18 1010 59 10000 0.5 0 03:30 28.07.2019
4585 Clear 20 1010 49 10000 2.1 220 02:23 28.07.2019
4586 Clear 21 1010 43 10000 3.1 70 01:19 28.07.2019
4587 Clear 22 1011 49 10000 4.6 10 00:44 28.07.2019
4588 Clear 21 1011 49 10000 4.6 30 00:18 28.07.2019
4589 Clear 22 1011 43 10000 4.6 20 23:44 27.07.2019
4590 Clear 23 1010 37 10000 5.7 20 23:19 27.07.2019
4591 Clear 23 1010 37 10000 5.7 20 23:19 27.07.2019
4592 Clear 24 1010 35 10000 5.1 20 22:40 27.07.2019
4593 Clear 24 1010 37 10000 3.1 10 22:19 27.07.2019
4594 Clouds 24 1010 35 10000 4.1 40 21:39 27.07.2019
4595 Clear 25 1009 36 10000 2.1 230 21:20 27.07.2019
4596 Clear 25 1009 36 10000 2.1 230 21:20 27.07.2019
4597 Clouds 26 1010 31 10000 3.1 10 20:50 27.07.2019
4598 Clear 26 1008 34 10000 1.5 240 20:25 27.07.2019
4599 Clouds 28 1009 28 10000 3.6 100 19:46 27.07.2019
4600 Clear 28 1007 26 10000 1 220 19:26 27.07.2019
4601 Clouds 30 1008 25 10000 3.6 60 18:54 27.07.2019
4602 Clouds 30 1008 25 10000 3.6 60 18:36 27.07.2019
4603 Clouds 31 1009 23 10000 2.1 0 17:57 27.07.2019
4604 Clouds 31 1009 23 10000 2.1 0 17:36 27.07.2019
4605 Clear 31 1008 23 10000 0.5 0 17:18 27.07.2019
4606 Clouds 31 1009 23 10000 2.6 340 16:42 27.07.2019
4607 Clear 31 1008 23 10000 2.1 130 16:23 27.07.2019
4608 Clouds 31 1009 23 10000 2.1 30 15:52 27.07.2019
4609 Clear 31 1009 23 10000 3.1 240 15:21 27.07.2019
4610 Clear 31 1009 23 10000 3.1 240 15:21 27.07.2019
4611 Clouds 30 1010 23 10000 2.6 150 14:51 27.07.2019
4612 Clear 30 1009 25 10000 2.1 0 14:31 27.07.2019
4613 Clouds 29 1010 21 10000 3.6 50 13:56 27.07.2019
4614 Clouds 29 1010 21 10000 3.6 50 13:37 27.07.2019
4615 Clear 29 1010 27 10000 1.5 0 13:18 27.07.2019
4616 Clouds 28 1011 28 10000 3.1 20 12:41 27.07.2019
4617 Clear 28 1011 28 10000 2.6 0 12:21 27.07.2019
4618 Clouds 27 1011 29 10000 2.6 60 11:42 27.07.2019
4619 Clear 26 1011 32 10000 1.5 0 11:24 27.07.2019
4620 Clouds 26 1012 29 10000 1.5 0 10:42 27.07.2019
4621 Clear 25 1012 38 10000 1 0 10:23 27.07.2019
4622 Clear 24 1012 36 10000 2.1 50 09:43 27.07.2019
4623 Clear 24 1012 38 10000 1 0 09:24 27.07.2019
4624 Clear 22 1013 43 10000 1.5 0 08:53 27.07.2019
4625 Clear 22 1013 43 10000 1.5 0 08:53 27.07.2019
4626 Clear 22 1012 43 10000 2.1 110 08:34 27.07.2019
4627 Clear 20 1013 52 10000 1.5 50 07:58 27.07.2019
4628 Clear 20 1013 52 10000 1.5 50 07:40 27.07.2019
4629 Clear 20 1012 52 10000 1.93 71.603 07:20 27.07.2019
4630 Clear 17 1013 59 10000 1.5 50 06:49 27.07.2019
4631 Clear 17 1013 59 10000 1.5 50 06:49 27.07.2019
4632 Clear 16 1012 63 10000 1.74 52.801 06:21 27.07.2019
4633 Clear 15 1012 62 10000 0.5 0 05:35 27.07.2019
4634 Clear 16 1012 67 10000 3.1 40 04:46 27.07.2019
4635 Clear 16 1012 67 10000 3.6 20 03:46 27.07.2019
4636 Clear 17 1013 63 10000 4.6 30 02:43 27.07.2019
4637 Clear 18 1013 55 10000 5.7 10 01:57 27.07.2019
4638 Clear 18 1013 55 10000 5.7 10 01:57 27.07.2019
4639 Clear 18 1012 52 10000 2.1 230 01:32 27.07.2019
4640 Clear 19 1013 52 10000 5.7 20 00:38 27.07.2019
4641 Clear 19 1012 48 10000 1.5 230 00:19 27.07.2019
4642 Clear 19 1013 42 10000 5.7 30 23:42 26.07.2019
4643 Clear 19 1012 48 10000 0.5 0 23:23 26.07.2019
4644 Clear 21 1013 37 10000 2.6 10 22:43 26.07.2019
4645 Clear 22 1012 31 10000 2.1 60 22:25 26.07.2019
4646 Clear 23 1013 32 10000 3.1 20 21:52 26.07.2019
4647 Clear 23 1012 31 10000 3.1 80 21:20 26.07.2019
4648 Clear 23 1013 27 10000 0.5 0 20:52 26.07.2019
4649 Clear 24 1012 31 10000 4.6 60 20:33 26.07.2019
4650 Clear 26 1013 27 10000 3.6 100 19:55 26.07.2019
4651 Clear 26 1012 26 10000 2.1 250 19:36 26.07.2019
4652 Clear 27 1012 26 10000 2.1 250 19:18 26.07.2019
4653 Clouds 29 1013 26 10000 5.1 80 18:41 26.07.2019
4654 Clear 28 1012 23 10000 2.1 280 18:21 26.07.2019
4655 Clouds 29 1013 20 10000 2.1 30 17:56 26.07.2019
4656 Clouds 29 1013 20 10000 2.1 30 17:37 26.07.2019
4657 Clear 29 1012 23 10000 3.1 260 17:18 26.07.2019
4658 Clouds 29 1013 23 10000 1.5 0 16:41 26.07.2019
4659 Clouds 29 1013 26 10000 4.1 280 16:21 26.07.2019
4660 Clouds 29 1014 23 10000 2.6 60 15:59 26.07.2019
4661 Clouds 29 1014 23 10000 2.6 60 15:40 26.07.2019
4662 Clouds 29 1013 25 10000 2.1 0 15:20 26.07.2019
4663 Clouds 28 1015 21 10000 2.6 330 14:44 26.07.2019
4664 Clouds 28 1014 26 10000 2.6 0 14:24 26.07.2019
4665 Clouds 27 1015 26 10000 3.1 270 13:47 26.07.2019
4666 Clouds 27 1014 30 10000 1.5 0 13:28 26.07.2019
4667 Clouds 27 1015 28 10000 3.1 0 12:49 26.07.2019
4668 Clouds 26 1015 32 10000 2.6 360 12:23 26.07.2019
4669 Clouds 25 1016 36 10000 3.1 20 11:56 26.07.2019
4670 Clouds 25 1016 36 10000 3.1 20 11:37 26.07.2019
4671 Clouds 25 1016 38 10000 2.1 0 11:18 26.07.2019
4672 Clouds 24 1016 36 10000 2.6 0 10:39 26.07.2019
4673 Clouds 24 1016 41 10000 1 120 10:20 26.07.2019
4674 Clouds 23 1017 43 10000 2.6 0 09:50 26.07.2019
4675 Clouds 22 1017 46 10000 1.5 0 09:28 26.07.2019
4676 Clouds 21 1017 46 10000 1 0 08:41 26.07.2019
4677 Clear 21 1017 52 10000 0.5 0 08:21 26.07.2019
4678 Clear 18 1018 52 10000 2.1 30 07:40 26.07.2019
4679 Clear 18 1017 55 10000 0.5 0 07:22 26.07.2019
4680 Clear 16 1017 67 10000 1.5 230 06:30 26.07.2019
4681 Clear 14 1017 76 10000 1.5 230 04:30 26.07.2019
4682 Clear 14 1018 71 10000 3.1 10 03:53 26.07.2019
4683 Clear 16 1018 67 10000 2.1 40 01:49 26.07.2019
4684 Clear 16 1017 59 10000 2.1 230 01:24 26.07.2019
4685 Clear 17 1017 55 10000 1 0 00:29 26.07.2019
4686 Clear 18 1018 59 10000 2.6 330 23:46 25.07.2019
4687 Clear 18 1017 49 10000 2.7 14.247 23:20 25.07.2019
4688 Clear 18 1018 55 10000 2.6 350 22:42 25.07.2019
4689 Clear 19 1018 52 10000 1.5 260 22:23 25.07.2019
4690 Clear 20 1018 48 10000 4.6 10 21:56 25.07.2019
4691 Clear 20 1018 48 10000 4.6 10 21:37 25.07.2019
4692 Clear 21 1017 40 10000 3.1 20 21:19 25.07.2019
4693 Clear 22 1016 38 10000 3.1 10 20:40 25.07.2019
4694 Clear 22 1016 38 10000 3.1 10 20:20 25.07.2019
4695 Clouds 24 1017 35 10000 5.7 360 19:40 25.07.2019
4696 Clouds 24 1016 36 10000 4.1 10 19:22 25.07.2019
4697 Clouds 26 1016 31 10000 6.7 360 18:43 25.07.2019
4698 Clouds 25 1015 32 10000 3.1 350 18:25 25.07.2019
4699 Clouds 26 1016 31 10000 5.7 20 17:50 25.07.2019
4700 Clouds 26 1015 32 10000 4.1 0 17:32 25.07.2019
4701 Clouds 26 1016 31 10000 4.6 350 16:57 25.07.2019
4702 Clouds 26 1016 31 10000 4.6 350 16:39 25.07.2019
4703 Clouds 26 1015 30 10000 2.6 0 16:20 25.07.2019
4704 Clouds 26 1016 33 10000 5.1 360 15:48 25.07.2019
4705 Clouds 27 1015 32 10000 4.1 360 15:20 25.07.2019
4706 Clouds 26 1016 31 10000 3.6 350 14:43 25.07.2019
4707 Clouds 26 1015 34 10000 2.6 0 14:23 25.07.2019
4708 Clouds 26 1016 36 10000 4.1 360 13:56 25.07.2019
4709 Clouds 26 1016 39 10000 2.1 0 13:36 25.07.2019
4710 Clouds 26 1016 39 10000 2.1 0 13:18 25.07.2019
4711 Clouds 25 1016 44 10000 3.1 10 12:30 25.07.2019
4712 Clouds 24 1017 40 10000 4.1 320 11:54 25.07.2019
4713 Clouds 24 1017 40 10000 4.1 320 11:36 25.07.2019
4714 Clouds 24 1016 44 10000 3.1 10 11:18 25.07.2019
4715 Clouds 23 1017 46 10000 4.6 10 10:42 25.07.2019
4716 Clouds 23 1016 49 10000 1.5 0 10:23 25.07.2019
4717 Clouds 22 1017 46 10000 3.1 20 09:44 25.07.2019
4718 Clouds 22 1017 46 10000 3.1 20 09:44 25.07.2019
4719 Clouds 22 1016 53 10000 1 0 09:25 25.07.2019
4720 Clouds 21 1017 49 10000 3.1 360 08:44 25.07.2019
4721 Clouds 20 1016 53 10000 2.1 270 08:20 25.07.2019
4722 Clouds 20 1016 56 10000 3.6 40 07:37 25.07.2019
4723 Clouds 19 1016 59 10000 2.6 40 06:44 25.07.2019
4724 Clouds 17 1016 67 10000 2.1 350 05:53 25.07.2019
4725 Clouds 17 1015 72 10000 1.5 240 05:31 25.07.2019
4726 Clouds 18 1015 63 10000 0.5 0 04:39 25.07.2019
4727 Clear 19 1015 63 10000 1 0 02:21 25.07.2019
4728 Clear 18 1015 63 10000 0.5 90 01:21 25.07.2019
4729 Clear 19 1014 60 10000 1.5 250 00:22 25.07.2019
4730 Clouds 19 1014 55 10000 2.6 350 23:52 24.07.2019
4731 Clear 19 1014 60 10000 1.5 270 23:31 24.07.2019
4732 Clouds 20 1014 59 10000 3.1 330 22:58 24.07.2019
4733 Clouds 19 1014 55 10000 2.6 300 22:40 24.07.2019
4734 Clouds 20 1014 55 10000 2.6 300 22:21 24.07.2019
4735 Clouds 20 1014 52 10000 2.1 290 21:43 24.07.2019
4736 Clouds 21 1014 56 10000 4.1 330 21:22 24.07.2019
4737 Clouds 22 1014 46 10000 4.1 20 20:59 24.07.2019
4738 Clouds 22 1014 46 10000 4.1 20 20:39 24.07.2019
4739 Clouds 22 1013 49 10000 4.6 250 20:20 24.07.2019
4740 Clouds 23 1012 43 10000 4.1 330 19:55 24.07.2019
4741 Clouds 23 1012 47 10000 5.7 260 19:36 24.07.2019
4742 Clouds 23 1012 47 10000 5.7 260 19:18 24.07.2019
4743 Clouds 25 1011 21 10000 2.6 20 18:41 24.07.2019
4744 Clouds 25 1011 36 10000 3.6 300 18:23 24.07.2019
4745 Clouds 27 1011 21 10000 3.1 360 17:43 24.07.2019
4746 Clouds 27 1010 24 10000 3.6 250 17:20 24.07.2019
4747 Clouds 28 1011 20 10000 2.1 0 16:42 24.07.2019
4748 Clouds 28 1010 23 10000 3.1 0 16:22 24.07.2019
4749 Clouds 28 1011 22 10000 3.1 300 15:41 24.07.2019
4750 Clouds 28 1010 23 10000 2.6 230 15:23 24.07.2019
4751 Clouds 28 1011 22 10000 3.1 150 14:57 24.07.2019
4752 Clouds 28 1011 22 10000 3.1 150 14:38 24.07.2019
4753 Clouds 28 1011 22 10000 3.1 150 14:38 24.07.2019
4754 Clouds 28 1011 22 10000 3.1 150 14:38 24.07.2019
4755 Clouds 28 1011 22 10000 3.1 150 14:38 24.07.2019
4756 Clouds 27 1011 26 10000 4.1 0 14:19 24.07.2019
4757 Clouds 27 1011 21 10000 3.1 320 13:37 24.07.2019
4758 Clouds 27 1011 26 10000 1.5 0 13:19 24.07.2019
4759 Clouds 26 1012 24 10000 4.6 40 12:51 24.07.2019
4760 Clouds 26 1011 26 10000 2.1 0 12:32 24.07.2019
4761 Clouds 26 1012 23 10000 3.6 10 11:40 24.07.2019
4762 Clouds 26 1011 31 10000 1 0 11:20 24.07.2019
4763 Clouds 24 1012 27 10000 3.1 30 10:45 24.07.2019
4764 Clouds 24 1012 36 10000 2.1 0 10:25 24.07.2019
4765 Clouds 23 1013 33 10000 2.6 0 09:49 24.07.2019
4766 Clouds 23 1012 40 10000 2.6 70 09:26 24.07.2019
4767 Clear 22 1013 40 10000 4.1 90 08:58 24.07.2019
4768 Clear 22 1013 40 10000 4.1 90 08:58 24.07.2019
4769 Clear 21 1012 43 10000 3.1 90 08:32 24.07.2019
4770 Clear 19 1013 45 10000 4.1 20 07:52 24.07.2019
4771 Clear 18 1012 55 10000 1.8 38.082 07:31 24.07.2019
4772 Clear 17 1013 59 10000 1 0 06:36 24.07.2019
4773 Clear 17 1013 59 10000 1 0 06:36 24.07.2019
4774 Clear 15 1013 67 10000 1.5 30 05:56 24.07.2019
4775 Clear 16 1013 67 10000 3.1 20 02:54 24.07.2019
4776 Clear 17 1013 52 10000 0.5 0 01:31 24.07.2019
4777 Clear 19 1014 55 10000 3.1 40 00:57 24.07.2019
4778 Clear 19 1013 46 10000 2.1 70 00:24 24.07.2019
4779 Clear 20 1014 52 10000 4.1 20 23:45 23.07.2019
4780 Clear 21 1013 46 10000 3.6 60 23:25 23.07.2019
4781 Clouds 21 1014 49 10000 4.6 50 22:55 23.07.2019
4782 Clouds 21 1014 49 10000 4.6 50 22:36 23.07.2019
4783 Clear 21 1014 46 10000 1.5 300 22:18 23.07.2019
4784 Clouds 22 1014 43 10000 6.7 30 21:42 23.07.2019
4785 Clear 22 1012 38 10000 5.1 30 21:23 23.07.2019
4786 Clouds 24 1013 40 10000 6.7 20 20:48 23.07.2019
4787 Clouds 24 1012 36 10000 5.7 20 20:27 23.07.2019
4788 Clouds 26 1013 33 10000 8.2 10 19:43 23.07.2019
4789 Clouds 26 1011 28 10000 4.6 20 19:24 23.07.2019
4790 Clouds 27 1012 26 10000 6.7 10 18:53 23.07.2019
4791 Clouds 28 1011 24 10000 3.6 10 18:25 23.07.2019
4792 Clouds 29 1012 21 10000 6.2 40 17:58 23.07.2019
4793 Clouds 29 1012 21 10000 6.2 40 17:40 23.07.2019
4794 Clouds 29 1012 21 10000 4.6 50 17:20 23.07.2019
4795 Clouds 29 1012 20 10000 5.1 60 16:41 23.07.2019
4796 Clouds 29 1012 18 10000 5.1 20 16:22 23.07.2019
4797 Clouds 29 1012 20 10000 5.1 60 15:47 23.07.2019
4798 Clear 29 1012 20 10000 4.1 80 15:27 23.07.2019
4799 Clouds 29 1013 18 10000 6.2 50 14:41 23.07.2019
4800 Clear 29 1012 20 10000 3.1 30 14:22 23.07.2019
4801 Clouds 28 1013 21 10000 7.2 80 13:59 23.07.2019
4802 Clouds 28 1013 21 10000 7.2 80 13:40 23.07.2019
4803 Clear 28 1013 21 10000 3.1 0 13:22 23.07.2019
4804 Clouds 27 1014 21 10000 4.6 50 12:49 23.07.2019
4805 Clear 27 1013 22 10000 6.2 70 12:27 23.07.2019
4806 Clouds 27 1014 24 10000 5.7 40 11:55 23.07.2019
4807 Clouds 26 1014 24 10000 5.7 40 11:37 23.07.2019
4808 Clear 26 1014 26 10000 5.1 30 11:18 23.07.2019
4809 Clouds 25 1015 25 10000 5.7 50 10:41 23.07.2019
4810 Clear 25 1014 29 10000 7.2 40 10:22 23.07.2019
4811 Clouds 24 1015 27 10000 8.2 50 09:41 23.07.2019
4812 Clear 23 1015 33 10000 6.7 40 09:20 23.07.2019
4813 Clouds 21 1016 33 10000 5.7 30 08:43 23.07.2019
4814 Clear 21 1016 40 10000 2.1 120 08:20 23.07.2019
4815 Clear 21 1016 40 10000 2.1 120 08:20 23.07.2019
4816 Clear 19 1016 39 10000 2.1 20 07:56 23.07.2019
4817 Clear 19 1016 39 10000 2.1 20 07:36 23.07.2019
4818 Clear 16 1016 58 10000 1 0 06:50 23.07.2019
4819 Clear 16 1016 51 10000 3.79 25.354 06:30 23.07.2019
4820 Clear 15 1017 66 10000 1 0 03:39 23.07.2019
4821 Clear 16 1017 42 10000 2.1 40 01:34 23.07.2019
4822 Clear 17 1018 40 10000 2.6 50 00:31 23.07.2019
4823 Clear 19 1018 48 10000 5.7 30 23:56 22.07.2019
4824 Clear 19 1018 48 10000 5.7 30 23:36 22.07.2019
4825 Clear 19 1017 40 10000 3.6 50 23:18 22.07.2019
4826 Clear 20 1018 48 10000 5.7 30 22:42 22.07.2019
4827 Clear 20 1017 43 10000 3.6 50 22:21 22.07.2019
4828 Clouds 22 1018 40 10000 5.1 40 21:43 22.07.2019
4829 Clear 22 1017 38 10000 7.2 60 21:23 22.07.2019
4830 Clouds 23 1017 37 10000 5.7 50 20:51 22.07.2019
4831 Clear 24 1016 36 10000 7.2 60 20:33 22.07.2019
4832 Clouds 25 1017 31 10000 6.7 40 19:58 22.07.2019
4833 Clouds 25 1017 31 10000 6.7 40 19:38 22.07.2019
4834 Clouds 25 1016 30 10000 6.7 20 19:19 22.07.2019
4835 Clouds 27 1016 27 10000 8.2 50 18:46 22.07.2019
4836 Clouds 27 1015 26 10000 8.2 40 18:27 22.07.2019
4837 Clouds 27 1016 24 10000 8.2 40 17:55 22.07.2019
4838 Clouds 27 1016 24 10000 8.2 40 17:37 22.07.2019
4839 Clouds 27 1015 30 10000 6.7 40 17:18 22.07.2019
4840 Clouds 28 1016 26 10000 7.2 30 16:39 22.07.2019
4841 Clouds 28 1015 30 10000 5.7 30 16:20 22.07.2019
4842 Clouds 28 1017 28 10000 7.7 20 15:44 22.07.2019
4843 Clouds 28 1016 28 10000 5.7 30 15:20 22.07.2019
4844 Clouds 28 1017 26 10000 6.2 60 14:44 22.07.2019
4845 Clouds 29 1016 28 10000 6.2 50 14:24 22.07.2019
4846 Clouds 28 1017 28 10000 7.7 60 13:51 22.07.2019
4847 Clouds 28 1016 30 10000 4.6 40 13:31 22.07.2019
4848 Clouds 27 1017 28 10000 6.2 40 12:52 22.07.2019
4849 Clouds 27 1017 32 10000 4.6 40 12:32 22.07.2019
4850 Clouds 26 1018 31 10000 5.7 350 11:57 22.07.2019
4851 Clouds 26 1018 31 10000 5.7 350 11:39 22.07.2019
4852 Clouds 26 1017 36 10000 5.1 70 11:19 22.07.2019
4853 Clouds 25 1018 33 10000 5.7 60 10:38 22.07.2019
4854 Clouds 25 1018 38 10000 5.7 60 10:19 22.07.2019
4855 Clouds 24 1018 38 10000 5.7 30 09:40 22.07.2019
4856 Clouds 23 1018 44 10000 2.1 240 09:21 22.07.2019
4857 Clouds 21 1019 43 10000 4.6 20 08:39 22.07.2019
4858 Clouds 21 1019 49 10000 3.77 14.265 08:20 22.07.2019
4859 Clear 20 1019 46 10000 3.1 30 07:53 22.07.2019
4860 Clouds 19 1019 59 10000 3.77 14.265 07:27 22.07.2019
4861 Clear 16 1020 59 10000 3.6 350 05:51 22.07.2019
4862 Clear 16 1020 67 10000 0.5 0 03:46 22.07.2019
4863 Clear 17 1019 62 10000 1.5 340 01:44 22.07.2019
4864 Clear 17 1019 55 10000 2.6 40 00:50 22.07.2019
4865 Clear 17 1019 55 10000 2.6 40 00:50 22.07.2019
4866 Clear 17 1019 52 10000 1 0 00:22 22.07.2019
4867 Clear 18 1019 55 10000 4.1 40 23:50 21.07.2019
4868 Clear 19 1019 59 10000 1.5 250 23:23 21.07.2019
4869 Clear 20 1019 52 10000 4.6 10 22:41 21.07.2019
4870 Clear 20 1019 46 10000 2.72 15.087 22:21 21.07.2019
4871 Clear 21 1019 45 10000 4.6 30 21:55 21.07.2019
4872 Clear 21 1019 45 10000 4.6 30 21:36 21.07.2019
4873 Clear 22 1018 40 10000 3.1 30 21:18 21.07.2019
4874 Clear 22 1019 42 10000 4.1 20 20:41 21.07.2019
4875 Clear 22 1018 38 10000 4.1 10 20:23 21.07.2019
4876 Clouds 24 1018 35 10000 5.7 10 19:53 21.07.2019
4877 Clear 24 1017 31 10000 4.6 20 19:29 21.07.2019
4878 Clouds 27 1018 31 10000 8.7 350 18:56 21.07.2019
4879 Clouds 27 1018 31 10000 8.7 350 18:37 21.07.2019
4880 Clouds 27 1016 24 10000 5.7 30 18:19 21.07.2019
4881 Clouds 28 1017 26 10000 8.2 360 17:40 21.07.2019
4882 Clouds 28 1016 20 10000 4.1 30 17:19 21.07.2019
4883 Clouds 28 1017 21 10000 8.7 350 16:42 21.07.2019
4884 Clouds 29 1017 20 10000 8.2 360 16:24 21.07.2019
4885 Clouds 29 1017 18 10000 8.2 340 15:45 21.07.2019
4886 Clouds 29 1016 19 10000 4.6 350 15:24 21.07.2019
4887 Clouds 28 1017 17 10000 5.7 350 14:54 21.07.2019
4888 Clouds 28 1016 18 10000 4.6 50 14:26 21.07.2019
4889 Clouds 28 1017 24 10000 5.1 350 13:59 21.07.2019
4890 Clouds 28 1017 24 10000 5.1 350 13:40 21.07.2019
4891 Clouds 28 1017 24 10000 2.1 0 13:20 21.07.2019
4892 Clouds 27 1018 18 10000 3.6 360 12:41 21.07.2019
4893 Clouds 27 1017 34 10000 2.1 0 12:22 21.07.2019
4894 Clouds 26 1018 21 10000 6.2 20 11:46 21.07.2019
4895 Clouds 25 1017 34 10000 2.6 310 11:27 21.07.2019
4896 Clouds 24 1018 29 10000 4.1 30 10:47 21.07.2019
4897 Clouds 24 1018 36 10000 3.1 60 10:25 21.07.2019
4898 Clouds 23 1019 35 10000 4.6 350 09:56 21.07.2019
4899 Clouds 23 1019 35 10000 4.6 350 09:36 21.07.2019
4900 Clouds 23 1019 35 10000 4.6 350 09:36 21.07.2019
4901 Clear 22 1019 37 10000 4.6 40 08:50 21.07.2019
4902 Clear 21 1019 49 10000 1 0 08:32 21.07.2019
4903 Clear 19 1019 55 10000 1.5 0 07:58 21.07.2019
4904 Clear 19 1019 56 10000 0.5 0 07:19 21.07.2019
4905 Clear 17 1019 68 10000 2.63 12.366 06:34 21.07.2019
4906 Clear 16 1019 67 10000 1 230 04:21 21.07.2019
4907 Clear 18 1019 72 10000 3.1 20 01:57 21.07.2019
4908 Clear 19 1019 67 10000 2.6 360 00:48 21.07.2019
4909 Clear 19 1019 56 10000 3.6 60 00:22 21.07.2019
4910 Clear 20 1019 59 10000 4.1 30 23:48 20.07.2019
4911 Clear 20 1018 53 10000 4.1 60 23:27 20.07.2019
4912 Clear 21 1019 55 10000 2.6 340 22:58 20.07.2019
4913 Clear 21 1019 55 10000 2.6 340 22:40 20.07.2019
4914 Clear 22 1018 46 10000 5.7 50 22:19 20.07.2019
4915 Clear 23 1019 52 10000 4.6 30 21:43 20.07.2019
4916 Clear 23 1018 41 10000 4.1 60 21:24 20.07.2019
4917 Clear 24 1018 43 10000 4.1 30 20:43 20.07.2019
4918 Clear 25 1018 40 10000 3.1 70 20:23 20.07.2019
4919 Clouds 25 1018 36 10000 4.1 80 19:51 20.07.2019
4920 Clouds 26 1016 31 10000 3.1 60 19:28 20.07.2019
4921 Clouds 27 1017 33 10000 5.1 90 18:56 20.07.2019
4922 Clouds 27 1017 33 10000 5.1 90 18:37 20.07.2019
4923 Clouds 27 1017 26 10000 2.6 70 18:18 20.07.2019
4924 Clouds 28 1017 26 10000 4.6 40 17:43 20.07.2019
4925 Clouds 28 1016 25 10000 2.6 100 17:19 20.07.2019
4926 Clouds 28 1017 24 10000 3.6 30 16:40 20.07.2019
4927 Clouds 28 1017 26 10000 4.1 30 16:22 20.07.2019
4928 Clouds 28 1018 22 10000 3.1 0 15:42 20.07.2019
4929 Clouds 28 1018 22 10000 3.1 0 15:42 20.07.2019
4930 Clouds 28 1017 26 10000 2.6 0 15:21 20.07.2019
4931 Clouds 28 1018 24 10000 4.6 50 14:50 20.07.2019
4932 Clouds 27 1017 23 10000 0.5 0 14:30 20.07.2019
4933 Clouds 27 1018 26 10000 3.6 70 13:58 20.07.2019
4934 Clouds 27 1018 26 10000 3.6 70 13:38 20.07.2019
4935 Clouds 26 1018 26 10000 3.6 0 13:19 20.07.2019
4936 Clouds 26 1019 25 10000 2.1 0 12:49 20.07.2019
4937 Clouds 26 1018 26 10000 3.6 60 12:19 20.07.2019
4938 Clouds 25 1019 27 10000 5.7 80 11:47 20.07.2019
4939 Clouds 25 1018 27 10000 4.1 50 11:21 20.07.2019
4940 Clouds 25 1019 27 10000 5.1 80 10:42 20.07.2019
4941 Clouds 24 1018 31 10000 2.6 40 10:23 20.07.2019
4942 Clouds 23 1019 28 10000 4.6 80 09:52 20.07.2019
4943 Clear 23 1019 40 10000 3.1 40 09:27 20.07.2019
4944 Clouds 22 1019 37 10000 3.6 60 08:54 20.07.2019
4945 Clear 21 1019 49 10000 3.6 90 08:24 20.07.2019
4946 Clouds 19 1020 52 10000 2.1 350 07:43 20.07.2019
4947 Clear 17 1020 63 10000 3.1 360 06:46 20.07.2019
4948 Clear 15 1020 71 10000 2.1 360 05:49 20.07.2019
4949 Clear 16 1019 67 10000 1.5 80 04:31 20.07.2019
4950 Clear 17 1019 72 10000 3.1 30 01:59 20.07.2019
4951 Clear 18 1019 67 10000 3.6 30 00:59 20.07.2019
4952 Clear 18 1019 56 10000 2.6 70 00:37 20.07.2019
4953 Clear 18 1019 56 10000 2.6 70 00:18 20.07.2019
4954 Clear 19 1019 63 10000 3.1 20 23:39 19.07.2019
4955 Clear 19 1018 60 10000 3.6 70 23:21 19.07.2019
4956 Clear 20 1019 59 10000 2.6 20 22:43 19.07.2019
4957 Clear 20 1018 56 10000 3.1 80 22:22 19.07.2019
4958 Clear 20 1019 55 10000 1 0 21:45 19.07.2019
4959 Clear 21 1018 49 10000 2.6 50 21:26 19.07.2019
4960 Clear 22 1018 49 10000 3.6 40 20:45 19.07.2019
4961 Clear 22 1017 46 10000 4.1 70 20:26 19.07.2019
4962 Clouds 23 1018 43 10000 3.6 50 19:48 19.07.2019
4963 Clouds 24 1017 36 10000 2.6 90 19:20 19.07.2019
4964 Clouds 25 1017 36 10000 5.7 80 18:42 19.07.2019
4965 Clouds 25 1016 34 10000 2.6 100 18:21 19.07.2019
4966 Clouds 26 1017 31 10000 4.1 60 17:52 19.07.2019
4967 Clouds 26 1016 36 10000 3.6 90 17:27 19.07.2019
4968 Clouds 26 1016 36 10000 3.6 90 17:27 19.07.2019
4969 Clouds 26 1017 31 10000 4.6 80 16:49 19.07.2019
4970 Clouds 26 1016 34 10000 3.1 100 16:26 19.07.2019
4971 Clouds 26 1017 33 10000 5.1 80 15:52 19.07.2019
4972 Clouds 26 1016 39 10000 4.6 70 15:31 19.07.2019
4973 Clouds 26 1018 33 10000 2.6 0 14:57 19.07.2019
4974 Clouds 26 1018 33 10000 2.6 0 14:39 19.07.2019
4975 Clouds 25 1017 41 10000 4.1 40 14:21 19.07.2019
4976 Clouds 25 1018 33 10000 4.1 60 13:44 19.07.2019
4977 Clouds 25 1018 33 10000 4.1 60 13:44 19.07.2019
4978 Clouds 25 1018 33 10000 4.1 60 13:44 19.07.2019
4979 Clouds 25 1018 33 10000 4.1 60 13:44 19.07.2019
4980 Clouds 25 1018 33 10000 4.1 60 13:44 19.07.2019
4981 Clouds 25 1017 36 10000 2.1 0 13:25 19.07.2019
4982 Clouds 24 1018 38 10000 5.1 60 12:55 19.07.2019
4983 Clouds 25 1017 44 10000 1.5 0 12:31 19.07.2019
4984 Clouds 23 1018 40 10000 4.1 60 11:59 19.07.2019
4985 Clouds 23 1018 40 10000 4.1 60 11:41 19.07.2019
4986 Clouds 23 1017 46 10000 1.5 0 11:18 19.07.2019
4987 Clouds 22 1018 43 10000 4.1 80 10:42 19.07.2019
4988 Clouds 22 1018 43 10000 4.1 80 10:22 19.07.2019
4989 Clouds 21 1018 49 10000 4.6 70 09:57 19.07.2019
4990 Clouds 21 1018 49 10000 4.6 70 09:39 19.07.2019
4991 Clouds 21 1017 56 10000 1.5 0 09:20 19.07.2019
4992 Clouds 19 1018 52 10000 3.6 70 08:42 19.07.2019
4993 Clear 17 1018 100 10000 1 0 07:53 19.07.2019
4994 Mist 16 1017 100 4000 2.03 58.624 07:28 19.07.2019
4995 Mist 13 1018 87 10000 1 0 05:55 19.07.2019
4996 Mist 14 1016 100 4000 3.1 22.412 02:23 19.07.2019
4997 Clear 15 1016 100 10000 2.71 23.595 01:18 19.07.2019
4998 Clear 15 1016 93 10000 0.5 220 00:35 19.07.2019
4999 Mist 16 1016 77 10000 2.1 330 23:44 18.07.2019
5000 Mist 16 1016 93 10000 1 220 23:24 18.07.2019
5001 Clouds 17 1016 72 10000 1.5 10 22:59 18.07.2019
5002 Mist 17 1016 72 10000 1.5 10 22:39 18.07.2019
5003 Mist 17 1016 93 10000 3.44 29.131 22:19 18.07.2019
5004 Rain 17 1016 68 10000 2.1 90 21:44 18.07.2019
5005 Rain 17 1015 93 10000 1 100 21:26 18.07.2019
5006 Rain 17 1015 68 10000 2.1 30 20:51 18.07.2019
5007 Rain 17 1015 93 10000 3.1 240 20:29 18.07.2019
5008 Rain 17 1015 63 10000 2.1 50 19:54 18.07.2019
5009 Rain 17 1014 88 10000 5.7 280 19:32 18.07.2019
5010 Rain 19 1013 60 10000 3.1 60 18:58 18.07.2019
5011 Rain 19 1013 60 10000 3.1 60 18:40 18.07.2019
5012 Thunderstorm 20 1012 60 10000 3.1 90 18:20 18.07.2019
5013 Rain 21 1013 56 10000 4.1 60 17:42 18.07.2019
5014 Clouds 22 1011 49 10000 6.7 70 17:24 18.07.2019
5015 Clouds 23 1012 49 10000 6.7 50 16:56 18.07.2019
5016 Clouds 23 1011 49 10000 4.6 60 16:30 18.07.2019
5017 Clouds 24 1012 43 10000 6.2 50 15:59 18.07.2019
5018 Clouds 23 1011 47 10000 5.1 60 15:39 18.07.2019
5019 Clouds 23 1011 47 10000 5.1 60 15:21 18.07.2019
5020 Clouds 22 1011 46 10000 5.1 50 14:43 18.07.2019
5021 Clouds 22 1011 56 10000 2.6 260 14:25 18.07.2019
5022 Rain 22 1011 43 10000 6.7 40 13:48 18.07.2019
5023 Rain 21 1010 49 10000 4.1 70 13:23 18.07.2019
5024 Rain 21 1011 49 10000 4.6 40 12:50 18.07.2019
5025 Clouds 22 1010 56 10000 3.6 70 12:21 18.07.2019
5026 Clouds 21 1011 52 10000 5.1 30 11:57 18.07.2019
5027 Clouds 21 1010 56 10000 4.1 20 11:39 18.07.2019
5028 Clouds 21 1010 56 10000 4.1 20 11:20 18.07.2019
5029 Clouds 20 1011 56 10000 5.1 50 10:41 18.07.2019
5030 Clouds 19 1011 56 10000 5.1 20 09:50 18.07.2019
5031 Clouds 18 1010 77 10000 2.1 110 09:26 18.07.2019
5032 Clouds 17 1010 82 10000 2.1 120 08:51 18.07.2019
5033 Rain 17 1010 82 10000 1.5 100 08:22 18.07.2019
5034 Rain 17 1010 82 10000 4.1 50 07:54 18.07.2019
5035 Rain 17 1009 82 10000 2.1 10 07:34 18.07.2019
5036 Rain 16 1008 93 8000 1.5 240 06:46 18.07.2019
5037 Rain 16 1009 82 10000 2.6 10 05:58 18.07.2019
5038 Rain 16 1008 82 10000 3.1 40 03:25 18.07.2019
5039 Rain 16 1008 82 10000 3.6 30 01:52 18.07.2019
5040 Rain 16 1007 93 10000 1.5 250 01:32 18.07.2019
5041 Rain 16 1008 87 10000 1.5 20 23:57 17.07.2019
5042 Rain 16 1008 88 10000 2.57 331.719 23:21 17.07.2019
5043 Rain 16 1007 88 10000 2.1 0 22:58 17.07.2019
5044 Rain 16 1007 88 10000 2.1 0 22:40 17.07.2019
5045 Rain 16 1007 88 10000 2.1 0 22:21 17.07.2019
5046 Rain 17 1009 93 6000 3.6 140 21:56 17.07.2019
5047 Rain 17 1008 88 10000 2.57 331.719 21:36 17.07.2019
5048 Rain 18 1008 88 10000 2.33 12.556 21:18 17.07.2019
5049 Rain 20 1006 68 10000 3.1 210 20:41 17.07.2019
5050 Rain 20 1006 68 10000 3.1 210 20:21 17.07.2019
5051 Rain 20 1006 56 10000 5.7 30 19:59 17.07.2019
5052 Rain 20 1005 64 10000 4.6 250 19:39 17.07.2019
5053 Rain 20 1005 64 10000 4.6 250 19:18 17.07.2019
5054 Clouds 22 1005 43 10000 7.2 20 18:41 17.07.2019
5055 Clouds 21 1005 43 10000 7.2 20 18:20 17.07.2019
5056 Rain 21 1005 60 10000 3.6 30 17:51 17.07.2019
5057 Clouds 21 1005 60 10000 3.6 30 17:27 17.07.2019
5058 Rain 21 1006 46 10000 4.1 350 16:58 17.07.2019
5059 Rain 20 1006 64 10000 2.1 210 16:38 17.07.2019
5060 Thunderstorm 20 1007 46 10000 3.6 50 16:18 17.07.2019
5061 Rain 20 1007 46 10000 3.6 70 15:51 17.07.2019
5062 Thunderstorm 20 1007 46 10000 3.6 70 15:29 17.07.2019
5063 Thunderstorm 20 1007 40 10000 5.7 10 14:55 17.07.2019
5064 Thunderstorm 20 1007 68 10000 4.1 280 14:37 17.07.2019
5065 Thunderstorm 20 1007 68 10000 4.1 280 14:18 17.07.2019
5066 Rain 24 1007 41 10000 6.2 250 13:42 17.07.2019
5067 Thunderstorm 24 1007 41 10000 6.2 250 13:24 17.07.2019
5068 Clouds 25 1006 36 10000 5.1 60 12:41 17.07.2019
5069 Clouds 25 1008 40 10000 6.7 60 12:21 17.07.2019
5070 Clouds 25 1007 41 10000 4.6 50 11:45 17.07.2019
5071 Clouds 25 1007 41 10000 4.6 50 11:22 17.07.2019
5072 Clouds 23 1008 46 10000 6.7 70 10:55 17.07.2019
5073 Clouds 23 1007 46 10000 5.7 70 10:37 17.07.2019
5074 Clouds 23 1007 49 10000 5.1 80 10:18 17.07.2019
5075 Clouds 22 1007 49 10000 5.1 80 09:44 17.07.2019
5076 Clouds 22 1007 49 10000 5.1 80 09:24 17.07.2019
5077 Clouds 21 1008 49 10000 4.6 70 08:43 17.07.2019
5078 Clouds 21 1008 49 10000 4.6 70 08:22 17.07.2019
5079 Clouds 20 1009 59 10000 5.1 40 07:51 17.07.2019
5080 Clouds 20 1008 52 10000 3.1 70 07:24 17.07.2019
5081 Clouds 19 1009 59 10000 5.1 30 06:57 17.07.2019
5082 Clouds 19 1008 56 10000 2.6 90 06:30 17.07.2019
5083 Clouds 19 1008 56 10000 2.6 90 06:30 17.07.2019
5084 Clouds 18 1009 63 10000 4.1 40 05:49 17.07.2019
5085 Clouds 19 1008 52 10000 3.6 70 05:30 17.07.2019
5086 Clouds 19 1008 56 10000 1.5 100 04:45 17.07.2019
5087 Clear 19 1008 52 10000 2.6 60 03:29 17.07.2019
5088 Clouds 19 1010 55 10000 5.7 20 02:19 17.07.2019
5089 Clear 20 1009 43 10000 1.5 230 01:26 17.07.2019
5090 Clouds 19 1010 55 10000 5.1 10 00:55 17.07.2019
5091 Clear 19 1009 43 10000 1.5 40 00:36 17.07.2019
5092 Clouds 20 1010 48 10000 4.1 20 00:18 17.07.2019
5093 Clear 20 1009 40 10000 3.44 30.325 23:36 16.07.2019
5094 Clouds 21 1010 45 10000 3.6 10 23:18 16.07.2019
5095 Clouds 21 1009 38 10000 3.1 70 22:42 16.07.2019
5096 Clouds 21 1009 38 10000 3.1 70 22:24 16.07.2019
5097 Clouds 22 1009 36 10000 3.6 70 21:46 16.07.2019
5098 Clouds 22 1009 36 10000 3.6 70 21:22 16.07.2019
5099 Clouds 21 1010 37 10000 3.6 80 20:58 16.07.2019
5100 Clouds 22 1008 27 10000 2.6 360 20:39 16.07.2019
5101 Clouds 23 1008 27 10000 2.6 360 20:21 16.07.2019
5102 Clouds 26 1008 27 10000 0.5 0 19:51 16.07.2019
5103 Clouds 25 1008 27 10000 0.5 0 19:28 16.07.2019
5104 Clouds 26 1009 23 10000 2.1 290 18:58 16.07.2019
5105 Clouds 26 1008 28 10000 1 0 18:39 16.07.2019
5106 Clouds 27 1009 22 10000 3.1 280 18:20 16.07.2019
5107 Clouds 27 1009 26 10000 1 0 17:42 16.07.2019
5108 Clouds 27 1009 26 10000 1 0 17:21 16.07.2019
5109 Clouds 27 1009 26 10000 1 0 16:45 16.07.2019
5110 Clouds 27 1009 26 10000 1 0 16:23 16.07.2019
5111 Clouds 27 1010 21 10000 3.1 220 15:55 16.07.2019
5112 Clouds 27 1009 26 10000 1.5 0 15:37 16.07.2019
5113 Clouds 26 1010 30 10000 3.1 260 15:18 16.07.2019
5114 Clouds 26 1010 30 10000 2.6 0 14:43 16.07.2019
5115 Clouds 26 1010 30 10000 2.6 0 14:24 16.07.2019
5116 Clouds 25 1010 33 10000 2.1 240 13:46 16.07.2019
5117 Clouds 25 1010 33 10000 2.1 240 13:27 16.07.2019
5118 Clouds 25 1011 31 10000 1 330 12:56 16.07.2019
5119 Clouds 25 1011 31 10000 1 330 12:38 16.07.2019
5120 Clouds 24 1011 31 10000 1 330 12:19 16.07.2019
5121 Clouds 23 1011 38 10000 2.1 0 11:44 16.07.2019
5122 Clouds 23 1011 38 10000 2.1 0 11:24 16.07.2019
5123 Clouds 22 1012 37 10000 2.6 0 10:57 16.07.2019
5124 Clouds 22 1012 46 9000 1.97 249.628 10:38 16.07.2019
5125 Clouds 21 1012 43 10000 1.5 0 10:18 16.07.2019
5126 Clouds 20 1012 49 10000 0.5 0 09:42 16.07.2019
5127 Clouds 18 1013 55 10000 1.5 40 09:20 16.07.2019
5128 Clear 18 1012 59 10000 1 0 08:46 16.07.2019
5129 Clear 18 1012 59 10000 1 0 08:24 16.07.2019
5130 Clouds 16 1013 67 10000 0.5 0 07:51 16.07.2019
5131 Clear 15 1013 67 10000 0.5 0 07:32 16.07.2019
5132 Clouds 13 1013 81 10000 1.05 25.02 06:58 16.07.2019
5133 Clear 12 1012 82 10000 0.5 0 06:35 16.07.2019
5134 Clear 11 1012 81 10000 0.5 0 05:48 16.07.2019
5135 Clear 11 1012 81 10000 0.5 0 05:25 16.07.2019
5136 Clear 11 1012 87 10000 1.5 220 04:27 16.07.2019
5137 Clear 12 1011 82 10000 0.5 0 03:34 16.07.2019
5138 Clear 12 1012 82 10000 2.1 220 02:42 16.07.2019
5139 Clouds 13 1012 81 10000 1.5 190 02:19 16.07.2019
5140 Clear 13 1012 72 10000 1.5 200 01:23 16.07.2019
5141 Clear 14 1012 76 10000 1.5 30 00:22 16.07.2019
5142 Clear 15 1012 67 10000 1 0 23:58 15.07.2019
5143 Clear 15 1012 67 10000 1 0 23:37 15.07.2019
5144 Clouds 16 1012 67 10000 1 0 22:59 15.07.2019
5145 Clear 16 1012 63 10000 2.24 25.524 22:38 15.07.2019
5146 Clouds 16 1012 67 10000 2.24 25.524 22:19 15.07.2019
5147 Clear 17 1012 63 10000 1.5 230 21:42 15.07.2019
5148 Clouds 17 1012 63 10000 2.1 300 21:21 15.07.2019
5149 Clouds 17 1012 63 10000 2.1 300 20:59 15.07.2019
5150 Clouds 17 1011 63 10000 2.6 230 20:40 15.07.2019
5151 Clouds 17 1011 63 10000 2.6 230 20:22 15.07.2019
5152 Clouds 19 1011 59 10000 2.6 300 19:55 15.07.2019
5153 Clouds 19 1010 56 10000 2.6 250 19:37 15.07.2019
5154 Clouds 19 1010 56 10000 2.6 250 19:18 15.07.2019
5155 Clouds 20 1010 49 10000 5.7 280 19:18 15.07.2019
5156 Clouds 20 1010 56 10000 4.1 260 18:42 15.07.2019
5157 Clouds 20 1010 56 10000 4.1 260 18:19 15.07.2019
5158 Clouds 21 1010 52 10000 5.7 270 17:55 15.07.2019
5159 Clouds 21 1010 52 10000 4.6 260 17:37 15.07.2019
5160 Clouds 20 1010 49 10000 6.7 250 17:19 15.07.2019
5161 Clouds 21 1010 49 10000 5.7 250 16:39 15.07.2019
5162 Clouds 21 1010 49 10000 5.7 250 16:21 15.07.2019
5163 Clouds 21 1010 49 10000 7.2 260 15:58 15.07.2019
5164 Clouds 21 1010 52 10000 4.6 260 15:37 15.07.2019
5165 Clouds 21 1010 52 10000 4.6 260 15:19 15.07.2019
5166 Clouds 20 1009 49 10000 5.1 0 14:45 15.07.2019
5167 Clouds 20 1009 49 10000 5.1 0 14:26 15.07.2019
5168 Clouds 20 1009 49 10000 8.2 260 13:57 15.07.2019
5169 Clouds 20 1009 49 10000 5.7 260 13:36 15.07.2019
5170 Clouds 20 1009 48 10000 6.7 250 13:18 15.07.2019
5171 Clouds 20 1009 49 10000 6.2 260 12:42 15.07.2019
5172 Clouds 20 1009 49 10000 6.2 260 12:21 15.07.2019
5173 Clouds 18 1008 55 10000 7.2 250 11:43 15.07.2019
5174 Clouds 18 1008 55 10000 7.2 250 11:25 15.07.2019
5175 Clouds 18 1008 63 10000 6.2 250 10:48 15.07.2019
5176 Clouds 18 1008 63 10000 6.2 250 10:30 15.07.2019
5177 Clouds 17 1008 63 10000 8.7 210 09:57 15.07.2019
5178 Clouds 17 1008 72 10000 6.7 240 09:39 15.07.2019
5179 Clouds 16 1008 72 10000 6.2 230 09:18 15.07.2019
5180 Clouds 16 1008 72 10000 5.1 230 08:41 15.07.2019
5181 Clouds 16 1008 72 10000 5.1 230 08:23 15.07.2019
5182 Clouds 15 1008 77 10000 3.1 250 07:41 15.07.2019
5183 Clouds 15 1008 77 10000 3.1 250 07:20 15.07.2019
5184 Clouds 15 1007 82 10000 2.6 240 06:39 15.07.2019
5185 Clouds 14 1007 82 10000 1 0 05:49 15.07.2019
5186 Clouds 14 1007 82 10000 1 0 05:29 15.07.2019
5187 Clouds 15 1007 87 10000 2.1 270 04:43 15.07.2019
5188 Clouds 14 1006 87 10000 3.1 200 03:51 15.07.2019
5189 Clouds 14 1006 93 10000 2.1 230 02:47 15.07.2019
5190 Clouds 14 1006 87 10000 1 0 01:45 15.07.2019
5191 Clouds 14 1006 87 10000 1 0 01:26 15.07.2019
5192 Clouds 15 1007 93 10000 1.7 243.148 00:51 15.07.2019
5193 Rain 15 1007 93 10000 1.5 10 00:22 15.07.2019
5194 Rain 15 1008 93 10000 3.1 150 23:55 14.07.2019
5195 Rain 15 1007 87 10000 2.1 180 23:36 14.07.2019
5196 Rain 15 1007 87 10000 2.1 180 23:18 14.07.2019
5197 Rain 16 1008 77 10000 5.7 290 22:55 14.07.2019
5198 Rain 16 1008 82 10000 4.6 240 22:36 14.07.2019
5199 Rain 16 1006 63 10000 7.2 280 22:18 14.07.2019
5200 Rain 19 1007 63 10000 11.3 270 21:42 14.07.2019
5201 Clouds 20 1006 55 10000 3.1 320 21:18 14.07.2019
5202 Clouds 21 1006 55 10000 3.1 320 20:57 14.07.2019
5203 Rain 21 1005 40 10000 5.1 40 20:37 14.07.2019
5204 Rain 21 1005 40 10000 5.1 40 20:18 14.07.2019
5205 Rain 23 1006 43 10000 4.1 340 19:43 14.07.2019
5206 Rain 23 1006 43 10000 4.1 340 19:24 14.07.2019
5207 Clouds 24 1005 35 10000 6.2 30 18:57 14.07.2019
5208 Clouds 25 1004 27 10000 3.1 10 18:38 14.07.2019
5209 Clouds 25 1005 29 10000 4.6 20 18:19 14.07.2019
5210 Clouds 26 1004 24 10000 1 0 17:47 14.07.2019
5211 Clouds 26 1004 24 10000 1 0 17:21 14.07.2019
5212 Clouds 26 1005 26 10000 2.1 230 16:46 14.07.2019
5213 Clouds 26 1005 26 10000 2.1 230 16:24 14.07.2019
5214 Clouds 27 1006 22 10000 4.1 260 15:54 14.07.2019
5215 Clouds 27 1005 24 10000 2.1 260 15:29 14.07.2019
5216 Clouds 26 1006 27 10000 4.1 0 14:50 14.07.2019
5217 Clouds 26 1006 27 10000 4.1 0 14:22 14.07.2019
5218 Clouds 26 1007 31 10000 2.6 140 13:49 14.07.2019
5219 Clouds 25 1007 27 10000 4.6 110 13:27 14.07.2019
5220 Clouds 24 1008 31 10000 2.1 0 12:59 14.07.2019
5221 Clouds 24 1008 33 10000 3.1 70 12:41 14.07.2019
5222 Clouds 23 1009 35 10000 3.6 20 12:21 14.07.2019
5223 Clouds 23 1009 35 10000 3.6 20 11:52 14.07.2019
5224 Clouds 23 1009 35 10000 2.1 0 11:24 14.07.2019
5225 Clouds 21 1010 45 10000 2.6 0 10:50 14.07.2019
5226 Clouds 21 1009 40 10000 1 0 10:26 14.07.2019
5227 Clouds 19 1010 48 10000 3.6 20 09:56 14.07.2019
5228 Clouds 19 1010 48 10000 2.1 90 09:37 14.07.2019
5229 Clouds 18 1010 52 10000 3.1 20 09:19 14.07.2019
5230 Clouds 18 1010 52 10000 3.1 80 08:41 14.07.2019
5231 Clouds 15 1011 59 10000 1 0 07:56 14.07.2019
5232 Clouds 15 1010 63 10000 1.64 89.124 07:35 14.07.2019
5233 Clear 14 1011 71 10000 1 240 06:29 14.07.2019
5234 Clear 11 1011 76 10000 1.5 220 05:44 14.07.2019
5235 Clear 12 1011 76 10000 1 240 03:46 14.07.2019
5236 Clear 12 1011 76 10000 1 240 03:27 14.07.2019
5237 Clear 13 1011 67 10000 2.09 35.455 02:39 14.07.2019
5238 Clear 13 1012 71 10000 0.5 0 02:20 14.07.2019
5239 Clear 13 1011 62 10000 1 0 01:31 14.07.2019
5240 Clear 14 1012 66 10000 1.5 0 00:55 14.07.2019
5241 Clear 14 1012 58 10000 1 0 00:37 14.07.2019
5242 Clear 15 1012 58 10000 2.6 50 00:18 14.07.2019
5243 Clear 16 1012 55 10000 0.5 0 23:42 13.07.2019
5244 Clear 16 1012 55 10000 0.5 0 23:22 13.07.2019
5245 Clear 17 1012 45 10000 2.1 240 22:43 13.07.2019
5246 Clear 17 1012 45 10000 2.1 240 22:22 13.07.2019
5247 Clear 18 1012 42 10000 2.1 240 21:49 13.07.2019
5248 Clear 18 1012 42 10000 2.1 240 21:23 13.07.2019
5249 Clouds 19 1012 42 10000 1.5 350 20:53 13.07.2019
5250 Clear 20 1011 37 10000 2.6 250 20:35 13.07.2019
5251 Clouds 21 1012 30 10000 4.1 40 19:59 13.07.2019
5252 Clear 22 1011 30 10000 2.1 270 19:37 13.07.2019
5253 Clouds 23 1012 26 10000 1.5 320 19:19 13.07.2019
5254 Clouds 24 1011 27 10000 1.5 0 18:39 13.07.2019
5255 Clouds 24 1011 23 10000 1.5 240 18:19 13.07.2019
5256 Clouds 24 1011 23 10000 2.6 360 17:38 13.07.2019
5257 Clouds 24 1011 23 10000 2.6 360 17:19 13.07.2019
5258 Clouds 24 1011 23 10000 2.1 250 16:44 13.07.2019
5259 Clouds 24 1011 23 10000 2.1 250 16:26 13.07.2019
5260 Clouds 24 1012 23 10000 2.1 0 15:48 13.07.2019
5261 Clouds 24 1012 23 10000 2.1 0 15:25 13.07.2019
5262 Clouds 23 1012 23 10000 2.6 200 14:57 13.07.2019
5263 Clouds 23 1012 27 10000 2.1 0 14:39 13.07.2019
5264 Clouds 22 1012 23 10000 2.1 70 14:20 13.07.2019
5265 Clouds 22 1012 26 10000 2.6 50 13:43 13.07.2019
5266 Clouds 22 1013 28 10000 1.5 0 13:19 13.07.2019
5267 Clouds 22 1013 26 10000 1.5 0 12:41 13.07.2019
5268 Clouds 21 1013 26 10000 1.5 0 12:23 13.07.2019
5269 Clouds 20 1013 28 10000 2.6 230 11:57 13.07.2019
5270 Clouds 21 1013 32 10000 2.6 0 11:37 13.07.2019
5271 Clouds 20 1014 28 10000 1.5 0 11:18 13.07.2019
5272 Clouds 19 1014 39 10000 1 0 10:40 13.07.2019
5273 Clouds 19 1014 39 10000 1 0 10:22 13.07.2019
5274 Clouds 18 1014 42 10000 2.6 0 09:42 13.07.2019
5275 Clouds 18 1014 42 10000 2.6 0 09:24 13.07.2019
5276 Clouds 17 1014 39 10000 2.6 20 08:55 13.07.2019
5277 Clear 16 1014 48 10000 2.1 300 08:27 13.07.2019
5278 Clear 14 1014 58 10000 2.1 300 07:50 13.07.2019
5279 Clear 13 1014 58 10000 1 0 07:23 13.07.2019
5280 Clear 11 1014 71 10000 1 200 06:29 13.07.2019
5281 Clear 10 1014 76 10000 1.58 7.919 05:46 13.07.2019
5282 Clear 10 1014 71 10000 1 0 04:39 13.07.2019
5283 Clear 10 1014 81 10000 1.58 7.919 04:19 13.07.2019
5284 Clear 11 1013 66 10000 1.5 230 03:40 13.07.2019
5285 Clear 11 1014 76 10000 1.5 10 02:54 13.07.2019
5286 Clear 12 1014 66 10000 0.5 0 01:53 13.07.2019
5287 Clear 13 1014 71 10000 2.6 290 01:21 13.07.2019
5288 Clear 13 1014 71 10000 2.6 290 00:58 13.07.2019
5289 Clear 13 1014 58 10000 2.1 270 00:21 13.07.2019
5290 Clear 14 1014 66 10000 3.1 300 23:50 12.07.2019
5291 Clear 14 1013 48 10000 2.1 10 23:30 12.07.2019
5292 Clear 15 1014 62 10000 2.1 310 22:57 12.07.2019
5293 Clear 15 1014 62 10000 1 0 22:38 12.07.2019
5294 Clear 15 1014 62 10000 1 0 22:20 12.07.2019
5295 Clouds 17 1013 52 10000 4.6 50 21:41 12.07.2019
5296 Clouds 17 1013 52 10000 4.6 50 21:19 12.07.2019
5297 Clouds 17 1012 55 10000 7.2 310 20:44 12.07.2019
5298 Clouds 17 1012 55 10000 7.2 310 20:22 12.07.2019
5299 Clouds 20 1011 43 10000 5.1 360 19:43 12.07.2019
5300 Clouds 21 1011 43 10000 5.1 360 19:25 12.07.2019
5301 Clouds 22 1010 40 10000 3.6 10 18:49 12.07.2019
5302 Clouds 22 1010 40 10000 3.6 10 18:23 12.07.2019
5303 Clouds 24 1010 38 10000 5.7 330 17:58 12.07.2019
5304 Clouds 24 1009 29 10000 3.1 0 17:38 12.07.2019
5305 Clouds 24 1010 38 10000 5.7 320 17:19 12.07.2019
5306 Clouds 25 1009 29 10000 3.6 0 16:36 12.07.2019
5307 Clouds 25 1010 31 10000 6.7 280 16:18 12.07.2019
5308 Clouds 25 1009 34 10000 2.1 0 15:38 12.07.2019
5309 Clouds 25 1009 34 10000 2.1 0 15:19 12.07.2019
5310 Clouds 25 1010 33 10000 4.1 0 14:44 12.07.2019
5311 Clouds 24 1010 33 10000 4.1 0 14:21 12.07.2019
5312 Clouds 25 1010 36 10000 2.6 0 13:47 12.07.2019
5313 Clouds 24 1010 36 10000 2.6 0 13:24 12.07.2019
5314 Clouds 23 1011 43 10000 2.1 330 12:44 12.07.2019
5315 Clouds 23 1011 43 10000 2.1 330 12:24 12.07.2019
5316 Clouds 23 1011 43 10000 3.1 310 11:57 12.07.2019
5317 Clouds 22 1012 49 10000 3.1 260 11:38 12.07.2019
5318 Clouds 21 1011 46 10000 2.1 0 11:19 12.07.2019
5319 Clouds 20 1011 49 10000 1 0 10:41 12.07.2019
5320 Clouds 20 1011 49 10000 1 0 10:23 12.07.2019
5321 Clouds 20 1011 52 10000 2.1 60 09:53 12.07.2019
5322 Clouds 20 1011 56 10000 1.5 0 09:28 12.07.2019
5323 Clouds 18 1012 59 10000 1.5 0 08:51 12.07.2019
5324 Clouds 18 1012 63 10000 1.5 0 08:24 12.07.2019
5325 Clouds 17 1012 67 10000 2.1 330 07:52 12.07.2019
5326 Clouds 17 1011 72 10000 1 0 07:31 12.07.2019
5327 Clouds 16 1012 77 10000 2.6 300 06:44 12.07.2019
5328 Clouds 16 1012 77 10000 2.6 300 06:25 12.07.2019
5329 Clouds 15 1011 82 10000 1.5 130 04:55 12.07.2019
5330 Clouds 15 1011 82 10000 0.5 170 02:55 12.07.2019
5331 Clear 15 1011 82 10000 1.5 240 01:37 12.07.2019
5332 Clouds 15 1011 82 10000 2.6 250 00:44 12.07.2019
5333 Clouds 15 1011 82 10000 2.6 250 00:19 12.07.2019
5334 Clear 16 1010 77 10000 1 0 23:43 11.07.2019
5335 Clear 16 1010 77 10000 1 0 23:23 11.07.2019
5336 Clouds 16 1010 77 10000 1 0 22:48 11.07.2019
5337 Clouds 16 1010 77 10000 1 0 22:25 11.07.2019
5338 Clouds 16 1010 77 10000 1 0 22:25 11.07.2019
5339 Clouds 16 1010 72 10000 2.6 300 21:56 11.07.2019
5340 Clouds 17 1010 77 10000 1.5 0 21:36 11.07.2019
5341 Clouds 17 1010 72 10000 1.5 320 21:18 11.07.2019
5342 Clouds 17 1009 77 10000 2.6 250 20:42 11.07.2019
5343 Clouds 17 1009 77 10000 2.6 250 20:22 11.07.2019
5344 Clouds 17 1009 77 10000 3.1 270 19:56 11.07.2019
5345 Clouds 18 1008 72 10000 1 0 19:37 11.07.2019
5346 Clouds 18 1008 68 10000 4.1 340 19:19 11.07.2019
5347 Clouds 18 1008 72 10000 4.1 300 18:41 11.07.2019
5348 Clouds 18 1008 72 10000 4.1 300 18:23 11.07.2019
5349 Thunderstorm 18 1006 82 10000 1.5 290 17:49 11.07.2019
5350 Rain 18 1006 82 10000 1.5 290 17:30 11.07.2019
5351 Thunderstorm 18 1007 77 10000 3.6 240 16:55 11.07.2019
5352 Thunderstorm 18 1008 82 10000 6.7 240 16:37 11.07.2019
5353 Rain 17 1006 88 10000 2.1 310 16:18 11.07.2019
5354 Rain 16 1006 82 10000 4.6 320 15:40 11.07.2019
5355 Rain 17 1007 87 8000 8.2 270 15:20 11.07.2019
5356 Rain 20 1006 82 5000 7.2 270 14:44 11.07.2019
5357 Thunderstorm 22 1006 82 5000 7.2 270 14:24 11.07.2019
5358 Thunderstorm 22 1004 57 10000 2.1 350 13:52 11.07.2019
5359 Thunderstorm 21 1004 68 10000 2.6 90 13:33 11.07.2019
5360 Thunderstorm 20 1006 72 10000 3.1 340 12:58 11.07.2019
5361 Thunderstorm 24 1007 47 10000 11.3 260 12:38 11.07.2019
5362 Clouds 26 1007 32 10000 5.1 260 12:19 11.07.2019
5363 Clouds 27 1006 36 10000 5.1 240 11:43 11.07.2019
5364 Clouds 27 1006 36 10000 5.1 240 11:24 11.07.2019
5365 Clouds 25 1007 41 10000 5.1 210 10:51 11.07.2019
5366 Clouds 24 1008 49 10000 4.1 200 10:20 11.07.2019
5367 Clouds 24 1007 47 10000 3.1 190 09:50 11.07.2019
5368 Clouds 23 1007 47 10000 3.1 190 09:31 11.07.2019
5369 Clouds 22 1008 60 10000 3.6 190 08:57 11.07.2019
5370 Clouds 22 1008 56 10000 3.1 230 08:37 11.07.2019
5371 Clouds 21 1008 60 10000 2.1 190 08:19 11.07.2019
5372 Clouds 21 1008 60 10000 3.1 260 07:42 11.07.2019
5373 Clouds 19 1009 68 10000 2.6 150 06:55 11.07.2019
5374 Clouds 18 1009 72 10000 2.1 300 06:18 11.07.2019
5375 Clear 18 1009 72 10000 3.6 260 05:31 11.07.2019
5376 Clouds 18 1009 77 10000 2.1 290 04:56 11.07.2019
5377 Clouds 19 1009 72 10000 1.5 270 03:19 11.07.2019
5378 Clouds 19 1008 68 10000 1 0 02:18 11.07.2019
5379 Clear 21 1009 56 10000 5.1 250 00:32 11.07.2019
5380 Clouds 21 1009 60 10000 3.1 260 23:50 10.07.2019
5381 Clear 21 1009 53 10000 3.1 250 23:24 10.07.2019
5382 Clouds 22 1009 52 10000 2.1 250 22:54 10.07.2019
5383 Clear 22 1009 53 10000 2.1 230 22:22 10.07.2019
5384 Clouds 23 1010 46 10000 2.6 250 21:56 10.07.2019
5385 Clouds 23 1009 47 10000 2.1 220 21:37 10.07.2019
5386 Clouds 23 1009 47 10000 2.1 220 21:19 10.07.2019
5387 Clouds 25 1008 41 10000 2.6 360 20:41 10.07.2019
5388 Clouds 25 1008 38 10000 3.6 300 20:21 10.07.2019
5389 Clouds 26 1008 38 10000 3.6 300 19:55 10.07.2019
5390 Clouds 26 1007 34 10000 2.6 0 19:37 10.07.2019
5391 Clouds 27 1008 34 10000 5.1 300 19:18 10.07.2019
5392 Clouds 28 1007 32 10000 2.6 0 18:42 10.07.2019
5393 Clouds 28 1007 32 10000 2.6 0 18:22 10.07.2019
5394 Clouds 29 1007 25 10000 4.6 0 17:44 10.07.2019
5395 Clouds 29 1007 28 10000 6.2 280 17:25 10.07.2019
5396 Clouds 30 1007 23 10000 3.1 250 16:41 10.07.2019
5397 Clouds 30 1007 23 10000 3.1 250 16:21 10.07.2019
5398 Clouds 30 1008 22 10000 4.6 230 15:47 10.07.2019
5399 Clouds 30 1008 22 10000 4.6 230 15:25 10.07.2019
5400 Clouds 31 1008 22 10000 4.6 250 14:48 10.07.2019
5401 Clouds 30 1008 22 10000 4.6 250 14:28 10.07.2019
5402 Clouds 30 1009 18 10000 3.1 270 13:54 10.07.2019
5403 Clouds 30 1009 23 10000 2.1 0 13:23 10.07.2019
5404 Clouds 30 1010 18 10000 3.6 270 12:59 10.07.2019
5405 Clouds 30 1009 20 10000 2.1 250 12:39 10.07.2019
5406 Clouds 29 1009 20 10000 2.1 250 12:20 10.07.2019
5407 Clouds 28 1010 24 10000 1.5 0 11:47 10.07.2019
5408 Clouds 28 1010 24 10000 1.5 0 11:21 10.07.2019
5409 Clouds 27 1011 28 10000 2.1 0 10:56 10.07.2019
5410 Clear 27 1011 32 10000 2.1 0 10:24 10.07.2019
5411 Clear 26 1011 39 10000 1.5 0 09:45 10.07.2019
5412 Clear 26 1011 39 10000 1.5 0 09:45 10.07.2019
5413 Clear 25 1012 44 10000 1 0 09:21 10.07.2019
5414 Clear 25 1012 44 10000 1 0 09:21 10.07.2019
5415 Clear 24 1012 44 10000 1 0 08:57 10.07.2019
5416 Clear 24 1012 47 10000 1.5 0 08:38 10.07.2019
5417 Clear 23 1012 47 10000 1.5 0 08:20 10.07.2019
5418 Clear 21 1012 56 10000 1.5 250 07:42 10.07.2019
5419 Clear 20 1013 63 10000 1.5 300 07:22 10.07.2019
5420 Clear 18 1012 60 10000 0.18 178.091 06:33 10.07.2019
5421 Clear 16 1012 67 10000 0.5 0 05:40 10.07.2019
5422 Clear 17 1012 67 10000 2.1 220 04:30 10.07.2019
5423 Clear 18 1013 59 10000 2.69 18.185 01:49 10.07.2019
5424 Clear 18 1013 59 10000 2.69 18.185 01:49 10.07.2019
5425 Clear 19 1013 49 10000 1 240 00:43 10.07.2019
5426 Clear 22 1013 43 10000 2.1 220 23:42 09.07.2019
5427 Clear 22 1013 43 10000 2.1 220 23:23 09.07.2019
5428 Clear 22 1014 45 10000 2.6 30 22:54 09.07.2019
5429 Clear 23 1013 41 10000 2.1 300 22:36 09.07.2019
5430 Clear 24 1014 40 10000 2.6 360 22:18 09.07.2019
5431 Clear 24 1012 36 10000 1 0 21:43 09.07.2019
5432 Clear 24 1012 36 10000 1 0 21:24 09.07.2019
5433 Clear 25 1012 28 10000 2.6 20 20:44 09.07.2019
5434 Clear 26 1012 28 10000 2.6 20 20:25 09.07.2019
5435 Clear 28 1012 28 10000 2.1 260 19:43 09.07.2019
5436 Clear 28 1012 28 10000 2.1 260 19:24 09.07.2019
5437 Clouds 30 1012 23 10000 2.6 270 18:49 09.07.2019
5438 Clouds 30 1012 23 10000 2.6 270 18:49 09.07.2019
5439 Clouds 30 1012 23 10000 2.6 270 18:27 09.07.2019
5440 Clouds 30 1012 23 10000 2.6 270 18:27 09.07.2019
5441 Clouds 30 1013 23 10000 1 0 17:58 09.07.2019
5442 Clouds 30 1012 22 10000 2.1 0 17:40 09.07.2019
5443 Clouds 30 1012 22 10000 2.1 0 17:20 09.07.2019
5444 Clouds 30 1013 22 10000 2.1 0 16:50 09.07.2019
5445 Clouds 30 1013 22 10000 2.1 0 16:25 09.07.2019
5446 -273 0 0 0 0 0 15:56 09.07.2019
5447 Clouds 31 1013 22 10000 2.6 240 15:36 09.07.2019
5448 Clouds 30 1014 20 10000 2.6 130 14:59 09.07.2019
5449 Clouds 30 1013 22 10000 3.1 0 14:40 09.07.2019
5450 Clouds 30 1014 21 10000 2.1 230 14:20 09.07.2019
5451 Clouds 30 1014 21 10000 2.1 230 14:20 09.07.2019
5452 Clouds 29 1014 25 10000 2.6 0 13:45 09.07.2019
5453 Clouds 29 1014 25 10000 2.6 0 13:27 09.07.2019
5454 Clouds 28 1015 26 10000 1.5 0 12:42 09.07.2019
5455 Clouds 28 1015 26 10000 1.5 0 12:23 09.07.2019
5456 Clouds 27 1015 28 10000 1.5 140 11:58 09.07.2019
5457 Clouds 28 1015 28 10000 2.1 0 11:40 09.07.2019
5458 Clouds 28 1015 28 10000 2.1 0 11:21 09.07.2019
5459 Clouds 26 1016 31 10000 2.1 70 10:57 09.07.2019
5460 Clear 26 1015 34 10000 1.5 120 10:34 09.07.2019
5461 Clear 26 1015 34 10000 1.5 120 10:34 09.07.2019
5462 Clouds 25 1016 33 10000 2.6 10 09:48 09.07.2019
5463 Clear 25 1016 38 10000 2.1 0 09:29 09.07.2019
5464 Clear 23 1016 43 10000 2.6 350 08:59 09.07.2019
5465 Clear 23 1016 46 10000 1.5 90 08:40 09.07.2019
5466 Clear 16 1018 82 10000 2.6 10 04:18 05.07.2019
5467 Clear 16 1017 77 10000 1.5 220 03:38 05.07.2019
5468 Clear 17 1017 77 10000 2.1 10 03:19 05.07.2019
5469 Clear 17 1017 77 10000 1 240 02:49 05.07.2019
5470 Clear 17 1018 72 10000 1.5 340 01:52 05.07.2019
5471 Clear 18 1017 72 10000 2.33 16.775 01:27 05.07.2019
5472 Clear 19 1017 64 10000 1.5 240 00:51 05.07.2019
5473 Clear 18 1017 64 10000 1.5 240 00:27 05.07.2019
5474 Clear 19 1017 72 10000 0.5 0 23:23 04.07.2019
5475 Clear 19 1017 72 10000 0.5 0 23:23 04.07.2019
5476 Clouds 19 1018 77 10000 3.6 30 22:59 04.07.2019
5477 Clear 19 1017 53 10000 4.1 70 22:40 04.07.2019
5478 Clear 19 1017 53 10000 4.1 70 22:19 04.07.2019
5479 Clouds 21 1017 56 10000 4.1 80 21:44 04.07.2019
5480 Clouds 21 1017 56 10000 4.1 80 21:25 04.07.2019
5481 Rain 21 1018 77 10000 2.6 80 20:58 04.07.2019
5482 Rain 21 1018 77 10000 2.6 80 20:37 04.07.2019
5483 Rain 21 1019 72 10000 6.2 110 20:18 04.07.2019
5484 Thunderstorm 23 1016 60 10000 6.7 30 19:41 04.07.2019
5485 Thunderstorm 25 1016 30 10000 8.2 20 19:21 04.07.2019
5486 Thunderstorm 27 1015 22 10000 4.1 90 18:46 04.07.2019
5487 Thunderstorm 29 1015 22 10000 4.1 90 18:28 04.07.2019
5488 Clouds 30 1016 20 10000 4.6 70 17:58 04.07.2019
5489 Clouds 30 1015 20 10000 2.6 0 17:40 04.07.2019
5490 Clouds 31 1016 18 10000 5.1 80 17:18 04.07.2019
5491 Clouds 31 1016 18 10000 5.1 80 17:18 04.07.2019
5492 Clouds 31 1015 18 10000 3.1 90 15:43 04.07.2019
5493 Clouds 31 1015 18 10000 3.1 90 15:24 04.07.2019
5494 Clouds 32 1017 19 10000 4.6 20 14:59 04.07.2019
5495 Clouds 32 1016 15 10000 4.6 40 14:38 04.07.2019
5496 Clouds 32 1016 15 10000 4.6 40 14:19 04.07.2019
5497 Clouds 31 1017 17 10000 4.6 30 13:56 04.07.2019
5498 Clouds 31 1016 19 10000 3.6 50 13:38 04.07.2019
5499 Clouds 31 1018 19 10000 6.2 60 13:18 04.07.2019
5500 Clouds 30 1017 20 10000 6.7 60 12:38 04.07.2019
5501 Clear 30 1018 21 10000 8.2 40 12:19 04.07.2019
5502 Clear 30 1017 23 10000 6.2 70 11:42 04.07.2019
5503 Clouds 29 1018 26 10000 5.1 40 11:20 04.07.2019
5504 Clear 29 1017 26 10000 6.7 70 10:45 04.07.2019
5505 Clear 28 1017 26 10000 6.7 70 10:27 04.07.2019
5506 Clear 27 1018 29 10000 6.7 20 09:56 04.07.2019
5507 Clear 27 1017 30 10000 3.6 70 09:38 04.07.2019
5508 Clear 26 1018 33 10000 4.1 40 09:18 04.07.2019
5509 Clear 25 1018 31 10000 2.1 30 08:41 04.07.2019
5510 Clear 23 1018 38 10000 1 0 08:18 04.07.2019
5511 Clear 22 1017 38 10000 3.1 70 07:38 04.07.2019
5512 Clear 20 1018 51 10000 1.5 320 07:18 04.07.2019
5513 Clear 17 1018 62 10000 2.1 330 06:20 04.07.2019
5514 Clear 16 1017 52 10000 1 0 05:41 04.07.2019
5515 Clear 17 1017 40 10000 4.1 70 03:48 04.07.2019
5516 Clear 19 1016 33 10000 1.5 230 01:48 04.07.2019
5517 Clear 20 1016 33 10000 1.5 230 01:26 04.07.2019
5518 Clear 21 1016 33 10000 4.1 90 00:39 04.07.2019
5519 Clear 21 1017 42 10000 2.1 10 23:52 03.07.2019
5520 Clear 21 1016 31 10000 5.7 70 23:20 03.07.2019
5521 Clear 22 1017 37 10000 2.1 30 22:56 03.07.2019
5522 Clear 22 1015 31 10000 5.1 60 22:37 03.07.2019
5523 Clear 23 1017 40 10000 3.1 360 22:18 03.07.2019
5524 Clear 24 1017 40 10000 3.1 360 21:50 03.07.2019
5525 Clear 24 1015 28 10000 5.1 50 21:31 03.07.2019
5526 Clear 25 1014 23 10000 4.6 20 20:47 03.07.2019
5527 Clear 25 1014 23 10000 4.6 20 20:29 03.07.2019
5528 Clear 25 1014 23 10000 4.6 20 20:29 03.07.2019
5529 Clear 29 1015 24 10000 4.6 60 19:58 03.07.2019
5530 Clear 29 1013 22 10000 4.1 20 19:40 03.07.2019
5531 Clear 32 1013 18 10000 5.7 70 18:58 03.07.2019
5532 Clear 31 1013 18 10000 5.7 70 18:39 03.07.2019
5533 Clear 31 1013 18 10000 5.7 70 18:20 03.07.2019
5534 Clear 32 1013 16 10000 6.2 60 17:49 03.07.2019
5535 Clear 32 1013 16 10000 6.2 60 17:19 03.07.2019
5536 Clear 32 1013 16 10000 5.1 60 16:45 03.07.2019
5537 Clear 32 1013 16 10000 5.1 60 16:24 03.07.2019
5538 Clear 33 1014 15 10000 4.1 20 15:55 03.07.2019
5539 Clear 32 1013 15 10000 4.6 60 15:37 03.07.2019
5540 Clear 32 1014 14 10000 6.7 90 15:18 03.07.2019
5541 Clear 32 1014 16 10000 3.6 70 14:43 03.07.2019
5542 Clear 32 1014 16 10000 3.6 70 14:20 03.07.2019
5543 Clear 31 1014 16 10000 4.1 80 13:45 03.07.2019
5544 Clear 31 1014 16 10000 4.1 80 13:27 03.07.2019
5545 Clear 30 1015 17 10000 6.7 50 12:51 03.07.2019
5546 Clear 30 1015 17 10000 7.2 60 12:19 03.07.2019
5547 Clear 30 1014 17 10000 4.1 60 11:43 03.07.2019
5548 Clear 29 1014 17 10000 4.1 60 11:23 03.07.2019
5549 Clear 29 1015 17 10000 7.2 20 10:57 03.07.2019
5550 Clear 29 1014 20 10000 4.1 60 10:37 03.07.2019
5551 Clear 28 1015 18 10000 5.7 30 10:18 03.07.2019
5552 Clear 27 1014 21 10000 2.1 80 09:40 03.07.2019
5553 Clear 27 1014 21 10000 2.1 80 09:40 03.07.2019
5554 Clear 26 1014 21 10000 2.1 80 09:20 03.07.2019
5555 Clear 24 1015 33 10000 0.5 0 08:50 03.07.2019
5556 Clear 23 1015 33 10000 0.5 0 08:28 03.07.2019
5557 Clear 21 1014 43 10000 0.5 0 07:42 03.07.2019
5558 Clear 18 1015 58 10000 1.5 300 07:21 03.07.2019
5559 Clear 17 1014 52 10000 2.41 31.937 06:25 03.07.2019
5560 Clear 12 1014 62 10000 0.5 0 05:34 03.07.2019
5561 Clear 12 1014 66 10000 2.41 31.937 04:38 03.07.2019
5562 Clear 14 1014 62 10000 2.1 50 03:24 03.07.2019
5563 Clear 15 1014 62 10000 1 0 01:49 03.07.2019
5564 Clear 17 1013 48 10000 0.5 0 01:21 03.07.2019
5565 Clear 17 1014 58 10000 0.5 0 00:45 03.07.2019
5566 Clear 17 1014 58 10000 0.5 0 00:45 03.07.2019
5567 Clear 18 1014 42 10000 2.81 24.004 23:59 02.07.2019
5568 Clear 18 1014 42 10000 2.81 24.004 23:37 02.07.2019
5569 Clear 20 1015 45 10000 3.1 20 23:19 02.07.2019
5570 Clear 20 1015 45 10000 3.1 20 22:56 02.07.2019
5571 Clear 20 1014 33 10000 0.5 220 22:37 02.07.2019
5572 Clear 21 1015 42 10000 2.1 10 22:18 02.07.2019
5573 Clear 22 1014 31 10000 0.5 0 21:42 02.07.2019
5574 Clear 23 1014 33 10000 2.6 40 21:22 02.07.2019
5575 Clear 24 1014 33 10000 2.6 40 20:58 02.07.2019
5576 Clear 24 1013 24 10000 4.1 70 20:39 02.07.2019
5577 Clear 26 1014 29 10000 2.6 60 20:20 02.07.2019
5578 Clear 28 1013 21 10000 5.1 50 19:42 02.07.2019
5579 Clear 27 1013 21 10000 5.1 50 19:23 02.07.2019
5580 Clear 29 1013 21 10000 5.1 50 19:23 02.07.2019
5581 Clear 29 1013 20 10000 4.6 80 18:49 02.07.2019
5582 Clear 29 1013 18 10000 6.2 80 18:19 02.07.2019
5583 Clear 29 1013 18 10000 6.2 80 18:19 02.07.2019
5584 Clear 30 1012 19 10000 6.2 70 17:44 02.07.2019
5585 Clear 29 1012 19 10000 6.2 70 17:24 02.07.2019
5586 Clear 29 1012 14 10000 6.2 50 16:54 02.07.2019
5587 Clear 29 1012 14 10000 6.2 50 16:35 02.07.2019
5588 Clear 29 1013 17 10000 3.1 0 15:48 02.07.2019
5589 Clear 29 1013 17 10000 3.1 0 15:27 02.07.2019
5590 Clear 28 1014 18 10000 5.1 90 14:59 02.07.2019
5591 Clear 28 1014 17 10000 1 0 14:40 02.07.2019
5592 Clear 28 1015 16 10000 6.2 80 14:21 02.07.2019
5593 Clear 27 1014 18 10000 3.1 0 13:42 02.07.2019
5594 Clear 27 1015 19 10000 5.1 70 13:19 02.07.2019
5595 Clear 27 1015 19 10000 5.1 70 13:19 02.07.2019
5596 Clear 26 1015 22 10000 4.1 40 12:44 02.07.2019
5597 Clear 25 1015 22 10000 4.1 70 12:23 02.07.2019
5598 Clear 24 1015 22 10000 4.1 70 11:44 02.07.2019
5599 Clear 24 1015 22 10000 4.1 70 11:23 02.07.2019
5600 Clear 23 1016 27 10000 6.7 60 10:58 02.07.2019
5601 Clear 23 1016 23 10000 4.6 30 10:29 02.07.2019
5602 Clear 22 1017 26 10000 6.7 70 09:57 02.07.2019
5603 Clear 21 1017 28 10000 6.7 70 09:22 02.07.2019
5604 Clear 20 1017 28 10000 6.7 70 08:58 02.07.2019
5605 Clear 19 1017 34 10000 6.2 50 08:38 02.07.2019
5606 Clear 18 1018 42 10000 4.6 30 07:59 02.07.2019
5607 Clear 17 1017 45 10000 1.5 80 07:38 02.07.2019
5608 Clear 17 1017 45 10000 1.5 80 07:18 02.07.2019
5609 Clear 14 1017 51 10000 0.5 0 06:37 02.07.2019
5610 Clear 12 1018 62 10000 0.5 0 05:35 02.07.2019
5611 Clear 14 1018 55 10000 4.1 60 02:41 02.07.2019
5612 Clear 17 1020 51 10000 5.1 40 00:28 02.07.2019
5613 Clear 17 1019 45 10000 4.1 20 23:38 01.07.2019
5614 Clear 17 1019 48 10000 5.7 50 23:18 01.07.2019
5615 Clear 17 1019 42 10000 3.6 20 22:42 01.07.2019
5616 Clear 18 1019 42 10000 3.6 20 22:23 01.07.2019
5617 Clear 19 1019 40 10000 3.6 70 21:44 01.07.2019
5618 Clear 19 1019 40 10000 3.6 70 21:25 01.07.2019
5619 Clear 21 1018 37 10000 5.1 50 20:47 01.07.2019
5620 Clear 22 1018 35 10000 5.7 60 20:21 01.07.2019
5621 Clear 23 1018 33 10000 6.2 70 19:55 01.07.2019
5622 Clear 23 1018 33 10000 6.2 70 19:36 01.07.2019
5623 Clear 24 1018 31 10000 5.7 70 19:18 01.07.2019
5624 Clouds 23 1018 31 10000 5.7 60 18:43 01.07.2019
5625 Clouds 23 1018 31 10000 5.7 60 18:25 01.07.2019
5626 Clouds 24 1018 29 10000 5.7 40 17:46 01.07.2019
5627 -273 0 0 0 0 0 17:26 01.07.2019
5628 Clouds 25 1018 29 10000 7.2 20 16:57 01.07.2019
5629 Clouds 25 1018 29 10000 7.2 20 16:39 01.07.2019
5630 Clear 25 1019 29 10000 4.6 60 16:20 01.07.2019
5631 Clouds 25 1019 31 10000 6.2 50 15:43 01.07.2019
5632 Clear 25 1019 29 10000 5.1 80 15:22 01.07.2019
5633 Clouds 24 1019 28 10000 5.1 40 14:44 01.07.2019
5634 Clear 24 1020 27 10000 4.6 0 14:20 01.07.2019
5635 Clouds 23 1020 28 10000 5.1 40 13:47 01.07.2019
5636 Clear 23 1019 31 10000 5.1 90 13:24 01.07.2019
5637 Clouds 22 1020 35 10000 4.6 60 12:57 01.07.2019
5638 Clear 22 1020 27 10000 5.1 80 12:38 01.07.2019
5639 Clear 22 1020 27 10000 5.1 80 12:19 01.07.2019
5640 Clouds 22 1021 30 10000 5.1 60 11:44 01.07.2019
5641 Clouds 21 1020 33 10000 4.6 70 11:22 01.07.2019
5642 Clouds 20 1021 34 10000 4.6 20 10:48 01.07.2019
5643 Clouds 20 1021 37 10000 4.6 0 10:24 01.07.2019
5644 Clouds 18 1021 34 10000 4.1 30 09:58 01.07.2019
5645 Clouds 18 1021 34 10000 4.1 30 09:40 01.07.2019
5646 Clouds 18 1021 45 10000 2.1 0 09:21 01.07.2019
5647 Clouds 17 1021 48 10000 2.1 250 08:38 01.07.2019
5648 Clear 15 1022 58 10000 2.1 360 07:57 01.07.2019
5649 Clear 13 1022 55 10000 1.5 0 07:28 01.07.2019
5650 Clear 12 1021 62 10000 1.5 220 06:30 01.07.2019
5651 Clear 11 1021 62 10000 1.5 350 02:21 01.07.2019
5652 Clear 13 1021 66 10000 4.6 360 00:49 01.07.2019
5653 Clear 13 1020 58 10000 3.6 40 00:29 01.07.2019
5654 Clear 13 1021 62 10000 5.1 30 23:56 30.06.2019
5655 Clear 13 1020 55 10000 3.6 70 23:22 30.06.2019
5656 Clouds 14 1021 58 10000 5.1 30 22:52 30.06.2019
5657 Clear 14 1020 55 10000 2.6 350 22:21 30.06.2019
5658 Clouds 15 1020 58 10000 3.1 60 21:42 30.06.2019
5659 Clear 16 1020 48 10000 2.1 330 21:22 30.06.2019
5660 Clouds 16 1020 54 10000 4.1 50 20:57 30.06.2019
5661 Clouds 17 1019 45 10000 3.1 360 20:39 30.06.2019
5662 Clouds 17 1019 45 10000 3.1 360 20:21 30.06.2019
5663 Clouds 18 1019 42 10000 5.7 10 19:45 30.06.2019
5664 Clouds 18 1019 42 10000 5.1 350 19:25 30.06.2019
5665 Clouds 20 1018 37 10000 5.1 350 18:39 30.06.2019
5666 Clouds 20 1018 37 10000 5.1 350 18:20 30.06.2019
5667 Clouds 20 1018 34 10000 6.2 340 17:40 30.06.2019
5668 Clouds 20 1018 35 10000 3.6 0 17:18 30.06.2019
5669 Clouds 20 1018 35 10000 3.6 0 17:18 30.06.2019
5670 Clouds 20 1018 37 10000 6.2 340 16:49 30.06.2019
5671 Clouds 20 1018 37 10000 4.6 360 16:31 30.06.2019
5672 Clouds 21 1018 40 10000 6.7 330 15:38 30.06.2019
5673 Clouds 21 1018 35 10000 4.1 360 15:19 30.06.2019
5674 Clouds 21 1018 35 10000 4.1 360 15:19 30.06.2019
5675 Clouds 22 1018 35 10000 7.7 340 14:55 30.06.2019
5676 Clouds 22 1018 35 10000 7.7 340 14:36 30.06.2019
5677 Clouds 22 1018 32 10000 5.7 320 13:57 30.06.2019
5678 Clouds 22 1018 32 10000 5.7 320 13:37 30.06.2019
5679 Clouds 22 1017 33 10000 4.1 10 13:18 30.06.2019
5680 Clouds 21 1018 34 10000 6.2 310 12:42 30.06.2019
5681 Clouds 21 1017 30 10000 3.1 0 12:20 30.06.2019
5682 Clouds 21 1018 34 10000 5.1 360 11:45 30.06.2019
5683 Clouds 20 1018 32 10000 4.1 20 11:22 30.06.2019
5684 Clouds 19 1018 34 10000 3.1 300 10:55 30.06.2019
5685 Clouds 19 1018 34 10000 3.1 300 10:36 30.06.2019
5686 Clouds 19 1018 34 10000 1.5 0 10:18 30.06.2019
5687 Clouds 18 1018 33 10000 4.1 30 09:43 30.06.2019
5688 Clouds 18 1018 34 10000 2.1 0 09:21 30.06.2019
5689 Clouds 17 1018 45 10000 3.1 340 08:40 30.06.2019
5690 Clear 16 1018 48 10000 2.6 350 08:22 30.06.2019
5691 Clear 15 1018 47 10000 2.6 340 07:51 30.06.2019
5692 Clear 15 1018 55 10000 2.1 0 07:26 30.06.2019
5693 Clear 13 1018 62 10000 1 0 06:37 30.06.2019
5694 Clear 10 1017 76 10000 2.1 320 03:34 30.06.2019
5695 Clear 12 1017 71 10000 1 0 02:27 30.06.2019
5696 Clear 12 1017 58 10000 3.1 350 01:23 30.06.2019
5697 Clear 14 1017 71 10000 3.1 330 00:24 30.06.2019
5698 Clear 14 1017 62 10000 4.1 350 23:53 29.06.2019
5699 Clear 15 1017 55 10000 3.6 350 23:23 29.06.2019
5700 Clear 16 1017 58 10000 5.7 40 22:52 29.06.2019
5701 Clear 16 1017 51 10000 1.5 350 22:25 29.06.2019
5702 Clouds 17 1017 54 10000 5.1 30 21:56 29.06.2019
5703 Clear 17 1016 45 10000 3.1 10 21:38 29.06.2019
5704 Clear 17 1016 45 10000 3.1 10 21:19 29.06.2019
5705 Clouds 18 1015 45 10000 2.6 360 20:36 29.06.2019
5706 Clouds 18 1015 45 10000 2.6 360 20:18 29.06.2019
5707 Clouds 20 1016 42 10000 5.1 320 19:43 29.06.2019
5708 Clouds 20 1015 43 10000 3.6 360 19:22 29.06.2019
5709 Clouds 21 1015 40 10000 6.7 320 18:48 29.06.2019
5710 Clouds 21 1014 40 10000 4.6 10 18:25 29.06.2019
5711 Clouds 22 1014 40 10000 7.2 340 17:40 29.06.2019
5712 Clouds 23 1013 35 10000 3.1 0 17:21 29.06.2019
5713 Clouds 23 1014 35 10000 6.7 310 16:51 29.06.2019
5714 Clouds 23 1013 33 10000 6.7 360 16:28 29.06.2019
5715 Clouds 25 1013 31 10000 7.7 340 15:37 29.06.2019
5716 Clouds 25 1013 31 10000 7.7 340 15:19 29.06.2019
5717 Clouds 26 1013 27 10000 7.2 310 14:41 29.06.2019
5718 Clouds 25 1013 31 10000 5.1 360 14:23 29.06.2019
5719 Clouds 24 1013 31 10000 4.6 310 13:44 29.06.2019
5720 Clouds 24 1013 33 10000 3.6 20 13:26 29.06.2019
5721 Clouds 24 1014 35 10000 3.6 360 12:45 29.06.2019
5722 Clouds 24 1014 38 10000 5.7 360 12:26 29.06.2019
5723 Clouds 22 1014 40 10000 4.1 340 11:51 29.06.2019
5724 Clouds 22 1014 40 10000 4.6 360 11:30 29.06.2019
5725 Clouds 22 1014 43 10000 7.2 20 10:52 29.06.2019
5726 Clouds 22 1014 38 10000 3.6 20 10:29 29.06.2019
5727 Clouds 20 1014 39 10000 6.7 360 09:58 29.06.2019
5728 Clouds 20 1014 39 10000 6.7 360 09:36 29.06.2019
5729 Clouds 19 1014 42 10000 6.2 360 08:41 29.06.2019
5730 Clouds 19 1014 48 10000 6.2 360 07:46 29.06.2019
5731 Clear 19 1013 46 10000 3.6 10 07:21 29.06.2019
5732 Clouds 18 1014 63 10000 4.6 30 06:43 29.06.2019
5733 Clear 18 1013 59 10000 3.1 360 06:21 29.06.2019
5734 Clear 18 1011 59 10000 1.5 240 02:30 29.06.2019
5735 Clouds 19 1012 67 10000 2.1 10 00:57 29.06.2019
5736 Clear 19 1011 52 10000 1 0 00:23 29.06.2019
5737 Clear 20 1011 49 10000 1 0 23:26 28.06.2019
5738 Clouds 20 1011 59 10000 3.1 360 22:53 28.06.2019
5739 Clear 21 1010 43 10000 1 0 22:33 28.06.2019
5740 Clouds 22 1011 52 10000 3.1 10 21:47 28.06.2019
5741 Clouds 22 1011 46 10000 2.6 30 21:21 28.06.2019
5742 Clouds 23 1011 46 10000 1 0 20:46 28.06.2019
5743 Clear 23 1009 36 10000 1.5 360 20:26 28.06.2019
5744 Clouds 26 1010 35 10000 4.1 20 19:53 28.06.2019
5745 Clear 25 1009 22 10000 4.6 10 19:28 28.06.2019
5746 Clear 29 1009 17 10000 5.7 20 18:56 28.06.2019
5747 Clouds 28 1010 22 10000 7.2 10 18:38 28.06.2019
5748 Clear 28 1009 17 10000 5.7 20 18:20 28.06.2019
5749 Clouds 29 1007 16 10000 5.7 10 17:30 28.06.2019
5750 Clouds 30 1008 14 10000 10.3 20 16:51 28.06.2019
5751 Clouds 30 1007 14 10000 5.1 10 16:27 28.06.2019
5752 Clouds 31 1008 19 10000 7.2 10 15:48 28.06.2019
5753 Clouds 31 1007 18 10000 5.1 0 15:24 28.06.2019
5754 Clouds 31 1008 19 10000 3.1 300 14:56 28.06.2019
5755 Clouds 31 1009 22 10000 3.1 0 14:37 28.06.2019
5756 Clouds 30 1009 22 10000 3.1 0 14:18 28.06.2019
5757 Clouds 29 1008 37 10000 3.6 350 13:42 28.06.2019
5758 Clouds 29 1008 37 10000 3.6 350 13:20 28.06.2019
5759 Clouds 30 1009 30 10000 3.6 250 12:47 28.06.2019
5760 Clouds 29 1010 32 10000 2.6 0 11:56 28.06.2019
5761 Clouds 29 1009 42 10000 2.6 0 11:26 28.06.2019
5762 Clouds 27 1010 42 10000 1.5 0 10:46 28.06.2019
5763 Clouds 27 1010 42 10000 1.5 0 10:22 28.06.2019
5764 Clouds 26 1010 44 10000 1 0 09:49 28.06.2019
5765 Clear 25 1010 50 10000 1.5 0 09:30 28.06.2019
5766 Clouds 24 1011 50 10000 0.5 280 08:48 28.06.2019
5767 Clear 24 1011 53 10000 1 0 08:26 28.06.2019
5768 Clear 22 1011 56 10000 2.1 20 07:49 28.06.2019
5769 Clear 22 1011 56 10000 1 0 07:31 28.06.2019
5770 Clouds 19 1011 68 10000 0.5 0 06:33 28.06.2019
5771 Clear 19 1013 72 10000 3.1 10 01:42 28.06.2019
5772 Clouds 20 1013 68 10000 3.1 10 00:44 28.06.2019
5773 Clouds 21 1013 64 10000 3.6 20 23:55 27.06.2019
5774 Clear 21 1012 56 10000 1.5 240 23:37 27.06.2019
5775 Clear 21 1012 56 10000 1.5 240 23:18 27.06.2019
5776 Clouds 21 1013 60 10000 2.6 360 22:41 27.06.2019
5777 Clouds 22 1013 52 10000 2.1 340 22:22 27.06.2019
5778 Clouds 24 1013 49 10000 1.5 40 21:49 27.06.2019
5779 Clear 24 1012 39 10000 2.1 30 21:31 27.06.2019
5780 Clouds 25 1013 41 10000 4.1 40 20:57 27.06.2019
5781 Clouds 25 1013 41 10000 4.1 40 20:39 27.06.2019
5782 Clouds 25 1012 45 10000 1.5 0 20:19 27.06.2019
5783 Clouds 28 1013 34 10000 4.6 10 19:44 27.06.2019
5784 Clouds 28 1012 33 10000 2.6 20 19:25 27.06.2019
5785 Clouds 29 1013 30 10000 3.6 40 18:43 27.06.2019
5786 Clouds 29 1012 30 10000 5.36 0.064 18:21 27.06.2019
5787 Clouds 29 1013 30 10000 4.1 30 17:45 27.06.2019
5788 Clouds 29 1013 28 10000 2.6 290 17:22 27.06.2019
5789 Clouds 31 1013 25 10000 2.1 40 16:41 27.06.2019
5790 Clouds 31 1013 25 10000 2.1 40 16:20 27.06.2019
5791 Clouds 31 1014 27 10000 4.1 60 15:58 27.06.2019
5792 Clouds 31 1014 27 10000 4.1 60 15:40 27.06.2019
5793 Clouds 30 1015 30 10000 3.1 60 14:59 27.06.2019
5794 Clouds 30 1015 30 10000 3.1 60 14:39 27.06.2019
5795 Clouds 29 1014 29 10000 3.1 40 14:21 27.06.2019
5796 Clouds 30 1015 30 10000 4.6 40 13:43 27.06.2019
5797 Clouds 29 1015 30 10000 4.1 100 13:25 27.06.2019
5798 Clouds 29 1016 32 10000 3.6 50 12:49 27.06.2019
5799 Clouds 29 1015 37 10000 2.6 300 12:31 27.06.2019
5800 Clouds 28 1017 34 10000 2.6 60 11:49 27.06.2019
5801 Clouds 28 1016 39 10000 2.6 70 11:25 27.06.2019
5802 Clouds 27 1017 44 10000 2.6 130 10:59 27.06.2019
5803 Clouds 27 1017 44 10000 2.6 130 10:41 27.06.2019
5804 Clouds 27 1017 44 10000 1.5 0 10:20 27.06.2019
5805 Clouds 25 1017 47 10000 3.1 110 09:41 27.06.2019
5806 Clouds 25 1017 47 10000 3.1 110 09:21 27.06.2019
5807 Clouds 25 1018 50 10000 4.1 90 08:50 27.06.2019
5808 Clear 24 1017 50 10000 2.6 70 08:28 27.06.2019
5809 Clouds 23 1018 56 10000 3.6 20 07:48 27.06.2019
5810 Clouds 21 1018 64 10000 3.6 10 06:59 27.06.2019
5811 Clear 20 1018 60 10000 2.34 36.541 06:37 27.06.2019
5812 Clouds 21 1019 63 10000 2.6 340 03:52 27.06.2019
5813 Clouds 21 1018 63 10000 3.1 20 02:43 27.06.2019
5814 Clouds 22 1018 68 10000 5.1 30 01:45 27.06.2019
5815 Clouds 23 1019 64 10000 3.6 360 00:53 27.06.2019
5816 Clouds 23 1018 53 10000 0.5 0 00:29 27.06.2019
5817 Clouds 23 1019 56 10000 4.6 30 23:52 26.06.2019
5818 Clouds 23 1018 50 10000 3.6 60 23:23 26.06.2019
5819 Clouds 24 1019 53 10000 4.1 20 22:59 26.06.2019
5820 Clouds 24 1019 53 10000 4.1 20 22:40 26.06.2019
5821 Clouds 24 1018 47 10000 2.6 50 22:20 26.06.2019
5822 Clouds 25 1019 56 10000 3.1 10 21:43 26.06.2019
5823 Clouds 25 1017 42 10000 4.6 20 21:22 26.06.2019
5824 Clouds 25 1018 50 10000 3.6 20 20:58 26.06.2019
5825 Clouds 25 1018 50 10000 3.6 20 20:39 26.06.2019
5826 Clouds 25 1018 50 10000 3.6 20 20:39 26.06.2019
5827 Clouds 25 1018 54 10000 4.1 340 20:21 26.06.2019
5828 Clouds 27 1018 47 10000 5.1 360 19:44 26.06.2019
5829 Clouds 27 1017 48 10000 4.6 350 19:25 26.06.2019
5830 Clouds 28 1017 42 10000 6.2 20 18:48 26.06.2019
5831 Clouds 28 1016 37 10000 5.7 20 18:23 26.06.2019
5832 Clouds 30 1017 35 10000 4.1 30 17:59 26.06.2019
5833 Clouds 30 1017 35 10000 4.1 30 17:38 26.06.2019
5834 Clouds 30 1016 35 10000 5.7 40 17:19 26.06.2019
5835 Clouds 30 1017 35 10000 7.2 10 16:46 26.06.2019
5836 Clouds 30 1017 33 10000 4.6 20 16:24 26.06.2019
5837 Clouds 31 1018 30 10000 5.1 20 15:42 26.06.2019
5838 Clouds 32 1018 28 10000 3.6 20 15:23 26.06.2019
5839 Clouds 31 1018 32 10000 5.1 50 14:38 26.06.2019
5840 Clouds 31 1017 26 10000 4.1 10 14:20 26.06.2019
5841 Clouds 30 1017 31 10000 2.6 0 13:44 26.06.2019
5842 Clouds 30 1017 31 10000 2.6 0 13:21 26.06.2019
5843 Clouds 30 1018 37 10000 5.7 80 12:42 26.06.2019
5844 Clouds 30 1018 37 10000 5.7 80 12:42 26.06.2019
5845 Clouds 30 1018 37 10000 5.7 80 12:42 26.06.2019
5846 Clouds 30 1018 33 10000 2.6 0 12:23 26.06.2019
5847 Clouds 29 1019 37 10000 5.1 90 11:49 26.06.2019
5848 Clouds 29 1018 35 10000 3.1 0 11:21 26.06.2019
5849 Clouds 28 1019 36 10000 6.2 50 10:46 26.06.2019
5850 Clear 28 1018 37 10000 3.1 30 10:27 26.06.2019
5851 Clouds 27 1019 39 10000 6.7 50 09:49 26.06.2019
5852 Clear 27 1018 42 10000 4.1 50 09:20 26.06.2019
5853 Clouds 26 1019 47 10000 5.7 50 08:49 26.06.2019
5854 Clear 25 1019 44 10000 3.1 60 08:20 26.06.2019
5855 Clear 24 1019 53 10000 5.7 10 07:46 26.06.2019
5856 Clear 22 1019 60 10000 7.2 20 06:57 26.06.2019
5857 Clear 21 1018 60 10000 1 0 06:31 26.06.2019
5858 Clear 22 1017 57 10000 2.1 90 01:28 26.06.2019
5859 Clear 23 1018 53 10000 1.5 60 00:25 26.06.2019
5860 Clear 22 1019 64 10000 3.6 20 23:47 25.06.2019
5861 Clear 23 1017 53 10000 1 0 23:27 25.06.2019
5862 Clear 23 1018 64 10000 3.6 360 22:57 25.06.2019
5863 Clear 23 1017 50 10000 1 0 22:39 25.06.2019
5864 Clear 24 1017 50 10000 1 0 22:20 25.06.2019
5865 Clear 24 1018 60 10000 2.6 20 21:43 25.06.2019
5866 Clouds 24 1017 57 10000 2.6 50 21:22 25.06.2019
5867 Clear 26 1018 56 10000 4.1 40 20:46 25.06.2019
5868 Clear 26 1018 56 10000 4.1 40 20:46 25.06.2019
5869 Clouds 26 1016 42 10000 4.1 30 20:22 25.06.2019
5870 Clouds 27 1017 47 10000 5.7 10 19:48 25.06.2019
5871 Clouds 28 1016 48 10000 3.6 10 19:23 25.06.2019
5872 Clouds 30 1017 28 10000 4.6 60 18:59 25.06.2019
5873 Clouds 30 1017 28 10000 4.6 60 18:40 25.06.2019
5874 Clouds 30 1015 31 10000 2.1 60 18:21 25.06.2019
5875 -273 0 0 0 0 0 17:32 25.06.2019
5876 -273 0 0 0 0 0 17:32 25.06.2019
5877 Clouds 31 1016 30 10000 2.6 110 16:59 25.06.2019
5878 Clouds 31 1016 30 10000 2.6 110 16:40 25.06.2019
5879 Clouds 32 1015 29 10000 3.1 100 16:22 25.06.2019
5880 Clouds 31 1016 28 10000 2.6 150 15:43 25.06.2019
5881 Clouds 31 1015 31 10000 2.6 40 15:24 25.06.2019
5882 Clouds 31 1017 30 10000 3.1 60 14:55 25.06.2019
5883 Clouds 31 1015 29 10000 2.1 0 14:36 25.06.2019
5884 Clouds 30 1017 30 10000 3.1 140 13:50 25.06.2019
5885 Clouds 31 1016 29 10000 2.1 70 13:30 25.06.2019
5886 Clouds 30 1017 32 10000 2.1 0 12:58 25.06.2019
5887 Clouds 30 1016 31 10000 2.1 80 12:38 25.06.2019
5888 Clouds 30 1016 31 10000 2.1 80 12:20 25.06.2019
5889 Clouds 29 1017 32 10000 2.1 60 11:44 25.06.2019
5890 Clouds 29 1017 37 10000 1.5 0 11:21 25.06.2019
5891 Clouds 28 1018 39 10000 2.6 350 10:45 25.06.2019
5892 Clouds 28 1017 42 10000 2.6 0 10:23 25.06.2019
5893 Clouds 27 1018 44 10000 2.1 60 09:56 25.06.2019
5894 Clouds 27 1017 51 10000 2.6 80 09:38 25.06.2019
5895 Clouds 26 1017 51 10000 2.6 80 09:19 25.06.2019
5896 Clear 24 1018 53 10000 3.1 60 08:47 25.06.2019
5897 Clear 24 1017 53 10000 3.1 70 08:28 25.06.2019
5898 Clear 22 1018 56 10000 4.1 30 07:40 25.06.2019
5899 Clear 19 1018 72 10000 2.1 150 06:58 25.06.2019
5900 Clear 19 1018 72 10000 2.1 150 06:40 25.06.2019
5901 Clear 18 1017 82 10000 3.1 10 02:48 25.06.2019
5902 Clear 18 1017 77 10000 2.1 350 01:50 25.06.2019
5903 Clear 20 1017 60 10000 1.5 230 00:37 25.06.2019
5904 Clear 20 1018 64 10000 2.1 10 23:59 24.06.2019
5905 Clear 21 1018 64 10000 2.1 10 23:40 24.06.2019
5906 Clear 21 1017 53 10000 0.5 0 23:22 24.06.2019
5907 Clear 21 1018 64 10000 2.1 40 22:41 24.06.2019
5908 Clear 22 1018 56 10000 2.1 20 22:19 24.06.2019
5909 Clear 22 1017 60 10000 3.1 50 21:41 24.06.2019
5910 Clear 23 1017 56 10000 1.5 0 21:19 24.06.2019
5911 Clear 24 1017 56 10000 3.6 40 20:57 24.06.2019
5912 Clear 24 1017 56 10000 3.6 40 20:39 24.06.2019
5913 Clear 24 1015 41 10000 2.1 60 20:20 24.06.2019
5914 Clouds 27 1016 47 10000 3.6 20 19:46 24.06.2019
5915 Clear 27 1015 37 10000 3.6 50 19:21 24.06.2019
5916 Clouds 28 1016 34 10000 4.1 40 18:47 24.06.2019
5917 Clouds 28 1015 28 10000 1.5 100 18:27 24.06.2019
5918 Clouds 29 1016 34 10000 4.6 30 17:47 24.06.2019
5919 Clouds 29 1016 34 10000 4.6 30 17:47 24.06.2019
5920 Clouds 29 1015 33 10000 1 120 17:27 24.06.2019
5921 Clouds 29 1016 32 10000 3.6 30 16:48 24.06.2019
5922 Clouds 29 1015 30 10000 1 0 16:21 24.06.2019
5923 Clouds 29 1016 30 10000 3.1 20 15:57 24.06.2019
5924 Clouds 29 1016 30 10000 3.1 20 15:38 24.06.2019
5925 Clouds 29 1015 30 10000 3.1 70 15:19 24.06.2019
5926 Clouds 29 1016 33 10000 2.1 0 14:33 24.06.2019
5927 Clouds 28 1017 30 10000 2.1 0 13:50 24.06.2019
5928 Clouds 28 1016 32 10000 2.6 0 13:24 24.06.2019
5929 Clouds 27 1017 36 10000 2.1 0 12:44 24.06.2019
5930 Clouds 27 1016 32 10000 2.1 0 12:22 24.06.2019
5931 Clouds 26 1017 41 10000 3.6 350 11:55 24.06.2019
5932 Clouds 26 1017 44 10000 2.1 0 11:37 24.06.2019
5933 Clouds 26 1017 44 10000 2.1 0 11:18 24.06.2019
5934 Clouds 25 1017 47 10000 2.1 120 10:41 24.06.2019
5935 Clouds 24 1017 44 10000 1.5 170 10:20 24.06.2019
5936 Clouds 23 1018 50 10000 2.1 80 09:48 24.06.2019
5937 Clear 23 1017 53 10000 2.1 90 09:19 24.06.2019
5938 Clouds 22 1018 56 10000 0.5 0 08:51 24.06.2019
5939 Clear 21 1018 56 10000 1 0 08:22 24.06.2019
5940 Clear 19 1018 59 10000 1 0 07:44 24.06.2019
5941 Clear 19 1018 63 10000 1 0 07:24 24.06.2019
5942 Clear 17 1018 77 10000 1 0 06:27 24.06.2019
5943 Clear 14 1018 82 10000 0.5 0 05:56 24.06.2019
5944 Clear 14 1018 87 10000 1.5 350 04:59 24.06.2019
5945 Clear 15 1018 87 10000 1.5 20 04:21 24.06.2019
5946 Clear 16 1018 77 10000 0.5 0 02:53 24.06.2019
5947 Clear 17 1018 77 10000 0.5 0 01:58 24.06.2019
5948 Clear 17 1018 77 10000 0.5 0 01:40 24.06.2019
5949 Clear 17 1017 77 10000 1 240 01:21 24.06.2019
5950 Clear 17 1017 72 10000 0.5 0 00:38 24.06.2019
5951 Clear 18 1017 68 10000 1 0 00:18 24.06.2019
5952 Clear 18 1017 72 10000 2.6 310 23:42 23.06.2019
5953 Clear 18 1017 60 10000 3.1 10 23:21 23.06.2019
5954 Clear 21 1017 56 10000 2.1 80 22:42 23.06.2019
5955 Clear 21 1017 56 10000 2.1 80 22:20 23.06.2019
5956 Clear 21 1017 49 10000 0.5 0 21:43 23.06.2019
5957 Clear 21 1017 49 10000 0.5 0 21:25 23.06.2019
5958 Clear 22 1017 52 10000 3.1 10 20:57 23.06.2019
5959 Clear 22 1017 52 10000 3.1 10 20:38 23.06.2019
5960 Clouds 22 1017 56 10000 5.1 340 20:19 23.06.2019
5961 Clouds 24 1015 44 10000 4.1 360 19:43 23.06.2019
5962 Clouds 24 1015 44 10000 4.1 360 19:20 23.06.2019
5963 Clouds 24 1015 44 10000 4.1 360 19:20 23.06.2019
5964 Clouds 27 1016 41 10000 5.1 300 18:47 23.06.2019
5965 Clouds 26 1015 36 10000 3.6 360 18:20 23.06.2019
5966 Clouds 28 1015 34 10000 4.6 290 17:45 23.06.2019
5967 Clouds 28 1016 34 10000 4.6 320 17:25 23.06.2019
5968 Clouds 28 1016 32 10000 4.6 310 16:47 23.06.2019
5969 Clouds 27 1016 34 10000 5.1 310 16:26 23.06.2019
5970 Clouds 28 1016 32 10000 5.1 280 15:58 23.06.2019
5971 Clouds 27 1015 37 10000 2.6 0 15:37 23.06.2019
5972 Clouds 27 1015 37 10000 2.6 0 15:18 23.06.2019
5973 Clouds 28 1016 32 10000 5.1 300 14:39 23.06.2019
5974 Clouds 28 1016 35 10000 4.1 0 14:21 23.06.2019
5975 Clouds 27 1016 32 10000 3.1 250 13:46 23.06.2019
5976 Clouds 27 1016 37 10000 3.1 0 13:21 23.06.2019
5977 Clouds 27 1016 34 10000 4.6 270 12:59 23.06.2019
5978 Clouds 27 1016 34 10000 4.6 270 12:41 23.06.2019
5979 Clouds 26 1016 39 10000 2.6 0 12:19 23.06.2019
5980 Clouds 26 1017 38 10000 1.5 0 11:47 23.06.2019
5981 Clouds 26 1016 39 10000 3.1 0 11:27 23.06.2019
5982 Clouds 24 1017 36 10000 1 0 10:50 23.06.2019
5983 Clouds 24 1016 47 10000 3.1 240 10:21 23.06.2019
5984 Clear 23 1017 40 10000 1.5 250 09:58 23.06.2019
5985 Clear 23 1017 49 10000 2.1 0 09:22 23.06.2019
5986 Clear 22 1017 52 10000 1 0 08:47 23.06.2019
5987 Clear 22 1017 52 10000 1 0 08:28 23.06.2019
5988 Clear 19 1017 72 10000 2.1 260 07:57 23.06.2019
5989 Clear 19 1017 72 10000 2.1 260 07:39 23.06.2019
5990 Clear 17 1017 82 10000 0.5 0 07:18 23.06.2019
5991 Clear 17 1016 82 10000 1.5 230 06:46 23.06.2019
5992 Clear 15 1017 82 10000 1 0 05:44 23.06.2019
5993 Clear 15 1016 87 10000 1.92 359.94 02:51 23.06.2019
5994 Clouds 16 1016 82 10000 1.92 359.94 01:39 23.06.2019
5995 Clouds 17 1016 82 10000 1 0 00:58 23.06.2019
5996 Clear 17 1016 77 10000 0.5 0 00:27 23.06.2019
5997 Clouds 18 1016 77 10000 1.92 345.282 23:44 22.06.2019
5998 Clear 18 1016 88 10000 1 220 23:25 22.06.2019
5999 Clouds 18 1017 77 10000 1.92 345.282 22:47 22.06.2019
6000 Clouds 18 1016 82 10000 1.5 230 22:26 22.06.2019
6001 Clouds 19 1017 64 10000 1 0 21:45 22.06.2019
6002 Clouds 19 1016 88 10000 3.79 3.01 21:20 22.06.2019
6003 Clouds 20 1016 64 10000 3.79 3.01 20:57 22.06.2019
6004 Clouds 20 1015 77 10000 0.5 0 20:38 22.06.2019
6005 Clouds 20 1015 77 10000 0.5 0 20:20 22.06.2019
6006 Clouds 20 1016 60 10000 1.5 210 19:40 22.06.2019
6007 Clouds 20 1015 77 10000 2.1 240 19:20 22.06.2019
6008 Rain 20 1015 72 10000 2.6 210 18:42 22.06.2019
6009 Thunderstorm 21 1015 77 10000 1.5 0 18:22 22.06.2019
6010 Thunderstorm 23 1015 49 10000 6.2 360 17:46 22.06.2019
6011 Rain 23 1015 50 10000 5.7 320 17:25 22.06.2019
6012 Rain 23 1014 53 10000 10.3 40 16:43 22.06.2019
6013 Rain 24 1014 53 10000 2.6 220 16:24 22.06.2019
6014 Thunderstorm 24 1014 36 10000 3.1 80 15:45 22.06.2019
6015 Thunderstorm 25 1014 50 10000 2.1 190 15:27 22.06.2019
6016 Thunderstorm 26 1014 64 10000 4.6 260 14:52 22.06.2019
6017 Thunderstorm 27 1014 34 10000 3.6 60 14:32 22.06.2019
6018 Clouds 28 1014 34 10000 2.6 20 13:57 22.06.2019
6019 Clouds 27 1014 34 10000 2.6 20 13:39 22.06.2019
6020 Clouds 27 1014 37 10000 4.1 80 13:18 22.06.2019
6021 Clouds 27 1015 36 10000 4.6 90 12:43 22.06.2019
6022 Clouds 26 1015 44 10000 4.6 90 12:20 22.06.2019
6023 Clouds 25 1015 38 10000 4.1 50 11:41 22.06.2019
6024 Clouds 24 1015 53 10000 3.1 90 11:19 22.06.2019
6025 Clouds 23 1015 53 10000 2.6 120 10:22 22.06.2019
6026 Clouds 22 1015 56 10000 2.1 30 09:58 22.06.2019
6027 Clouds 22 1015 64 10000 1.5 50 09:35 22.06.2019
6028 Clouds 20 1015 60 10000 3.1 350 08:49 22.06.2019
6029 Clouds 20 1015 72 10000 1 0 08:31 22.06.2019
6030 Clouds 20 1015 64 10000 2.6 360 07:52 22.06.2019
6031 Clouds 19 1015 72 10000 1 170 07:23 22.06.2019
6032 Clouds 18 1015 77 10000 1 0 06:40 22.06.2019
6033 Clouds 18 1014 82 10000 1 0 03:42 22.06.2019
6034 Rain 19 1013 68 10000 1.5 230 02:24 22.06.2019
6035 Clouds 19 1014 72 10000 2.1 20 00:52 22.06.2019
6036 Clouds 19 1013 72 10000 2.1 220 00:29 22.06.2019
6037 Clouds 19 1014 68 10000 3.1 360 23:49 21.06.2019
6038 Clouds 19 1013 72 10000 0.5 220 23:23 21.06.2019
6039 Clouds 19 1014 68 10000 2.6 30 22:56 21.06.2019
6040 Clouds 19 1013 68 10000 1.5 200 22:32 21.06.2019
6041 Clouds 20 1014 72 10000 2.6 350 21:58 21.06.2019
6042 Clouds 19 1014 77 10000 2.1 360 21:38 21.06.2019
6043 Clouds 20 1014 77 10000 2.1 360 21:19 21.06.2019
6044 Clouds 21 1014 77 10000 2.1 340 20:47 21.06.2019
6045 Rain 21 1013 60 10000 0.5 0 20:25 21.06.2019
6046 Rain 21 1013 68 10000 2.6 350 19:45 21.06.2019
6047 Clouds 22 1013 68 10000 2.1 30 18:59 21.06.2019
6048 Clouds 22 1013 56 10000 4.1 80 18:35 21.06.2019
6049 Clouds 23 1013 68 10000 4.1 20 17:58 21.06.2019
6050 Clouds 23 1012 53 10000 3.1 20 17:30 21.06.2019
6051 Clouds 24 1013 56 10000 5.1 20 16:43 21.06.2019
6052 Clouds 24 1012 50 10000 4.1 20 16:23 21.06.2019
6053 Clouds 24 1013 56 10000 3.1 360 15:58 21.06.2019
6054 Clouds 24 1013 50 10000 4.1 260 15:36 21.06.2019
6055 Thunderstorm 23 1014 64 10000 2.1 220 14:54 21.06.2019
6056 Clouds 23 1013 53 10000 5.1 330 14:32 21.06.2019
6057 Rain 23 1014 68 10000 3.6 360 13:59 21.06.2019
6058 Rain 23 1014 57 10000 5.7 320 13:37 21.06.2019
6059 Rain 22 1014 57 10000 5.7 320 13:19 21.06.2019
6060 Rain 23 1014 49 10000 2.1 220 12:42 21.06.2019
6061 Rain 23 1013 50 10000 4.1 280 12:22 21.06.2019
6062 Rain 22 1014 60 10000 1.5 240 11:48 21.06.2019
6063 Rain 22 1014 53 10000 1.5 320 11:28 21.06.2019
6064 Rain 23 1014 60 10000 2.6 260 10:56 21.06.2019
6065 Clouds 23 1014 53 10000 2.6 0 10:38 21.06.2019
6066 Clouds 22 1014 53 10000 2.6 0 10:20 21.06.2019
6067 Clouds 22 1014 56 10000 1.5 40 09:42 21.06.2019
6068 Clouds 21 1014 56 10000 1.5 40 09:21 21.06.2019
6069 Clouds 20 1014 56 10000 1.5 0 08:45 21.06.2019
6070 Clouds 20 1014 56 10000 1.5 0 08:27 21.06.2019
6071 Clouds 20 1014 56 10000 1.5 0 08:27 21.06.2019
6072 Clouds 19 1014 72 10000 1 0 07:57 21.06.2019
6073 Clouds 19 1014 72 10000 1 0 07:38 21.06.2019
6074 Clouds 17 1014 82 10000 0.5 0 06:59 21.06.2019
6075 Clouds 17 1014 72 10000 1.5 230 06:24 21.06.2019
6076 Clouds 16 1014 82 10000 1 220 05:33 21.06.2019
6077 Clear 16 1013 77 10000 1.5 240 04:35 21.06.2019
6078 Clear 16 1013 77 10000 1 0 03:35 21.06.2019
6079 Clouds 16 1013 82 10000 1.79 346.6 02:58 21.06.2019
6080 Clouds 17 1013 82 10000 1.79 346.6 01:59 21.06.2019
6081 Clear 17 1013 77 10000 1.5 220 01:25 21.06.2019
6082 Clear 17 1013 68 10000 1.5 230 00:27 21.06.2019
6083 Clouds 18 1013 77 10000 1.5 0 23:53 20.06.2019
6084 Clear 18 1013 72 10000 2.6 310 23:24 20.06.2019
6085 Clouds 18 1013 72 10000 0.5 0 22:59 20.06.2019
6086 Clouds 18 1013 72 10000 0.5 0 22:40 20.06.2019
6087 Clouds 18 1013 64 10000 0.5 310 22:21 20.06.2019
6088 Clouds 19 1013 72 10000 3.1 350 21:52 20.06.2019
6089 Clouds 19 1012 60 10000 2.6 10 21:20 20.06.2019
6090 Clouds 19 1013 72 10000 1 0 20:59 20.06.2019
6091 Clouds 19 1013 72 10000 1 0 20:40 20.06.2019
6092 Clouds 19 1012 60 10000 2.6 360 20:20 20.06.2019
6093 Clouds 20 1012 72 10000 2.6 310 19:43 20.06.2019
6094 Clouds 20 1011 68 10000 3.66 4.966 19:19 20.06.2019
6095 Clouds 20 1012 77 10000 1.5 250 18:55 20.06.2019
6096 Clouds 20 1011 68 10000 2.6 130 18:37 20.06.2019
6097 Rain 20 1011 68 10000 2.6 130 18:18 20.06.2019
6098 Rain 21 1012 68 10000 3.6 330 17:43 20.06.2019
6099 Rain 21 1011 60 10000 4.1 330 17:19 20.06.2019
6100 Thunderstorm 21 1010 64 10000 6.2 290 16:40 20.06.2019
6101 Thunderstorm 21 1010 64 10000 6.2 290 16:19 20.06.2019
6102 Thunderstorm 22 1010 64 10000 7.2 280 15:43 20.06.2019
6103 Thunderstorm 22 1010 64 10000 7.2 280 15:23 20.06.2019
6104 Clouds 22 1010 49 10000 4.1 10 14:54 20.06.2019
6105 Clouds 23 1010 60 10000 6.7 330 14:36 20.06.2019
6106 Clouds 23 1010 60 10000 6.7 330 14:18 20.06.2019
6107 Rain 23 1010 47 10000 1.5 90 13:38 20.06.2019
6108 Clouds 23 1011 50 10000 3.6 50 13:18 20.06.2019
6109 Clouds 22 1011 52 10000 4.6 80 12:41 20.06.2019
6110 Clouds 22 1011 49 10000 3.1 40 12:21 20.06.2019
6111 Rain 21 1012 64 10000 3.1 30 11:41 20.06.2019
6112 Clouds 22 1011 53 10000 1.5 0 11:22 20.06.2019
6113 Clouds 22 1011 53 10000 1.5 0 11:22 20.06.2019
6114 Clouds 21 1012 60 10000 4.1 40 10:44 20.06.2019
6115 Clouds 21 1011 64 10000 5.1 70 10:24 20.06.2019
6116 Clouds 19 1012 72 10000 3.1 70 09:55 20.06.2019
6117 Rain 19 1011 68 10000 2.1 100 09:37 20.06.2019
6118 Clouds 19 1012 72 10000 3.1 70 09:37 20.06.2019
6119 Rain 19 1011 68 10000 2.1 100 09:18 20.06.2019
6120 Rain 18 1012 68 10000 1 150 08:43 20.06.2019
6121 Rain 18 1011 72 10000 2.43 359.057 08:22 20.06.2019
6122 Rain 18 1011 77 10000 4.6 10 07:44 20.06.2019
6123 Rain 18 1011 68 10000 2.43 359.057 07:25 20.06.2019
6124 Rain 18 1011 68 10000 1 0 06:19 20.06.2019
6125 Clouds 17 1011 72 10000 2.6 330 03:40 20.06.2019
6126 Clouds 18 1011 67 10000 2.6 20 02:26 20.06.2019
6127 Clouds 18 1011 77 10000 2.1 230 00:33 20.06.2019
6128 Clouds 19 1012 63 10000 3.1 10 23:48 19.06.2019
6129 Clouds 19 1011 72 10000 2.1 240 23:29 19.06.2019
6130 Clouds 18 1012 63 10000 3.1 20 22:49 19.06.2019
6131 Clouds 18 1011 72 10000 2.1 220 22:24 19.06.2019
6132 Clouds 19 1012 63 10000 3.1 360 21:58 19.06.2019
6133 Clouds 19 1012 63 10000 3.1 360 21:58 19.06.2019
6134 Clouds 19 1012 63 10000 3.1 360 21:58 19.06.2019
6135 Clouds 19 1011 68 10000 2.1 220 21:37 19.06.2019
6136 Clouds 19 1011 68 10000 2.1 220 21:19 19.06.2019
6137 Clouds 19 1012 60 10000 3.6 20 20:41 19.06.2019
6138 Clouds 19 1011 68 10000 2.6 270 20:21 19.06.2019
6139 Clouds 20 1012 52 10000 3.6 60 19:46 19.06.2019
6140 Clouds 20 1011 64 10000 0.5 0 19:26 19.06.2019
6141 Clouds 20 1012 49 10000 5.7 10 18:56 19.06.2019
6142 Clouds 20 1011 60 10000 5.1 360 18:24 19.06.2019
6143 Clouds 21 1012 82 10000 2.1 30 17:44 19.06.2019
6144 Rain 21 1011 53 10000 4.1 350 17:25 19.06.2019
6145 Rain 21 1012 47 10000 5.7 50 16:56 19.06.2019
6146 Rain 21 1012 47 10000 5.7 50 16:36 19.06.2019
6147 Rain 21 1011 53 10000 2.6 350 16:18 19.06.2019
6148 Thunderstorm 21 1012 44 10000 6.7 30 15:42 19.06.2019
6149 Thunderstorm 22 1011 47 10000 4.1 40 15:22 19.06.2019
6150 Thunderstorm 22 1011 47 10000 4.1 40 15:22 19.06.2019
6151 Rain 24 1012 41 10000 6.7 60 14:43 19.06.2019
6152 Rain 24 1012 41 10000 6.7 60 14:43 19.06.2019
6153 Rain 25 1012 41 10000 4.1 90 14:24 19.06.2019
6154 Clouds 25 1013 43 10000 8.7 60 13:47 19.06.2019
6155 Rain 25 1012 36 10000 2.6 280 13:28 19.06.2019
6156 Clouds 26 1013 41 10000 3.1 30 12:57 19.06.2019
6157 Clouds 26 1013 41 10000 3.1 30 12:39 19.06.2019
6158 Clouds 25 1012 36 10000 2.1 0 12:18 19.06.2019
6159 Clouds 25 1013 41 10000 4.6 340 11:40 19.06.2019
6160 Clouds 25 1013 41 10000 2.6 0 11:21 19.06.2019
6161 Clouds 24 1014 35 10000 4.1 40 10:49 19.06.2019
6162 Clouds 23 1013 50 10000 1 0 10:28 19.06.2019
6163 Clouds 23 1013 43 10000 4.6 10 09:56 19.06.2019
6164 Clouds 22 1013 56 10000 1 0 09:37 19.06.2019
6165 Clouds 22 1013 56 10000 1 0 09:18 19.06.2019
6166 Clouds 21 1013 64 10000 0.5 0 08:43 19.06.2019
6167 Clouds 21 1013 64 10000 0.5 0 08:25 19.06.2019
6168 Clouds 20 1014 60 10000 2.1 10 07:43 19.06.2019
6169 Clouds 19 1013 68 10000 1 0 07:23 19.06.2019
6170 Clouds 18 1014 72 10000 1 0 06:42 19.06.2019
6171 Clouds 17 1013 77 10000 2.03 10.001 06:19 19.06.2019
6172 Clouds 16 1013 87 10000 2.03 10.001 05:32 19.06.2019
6173 Clouds 15 1014 87 10000 1.5 360 03:54 19.06.2019
6174 Clouds 16 1013 82 10000 1 0 02:51 19.06.2019
6175 Clouds 16 1014 77 10000 1 0 01:41 19.06.2019
6176 Clouds 16 1014 82 10000 1.5 320 00:55 19.06.2019
6177 Clouds 16 1014 82 10000 3.23 23.501 00:36 19.06.2019
6178 Clouds 16 1014 82 10000 1.58 342.048 00:18 19.06.2019
6179 Clouds 17 1014 72 10000 2.1 30 23:42 18.06.2019
6180 Clouds 17 1014 82 10000 1.58 342.048 23:24 18.06.2019
6181 Clouds 17 1015 72 10000 0.5 0 22:41 18.06.2019
6182 Clouds 17 1014 82 10000 1.5 230 22:23 18.06.2019
6183 Clouds 17 1015 77 10000 1.5 330 21:47 18.06.2019
6184 Clouds 17 1014 77 10000 2.1 240 21:23 18.06.2019
6185 Clouds 17 1014 77 10000 2.1 240 21:23 18.06.2019
6186 Clouds 18 1015 77 10000 1 0 20:59 18.06.2019
6187 Clouds 18 1015 77 10000 1 0 20:40 18.06.2019
6188 Rain 18 1014 72 10000 1 130 20:21 18.06.2019
6189 Rain 19 1014 77 10000 3.6 30 19:40 18.06.2019
6190 Rain 18 1014 68 10000 3.1 110 19:22 18.06.2019
6191 Rain 19 1014 77 10000 5.1 20 18:55 18.06.2019
6192 Rain 18 1014 64 10000 8.2 70 18:25 18.06.2019
6193 Rain 19 1015 82 10000 7.2 50 17:49 18.06.2019
6194 Rain 19 1013 53 10000 8.7 70 17:23 18.06.2019
6195 Rain 22 1013 64 10000 11.8 40 16:58 18.06.2019
6196 Rain 23 1013 64 10000 11.8 40 16:40 18.06.2019
6197 Rain 24 1011 42 10000 3.6 310 16:21 18.06.2019
6198 Clouds 25 1012 44 10000 2.6 350 15:41 18.06.2019
6199 Clouds 25 1011 60 10000 1.5 240 15:23 18.06.2019
6200 Rain 24 1012 50 10000 5.7 350 14:56 18.06.2019
6201 Rain 24 1012 50 10000 5.7 350 14:37 18.06.2019
6202 Clouds 24 1013 64 10000 3.6 310 14:18 18.06.2019
6203 Rain 24 1013 83 10000 3.1 320 13:49 18.06.2019
6204 Thunderstorm 24 1012 53 10000 1 0 13:29 18.06.2019
6205 Thunderstorm 23 1013 50 10000 2.1 140 12:46 18.06.2019
6206 Thunderstorm 23 1014 53 10000 2.1 0 12:28 18.06.2019
6207 Thunderstorm 23 1014 60 10000 2.1 90 11:50 18.06.2019
6208 Rain 23 1014 60 10000 3.1 90 11:24 18.06.2019
6209 Clouds 23 1014 56 10000 2.6 20 10:59 18.06.2019
6210 Clouds 23 1014 56 10000 2.6 20 10:40 18.06.2019
6211 Clouds 23 1013 57 10000 2.1 0 10:20 18.06.2019
6212 Clouds 23 1013 57 10000 2.1 0 10:20 18.06.2019
6213 Clouds 21 1014 68 10000 2.6 60 09:51 18.06.2019
6214 Clouds 21 1013 64 10000 2.1 90 09:24 18.06.2019
6215 Clouds 20 1014 72 10000 1.5 210 08:49 18.06.2019
6216 Clouds 20 1013 68 10000 0.61 325.583 08:22 18.06.2019
6217 Clouds 19 1014 82 10000 1 0 07:55 18.06.2019
6218 Clouds 19 1013 72 10000 1 0 07:25 18.06.2019
6219 Clouds 18 1014 82 10000 0.61 325.583 06:52 18.06.2019
6220 Clouds 16 1012 82 10000 1.5 240 05:24 18.06.2019
6221 Clouds 16 1012 82 10000 2.1 200 04:21 18.06.2019
6222 Clouds 17 1013 77 10000 1 0 02:45 18.06.2019
6223 Rain 17 1013 63 10000 1.5 0 01:27 18.06.2019
6224 Thunderstorm 17 1014 82 10000 3.1 120 00:58 18.06.2019
6225 Thunderstorm 17 1013 77 10000 2.1 250 00:30 18.06.2019
6226 Thunderstorm 17 1013 77 10000 1.5 240 23:42 17.06.2019
6227 Thunderstorm 17 1013 77 10000 1.5 240 23:42 17.06.2019
6228 Thunderstorm 17 1013 72 10000 0.5 0 23:23 17.06.2019
6229 Thunderstorm 17 1013 82 10000 1 0 22:58 17.06.2019
6230 Thunderstorm 17 1013 82 10000 1 0 22:38 17.06.2019
6231 Thunderstorm 17 1012 68 10000 1.64 32.845 22:20 17.06.2019
6232 Clouds 18 1012 72 10000 2.1 40 21:45 17.06.2019
6233 Clouds 18 1012 72 10000 2.1 220 21:23 17.06.2019
6234 Clouds 19 1012 63 10000 1.5 20 20:40 17.06.2019
6235 Clouds 19 1011 68 10000 0.05 84.289 20:21 17.06.2019
6236 Clouds 20 1012 52 10000 3.1 10 19:57 17.06.2019
6237 Clouds 20 1012 52 10000 3.1 10 19:39 17.06.2019
6238 Clouds 20 1011 68 10000 1.5 270 19:20 17.06.2019
6239 Clouds 22 1011 56 10000 0.5 0 18:39 17.06.2019
6240 Clouds 22 1011 56 10000 0.5 0 18:18 17.06.2019
6241 Clouds 22 1011 56 10000 0.5 0 18:18 17.06.2019
6242 Clouds 21 1011 56 10000 1 0 17:48 17.06.2019
6243 Clouds 21 1011 56 10000 1 0 17:29 17.06.2019
6244 Clouds 21 1011 47 10000 5.7 280 16:59 17.06.2019
6245 Clouds 21 1011 56 10000 2.1 300 16:39 17.06.2019
6246 Thunderstorm 21 1011 60 10000 2.1 290 16:21 17.06.2019
6247 Thunderstorm 21 1012 72 10000 3.1 240 15:44 17.06.2019
6248 Thunderstorm 22 1012 88 10000 2.6 230 15:20 17.06.2019
6249 Thunderstorm 22 1012 88 10000 2.6 230 14:56 17.06.2019
6250 Thunderstorm 21 1012 82 10000 2.6 320 14:37 17.06.2019
6251 Thunderstorm 25 1012 41 10000 2.6 140 14:18 17.06.2019
6252 Thunderstorm 24 1012 68 4000 9.8 350 13:40 17.06.2019
6253 Rain 25 1011 47 10000 3.6 90 13:20 17.06.2019
6254 Rain 27 1012 47 10000 4.1 50 12:40 17.06.2019
6255 Thunderstorm 27 1012 31 10000 5.7 40 12:19 17.06.2019
6256 Thunderstorm 27 1012 31 10000 5.7 40 12:19 17.06.2019
6257 Thunderstorm 26 1012 47 10000 1 0 11:43 17.06.2019
6258 Thunderstorm 26 1012 47 10000 1 0 11:25 17.06.2019
6259 Clouds 25 1012 57 10000 2.1 190 10:48 17.06.2019
6260 Clouds 24 1012 50 10000 5.7 50 10:29 17.06.2019
6261 Clouds 23 1012 60 10000 1.5 250 09:56 17.06.2019
6262 Clouds 23 1012 60 10000 1.5 250 09:34 17.06.2019
6263 Clouds 21 1012 53 10000 4.6 50 08:55 17.06.2019
6264 Clouds 21 1012 60 10000 1 0 08:36 17.06.2019
6265 Clouds 19 1012 68 10000 1 0 08:18 17.06.2019
6266 Clouds 18 1012 77 10000 1.82 328.291 07:38 17.06.2019
6267 Clouds 17 1012 72 10000 2.1 290 07:18 17.06.2019
6268 Clouds 17 1011 77 10000 0.5 0 06:22 17.06.2019
6269 Clouds 16 1011 82 10000 2.1 5.624 05:29 17.06.2019
6270 Clouds 15 1012 82 10000 0.5 0 04:30 17.06.2019
6271 Clouds 16 1011 77 10000 1 0 03:31 17.06.2019
6272 Thunderstorm 17 1012 72 10000 1 0 02:44 17.06.2019
6273 Thunderstorm 17 1012 72 10000 1 0 02:26 17.06.2019
6274 Thunderstorm 17 1013 68 10000 1.5 0 01:36 17.06.2019
6275 Thunderstorm 17 1013 72 10000 4.6 160 00:57 17.06.2019
6276 Thunderstorm 18 1013 63 10000 5.7 170 00:37 17.06.2019
6277 Thunderstorm 18 1012 77 10000 2.1 140 00:18 17.06.2019
6278 Clear 18 1011 72 10000 1.5 260 23:39 16.06.2019
6279 Clouds 19 1012 77 10000 2.1 310 23:20 16.06.2019
6280 Clear 19 1011 68 10000 1 0 22:45 16.06.2019
6281 Clouds 20 1012 68 10000 3.6 30 22:20 16.06.2019
6282 Clouds 20 1012 68 10000 3.6 30 21:57 16.06.2019
6283 Clouds 20 1011 68 10000 1 0 21:39 16.06.2019
6284 Clouds 21 1012 64 10000 2.6 40 21:20 16.06.2019
6285 Clouds 22 1011 56 10000 4.6 40 20:40 16.06.2019
6286 Clouds 22 1011 56 10000 4.1 360 20:19 16.06.2019
6287 Clouds 23 1011 56 10000 4.1 360 19:58 16.06.2019
6288 Clouds 23 1010 53 10000 1 0 19:39 16.06.2019
6289 Clouds 24 1010 47 10000 3.1 310 19:21 16.06.2019
6290 Clouds 25 1010 50 10000 1.5 100 18:42 16.06.2019
6291 Clouds 26 1010 50 10000 1.5 100 18:21 16.06.2019
6292 Clouds 26 1010 50 10000 1.5 100 18:21 16.06.2019
6293 Thunderstorm 25 1011 50 10000 3.1 240 17:57 16.06.2019
6294 Thunderstorm 25 1010 47 10000 3.1 30 17:38 16.06.2019
6295 Thunderstorm 25 1010 47 10000 3.1 30 17:38 16.06.2019
6296 Thunderstorm 25 1010 50 10000 2.6 260 17:20 16.06.2019
6297 Thunderstorm 25 1010 50 10000 2.6 260 16:55 16.06.2019
6298 Thunderstorm 24 1010 57 10000 2.6 100 16:36 16.06.2019
6299 Thunderstorm 24 1011 53 10000 2.6 270 16:18 16.06.2019
6300 Thunderstorm 24 1011 53 10000 2.6 70 15:39 16.06.2019
6301 Rain 24 1011 56 10000 2.6 260 15:20 16.06.2019
6302 Rain 24 1011 56 10000 2.6 260 15:20 16.06.2019
6303 Thunderstorm 24 1012 47 10000 2.1 300 14:39 16.06.2019
6304 Thunderstorm 24 1011 47 10000 3.1 250 14:20 16.06.2019
6305 Rain 23 1012 50 10000 3.6 240 13:48 16.06.2019
6306 Rain 24 1012 50 10000 3.6 240 13:25 16.06.2019
6307 Thunderstorm 23 1012 57 10000 2.6 300 12:46 16.06.2019
6308 Thunderstorm 23 1012 57 10000 2.6 300 12:46 16.06.2019
6309 Thunderstorm 23 1012 57 10000 2.6 300 12:23 16.06.2019
6310 Thunderstorm 23 1012 57 10000 2.6 300 12:23 16.06.2019
6311 Clouds 23 1012 64 10000 3.1 290 11:59 16.06.2019
6312 Clouds 23 1013 64 10000 2.6 280 11:38 16.06.2019
6313 Rain 22 1012 60 10000 3.6 260 11:19 16.06.2019
6314 Clouds 22 1013 68 10000 3.1 260 10:45 16.06.2019
6315 Clouds 21 1013 64 10000 1.5 0 10:20 16.06.2019
6316 Clouds 20 1012 72 10000 1 0 09:43 16.06.2019
6317 Clouds 20 1012 72 10000 1 0 09:24 16.06.2019
6318 Clouds 19 1013 64 10000 1 0 08:50 16.06.2019
6319 Clouds 19 1012 72 10000 1 0 08:21 16.06.2019
6320 Clouds 18 1012 72 10000 1.68 4.529 07:49 16.06.2019
6321 Clouds 18 1012 72 10000 1.68 4.529 07:31 16.06.2019
6322 Clouds 17 1012 82 10000 2.1 360 06:55 16.06.2019
6323 Clouds 16 1012 87 10000 1 0 06:20 16.06.2019
6324 Clouds 15 1012 93 10000 0.5 0 05:26 16.06.2019
6325 Clouds 15 1012 93 10000 1.98 10.525 04:26 16.06.2019
6326 Rain 15 1012 87 10000 1 0 03:43 16.06.2019
6327 Rain 15 1012 87 10000 1 0 03:23 16.06.2019
6328 Rain 16 1012 93 10000 2.1 310 01:51 16.06.2019
6329 Rain 16 1012 87 10000 1.5 230 01:33 16.06.2019
6330 Rain 16 1012 87 10000 3.6 20 00:49 16.06.2019
6331 Rain 16 1012 87 10000 3.6 20 00:26 16.06.2019
6332 Thunderstorm 16 1013 87 10000 3.1 50 23:59 15.06.2019
6333 Thunderstorm 16 1013 82 10000 2.6 110 23:39 15.06.2019
6334 Thunderstorm 17 1013 87 10000 2.1 310 23:20 15.06.2019
6335 Rain 17 1013 82 10000 5.1 60 22:48 15.06.2019
6336 Rain 17 1013 82 10000 5.1 60 22:26 15.06.2019
6337 Rain 17 1013 82 10000 5.1 60 22:26 15.06.2019
6338 Rain 18 1013 68 10000 4.1 50 21:45 15.06.2019
6339 Rain 18 1013 68 10000 4.1 50 21:21 15.06.2019
6340 Thunderstorm 18 1012 77 10000 1.5 190 20:46 15.06.2019
6341 Thunderstorm 19 1012 77 10000 1.5 190 20:23 15.06.2019
6342 Clouds 19 1012 77 10000 3.1 310 19:53 15.06.2019
6343 Thunderstorm 19 1012 77 10000 3.1 270 19:29 15.06.2019
6344 Thunderstorm 19 1012 72 8000 8.2 340 18:59 15.06.2019
6345 Clouds 20 1011 82 10000 3.6 230 18:37 15.06.2019
6346 Thunderstorm 21 1011 41 10000 3.1 70 18:18 15.06.2019
6347 Thunderstorm 21 1011 41 10000 3.1 70 18:18 15.06.2019
6348 Thunderstorm 21 1011 82 10000 4.6 270 17:40 15.06.2019
6349 Thunderstorm 22 1011 41 10000 4.6 80 17:21 15.06.2019
6350 Thunderstorm 23 1010 64 10000 2.1 240 16:44 15.06.2019
6351 Thunderstorm 24 1011 47 10000 2.6 290 16:18 15.06.2019
6352 Thunderstorm 24 1011 47 10000 2.6 290 15:41 15.06.2019
6353 Thunderstorm 25 1011 47 10000 2.6 290 15:21 15.06.2019
6354 Clouds 26 1011 47 10000 4.1 210 14:39 15.06.2019
6355 Clouds 25 1012 41 10000 5.1 50 14:18 15.06.2019
6356 Clouds 25 1012 47 10000 2.6 160 13:44 15.06.2019
6357 Clouds 24 1013 47 10000 3.6 60 13:21 15.06.2019
6358 Clouds 24 1013 47 10000 3.6 60 12:59 15.06.2019
6359 Clouds 24 1012 47 10000 2.6 260 12:40 15.06.2019
6360 Clouds 24 1013 53 10000 3.1 40 12:21 15.06.2019
6361 Clouds 23 1014 56 10000 2.1 0 11:45 15.06.2019
6362 Clouds 23 1014 56 10000 2.1 0 11:45 15.06.2019
6363 Clouds 22 1014 56 10000 2.1 0 11:27 15.06.2019
6364 Clouds 22 1013 53 10000 1.5 0 10:43 15.06.2019
6365 Clouds 22 1013 53 10000 1.5 0 10:25 15.06.2019
6366 Clouds 20 1014 60 10000 1.5 230 09:48 15.06.2019
6367 Clouds 20 1014 60 10000 1.5 230 09:26 15.06.2019
6368 Clouds 19 1014 63 10000 4.1 50 08:54 15.06.2019
6369 Clouds 19 1014 63 10000 4.1 50 08:54 15.06.2019
6370 Clouds 19 1014 68 10000 1.5 230 08:34 15.06.2019
6371 Clouds 18 1014 63 10000 2.6 50 07:58 15.06.2019
6372 Clouds 17 1013 72 10000 0.5 0 07:25 15.06.2019
6373 Clouds 17 1013 77 10000 1 0 06:48 15.06.2019
6374 Clouds 17 1013 77 10000 1 0 06:20 15.06.2019
6375 Clouds 15 1013 82 10000 1.5 210 05:29 15.06.2019
6376 Clear 15 1013 77 10000 2.12 17.957 04:49 15.06.2019
6377 Clouds 15 1013 82 10000 0.5 0 04:49 15.06.2019
6378 Clear 15 1013 82 10000 1 230 03:50 15.06.2019
6379 Clear 16 1013 82 10000 2.1 360 03:19 15.06.2019
6380 Clear 16 1013 77 10000 1 0 02:23 15.06.2019
6381 Clear 16 1014 77 10000 1 220 01:50 15.06.2019
6382 Clouds 16 1014 72 10000 2.1 20 01:18 15.06.2019
6383 Clear 16 1014 77 10000 1.5 220 00:40 15.06.2019
6384 Clouds 17 1015 77 10000 1.5 270 23:55 14.06.2019
6385 Clouds 17 1014 68 10000 1.5 230 23:27 14.06.2019
6386 Clouds 17 1014 68 10000 1.5 230 23:27 14.06.2019
6387 Clouds 18 1015 77 10000 2.6 320 22:57 14.06.2019
6388 Clear 18 1015 68 10000 2.6 20 22:39 14.06.2019
6389 Clouds 18 1015 72 10000 2.1 20 22:19 14.06.2019
6390 Clouds 19 1014 56 10000 2.6 70 21:41 14.06.2019
6391 Clouds 19 1014 56 10000 2.6 70 21:23 14.06.2019
6392 Clouds 20 1014 49 10000 1.5 80 20:43 14.06.2019
6393 Clouds 20 1014 52 10000 4.1 30 20:19 14.06.2019
6394 Clouds 20 1014 52 10000 4.1 30 19:57 14.06.2019
6395 Clouds 21 1014 49 10000 2.1 0 19:37 14.06.2019
6396 Clouds 21 1014 46 10000 5.7 360 19:18 14.06.2019
6397 Clouds 22 1013 43 10000 3.6 340 18:43 14.06.2019
6398 Clouds 22 1013 43 10000 3.6 340 18:25 14.06.2019
6399 Clouds 22 1013 43 10000 3.6 340 18:25 14.06.2019
6400 Rain 22 1014 43 10000 1 0 17:57 14.06.2019
6401 Thunderstorm 22 1013 68 10000 4.6 10 17:39 14.06.2019
6402 Thunderstorm 22 1013 49 10000 4.1 30 17:19 14.06.2019
6403 Rain 22 1012 53 10000 10.3 60 16:46 14.06.2019
6404 Thunderstorm 24 1012 36 10000 4.6 30 16:21 14.06.2019
6405 Thunderstorm 25 1012 36 10000 4.6 30 15:57 14.06.2019
6406 Clouds 26 1012 39 10000 2.1 30 15:38 14.06.2019
6407 Clouds 27 1013 34 10000 2.6 0 15:18 14.06.2019
6408 Clouds 27 1014 34 10000 3.1 20 14:40 14.06.2019
6409 Clouds 26 1014 34 10000 3.1 20 14:21 14.06.2019
6410 Clouds 26 1014 34 10000 2.6 310 13:44 14.06.2019
6411 Clouds 26 1014 34 10000 2.6 310 13:25 14.06.2019
6412 Clouds 26 1014 41 10000 1.5 20 12:48 14.06.2019
6413 -273 0 0 0 0 0 12:27 14.06.2019
6414 Clouds 24 1015 40 10000 3.1 30 11:59 14.06.2019
6415 Clouds 24 1015 44 10000 2.1 0 11:41 14.06.2019
6416 Clouds 24 1015 44 10000 2.1 0 11:22 14.06.2019
6417 Clouds 23 1015 46 10000 2.6 0 10:45 14.06.2019
6418 Clouds 22 1016 46 10000 2.6 10 10:20 14.06.2019
6419 Clouds 22 1015 49 10000 2.1 0 09:48 14.06.2019
6420 Clouds 22 1015 49 10000 2.1 0 09:25 14.06.2019
6421 Clear 20 1015 60 10000 0.5 340 08:47 14.06.2019
6422 Clouds 19 1016 67 10000 1.5 220 08:20 14.06.2019
6423 Clouds 18 1016 67 10000 1.5 220 07:52 14.06.2019
6424 Clouds 18 1016 67 10000 1.5 220 07:52 14.06.2019
6425 Clouds 16 1016 82 10000 2.1 300 07:22 14.06.2019
6426 Clear 16 1015 77 10000 0.5 0 06:48 14.06.2019
6427 Clouds 13 1016 87 10000 1.5 90 05:58 14.06.2019
6428 Clear 13 1015 87 10000 1.5 220 05:33 14.06.2019
6429 Clear 13 1015 76 10000 1.58 9.063 04:48 14.06.2019
6430 Clouds 13 1015 87 10000 2.1 60 03:59 14.06.2019
6431 Clear 14 1014 82 10000 1.5 0 03:26 14.06.2019
6432 Clouds 14 1015 82 10000 1.29 7.147 02:58 14.06.2019
6433 Clear 14 1015 82 10000 1 0 02:28 14.06.2019
6434 Clear 14 1015 82 10000 1 0 02:28 14.06.2019
6435 Clear 14 1015 82 10000 1 0 02:28 14.06.2019
6436 Clear 15 1015 77 10000 1.5 230 01:26 14.06.2019
6437 Clear 15 1016 68 10000 2.1 210 00:36 14.06.2019
6438 Clouds 16 1016 59 10000 1.5 310 00:18 14.06.2019
6439 Clear 17 1016 63 10000 1 0 23:47 13.06.2019
6440 Clear 17 1016 63 10000 1 0 23:22 13.06.2019
6441 Clear 18 1015 56 10000 1 150 22:40 13.06.2019
6442 Clear 18 1015 56 10000 1 150 22:22 13.06.2019
6443 Clouds 19 1016 67 10000 3.1 10 21:56 13.06.2019
6444 Clear 19 1015 52 10000 3.1 350 21:36 13.06.2019
6445 Clouds 19 1016 59 10000 4.1 50 21:18 13.06.2019
6446 Clouds 20 1014 64 10000 1.5 280 20:42 13.06.2019
6447 Clouds 21 1015 49 10000 4.1 10 20:20 13.06.2019
6448 Clouds 22 1014 60 10000 1 0 19:43 13.06.2019
6449 Clouds 21 1014 60 10000 1 0 19:24 13.06.2019
6450 Clouds 23 1014 64 10000 2.6 120 18:58 13.06.2019
6451 Clouds 22 1014 64 10000 2.6 120 18:40 13.06.2019
6452 Rain 24 1014 46 10000 5.1 50 18:21 13.06.2019
6453 Rain 24 1013 39 10000 5.1 360 17:44 13.06.2019
6454 Rain 23 1014 53 10000 3.1 60 17:21 13.06.2019
6455 Thunderstorm 24 1014 53 10000 3.1 60 16:56 13.06.2019
6456 Clouds 23 1013 60 10000 2.6 130 16:36 13.06.2019
6457 Clouds 22 1014 60 10000 3.6 50 16:18 13.06.2019
6458 Clouds 22 1013 64 10000 4.6 250 15:40 13.06.2019
6459 Rain 21 1014 60 10000 5.1 320 15:19 13.06.2019
6460 Thunderstorm 21 1014 68 10000 5.1 300 14:49 13.06.2019
6461 Thunderstorm 21 1014 68 10000 5.1 300 14:49 13.06.2019
6462 Thunderstorm 21 1014 68 10000 5.1 300 14:30 13.06.2019
6463 Rain 25 1014 50 10000 6.7 330 13:47 13.06.2019
6464 Thunderstorm 26 1014 50 10000 4.6 280 13:22 13.06.2019
6465 Thunderstorm 25 1014 50 10000 4.6 280 12:59 13.06.2019
6466 Clouds 26 1014 44 10000 3.1 210 12:39 13.06.2019
6467 Clouds 25 1015 41 10000 3.6 20 12:21 13.06.2019
6468 Clouds 25 1014 47 10000 2.6 320 11:44 13.06.2019
6469 Clouds 24 1015 46 10000 1.5 350 11:25 13.06.2019
6470 Clouds 23 1015 53 10000 1 0 10:48 13.06.2019
6471 Clouds 23 1015 53 10000 1 0 10:29 13.06.2019
6472 Clouds 21 1015 56 10000 1.5 210 09:53 13.06.2019
6473 Clouds 21 1015 56 10000 1.5 210 09:31 13.06.2019
6474 Clear 19 1015 72 10000 1.5 290 08:56 13.06.2019
6475 Clear 19 1015 72 10000 1.5 290 08:56 13.06.2019
6476 Clouds 19 1015 56 10000 1 0 08:56 13.06.2019
6477 Clear 19 1015 72 10000 1.5 290 08:56 13.06.2019
6478 Clear 19 1015 72 10000 1.5 290 08:38 13.06.2019
6479 Clouds 17 1015 77 10000 1.5 230 08:19 13.06.2019
6480 Clear 17 1014 72 10000 2.6 290 07:39 13.06.2019
6481 Clouds 16 1014 82 10000 1 0 07:19 13.06.2019
6482 Clear 15 1014 82 10000 0.5 0 06:40 13.06.2019
6483 Clouds 14 1014 87 10000 0.5 0 06:21 13.06.2019
6484 Clear 14 1014 87 10000 0.5 0 05:39 13.06.2019
6485 Clouds 14 1014 87 10000 1 0 05:19 13.06.2019
6486 Clear 14 1013 82 10000 2.1 260 03:49 13.06.2019
6487 Clouds 15 1014 87 10000 1 300 01:59 13.06.2019
6488 Clear 16 1014 77 10000 1 0 00:32 13.06.2019
6489 Clear 17 1013 72 10000 1.5 190 23:38 12.06.2019
6490 Clear 17 1013 72 10000 1.5 190 23:38 12.06.2019
6491 Clouds 17 1014 82 10000 2.6 300 23:19 12.06.2019
6492 Clear 17 1013 72 10000 2.1 280 22:41 12.06.2019
6493 Clouds 17 1014 82 10000 1.5 230 22:21 12.06.2019
6494 Clouds 17 1013 72 10000 3.1 290 21:46 12.06.2019
6495 Clouds 17 1013 72 10000 3.1 290 21:28 12.06.2019
6496 Clouds 18 1012 63 10000 2.1 230 20:49 12.06.2019
6497 Clouds 18 1012 63 10000 2.1 230 20:30 12.06.2019
6498 Thunderstorm 19 1013 72 10000 1 0 19:58 12.06.2019
6499 Thunderstorm 19 1012 60 10000 1 210 19:39 12.06.2019
6500 Thunderstorm 19 1012 60 10000 1 210 19:21 12.06.2019
6501 Clouds 20 1012 56 10000 3.1 330 18:48 12.06.2019
6502 Clouds 20 1012 56 10000 3.1 330 18:28 12.06.2019
6503 Clouds 21 1012 53 10000 4.1 310 17:48 12.06.2019
6504 Thunderstorm 22 1012 60 10000 3.6 250 17:23 12.06.2019
6505 Thunderstorm 22 1012 60 10000 3.6 250 16:57 12.06.2019
6506 Thunderstorm 22 1012 53 10000 4.1 280 16:37 12.06.2019
6507 Thunderstorm 22 1012 60 10000 3.6 260 16:19 12.06.2019
6508 Clouds 22 1012 56 10000 7.2 260 15:46 12.06.2019
6509 Clouds 23 1012 53 10000 0.5 0 15:25 12.06.2019
6510 Clouds 22 1012 49 10000 3.6 250 14:36 12.06.2019
6511 Rain 23 1012 56 10000 1.5 260 14:18 12.06.2019
6512 Clouds 23 1012 47 10000 2.6 230 13:41 12.06.2019
6513 Clouds 23 1012 49 10000 2.1 0 13:19 12.06.2019
6514 Clouds 22 1013 56 10000 1.5 240 12:56 12.06.2019
6515 Clouds 22 1012 49 10000 2.1 0 12:37 12.06.2019
6516 Clouds 21 1013 56 10000 1.5 320 12:18 12.06.2019
6517 -273 0 0 0 0 0 11:43 12.06.2019
6518 Clouds 21 1013 53 10000 2.1 280 11:25 12.06.2019
6519 Clouds 21 1013 56 10000 3.1 0 10:46 12.06.2019
6520 Clouds 21 1013 63 10000 1 0 10:21 12.06.2019
6521 Clouds 21 1012 56 10000 1 0 09:43 12.06.2019
6522 Clouds 21 1012 56 10000 1 0 09:43 12.06.2019
6523 Clouds 20 1012 56 10000 1 0 09:23 12.06.2019
6524 Clouds 19 1013 63 10000 1.5 260 08:46 12.06.2019
6525 Clouds 18 1013 63 10000 1.5 260 08:20 12.06.2019
6526 Clouds 17 1013 68 10000 3.1 260 07:37 12.06.2019
6527 Clouds 16 1012 77 10000 1.5 220 06:43 12.06.2019
6528 Clouds 15 1012 72 9000 1 220 05:27 12.06.2019
6529 Clouds 15 1012 82 10000 0.5 0 03:55 12.06.2019
6530 Clouds 16 1012 72 10000 1 0 01:26 12.06.2019
6531 Clouds 16 1012 72 10000 2.1 290 00:38 12.06.2019
6532 Clouds 16 1012 72 10000 2.6 280 23:45 11.06.2019
6533 Clouds 16 1012 72 10000 2.6 280 23:27 11.06.2019
6534 Rain 17 1013 63 10000 3.1 240 22:43 11.06.2019
6535 Rain 17 1013 77 10000 4.6 320 22:19 11.06.2019
6536 Rain 17 1013 77 10000 4.6 320 21:57 11.06.2019
6537 Clouds 17 1013 72 10000 2.6 10 21:38 11.06.2019
6538 Clouds 18 1014 67 10000 3.1 340 21:19 11.06.2019
6539 Clouds 18 1013 56 10000 3.6 280 20:48 11.06.2019
6540 Clouds 19 1013 56 10000 3.6 280 20:25 11.06.2019
6541 Clouds 19 1013 56 10000 3.6 280 20:25 11.06.2019
6542 Clouds 19 1013 72 10000 3.1 270 19:54 11.06.2019
6543 Clouds 19 1013 60 10000 1 0 19:32 11.06.2019
6544 Clouds 19 1011 72 10000 5.7 80 18:56 11.06.2019
6545 Thunderstorm 19 1012 68 10000 3.6 0 18:21 11.06.2019
6546 Thunderstorm 19 1011 59 10000 4.6 60 17:42 11.06.2019
6547 Thunderstorm 19 1011 59 10000 4.6 60 17:22 11.06.2019
6548 Rain 21 1012 49 10000 7.2 10 16:56 11.06.2019
6549 Rain 22 1010 39 10000 7.7 30 16:37 11.06.2019
6550 Thunderstorm 24 1011 59 6000 8.7 30 16:19 11.06.2019
6551 Thunderstorm 27 1010 41 10000 7.7 360 15:42 11.06.2019
6552 Thunderstorm 27 1010 41 10000 7.7 360 15:22 11.06.2019
6553 Clouds 28 1009 34 10000 3.1 240 14:47 11.06.2019
6554 Clouds 27 1009 34 10000 3.1 240 14:21 11.06.2019
6555 Clouds 27 1011 34 10000 4.1 280 13:51 11.06.2019
6556 Clouds 26 1011 34 10000 3.6 280 13:24 11.06.2019
6557 Clouds 26 1011 33 10000 4.1 290 12:55 11.06.2019
6558 Clouds 26 1011 33 10000 4.1 290 12:55 11.06.2019
6559 Clouds 25 1012 41 10000 3.6 290 12:37 11.06.2019
6560 Clouds 24 1012 44 10000 1 0 12:18 11.06.2019
6561 Clouds 24 1012 47 10000 1.5 180 11:39 11.06.2019
6562 Clouds 24 1012 49 10000 1 0 11:19 11.06.2019
6563 Clouds 23 1012 49 10000 1.5 0 10:45 11.06.2019
6564 Clouds 23 1012 49 10000 1.5 0 10:25 11.06.2019
6565 Clouds 21 1012 56 10000 1.5 0 09:48 11.06.2019
6566 Clouds 21 1012 56 10000 1.5 0 09:24 11.06.2019
6567 Clouds 21 1012 56 10000 1.5 0 09:24 11.06.2019
6568 Clouds 18 1012 68 10000 1 0 08:45 11.06.2019
6569 Clouds 18 1012 68 10000 1 0 08:25 11.06.2019
6570 Clouds 18 1012 77 10000 1 0 07:38 11.06.2019
6571 Clouds 17 1012 77 10000 0.5 0 06:56 11.06.2019
6572 Clouds 16 1011 77 10000 2.1 200 06:30 11.06.2019
6573 Clouds 16 1011 82 10000 0.5 0 04:54 11.06.2019
6574 Clouds 16 1011 72 10000 3.1 100 03:42 11.06.2019
6575 Clouds 17 1013 68 10000 2.1 0 01:33 11.06.2019
6576 Clouds 17 1014 68 10000 3.1 280 00:46 11.06.2019
6577 Rain 18 1015 72 10000 6.7 200 23:47 10.06.2019
6578 Rain 18 1015 72 10000 6.7 200 23:25 10.06.2019
6579 Clouds 18 1015 72 10000 7.2 190 22:55 10.06.2019
6580 Rain 19 1014 64 10000 7.2 220 22:37 10.06.2019
6581 Rain 19 1014 64 10000 7.2 220 22:37 10.06.2019
6582 Clouds 20 1011 63 10000 5.7 10 22:19 10.06.2019
6583 Clouds 21 1011 60 10000 1 180 21:40 10.06.2019
6584 Clouds 21 1011 60 10000 1 180 21:22 10.06.2019
6585 Clouds 20 1010 68 10000 4.6 60 20:46 10.06.2019
6586 Clouds 20 1010 68 10000 4.6 60 20:24 10.06.2019
6587 Thunderstorm 21 1011 77 10000 2.6 170 19:55 10.06.2019
6588 Thunderstorm 21 1011 43 10000 3.6 230 19:36 10.06.2019
6589 Thunderstorm 22 1011 53 10000 6.2 100 19:18 10.06.2019
6590 Thunderstorm 22 1011 53 10000 6.2 100 18:54 10.06.2019
6591 Thunderstorm 23 1012 56 6000 10.3 170 18:36 10.06.2019
6592 Thunderstorm 25 1009 50 10000 6.7 30 18:18 10.06.2019
6593 Thunderstorm 25 1010 47 10000 3.6 240 17:39 10.06.2019
6594 Clouds 26 1011 50 10000 5.7 80 17:19 10.06.2019
6595 Clouds 27 1010 44 10000 2.1 80 16:42 10.06.2019
6596 Clouds 27 1010 44 10000 2.1 80 16:24 10.06.2019
6597 Clouds 27 1012 37 10000 1.5 20 15:42 10.06.2019
6598 Clouds 27 1012 37 10000 1.5 20 15:24 10.06.2019
6599 Clouds 27 1012 44 10000 4.6 20 14:55 10.06.2019
6600 Clouds 27 1011 39 10000 2.6 0 14:36 10.06.2019
6601 Clouds 27 1013 47 10000 3.6 340 14:18 10.06.2019
6602 Clouds 26 1012 44 10000 3.1 60 13:42 10.06.2019
6603 Clouds 26 1013 53 10000 2.1 50 13:21 10.06.2019
6604 Clouds 25 1013 53 10000 2.6 80 12:43 10.06.2019
6605 Clouds 25 1013 53 10000 2.6 80 12:25 10.06.2019
6606 Clouds 24 1013 50 10000 3.1 90 11:44 10.06.2019
6607 Clouds 24 1013 50 10000 3.1 90 11:26 10.06.2019
6608 Clouds 23 1014 56 10000 2.6 50 10:43 10.06.2019
6609 Clouds 23 1014 56 10000 2.6 50 10:21 10.06.2019
6610 Clouds 22 1015 56 10000 5.1 60 09:57 10.06.2019
6611 Clouds 22 1014 64 10000 4.1 50 09:38 10.06.2019
6612 Clouds 21 1015 64 10000 6.2 70 09:19 10.06.2019
6613 Clear 20 1015 68 10000 4.1 90 08:45 10.06.2019
6614 Clear 20 1015 68 10000 4.1 90 08:25 10.06.2019
6615 Clear 18 1015 72 10000 1.5 0 07:20 10.06.2019
6616 Clear 14 1015 93 10000 0.5 0 04:29 10.06.2019
6617 Clouds 16 1015 87 10000 1.5 340 01:59 10.06.2019
6618 Clouds 16 1014 77 10000 2.6 80 01:26 10.06.2019
6619 Rain 16 1015 87 10000 3.6 10 00:56 10.06.2019
6620 Rain 16 1017 82 10000 2.1 280 00:19 10.06.2019
6621 Rain 16 1017 88 10000 1 0 23:42 09.06.2019
6622 Rain 16 1018 88 10000 2.1 130 23:19 09.06.2019
6623 Rain 16 1017 82 10000 1.5 220 22:44 09.06.2019
6624 Rain 16 1017 82 10000 1.5 220 22:25 09.06.2019
6625 Rain 16 1017 88 10000 3.6 90 21:45 09.06.2019
6626 Rain 16 1017 88 10000 3.6 90 21:23 09.06.2019
6627 Rain 16 1018 77 10000 2.6 30 20:43 09.06.2019
6628 Rain 16 1018 77 10000 2.6 30 20:23 09.06.2019
6629 Rain 16 1018 88 10000 3.6 60 19:48 09.06.2019
6630 Rain 16 1018 88 10000 3.1 80 19:19 09.06.2019
6631 Rain 16 1018 88 10000 3.1 80 19:19 09.06.2019
6632 Rain 17 1018 88 10000 3.1 80 18:59 09.06.2019
6633 Rain 17 1017 77 10000 4.1 320 18:41 09.06.2019
6634 Thunderstorm 18 1016 49 10000 7.7 230 18:23 09.06.2019
6635 Thunderstorm 19 1018 88 10000 5.7 170 17:47 09.06.2019
6636 Thunderstorm 20 1018 88 10000 5.7 170 17:27 09.06.2019
6637 Thunderstorm 20 1015 77 8000 6.2 320 16:55 09.06.2019
6638 Thunderstorm 20 1015 82 10000 10.8 290 16:36 09.06.2019
6639 Thunderstorm 22 1016 93 4000 14.9 250 16:18 09.06.2019
6640 Thunderstorm 25 1014 36 10000 9.8 20 15:44 09.06.2019
6641 Thunderstorm 25 1014 36 10000 9.8 20 15:26 09.06.2019
6642 Clouds 28 1015 41 10000 9.3 330 14:46 09.06.2019
6643 Clouds 28 1015 41 10000 9.3 330 14:26 09.06.2019
6644 Clouds 29 1016 26 10000 4.6 80 13:56 09.06.2019
6645 Clouds 28 1015 34 10000 2.1 360 13:35 09.06.2019
6646 Clouds 28 1015 32 10000 2.6 10 12:43 09.06.2019
6647 Clouds 27 1017 36 10000 5.7 70 12:25 09.06.2019
6648 Clouds 27 1016 37 10000 3.6 60 11:46 09.06.2019
6649 Clouds 27 1016 37 10000 3.6 60 11:28 09.06.2019
6650 Clouds 26 1017 39 10000 3.6 100 10:46 09.06.2019
6651 Clouds 26 1017 39 10000 3.6 100 10:46 09.06.2019
6652 Clouds 26 1017 39 10000 3.6 100 10:23 09.06.2019
6653 Clouds 26 1017 39 10000 3.6 100 10:23 09.06.2019
6654 Clouds 24 1017 47 10000 2.1 0 09:41 09.06.2019
6655 Clear 23 1018 46 10000 6.2 10 09:22 09.06.2019
6656 Clear 23 1018 46 10000 6.2 10 08:53 09.06.2019
6657 Clouds 22 1017 49 10000 3.1 50 08:34 09.06.2019
6658 Clouds 21 1018 56 10000 4.1 70 07:27 09.06.2019
6659 Clear 19 1018 64 10000 0.5 0 06:30 09.06.2019
6660 Clear 17 1018 68 10000 3.1 80 05:28 09.06.2019
6661 Clear 17 1018 68 10000 3.1 80 05:28 09.06.2019
6662 Clear 18 1017 60 10000 2.1 40 01:46 09.06.2019
6663 Clear 18 1017 60 10000 2.1 40 01:22 09.06.2019
6664 Clear 18 1017 60 10000 2.1 40 01:21 09.06.2019
6665 Clear 19 1019 72 10000 2.1 350 00:59 09.06.2019
6666 Clouds 20 1019 63 10000 3.6 30 23:56 08.06.2019
6667 Clear 20 1018 60 10000 1.5 0 23:38 08.06.2019
6668 Clouds 20 1019 63 10000 3.6 30 23:19 08.06.2019
6669 Clear 21 1018 47 10000 1 0 22:42 08.06.2019
6670 Clear 22 1018 47 10000 1 0 22:23 08.06.2019
6671 Clouds 22 1018 56 10000 4.6 30 21:52 08.06.2019
6672 Clear 23 1017 41 10000 3.1 10 21:29 08.06.2019
6673 Clouds 23 1018 49 10000 4.1 30 20:59 08.06.2019
6674 Clouds 24 1016 36 10000 3.1 10 20:40 08.06.2019
6675 Clouds 25 1017 41 10000 4.1 360 20:20 08.06.2019
6676 Clouds 26 1016 34 10000 5.1 50 19:41 08.06.2019
6677 Clouds 28 1017 34 10000 4.1 20 19:20 08.06.2019
6678 Clouds 28 1017 34 10000 4.1 20 18:57 08.06.2019
6679 Clouds 28 1016 35 10000 5.1 50 18:36 08.06.2019
6680 Clouds 28 1017 32 10000 5.1 40 17:59 08.06.2019
6681 Clouds 28 1015 25 10000 4.6 280 17:39 08.06.2019
6682 Clouds 29 1017 32 10000 6.2 70 17:18 08.06.2019
6683 Clouds 29 1017 32 10000 6.2 70 17:18 08.06.2019
6684 Clouds 29 1016 25 10000 2.6 0 16:44 08.06.2019
6685 Clouds 29 1017 28 10000